Gwinnett County Detention Center

Sorted by Date of Admission

Public Information - 14 Day Docket Book

This document lists the most recent admissions to the Gwinnett County Detention Center This information is presented in Date order, beginning with the most recent admissions. Line items are by charge so you will see name and address information duplicated for each charge on an individual's booking. If the charge is blank the individual is in the booking process and has not had any charge(s) added yet. Bond amounts that are 0 or blank indicate that the individual has not been granted a bond on that individual charge. This data is live and constantly being updated. Each time you check the information, the data may be different. New inmates are constantly added, and you will find names and information will often change as inmate identities are verified and updated. I.E. if you run this report on two different occasions it will not be surprising for you to find differences in the two reports.
Admission Date Release Date Last Name First Name Middle Name Original Offender ID Offender ID Address Charge Bond Bond Type Arresting Agency Charges/Photo
11/27/2014 11:51FLOURNOYDEJAUNAAREIL9951350399513503 4370 SATELLITE BLVD APT 1201, DULUTH GA 30096* CRIMINAL TRESPASS$5700SBGwinnett County PoliceCharges
11/27/2014 11:51FLOURNOYDEJAUNAAREIL9951350399513503 4370 SATELLITE BLVD APT 1201, DULUTH GA 30096@ * SIMPLE BATTERY$5700SBGwinnett County PoliceCharges
11/27/2014 11:15KAWCZAKMELISSAMARY9951762099517620 1070 PRESIDENTS LN, LAWRENCEVILLE GA 30043EXPIRED OR NO LICENSE ON PERSON$393SBLawrenceville PoliceCharges
11/27/2014 11:07CANNONBOBBY9950289599502895 3193 WASHINGTON RD, ATLANTA GA 30344* VIOLATION OF PROBATION$0NBGwinnett County SheriffCharges
11/27/2014 11:06MILLINGCHRISTOPHERBRENTON9951761999517619 4018 BROOKS MILL DR, LITHONIA GA 30038FAILURE TO APPEAR$145CBGwinnett County SheriffCharges
11/27/2014 10:55SALINASALFREDO9908352299083522 812 TWIN SPRINGS TRL, NORCROSS GA 30093$Gwinnett County PoliceCharges
11/27/2014 10:23HERNANDEZRAUL9944052399440523 6349 DANBURY LN, NORCROSS GA 30093* DUI - DRUGS/ALCOHOL$0NBGwinnett County SheriffCharges
11/27/2014 10:23HERNANDEZRAUL9944052399440523 6349 DANBURY LN, NORCROSS GA 30093HOLD FOR IMMIGRATION$0NBGwinnett County SheriffCharges
11/27/2014 10:14ELVIRMISAEL9951761899517618APT A-6 6259 S NORCROSS TUCKER RD, DULUTH GA 30084*NO DRIVERS LICENSE$705SBGwinnett County PoliceCharges
11/27/2014 10:14ELVIRMISAEL9951761899517618APT A-6 6259 S NORCROSS TUCKER RD, DULUTH GA 30084FAILURE TO OBEY TRAFFIC DEVICE$56SBGwinnett County PoliceCharges
11/27/2014 09:20PRITCHETTLADONNAJACQUELINE9946880499468804 6240 SEXTON RD, CUMMING GA 30028FAILURE TO APPEAR$0NBGwinnett County SheriffCharges
11/27/2014 08:47GAZAWAYJAMESOLIN89006328900632 .842 BRANDON DR, WINDER GA 30680* VIOLATION OF PROBATION$0NBGwinnett County SheriffCharges
11/27/2014 05:02DRIVERJAKIMENOCH9950700199507001APT B 5448 BISHOPS CIR, NORCROSS GA 30093FAILURE TO APPEAR$0NBGwinnett County SheriffCharges
11/27/2014 04:4511/27/2014 09:23LOPEZ-LOPEZEDVINWALDERMAR9951761799517617 3203 WINDSCAPE VILLAGE LN APT F, NORCROSS GA 30093TAIL LIGHT REQUIREMENTS$110CBNorcross PoliceCharges
11/27/2014 04:4511/27/2014 09:23LOPEZ-LOPEZEDVINWALDERMAR9951761799517617 3203 WINDSCAPE VILLAGE LN APT F, NORCROSS GA 30093*NO VALID LICENSE$860CBNorcross PoliceCharges
11/27/2014 04:4311/27/2014 12:29VILLATORO-ORDONEZJAVIER9951761699517616 1410 WILLOW TRAIL DR, PEACHTREE CORNERS GA 30093FAILURE TO MAINTAIN LANE$210CBNorcross PoliceCharges
11/27/2014 04:4311/27/2014 12:29VILLATORO-ORDONEZJAVIER9951761699517616 1410 WILLOW TRAIL DR, PEACHTREE CORNERS GA 30093*NO VALID LICENSE$860CBNorcross PoliceCharges
11/27/2014 03:2511/27/2014 08:25MCCLAINCAMERONDEON9941602399416023 1768 ARBOR GATE DR, LAWRENCEVILLE GA 30044* DRIVING WHILE LIC SUSP/REVOKED$705SBGwinnett County PoliceCharges
11/27/2014 03:03WILLIAMSBRANDIENICOLE9951761599517615 1355 CONE CIR, GRAYSON GA 30017HOLD FOR OTHER AGENCY$0NBSnellville PoliceCharges
11/27/2014 03:03WILLIAMSBRANDIENICOLE9951761599517615 1355 CONE CIR, GRAYSON GA 30017CONTEMPT OF COURT$125CBSnellville PoliceCharges
11/27/2014 03:03WILLIAMSBRANDIENICOLE9951761599517615 1355 CONE CIR, GRAYSON GA 30017CONTEMPT OF COURT$125CBSnellville PoliceCharges
11/27/2014 02:49KILLINGSCHRISTOPHERNORRIS9929193499291934 1228 SANTA ANNA DR APT B, NORCROSS GA 30093* GIVING FALSE NAME OR INFORMATION$2950SBGwinnett County PoliceCharges
11/27/2014 02:49KILLINGSCHRISTOPHERNORRIS9929193499291934 1228 SANTA ANNA DR APT B, NORCROSS GA 30093* CRIMINAL TRESPASS$2950SBGwinnett County PoliceCharges
11/27/2014 02:49KILLINGSCHRISTOPHERNORRIS9929193499291934 1228 SANTA ANNA DR APT B, NORCROSS GA 30093* VIOLATION OF PROBATION$0NBGwinnett County PoliceCharges
11/27/2014 02:13CLADINOSNADINEELAINE9950875699508756 3102 MASTERS WAY, ALPHARETTA GA 30005Failure to Appear$2443.25CBSuwanee PoliceCharges
11/27/2014 02:0211/27/2014 05:55ALLENLANEISHAVALASHAY9951761499517614 2228 PLEASANT HILL RD, DULUTH GA 30096@ * BATTERY$2950SBGwinnett County PoliceCharges
11/27/2014 01:5911/27/2014 13:20CHAMPERICAEVELYN99517613995176132228 2500 PLEASANT HILL RD, DULUTH GA 30096@ * BATTERY$1300SBGwinnett County PoliceCharges
11/27/2014 01:53LAYMICHAELSTACY9951761299517612 4984 MEADOWBROOK CIR, SUWANEE GA 30024SPEEDING$180SBGwinnett County PoliceCharges
11/27/2014 01:53LAYMICHAELSTACY9951761299517612 4984 MEADOWBROOK CIR, SUWANEE GA 30024* DRIVING WHILE LIC SUSP/REVOKED$705SBGwinnett County PoliceCharges
11/27/2014 01:36STALLWORTHTIRIKMARWAN9944909799449097 3355 PEACHTREE CORNERS CIR, NORCROSS GA 30092@ * THEFT BY RECEIVING$0NBGwinnett County PoliceCharges
11/27/2014 01:36STALLWORTHTIRIKMARWAN9944909799449097 3355 PEACHTREE CORNERS CIR, NORCROSS GA 30092* POSS OF FIREARM BY CONVICTED FELON$0NBGwinnett County PoliceCharges
11/27/2014 01:33SELLERSCHRISTOPHERLAMONT9951761199517611 .2997 MONTEREY DR, DECATUR GA 30032IMPROPER LANE CHANGE$1300SBGwinnett County PoliceCharges
11/27/2014 01:33SELLERSCHRISTOPHERLAMONT9951761199517611 .2997 MONTEREY DR, DECATUR GA 30032* DRIVING WHILE LIC SUSP/REVOKED$1300SBGwinnett County PoliceCharges
11/27/2014 01:33SELLERSCHRISTOPHERLAMONT9951761199517611 .2997 MONTEREY DR, DECATUR GA 30032* POSS OF FIREARM BY CONVICTED FELON$0NBGwinnett County PoliceCharges
11/27/2014 01:33SELLERSCHRISTOPHERLAMONT9951761199517611 .2997 MONTEREY DR, DECATUR GA 30032@ * THEFT BY RECEIVING$0NBGwinnett County PoliceCharges
11/27/2014 01:33SELLERSCHRISTOPHERLAMONT9951761199517611 .2997 MONTEREY DR, DECATUR GA 30032* FLEEING OR ATTEMPTING TO ELUDE$1300SBGwinnett County PoliceCharges
11/27/2014 01:33SELLERSCHRISTOPHERLAMONT9951761199517611 .2997 MONTEREY DR, DECATUR GA 30032HOLD FOR OTHER AGENCY$0NBGwinnett County PoliceCharges
11/27/2014 01:26BRADLEYROBERTD'ANDRE9950793099507930APT 1414 1000 DULUTH HWY, LAWRENCEVILLE GA 30043SPEEDING 15-18 OVER$178.25SBDuluth PoliceCharges
11/27/2014 01:26BRADLEYROBERTD'ANDRE9950793099507930APT 1414 1000 DULUTH HWY, LAWRENCEVILLE GA 30043*DRIVING WHILE LICENSE SUSP/REVOKED$971.75SBDuluth PoliceCharges
11/27/2014 01:26BRADLEYROBERTD'ANDRE9950793099507930APT 1414 1000 DULUTH HWY, LAWRENCEVILLE GA 30043*VGCSA LESS THAN 1 OZ.$1150.25SBDuluth PoliceCharges
11/27/2014 01:26BRADLEYROBERTD'ANDRE9950793099507930APT 1414 1000 DULUTH HWY, LAWRENCEVILLE GA 30043*POSSESSION OF ALCOHOL BY MINOR$579SBDuluth PoliceCharges
11/27/2014 00:5411/27/2014 05:14MCMILLANANTHONYLAMONT9951761099517610 3765 GOLFE LINKS DR, SNELLVILLE GA 30039* DRIVING WHILE LICENSE WITHDRAWN$705SBGwinnett County PoliceCharges
11/27/2014 00:5411/27/2014 05:14MCMILLANANTHONYLAMONT9951761099517610 3765 GOLFE LINKS DR, SNELLVILLE GA 30039SPEEDING$180SBGwinnett County PoliceCharges
11/27/2014 00:16ARGOSONYARENEE9902893999028939APT 533 1850 GRAVES ROAD, APT. 533, NORCROSS GA 30093DISORDERLY CONDUCT$140SBGwinnett County PoliceCharges
11/26/2014 23:58TOWNSENDDEREKMARSHALL9951760699517606APT B225 2591 ETHERIDGE DR NW, ATLANTA GA 30318@ * THEFT BY SHOPLIFTING$2400SBLawrenceville PoliceCharges
11/26/2014 23:51HARPERJASONRYAN9946994799469947 7020 BRECKEN TRCE, LITHONIA GA 30058* DUI-ALCOHOL$2006SBGwinnett County PoliceCharges
11/26/2014 23:51HARPERJASONRYAN9946994799469947 7020 BRECKEN TRCE, LITHONIA GA 30058IMPROPER PARKING$56SBGwinnett County PoliceCharges
11/26/2014 23:13LEWISDONNIELEE9201003292010032 534 HILLDALE DR, WINDER GA 30680HOLD FOR OTHER AGENCY$0NBGwinnett County PoliceCharges
11/26/2014 22:36GARCIA-RABRECARLOS9951760599517605 111 LIA HILLS DR, NORCROSS GA 30071* DUI-MORE THAN 0.10%BLOOD ALCOHOL$2006SBGwinnett County PoliceCharges
11/26/2014 22:36GARCIA-RABRECARLOS9951760599517605 111 LIA HILLS DR, NORCROSS GA 30071SPEEDING$215SBGwinnett County PoliceCharges
11/26/2014 22:31QUINONEZALEXGABRIEL9918745099187450 725 BANKSHIRE DR, SUWANEE GA 30024PED UNDER INFLUENCE ON R/WAY$152SBGwinnett County PoliceCharges
11/26/2014 22:2511/27/2014 13:08PINALBLASFERNANDEZ9925230599471094APT A7 1929 SINGLETON RD, NORCROSS GA 30093*NO DRIVERS LICENSE$705CBGwinnett County PoliceCharges
11/26/2014 22:2511/27/2014 13:08PINALBLASFERNANDEZ9925230599471094APT A7 1929 SINGLETON RD, NORCROSS GA 30093FOLLOWING TOO CLOSE$96CBGwinnett County PoliceCharges
11/26/2014 22:2511/27/2014 06:16HERNANDEZALEXISANAHUN9951760499517604APT D 3494 MEADOWGLENN VILLAGE LN, ATLANTA GA 30340M/V WRONG SIDE OF ROAD$68CBGwinnett County PoliceCharges
11/26/2014 22:2511/27/2014 06:16HERNANDEZALEXISANAHUN9951760499517604APT D 3494 MEADOWGLENN VILLAGE LN, ATLANTA GA 30340*NO DRIVERS LICENSE$705CBGwinnett County PoliceCharges
11/26/2014 22:17ASHECOREYCORNELIOUS9938203499382034 3166 DESHONG DRIVE, STONE MOUNTAIN GA 30087* PIMPING$0NBGwinnett County SheriffCharges
11/26/2014 22:14SHEPARDANTWANEF9950151699501516 301 TREELODGE PKWY, ATLANTA GA 30350FAILURE TO APPEAR$0NBGwinnett County SheriffCharges
11/26/2014 22:13GADSONLEONARDMAURICE9948746699487466 537 CANDLEWOOD DR, STONE MOUNTAIN GA 30088CONTEMPT OF COURT$705CBGwinnett County SheriffCharges
11/26/2014 22:10STATENTEVARACEMONTREAL9950682099506820 5895 MEMORIAL DR, STE. J, STONE MOUNTAIN GA 30083FAILURE TO APPEAR$0NBGwinnett County SheriffCharges
11/26/2014 22:0611/27/2014 09:58PINKEYKEITHLEE9950629699506296 1495 LISKEY LAKE ROAD, ATLANTA GA 30331@ * BURGLARY$11200SBGwinnett County SheriffCharges
11/26/2014 22:0611/27/2014 09:58PINKEYKEITHLEE9950629699506296 1495 LISKEY LAKE ROAD, ATLANTA GA 30331@ * BURGLARY$11200SBGwinnett County SheriffCharges
11/26/2014 22:0611/27/2014 09:58PINKEYKEITHLEE9950629699506296 1495 LISKEY LAKE ROAD, ATLANTA GA 30331@ * THEFT BY DECEPTION$2950SBGwinnett County SheriffCharges
11/26/2014 22:0611/27/2014 09:58PINKEYKEITHLEE9950629699506296 1495 LISKEY LAKE ROAD, ATLANTA GA 30331@ * THEFT BY DECEPTION$2950SBGwinnett County SheriffCharges
11/26/2014 22:0611/27/2014 09:58PINKEYKEITHLEE9950629699506296 1495 LISKEY LAKE ROAD, ATLANTA GA 30331@ * THEFT BY DECEPTION$2950SBGwinnett County SheriffCharges
11/26/2014 22:0611/27/2014 09:58PINKEYKEITHLEE9950629699506296 1495 LISKEY LAKE ROAD, ATLANTA GA 30331@ * THEFT BY DECEPTION$2950SBGwinnett County SheriffCharges
11/26/2014 22:0611/27/2014 09:58PINKEYKEITHLEE9950629699506296 1495 LISKEY LAKE ROAD, ATLANTA GA 30331@ * BURGLARY$11200SBGwinnett County SheriffCharges
11/26/2014 22:0511/27/2014 05:12RAMSAMMYAHKEELIAN9951760399517603 980 N MILLARD WAY, STONE MOUNTAIN GA 30088@ * THEFT BY TAKING$2400SBGwinnett County SheriffCharges
11/26/2014 22:01PERRICKMATTHEWHENRY9940175499401754 1121 MECASLIN ST NW APT A, ATLANTA GA 30318* VIOLATION OF PROBATION$0NBGwinnett County SheriffCharges
11/26/2014 22:01BOYDWALTER9951760299517602 3061 CENTENNIAL RD, RUTLEDGE GA 30663* ENDANGERING SECURITY INTEREST$1300CBGwinnett County SheriffCharges
11/26/2014 21:23TURNERSTEVENMARSHALL9943359899468476 1780 INLET LAKE PL, SNELLVILLE GA 30078* VIOLATION OF PROBATION$0NBSnellville PoliceCharges
11/26/2014 21:23TURNERSTEVENMARSHALL9943359899468476 1780 INLET LAKE PL, SNELLVILLE GA 30078* SALE, DIST OR POSS DANGEROUS DRUGS$1300SBSnellville PoliceCharges
11/26/2014 21:2011/27/2014 01:36CASWELLDEVAUGHNJACQUAY9951760199517601 1416 WILSON MANOR CIR, LAWRENCEVILLE GA 30045FAILURE TO APPEAR$115CBGwinnett County PoliceCharges
11/26/2014 21:2011/27/2014 01:36CASWELLDEVAUGHNJACQUAY9951760199517601 1416 WILSON MANOR CIR, LAWRENCEVILLE GA 30045*DRIVING W/O LICENSE-FAIL OBTAIN 30 DAYS$705CBGwinnett County PoliceCharges
11/26/2014 21:1611/26/2014 23:25DEENAHMEDFARAD-RASHEED9951760099517600 3025 LANDINGTON WAY, DULUTH GA 30096FOLLOWING TOO CLOSELY$96SBGwinnett County PoliceCharges
11/26/2014 21:1611/26/2014 23:25DEENAHMEDFARAD-RASHEED9951760099517600 3025 LANDINGTON WAY, DULUTH GA 30096* DUI-DRUGS$2006SBGwinnett County PoliceCharges
11/26/2014 21:0911/27/2014 00:17RAMOSMARTITA9951759999517599 2342 NEWBURY OAKS CT, LAWRENCEVILLE GA 30044* DRIVING WHILE LIC SUSP/REVOKED$705CBGwinnett County SheriffCharges
11/26/2014 21:0911/27/2014 00:17RAMOSMARTITA9951759999517599 2342 NEWBURY OAKS CT, LAWRENCEVILLE GA 30044FAILURE TO APPEAR$196CBGwinnett County SheriffCharges
11/26/2014 20:3711/27/2014 01:39PERRINALPHONUS9951759899517598 1771 BULLARDS FERRY RD, ELBERTON GA 30635*DUI$1580SBNorcross PoliceCharges
11/26/2014 20:3711/27/2014 01:39PERRINALPHONUS9951759899517598 1771 BULLARDS FERRY RD, ELBERTON GA 30635*DRIVING ON A SUSPENDED LICENSE$860SBNorcross PoliceCharges
11/26/2014 20:3711/27/2014 01:39PERRINALPHONUS9951759899517598 1771 BULLARDS FERRY RD, ELBERTON GA 30635TAIL LIGHT REQUIREMENTS$110SBNorcross PoliceCharges
11/26/2014 20:37STITHRONALDCHRISTOPHER9928030599280305 1950 BARRETT LAKES BLVD APT 2125, KENDALLVILLE 30144*VGCSA OF C/S$5700SBLawrenceville PoliceCharges
11/26/2014 20:37STITHRONALDCHRISTOPHER9928030599280305 1950 BARRETT LAKES BLVD APT 2125, KENDALLVILLE 30144*VGCSA OF C/S$5700SBLawrenceville PoliceCharges
11/26/2014 20:19WANGCHENGLONG9951759799517597 140-33 ROSE AVE, FLUSHING NY 11355* RECEIPT OF GOODS FRAUD.OBTAINED$2950SBLilburn PoliceCharges
11/26/2014 20:19WANGCHENGLONG9951759799517597 140-33 ROSE AVE, FLUSHING NY 11355HOLD FOR IMMIGRATION$0NBLilburn PoliceCharges
11/26/2014 20:12ELEFANTSHAINAALYSE9934918999510162 2193 ATKINSON LN, LAWRENCEVILLE GA 30043* VIOLATION OF PROBATION$0NBGwinnett County SheriffCharges
11/26/2014 19:1111/26/2014 22:20WALKERNADYAALICIA9951759699517596 1418 BRAMLETT HILL DR, LAWRENCEVILLE GA 30045* DRIVING WHILE LIC SUSP/REVOKED$705SBGwinnett County SheriffCharges
11/26/2014 19:1111/26/2014 22:20WALKERNADYAALICIA9951759699517596 1418 BRAMLETT HILL DR, LAWRENCEVILLE GA 30045FAILURE TO APPEAR$315CBGwinnett County SheriffCharges
11/26/2014 19:09PHILPOTDENISHAJANAY9950957299509572 263 BARBERRY LANE, DALLAS GA 30132FAILURE TO APPEAR$0NBGwinnett County SheriffCharges
11/26/2014 18:5511/26/2014 21:52SANCHEZ-RAMOSDAVID9951759599517595 6098 PLUMCREST RD, DOUGLASVILLE GA 30135CENTRAL LANE VIOLATION$96CBGwinnett County PoliceCharges
11/26/2014 18:5511/26/2014 21:52SANCHEZ-RAMOSDAVID9951759599517595 6098 PLUMCREST RD, DOUGLASVILLE GA 30135*NO DRIVERS LICENSE$705CBGwinnett County PoliceCharges
11/26/2014 18:0511/26/2014 22:11AGUILARARTURODEJESUS9951759499517594 504 NORTH BERKELY LAKE LANE, DULUTH GA 30096HORNS OR WARNING DEVICES VIOLATION$94.25CBDuluth PoliceCharges
11/26/2014 18:0511/26/2014 22:11AGUILARARTURODEJESUS9951759499517594 504 NORTH BERKELY LAKE LANE, DULUTH GA 30096*LICENSE:DRIVING WHILE UNLIC. OR EXPIRED$731.25CBDuluth PoliceCharges
11/26/2014 18:0411/26/2014 21:57MENDOZA MORALESFELIPE9951759399517593 4492 MARCI ST, SNELLVILLE GA 30039SPEEDING 19-23 OVER$213.25CBDuluth PoliceCharges
11/26/2014 18:0411/26/2014 21:57MENDOZA MORALESFELIPE9951759399517593 4492 MARCI ST, SNELLVILLE GA 30039*LICENSE:DRIVING WHILE UNLIC. OR EXPIRED$731.25CBDuluth PoliceCharges
11/26/2014 17:54SMITHTERRYBLACKBURN9945252099452520 370 SARAH LN, LAWRENCEVILLE GA 30046* VIOLATION OF PROBATION$0NBNorcross PoliceCharges
11/26/2014 17:4711/26/2014 21:29LOPEZ-ESTRABAMARIAISABEL9951759299517592 503 WAVERLY FOREST CT, LAWRENCEVILLE GA 30045* DRIVING WHILE LIC SUSP/REVOKED$705CBGwinnett County PoliceCharges
11/26/2014 17:4311/27/2014 00:42SHIRLEYCRAIGALLEN9951759199517591 850 TALL OAKS CIR SE, CONYERS GA 30013* DRIVING WHILE LIC SUSP/REVOKED$1300SBGwinnett County PoliceCharges
11/26/2014 17:4311/27/2014 00:42SHIRLEYCRAIGALLEN9951759199517591 850 TALL OAKS CIR SE, CONYERS GA 30013*VGCSA OF C/S$2950SBGwinnett County PoliceCharges
11/26/2014 17:4311/27/2014 00:42SHIRLEYCRAIGALLEN9951759199517591 850 TALL OAKS CIR SE, CONYERS GA 30013*VGCSA OF C/S$2950SBGwinnett County PoliceCharges
11/26/2014 17:4311/27/2014 00:42SHIRLEYCRAIGALLEN9951759199517591 850 TALL OAKS CIR SE, CONYERS GA 30013BRAKE LIGHTS REQUIRED$68SBGwinnett County PoliceCharges
11/26/2014 17:0911/26/2014 22:09WALTSIANCODY9923857999238586 2275 CASTLE ROYAL DR, LAWRENCEVILLE GA 30043* CRIMINAL TRESPASS$1300SBGwinnett County PoliceCharges
11/26/2014 16:3711/26/2014 22:18JEFFREYELLISACIARA9943119999431199 858 ASHTON PARK CT, LAWRENCEVILLE GA 30045@ * THEFT BY SHOPLIFTING$1300SBGwinnett County PoliceCharges
11/26/2014 16:2811/27/2014 00:19SIMSJASMINELATRICE9951759099517590 7 HIDDEN CHASE APT H, STONE MOUNTAIN GA 30088@ * THEFT BY SHOPLIFTING$3500SBGwinnett County PoliceCharges
11/26/2014 15:5011/27/2014 00:21POMMACHACKVALERIEAPRIL9950852799508527 1695 PINE ROAD, DACULA GA 30019@ * THEFT BY SHOPLIFTING$2400SBGwinnett County PoliceCharges
11/26/2014 15:41NARIOALEJANDO9943738599437385 687 TOM SMITH RD, LILBURN GA 30047* VIOLATION OF PROBATION$0NBGwinnett County SheriffCharges
11/26/2014 15:40LOPEZJACOBEMILIO9947939799479397 1421 HOWARD WAY, LAWRENCEVILLE GA 30043* VIOLATION OF PROBATION$0NBGwinnett County SheriffCharges
11/26/2014 14:3811/26/2014 16:32TOSCANOBRENDASUSTAITA9951758899517588 640 DURHAM RIDGE DR NW, LILBURN GA 30047*NO DRIVERS LICENSE$705NBGwinnett County SheriffCharges
11/26/2014 14:2311/26/2014 19:41CROWLEYBENJAMINJAMES9951758799517587 47 GERALDINE DR SE, SMYRNA GA 30082IMPROPER USE OF CENTRAL TURN LANE$241.25SBDuluth PoliceCharges
11/26/2014 14:2311/26/2014 19:41CROWLEYBENJAMINJAMES9951758799517587 47 GERALDINE DR SE, SMYRNA GA 30082*POSS. OF OUNCE OR LESS OF MARIJUANA$1150.25SBDuluth PoliceCharges
11/26/2014 14:2311/26/2014 19:41CROWLEYBENJAMINJAMES9951758799517587 47 GERALDINE DR SE, SMYRNA GA 30082*DRIVING WHILE LICENSE SUSP/REVOKED$971.75SBDuluth PoliceCharges
11/26/2014 13:57LEWISRONALDCHRISTOPHER9936339799363397 5379 WINSLOW XING N, LITHONIA GA 30038* VIOLATION OF PROBATION$0NBGwinnett County SheriffCharges
11/26/2014 13:45GREENQUINTONDARNELL9945217499452174 20 VALENCIA CT, JACKSON MS 39204* VIOLATION OF PROBATION$0NBGwinnett County SheriffCharges
11/26/2014 13:45GREENQUINTONDARNELL9945217499452174 20 VALENCIA CT, JACKSON MS 39204* VIOLATION OF PROBATION$0NBGwinnett County SheriffCharges
11/26/2014 13:41CURRYJERMAINE9947045799470457APT C 275 STRAIGHT ST, MACON GA 31204* VIOLATION OF PROBATION$0NBGwinnett County SheriffCharges
11/26/2014 13:41CURRYJERMAINE9947045799470457APT C 275 STRAIGHT ST, MACON GA 31204* VIOLATION OF PROBATION$0NBGwinnett County SheriffCharges
11/26/2014 13:33MCCOYCONNIEGALE9951758699517586 2525 PAMELA DR, SNELLVILLE GA 30078HOLD FOR OTHER AGENCY$0NBLawrenceville PoliceCharges
11/26/2014 13:33MCCOYCONNIEGALE9951758699517586 2525 PAMELA DR, SNELLVILLE GA 30078*FORGERY 3RD DEGREE$0NBLawrenceville PoliceCharges
11/26/2014 13:33MCCOYCONNIEGALE9951758699517586 2525 PAMELA DR, SNELLVILLE GA 30078* FINANCIAL IDENTITY FRAUD$0NBLawrenceville PoliceCharges
11/26/2014 13:33MCCOYCONNIEGALE9951758699517586 2525 PAMELA DR, SNELLVILLE GA 30078* FALSE IDENTIFICATION DOCUMENTS$0NBLawrenceville PoliceCharges
11/26/2014 13:33MCCOYCONNIEGALE9951758699517586 2525 PAMELA DR, SNELLVILLE GA 30078* CREDIT CARD FRAUD$0NBLawrenceville PoliceCharges
11/26/2014 13:1611/26/2014 11:41MORENO-MERCADOJULIOADRIAN9946609699466106 837 MARTIN HEIGHTS DR APT A, LAWRENCEVILLE GA 30044Violation of Probation$0NBGwinnett County SheriffCharges
11/26/2014 13:1611/26/2014 11:41MORENO-MERCADOJULIOADRIAN9946609699466106 837 MARTIN HEIGHTS DR APT A, LAWRENCEVILLE GA 30044HOLD FOR IMMIGRATION$0NBGwinnett County SheriffCharges
11/26/2014 13:1611/26/2014 13:30MORENO-MERCADOJULIOADRIAN9946609699466106 837 MARTIN HEIGHTS DR APT A, LAWRENCEVILLE GA 30044Violation of Probation$0NBGwinnett County SheriffCharges
11/26/2014 13:1611/26/2014 11:41MORENO-MERCADOJULIOADRIAN9946609699466106 837 MARTIN HEIGHTS DR APT A, LAWRENCEVILLE GA 30044Violation of Probation$0NBGwinnett County SheriffCharges
11/26/2014 13:1611/26/2014 13:30MORENO-MERCADOJULIOADRIAN9946609699466106 837 MARTIN HEIGHTS DR APT A, LAWRENCEVILLE GA 30044HOLD FOR IMMIGRATION$0NBGwinnett County SheriffCharges
11/26/2014 13:1611/26/2014 13:30MORENO-MERCADOJULIOADRIAN9946609699466106 837 MARTIN HEIGHTS DR APT A, LAWRENCEVILLE GA 30044Violation of Probation$0NBGwinnett County SheriffCharges
11/26/2014 13:0911/26/2014 20:01MOOREJOSHUAHARLAN9951758599517585 2360 LARPENT COURT, DACULA GA 30019POSSESSION OF LESS THAN OZ MARIJUANA$585SBGwinnett County PoliceCharges
11/26/2014 13:05WODECKITHOMASMICHAEL9913118299131182 2637 MOORINGS PKWY, SNELLVILLE GA 30039OTHER OFFENSE$0NBGwinnett County SheriffCharges
11/26/2014 12:5211/26/2014 15:57SMITHLATONIATAKISHA9951758499517584 3124 FLERY WAY, LAWRENCEVILLE GA 30046* THEFT BY SHOPLIFTING$788SBLawrenceville PoliceCharges
11/26/2014 12:30HEADSDONTAEJAMAL9945390599453905 3801 BOGAN MILL RD, BUFORD GA 30519* VIOLATION OF PROBATION$0NBProbationCharges
11/26/2014 12:25CHAMBERSJOHNPRESTON9106509891065098 2272 CONDOR DR, LAWRENCEVILLE GA 30044* PAROLE VIOLATION$0NBGwinnett County SheriffCharges
11/26/2014 12:12ARTERBERRYLAUHRENMEGHAN9951758399517583 3858 HILLSBOROUGH CT, SNELLVILLE GA 30094*VGCSA OF C/S$5700SBGwinnett County PoliceCharges
11/26/2014 12:12ARTERBERRYLAUHRENMEGHAN9951758399517583 3858 HILLSBOROUGH CT, SNELLVILLE GA 30094@ * SIMPLE BATTERY$1300SBGwinnett County PoliceCharges
11/26/2014 12:0711/26/2014 16:51SANTANA-GUERROMIGUELEMILIO9951758299517582 6308 E. WINDSOR LANE, NORCROSS GA 30093FOLLOWING TOO CLOSE$96SBGwinnett County PoliceCharges
11/26/2014 12:0711/26/2014 16:51SANTANA-GUERROMIGUELEMILIO9951758299517582 6308 E. WINDSOR LANE, NORCROSS GA 30093*DRIVING W/O LICENSE-FAIL OBTAIN 30 DAYS$705SBGwinnett County PoliceCharges
11/26/2014 12:00GOMEZERIKDANIEL9931794299317942 1998 JUNIPER IVES CT, GRAYSON GA 30017FAILURE TO APPEAR$650CBGwinnett County SheriffCharges
11/26/2014 12:00GOMEZERIKDANIEL9931794299317942 1998 JUNIPER IVES CT, GRAYSON GA 30017FAILURE TO APPEAR$0NBGwinnett County SheriffCharges
11/26/2014 12:00GOMEZERIKDANIEL9931794299317942 1998 JUNIPER IVES CT, GRAYSON GA 30017* VIOLATION OF PROBATION$0NBGwinnett County SheriffCharges
11/26/2014 11:55PETERSDOUGLASWINSTON9909100999091009 916 ROSEWOOD LANE, MONROE GA 30656@ * ROBBERY$5700SBGwinnett County PoliceCharges
11/26/2014 11:30PRATTSTEPHENCHARLES9950178599501785 3875 FALCON PKWY, FLOWERY BRANCH GA 30542FAILURE TO APPEAR$0NBGwinnett County SheriffCharges
11/26/2014 10:5311/26/2014 12:23SMITHJAZZIACHAVIEL9945296099452960 3088 FOX CHASE COURT, SNELLVILLE GA 30039* DRIVING WHILE LICENSE WITHDRAWN$0NBGwinnett County SheriffCharges
11/26/2014 10:49BAKERDEMARCUSWILLIAM9951758199517581 703 LACY STREET, MONROE GA 30655LOITERING OR PROWLING$2400SBGwinnett County PoliceCharges
11/26/2014 10:49SHOFFNERAHMODLAMONT9949771699497716 3416 WINDCLIFF DR SE, MARIETTA GA 30067* VIOLATION OF PROBATION$0NBGwinnett County SheriffCharges
11/26/2014 10:44MCCONNELLMAREECEEDWARD9926857599268575 682 IVORY WAY, LILBURN GA 30047* VIOLATION OF PROBATION$0NBProbationCharges
11/26/2014 10:3811/26/2014 12:09SHERRODMONTALAVAR9946139699461396 53 HURRICANE SHOALS RD NE, LAWRENCEVILLE GA 30046* DRIVING WHILE LIC SUSP/REVOKED$0NBGwinnett County PoliceCharges
11/26/2014 09:0111/26/2014 10:24DAVISJERRODBRADLEY9950703199507031 504 CHIMNEY HOUSE CT, STONE MOUNTAIN GA 30087@ * THEFT BY SHOPLIFTING$0NBGwinnett County SheriffCharges
11/26/2014 08:4611/26/2014 10:30BUIRICKYLE9951757999517579 3632 WOOD POINT WAY, GAINESVILLE GA 30507@ * THEFT BY SHOPLIFTING$0NBGwinnett County SheriffCharges
11/26/2014 08:4311/26/2014 10:22MAULDINRICHARDSHANNON9951757799517577 5235 HOOD RD NW, LILBURN GA 30047@ * THEFT BY SHOPLIFTING$0NBGwinnett County SheriffCharges
11/26/2014 08:3111/26/2014 17:17RANDALLMAURICELASHAUN9942832799428327 5152 SINGLETON ROAD APT#B, NORCROSS GA 30093Violation of Probation$0NBGwinnett County SheriffCharges
11/26/2014 08:28SHIPPTHOMASWILLIAM9200983692009836 607 KILLIAN HILL RD SW, LILBURN GA 30047 * ESCAPE$0NBGwinnett County SheriffCharges
11/26/2014 07:59NARVAJOELANTHONY9948379999483799 4395 DRIFTWATER RD, DULUTH GA 30096@ * BATTERY$0NBGwinnett County PoliceCharges
11/26/2014 03:5211/26/2014 08:46HARGROVEDWIGHTLAMAR9942098099420980 1685 RIVERPARK DR, DACULA GA 30019* DUI-ALCOHOL$2006SBGwinnett County PoliceCharges
11/26/2014 03:5211/26/2014 08:46HARGROVEDWIGHTLAMAR9942098099420980 1685 RIVERPARK DR, DACULA GA 30019IMPROPER LANE CHANGE$68SBGwinnett County PoliceCharges
11/26/2014 03:5211/26/2014 08:46HARGROVEDWIGHTLAMAR9942098099420980 1685 RIVERPARK DR, DACULA GA 30019*IMPROPER PASSING EMERGECY/TOWING/HWY VE$180SBGwinnett County PoliceCharges
11/26/2014 03:5211/26/2014 08:46HARGROVEDWIGHTLAMAR9942098099420980 1685 RIVERPARK DR, DACULA GA 30019*VIOLATE LIMITED LICENSE CONDITIONS$152SBGwinnett County PoliceCharges
11/26/2014 02:0211/26/2014 11:32JOHNSONTROYANTOIN9951757399517573 1462 STATION RIDGE COURT, LAWRENCEVILLE GA 30045* DUI-ALCOHOL$2006CBGwinnett County PoliceCharges
11/26/2014 02:0211/26/2014 11:32JOHNSONTROYANTOIN9951757399517573 1462 STATION RIDGE COURT, LAWRENCEVILLE GA 30045OPEN CONTAINER LAW$299CBGwinnett County PoliceCharges
11/26/2014 02:0211/26/2014 11:32JOHNSONTROYANTOIN9951757399517573 1462 STATION RIDGE COURT, LAWRENCEVILLE GA 30045HEADLIGHTS$68CBGwinnett County PoliceCharges
11/26/2014 02:0211/26/2014 11:32JOHNSONTROYANTOIN9951757399517573 1462 STATION RIDGE COURT, LAWRENCEVILLE GA 30045IMPROPER/ERRATIC LANE CHANGE$68CBGwinnett County PoliceCharges
11/26/2014 01:5911/26/2014 10:27COLSTONBENNIE9951757299517572 8303 WEBB RD, RIVERDALE GA 30274* DUI-ALCOHOL$2006SBGwinnett County PoliceCharges
11/26/2014 01:3211/26/2014 15:04VELASQUEZ CUSTODIOELVISEDWARDO9951757199517571 2420 WINDSOR WOODS LANE # D, NORCROSS GA 30071TAIL LIGHT REQUIREMENTS$110CBNorcross PoliceCharges
11/26/2014 01:3211/26/2014 15:04VELASQUEZ CUSTODIOELVISEDWARDO9951757199517571 2420 WINDSOR WOODS LANE # D, NORCROSS GA 30071*NO VALID LICENSE$860CBNorcross PoliceCharges
11/26/2014 00:5411/26/2014 05:42WINBORNBOBBYCLAUSELL9951757099517570 2350 CIJI CIRCLE, SNELLVILLE GA 30039DISORDERLY CONDUCT$439SBGeorgia Gwinnett College PDCharges
11/26/2014 00:4611/26/2014 05:22ALVARENGAELIESERMISAEZ9951756999517569 12208 DUNLEAF ARC WAY, NORCROSS GA 30093CONTEMPT OF COURT$150CBGwinnett County PoliceCharges
11/26/2014 00:1511/26/2014 09:00BAUTISTA DE LA CRUZADEMIR9951756899517568 2230 PLASTER RD, NE, ATLANTA GA 30345IMPEDING THE FLOW OF TRAFFIC$200SBNorcross PoliceCharges
11/26/2014 00:1511/26/2014 09:00BAUTISTA DE LA CRUZADEMIR9951756899517568 2230 PLASTER RD, NE, ATLANTA GA 30345*NO VALID LICENSE$860SBNorcross PoliceCharges
11/26/2014 00:1511/26/2014 09:00BAUTISTA DE LA CRUZADEMIR9951756899517568 2230 PLASTER RD, NE, ATLANTA GA 30345FAILURE TO USE CHILD RESTRANIT$50SBNorcross PoliceCharges
11/26/2014 00:1511/26/2014 09:00BAUTISTA DE LA CRUZADEMIR9951756899517568 2230 PLASTER RD, NE, ATLANTA GA 30345SEATBELT VIOLATIONS$15SBNorcross PoliceCharges
11/26/2014 00:1511/26/2014 09:00BAUTISTA DE LA CRUZADEMIR9951756899517568 2230 PLASTER RD, NE, ATLANTA GA 30345SEATBELT VIOLATIONS$15SBNorcross PoliceCharges
11/26/2014 00:1511/26/2014 09:00BAUTISTA DE LA CRUZADEMIR9951756899517568 2230 PLASTER RD, NE, ATLANTA GA 30345FAILURE TO USE CHILD RESTRANIT$50SBNorcross PoliceCharges
11/25/2014 23:31BAILEYPATRICKJUNIOR9951756799517567 120 SECOND ST, WINDER GA 30680FAILURE TO APPEAR$1094CBBraselton PDCharges
11/25/2014 23:22WILLIAMSMARVIN9951756699517566 2559 SUGAR CANE PL, DULUTH GA 30096* VGCSA-SCHEDULE II$0NBNorcross PoliceCharges
11/25/2014 23:22WILLIAMSMARVIN9951756699517566 2559 SUGAR CANE PL, DULUTH GA 30096*LESS THAN AN OZ OF MARIJ.$1300SBNorcross PoliceCharges
11/25/2014 23:22WILLIAMSMARVIN9951756699517566 2559 SUGAR CANE PL, DULUTH GA 30096HEADLIGHTS$0ORNorcross PoliceCharges
11/25/2014 23:22WILLIAMSMARVIN9951756699517566 2559 SUGAR CANE PL, DULUTH GA 30096OPERATING VEH WITH SUSP/CANC/REV REGISTR$2950SBNorcross PoliceCharges
11/25/2014 23:1211/26/2014 18:55ROBINSONBRITNEYDANIELLE9950646499506464 800 SOUTH 4TH STREET, LOUISVILLE KY 40203FAILURE TO APPEAR$363CBLawrenceville PoliceCharges
11/25/2014 23:03ARCEALEXULISSES9944530399445303 215 POPLAR ST, BUFORD GA 30518* VIOLATION OF PROBATION$0NBGwinnett County SheriffCharges
11/25/2014 22:5211/26/2014 15:02BURNEYGARYARTHUR9951756599517565 2476 TULLAMORE CIR, SNELLVILLE GA 30039@ * BATTERY$5700SBGwinnett County PoliceCharges
11/25/2014 22:4711/26/2014 15:50GARYDANTRELLLAMONT9950809599508095APT 26 1870 JERRY WAY, NORCROSS GA 30093FAILURE TO APPEAR$805CBGwinnett County SheriffCharges
11/25/2014 22:39PITTMANSHAUNIECERAQUEL9949843299498432 5545 SUGAR CROSSING DR, BUFORD GA 30518*FORGERY 4TH DEGREE$2950SBGwinnett County SheriffCharges
11/25/2014 22:39PITTMANSHAUNIECERAQUEL9949843299498432 5545 SUGAR CROSSING DR, BUFORD GA 30518* FRAUD PRINT CHECKS, DRAFTS, ORDERS$0NBGwinnett County SheriffCharges
11/25/2014 22:39PITTMANSHAUNIECERAQUEL9949843299498432 5545 SUGAR CROSSING DR, BUFORD GA 30518@ * THEFT BY DECEPTION$2950SBGwinnett County SheriffCharges
11/25/2014 22:3211/26/2014 10:27ASHFORDCHRISTOPHERRAY9800357698003576 363 UPPER RIVERDALE RD SW, APT. B-38, RIVERDALE GA 30274* VIOLATION OF EMPLOYMENT SECURITY LAW$11200SBGwinnett County SheriffCharges
11/25/2014 22:29SMITHJORDAN9927805099278050 1608 HUNTINGDON CHASE, ATLANTA GA 30350* VIOLATION OF PROBATION$0NBGwinnett County SheriffCharges
11/25/2014 22:2411/26/2014 04:39GORDILLO RABANALESJAIRONESAU9951756499517564 6221 JANE RD, ATLANTA GA 30340FAILURE TO HAVE TWO HEADLIGHTS$110CBNorcross PoliceCharges
11/25/2014 22:2411/26/2014 04:39GORDILLO RABANALESJAIRONESAU9951756499517564 6221 JANE RD, ATLANTA GA 30340*NO VALID LICENSE$860CBNorcross PoliceCharges
11/25/2014 22:14LLOYDWILLIEJAMES9913248299132482 3360 GRAND CENTRAL DR, SNELLVILLE GA 30078@ * THEFT BY TAKING$0NBGwinnett County SheriffCharges
11/25/2014 22:0411/26/2014 15:48JACKSONJOHNDOUGLAS9951575899515758 6614 MEADOW RUE DRIVE, NORCROSS GA 30092SOLICITATION-SIGN PROH ACTIVITIES$140SBGwinnett County PoliceCharges
11/25/2014 22:0011/26/2014 12:05WRIGHTJOHNNIELOUIS9939356999393569APT A 3359 PEACHTREE CORNERS CIR, NORCROSS GA 30092* FALSE REPORT OF A CRIME$5700SBGwinnett County PoliceCharges
11/25/2014 22:0011/26/2014 12:05WRIGHTJOHNNIELOUIS9939356999393569APT A 3359 PEACHTREE CORNERS CIR, NORCROSS GA 30092IMPROPER LANE CHANGE$96SBGwinnett County PoliceCharges
11/25/2014 22:0011/26/2014 12:05WRIGHTJOHNNIELOUIS9939356999393569APT A 3359 PEACHTREE CORNERS CIR, NORCROSS GA 30092* DRIVING WHILE LIC SUSP/REVOKED$705SBGwinnett County PoliceCharges
11/25/2014 21:45ST. CLAIRRICHARDTERRY9951756399517563 105 CREEK BOTTOM DR, COVINGTON GA 30014* VIOLATION OF PROBATION$0NBGwinnett County SheriffCharges
11/25/2014 21:33TAYLORTREYANTHONY9947878999478789 2450 WHITEBLUFF WAY, BUFORD GA 30519* VIOLATION OF PROBATION$0NBGwinnett County SheriffCharges
11/25/2014 21:1211/26/2014 20:22CHASEDEREKNORMAN9951756299517562 2935 IVY BROOK LANE, BUFORD GA 30519* OBSTRUCTION LAW ENFORCEMENT OFFICER$1300SBGwinnett County SheriffCharges
11/25/2014 21:1211/26/2014 20:22CHASEDEREKNORMAN9951756299517562 2935 IVY BROOK LANE, BUFORD GA 30519STRIKING UNATTENDED VEHICLE$1300SBGwinnett County SheriffCharges
11/25/2014 21:1211/26/2014 20:22CHASEDEREKNORMAN9951756299517562 2935 IVY BROOK LANE, BUFORD GA 30519FTA BENCH WARRANT$481CBGwinnett County SheriffCharges
11/25/2014 21:01RAILEYMONTEEDUBE9942267799422677 260 HEATHGATE DR, LAWRENCEVILLE GA 30044*CHILD MOLESTATION$0NBGwinnett County PoliceCharges
11/25/2014 21:01RAILEYMONTEEDUBE9942267799422677 260 HEATHGATE DR, LAWRENCEVILLE GA 30044HOLD FOR IMMIGRATION$0NBGwinnett County PoliceCharges
11/25/2014 20:20ANDERSONWILLIAMRICHARD9904568199045681 1581 OLD PEACHTREE RD, LAWRENCEVILLE GA 30043FAILURE TO PAY/CHILD SUPPORT$24143.09CBGwinnett County SheriffCharges
11/25/2014 20:0611/26/2014 02:55MEZA-TOLEDOCARLOSENRIQUE9951756199517561 46 OLD PEACHTREE RD, SUWANEE GA 30824FAILURE TO OBEY TRAFFIC CONTROL$123CBSuwanee PoliceCharges
11/25/2014 20:0611/26/2014 02:55MEZA-TOLEDOCARLOSENRIQUE9951756199517561 46 OLD PEACHTREE RD, SUWANEE GA 30824DRIVING WHILE UNLICENSED$759CBSuwanee PoliceCharges
11/25/2014 19:5811/26/2014 21:09WRIGHTJOHNDAVID89230918923091 17 HILL N DALE ST, BUFORD GA 30518FAILURE TO APPEAR$1520SBGwinnett County SheriffCharges
11/25/2014 19:52LOPEZPEDROHUERTA9939782699397826 4080 MEGAN CARLY WAY, SNELLVILLE GA 30078VIOLATION OF PROBATION$0NBSnellville PoliceCharges
11/25/2014 19:41LUMINGMIN9951756099517560 863 MISTY VIEW CT, LILBURN GA 30047@ * TERRORISTIC THREATS & ACTS$0NBGwinnett County PoliceCharges
11/25/2014 19:3911/26/2014 03:04LOPEZALESHKAVANGELY9951755999517559 513 PLANTATION CREED DR, LOGANVILLE GA 30052* DRIVING WHILE LIC SUSP/REVOKED$705SBGwinnett County SheriffCharges
11/25/2014 19:3911/26/2014 03:04LOPEZALESHKAVANGELY9951755999517559 513 PLANTATION CREED DR, LOGANVILLE GA 30052FAILURE TO APPEAR$115CBGwinnett County SheriffCharges
11/25/2014 19:3411/27/2014 11:22MARTINEZYANNELYELENA9951755899517558 1850 COTILLION DR APT 3323, DUNWOODY GA 30338HOLD FOR OTHER AGENCY$0NBNorcross PoliceCharges
11/25/2014 19:28ARRIAGAANTONIO9951029399510293 341 CONGRESS PKWY, LAWRENCEVILLE GA 30044*VGCSA OF C/S$0NBGwinnett County PoliceCharges
11/25/2014 19:28ARRIAGAANTONIO9951029399510293 341 CONGRESS PKWY, LAWRENCEVILLE GA 30044*VGCSA OF C/S$5700SBGwinnett County PoliceCharges
11/25/2014 19:2111/25/2014 22:01TURNERJOHNMATTHEW9800752998007529 277 HWY 11 UNIT 9, WINDER GA 30680*NO DRIVERS LICENSE$0NBGwinnett County SheriffCharges
11/25/2014 19:1511/26/2014 04:23HARRISCOREYLEMAR9945413699454136 543 MARSIT RD, LAWRENCEVILLE GA 30045*HIT AND RUN$1300SBGwinnett County SheriffCharges
11/25/2014 19:1511/26/2014 04:23HARRISCOREYLEMAR9945413699454136 543 MARSIT RD, LAWRENCEVILLE GA 30045IMPROPER/ERRATIC LANE CHANGE$1300SBGwinnett County SheriffCharges
11/25/2014 19:08AJAYISTEVE9951755699517556 5056 TRILOGY LANE, HOSCHTON GA 30548CONTEMPT OF COURT (SUPERIOR)$0NBGwinnett County SheriffCharges
11/25/2014 18:5811/26/2014 15:57JOHNSONANITRALUCIANA9937684399376843APT 416 2300 COUNTRY WALK, SNELLVILLE GA 30039* DRIVING WHILE LIC SUSP/REVOKED$705SBGwinnett County PoliceCharges
11/25/2014 18:5811/26/2014 15:57JOHNSONANITRALUCIANA9937684399376843APT 416 2300 COUNTRY WALK, SNELLVILLE GA 30039OPERATING VEH WITH SUSP/CANC/REV REGISTR$705SBGwinnett County PoliceCharges
11/25/2014 18:5811/26/2014 15:57JOHNSONANITRALUCIANA9937684399376843APT 416 2300 COUNTRY WALK, SNELLVILLE GA 30039NO PROOF OF INSURANCE$280SBGwinnett County PoliceCharges
11/25/2014 18:30HENLEYBRIANJ9951755599517555 4137 TROTTERS WAY DR, SNELLVILLE GA 30039NO PROOF OF INSURANCE$280SBSnellville PoliceCharges
11/25/2014 18:30HENLEYBRIANJ9951755599517555 4137 TROTTERS WAY DR, SNELLVILLE GA 30039DL TO BE EXHIBITED ON DEMAND$19SBSnellville PoliceCharges
11/25/2014 18:30HENLEYBRIANJ9951755599517555 4137 TROTTERS WAY DR, SNELLVILLE GA 30039*LESS THAN AN OZ OF MARIJ.$1300SBSnellville PoliceCharges
11/25/2014 18:30HENLEYBRIANJ9951755599517555 4137 TROTTERS WAY DR, SNELLVILLE GA 30039*VGCSA OF C/S$5700SBSnellville PoliceCharges
11/25/2014 18:30HENLEYBRIANJ9951755599517555 4137 TROTTERS WAY DR, SNELLVILLE GA 30039*VGCSA OF C/S$1300SBSnellville PoliceCharges
11/25/2014 18:30HENLEYBRIANJ9951755599517555 4137 TROTTERS WAY DR, SNELLVILLE GA 30039* SALE, DIST OR POSS DANGEROUS DRUGS$2400SBSnellville PoliceCharges
11/25/2014 18:0811/26/2014 19:32LAMOTTESTEWARTFICKES9923944099239454 1736 MONTRACHET DR, LAWRENCEVILLE GA 30043*VGCSA OF C/S$11200SBGwinnett County PoliceCharges
11/25/2014 18:0811/26/2014 19:32LAMOTTESTEWARTFICKES9923944099239454 1736 MONTRACHET DR, LAWRENCEVILLE GA 30043*LESS THAN AN OZ OF MARIJ.$1300SBGwinnett County PoliceCharges
11/25/2014 18:05GARCIA PEREZJORGE9950609799506097 1865 HOLLOW TRACE WAY, NORCROSS GA 30071FAILURE TO APPEAR$0NBNorcross PoliceCharges
11/25/2014 17:4411/26/2014 17:51FORDCHARLESWILLIAM9911450099114501 95 WILSON CT, LAWRENCEVILLE GA 30046OTHER OFFENSE$0NBGwinnett County SheriffCharges
11/25/2014 17:3911/26/2014 00:38VASQUEZADANDAVID9951755499517554 2212 W LAKE PLANTATION DRIVE, DULUTH GA 30096*NO DRIVERS LICENSE$705CBGwinnett County PoliceCharges
11/25/2014 16:1911/25/2014 23:28VELASQUEZHOMERO9951755399517553 5729 EVERGLADES TRL, NORCROSS GA 30071DRIVING WHILE UNLICENSED OR EXPIRED$732CBDuluth PoliceCharges
11/25/2014 16:1911/25/2014 23:28VELASQUEZHOMERO9951755399517553 5729 EVERGLADES TRL, NORCROSS GA 30071SPEEDING 19-23 OVER$213.25CBDuluth PoliceCharges
11/25/2014 16:09LEESANGIK9934346899343468 317 MYRTLE TRACE LN, SUWANEE GA 30024*VGCSA LESS THAN 1 OZ.$1150.25SBDuluth PoliceCharges
11/25/2014 16:09LEESANGIK9934346899343468 317 MYRTLE TRACE LN, SUWANEE GA 30024* VIOLATION OF PROBATION$0NBDuluth PoliceCharges
11/25/2014 16:0311/26/2014 19:15CONWAYLEONARDNATHAN9951755299517552 5585 LYWELLEN DR, STONE MOUNTAIN GA 30087HOLD FOR OTHER AGENCY$0NBGwinnett County PoliceCharges
11/25/2014 16:0311/26/2014 19:15CONWAYLEONARDNATHAN9951755299517552 5585 LYWELLEN DR, STONE MOUNTAIN GA 30087PASSING IN NO PASSING ZONE$56SBGwinnett County PoliceCharges
11/25/2014 15:5611/26/2014 02:01BOTELLO DIAZSEBASTION9951755199517551 420 LEIGH KAY DR, LAWRENCEVILLE GA 30045* THEFT BY SHOPLIFTING$788SBLawrenceville PoliceCharges
11/25/2014 15:4611/26/2014 08:49CHAMBERSCHARLESJAMES9951755099517550 3637 RIVER CLIFF CT, DECATUR GA 30034* OBTAINING DANGEROUS DRUGS BY FRAUD$1300SBLawrenceville PoliceCharges
11/25/2014 15:12HASSBERGERSPENSERLORD9924311199243111 2730 SUGARLOAF CLUB DRIVE, DULUTH GA 30097* VIOLATION OF PROBATION$0NBGwinnett County SheriffCharges
11/25/2014 15:0511/26/2014 01:37JENNINGSLATONYALYNN9948013499480134APT 518 2300 COUNTRY WALK, SNELLVILLE GA 30039@ * THEFT BY SHOPLIFTING$0ORGwinnett County PoliceCharges
11/25/2014 14:4411/26/2014 10:49OPOKUPRINCENANA9951754999517549 8307 WATERSTONE PLACE, BUFORD GA 30518@ * RECKLESS CONDUCT$1850SBGwinnett County SheriffCharges
11/25/2014 14:1211/25/2014 22:03WHITEHEADJOHNSAUL9906634099066340 1247 CASTLE WAY, NORCROSS GA 30093*THEFT X SHOPLIFTING$420CBLilburn PoliceCharges
11/25/2014 14:07EVANSDEMARIOLEWIS9943850199438501 4853 BURNS RD, LILBURN GA 30047@ * BATTERY$0NBGwinnett County PoliceCharges
11/25/2014 13:5711/25/2014 14:23HULSEYNORRISMAXWELL9951754899517548 5157 SPRING ST APT I4, FLOWERY BRANCH GA 30542@ * THEFT BY SHOPLIFTING$0NBGwinnett County SheriffCharges
11/25/2014 13:52MCABEEDEANRUSSELL9948292399482923 55 LANDRUM CIR APT 140 E, JASPER GA 30143FAILURE TO APPEAR$0NBGwinnett County SheriffCharges
11/25/2014 13:52MCABEEDEANRUSSELL9948292399482923 55 LANDRUM CIR APT 140 E, JASPER GA 30143FAILURE TO APPEAR$0NBGwinnett County SheriffCharges
11/25/2014 13:48PEZZAROSSIBYRONLANDON9951754799517547 906 WAVERLYHILLS CT, LAWRENCEVILLE GA 30044@ * THEFT BY TAKING$1300SBGwinnett County SheriffCharges
11/25/2014 13:38ORELLANO-ENRIQUEJOSESEBASTIAN9951754699517546 1493 EASTLAND RD, ATLANTA GA 30316* FINANCIAL IDENTITY FRAUD$5700SBGwinnett County SheriffCharges
11/25/2014 13:38ORELLANO-ENRIQUEJOSESEBASTIAN9951754699517546 1493 EASTLAND RD, ATLANTA GA 30316* FALSE IDENTIFICATION DOCUMENTS$2400SBGwinnett County SheriffCharges
11/25/2014 13:38ORELLANO-ENRIQUEJOSESEBASTIAN9951754699517546 1493 EASTLAND RD, ATLANTA GA 30316* GIVING FALSE NAME OR INFORMATION$2400SBGwinnett County SheriffCharges
11/25/2014 13:38ORELLANO-ENRIQUEJOSESEBASTIAN9951754699517546 1493 EASTLAND RD, ATLANTA GA 30316IMPROPER/ERRATIC LANE CHANGE$2400SBGwinnett County SheriffCharges
11/25/2014 13:38ORELLANO-ENRIQUEJOSESEBASTIAN9951754699517546 1493 EASTLAND RD, ATLANTA GA 30316HOLD FOR IMMIGRATION$0NBGwinnett County SheriffCharges
11/25/2014 13:38ORELLANO-ENRIQUEJOSESEBASTIAN9951754699517546 1493 EASTLAND RD, ATLANTA GA 30316* DRIVING WHILE LIC SUSP/REVOKED$2400SBGwinnett County SheriffCharges
11/25/2014 13:3111/25/2014 13:55BISHOPWHITNEYREAGAN9927447099274470 6274 MOUNT SALEM CIR, FLOWERY BRANCH GA 30542@ * THEFT BY SHOPLIFTING$0NBGwinnett County SheriffCharges
11/25/2014 13:21AMPHYANTHONYLAVELL9930601699306016 803 CLUBHOUSE POINTE, WOODSTOCK GA 30188* VIOLATION OF PROBATION$0NBGwinnett County SheriffCharges
11/25/2014 13:21AMPHYANTHONYLAVELL9930601699306016 803 CLUBHOUSE POINTE, WOODSTOCK GA 30188* VIOLATION OF PROBATION$0NBGwinnett County SheriffCharges
11/25/2014 13:21RICESTACEYELIZABETH9950068199500681 50 WHITMAN LOOP, ARAGON GA 30104VIOLATION OF PROBATION$523CBGwinnett County SheriffCharges
11/25/2014 13:21RICESTACEYELIZABETH9950068199500681 50 WHITMAN LOOP, ARAGON GA 30104* VIOLATION OF PROBATION$0NBGwinnett County SheriffCharges
11/25/2014 13:0911/26/2014 11:14EADSJOSEPHKEVIN9951754599517545 207 KENVILLA CT, TUCKER GA 30084FAILURE TO PAY/CHILD SUPPORT$2500FIGwinnett County SheriffCharges
11/25/2014 13:0511/26/2014 01:29SMITHKEEGANBAILEY9944018999440189 3939 BENNIGAN LN, DULUTH GA 30097DRIVING WITHIN A GORE OR MEDIAN$129.25SBDuluth PoliceCharges
11/25/2014 13:0511/26/2014 01:29SMITHKEEGANBAILEY9944018999440189 3939 BENNIGAN LN, DULUTH GA 30097DEFECTIVE TIRES$92SBDuluth PoliceCharges
11/25/2014 13:0511/26/2014 01:29SMITHKEEGANBAILEY9944018999440189 3939 BENNIGAN LN, DULUTH GA 30097*DUI ALCOHOL AND DRUGS$1623SBDuluth PoliceCharges
11/25/2014 12:5811/25/2014 20:49LITTLETONJADEYOLONDA9951754499517544 1310 TIMBERVALLEY CT, LAWRENCEVILLE GA 30045SPEEDING$180CBGwinnett County PoliceCharges
11/25/2014 12:5811/25/2014 20:49LITTLETONJADEYOLONDA9951754499517544 1310 TIMBERVALLEY CT, LAWRENCEVILLE GA 30045OPERATING MV W/OTHER LIC VHILE SUSP/REV$299CBGwinnett County PoliceCharges
11/25/2014 12:5611/25/2014 14:55NAVARRO-ALMENDARESMAYRASARAHI9946290599462905 1000 MONTAGE WAY APT 1213, ATLANTA GA 30341*DRIVING W/O LICENSE-FAIL OBTAIN 30 DAYS$0NBGwinnett County SheriffCharges
11/25/2014 12:48COLLINSSAMPSONJOE9934189799341897 3131 ALBION FARM RD, DULUTH GA 30097* VIOLATION OF PROBATION$0NBGwinnett County SheriffCharges
11/25/2014 12:41SIKESWILLIAMHERBERT9951754399517543 100 BROCKETT WAY, CLARKSTON GA 30021*HIT AND RUN$1300SBGwinnett County SheriffCharges
11/25/2014 12:41SIKESWILLIAMHERBERT9951754399517543 100 BROCKETT WAY, CLARKSTON GA 30021FAILURE TO MAINTAIN INSURANCE$1300SBGwinnett County SheriffCharges
11/25/2014 12:4011/25/2014 16:08BROWNBARRYALONZO9946941399469413 1309 ARBOR DR, DULUTH GA 30096@ * BATTERY$1300SBGwinnett County SheriffCharges
11/25/2014 12:4011/25/2014 16:08BROWNBARRYALONZO9946941399469413 1309 ARBOR DR, DULUTH GA 30096CRUELTY TO CHILDREN-3RD DEGREE$1300SBGwinnett County SheriffCharges
11/25/2014 12:32CHAVISREAGUSBERNARD9941727099417270 3204 MARTHA ST, SAVANNAH GA 31404* VIOLATION OF PROBATION$0NBGwinnett County SheriffCharges
11/25/2014 12:25ZEALEONARDO9951754299517542 3500 OAK HILL TRL, TALLAHASSEE FL 32312* DRIVING WHILE LIC SUSP/REVOKED$705SBGwinnett County PoliceCharges
11/25/2014 12:25ZEALEONARDO9951754299517542 3500 OAK HILL TRL, TALLAHASSEE FL 32312* USE OF LICENSE PLATE TO CONCEAL I.D.$705SBGwinnett County PoliceCharges
11/25/2014 12:25ZEALEONARDO9951754299517542 3500 OAK HILL TRL, TALLAHASSEE FL 32312NO PROOF OF INSURANCE$280SBGwinnett County PoliceCharges
11/25/2014 12:1611/26/2014 17:13LOFTONTURRONLONELL9947254599472545 241LOSSIE LN, MCDONOUGH GA 30253Violation of Probation$0NBGwinnett County SheriffCharges
11/25/2014 12:15ESCOBARDAVIDROBERT9936451699364516 1401 ANDREW CT, LAWRENCEVILLE GA 30043HOLD FOR COURT$0NBGwinnett County SheriffCharges
11/25/2014 12:0411/25/2014 14:58LUNAMARCELINOALCANTAR9951754199517541 4006 DORAL DR, ATLANTA GA 30360*NO DRIVERS LICENSE$0NBGwinnett County SheriffCharges
11/25/2014 12:02CORBITTERICMAURICE9936687499366874 4047 NORTHRIDGE WAY APT 8, NORCROSS GA 30093@ * SIMPLE BATTERY$0NBGwinnett County SheriffCharges
11/25/2014 12:02CORBITTERICMAURICE9936687499366874 4047 NORTHRIDGE WAY APT 8, NORCROSS GA 30093* PAROLE VIOLATION$0NBGwinnett County SheriffCharges
11/25/2014 11:5011/25/2014 15:00ABURTOMARCELOFERNANDO9951754099517540 1003 MUIRFIELD RUN, NORCROSS GA 30093*NO DRIVERS LICENSE$0NBGwinnett County SheriffCharges
11/25/2014 11:24FRIMPONGSAMUELKWAKU9951753999517539 707 BRIDEGE WAY, LAWRENCEVILLE GA 30046FAILURE TO PAY/CHILD SUPPORT$65325.57CBLawrenceville PoliceCharges
11/25/2014 11:24FRIMPONGSAMUELKWAKU9951753999517539 707 BRIDEGE WAY, LAWRENCEVILLE GA 30046HOLD FOR IMMIGRATION$0NBLawrenceville PoliceCharges
11/25/2014 11:1911/26/2014 00:36PASQUINIANTHONYDAMON9951753899517538 2551 RAINMAKER DR, DECATUR GA 30034*SUSPENDED/REVOKED LIC$816SBSnellville PoliceCharges
11/25/2014 11:1911/26/2014 00:36PASQUINIANTHONYDAMON9951753899517538 2551 RAINMAKER DR, DECATUR GA 30034SPEEDING 16-20 OVER$186.5SBSnellville PoliceCharges
11/25/2014 11:1911/26/2014 00:36PASQUINIANTHONYDAMON9951753899517538 2551 RAINMAKER DR, DECATUR GA 30034FAILURE TO MAINTAIN LANE$117SBSnellville PoliceCharges
11/25/2014 10:57JOHNSTONROBERTJOE9949785199497851 297 PRINCE ANTHONY DR, LAWRENCEVILLE GA 30044@ * THEFT BY SHOPLIFTING$693CBLawrenceville PoliceCharges
11/25/2014 10:25GLASSDELORESANN9947949099479490 1950 WILLOW TRAIL PKWY #236, NORCROSS GA 30093VIOLATION OF PROBATION$0NBDuluth PoliceCharges
11/25/2014 10:25GLASSDELORESANN9947949099479490 1950 WILLOW TRAIL PKWY #236, NORCROSS GA 30093FAILURE TO APPEAR$348CBDuluth PoliceCharges
11/25/2014 10:1511/25/2014 12:26VANDOUSERPAMELARUTH9951753799517537 105 SYCAMORE PL 210A, DECATUR GA 30030*DRIVING W/O LICENSE-FAIL OBTAIN 30 DAYS$0NBGwinnett County SheriffCharges
11/25/2014 09:2711/25/2014 12:02NAVARROERNESTOBLADIMIR9951753699517536 5991 CIRCLE 4 RANCH RD, FLOWERY BRANCH GA 30542*DRIVING W/O LICENSE-FAIL OBTAIN 30 DAYS$0NBGwinnett County SheriffCharges
11/25/2014 09:10STRINGERWES9800122799274057 79 INDIAN BRANCH WAY, LAWRENCEVILLE GA 30043* DRIVING WHILE LIC SUSP/REVOKED$0NBGwinnett County SheriffCharges
11/25/2014 09:10STRINGERWES9800122799274057 79 INDIAN BRANCH WAY, LAWRENCEVILLE GA 30043Violation of Probation$0NBGwinnett County SheriffCharges
11/25/2014 09:0310/08/2014 17:03BARRONJASONBRANEN9949100099491000 5520 BLACK RD, CLEVELAND GA 30258*VGCSA OF C/S$0NBBarrow County SOCharges
11/25/2014 09:0310/08/2014 17:03BARRONJASONBRANEN9949100099491000 5520 BLACK RD, CLEVELAND GA 30258* DUI-ALCOHOL$1300SBBarrow County SOCharges
11/25/2014 09:0310/08/2014 17:03BARRONJASONBRANEN9949100099491000 5520 BLACK RD, CLEVELAND GA 30258IMPROPER/ERRATIC LANE CHANGE$1300SBBarrow County SOCharges
11/25/2014 09:0310/08/2014 17:03BARRONJASONBRANEN9949100099491000 5520 BLACK RD, CLEVELAND GA 30258Violation of Probation$1071CBBarrow County SOCharges
11/25/2014 09:0310/08/2014 17:03BARRONJASONBRANEN9949100099491000 5520 BLACK RD, CLEVELAND GA 30258* DRIVING WHILE LIC SUSP/REVOKED$1300SBBarrow County SOCharges
11/25/2014 09:0310/08/2014 17:03BARRONJASONBRANEN9949100099491000 5520 BLACK RD, CLEVELAND GA 30258HOLD FOR OTHER AGENCY$0NBBarrow County SOCharges
11/25/2014 09:0311/12/2014 09:46BARRONJASONBRANEN9949100099491000 5520 BLACK RD, CLEVELAND GA 30258*VGCSA OF C/S$0NBBarrow County SOCharges
11/25/2014 09:0311/12/2014 09:46BARRONJASONBRANEN9949100099491000 5520 BLACK RD, CLEVELAND GA 30258* DRIVING WHILE LIC SUSP/REVOKED$1300SBBarrow County SOCharges
11/25/2014 09:0311/12/2014 09:46BARRONJASONBRANEN9949100099491000 5520 BLACK RD, CLEVELAND GA 30258Violation of Probation$1071CBBarrow County SOCharges
11/25/2014 09:0311/12/2014 09:46BARRONJASONBRANEN9949100099491000 5520 BLACK RD, CLEVELAND GA 30258Violation of Probation$0NBBarrow County SOCharges
11/25/2014 09:0311/12/2014 09:46BARRONJASONBRANEN9949100099491000 5520 BLACK RD, CLEVELAND GA 30258HOLD FOR OTHER AGENCY$0NBBarrow County SOCharges
11/25/2014 09:0311/12/2014 09:46BARRONJASONBRANEN9949100099491000 5520 BLACK RD, CLEVELAND GA 30258IMPROPER/ERRATIC LANE CHANGE$1300SBBarrow County SOCharges
11/25/2014 09:0311/12/2014 09:46BARRONJASONBRANEN9949100099491000 5520 BLACK RD, CLEVELAND GA 30258* DUI-ALCOHOL$1300SBBarrow County SOCharges
11/25/2014 09:0310/08/2014 17:03BARRONJASONBRANEN9949100099491000 5520 BLACK RD, CLEVELAND GA 30258Violation of Probation$0NBBarrow County SOCharges
11/25/2014 06:4411/25/2014 22:49KIMYOUNGRONG9928586599285865 542 BRADFORD PLACE CT, LOGANVILLE GA 30052* DUI-ALCOHOL$2006CBGwinnett County PoliceCharges
11/25/2014 06:4411/25/2014 22:49KIMYOUNGRONG9928586599285865 542 BRADFORD PLACE CT, LOGANVILLE GA 30052* DRIVING WHILE LICENSE WITHDRAWN$705CBGwinnett County PoliceCharges
11/25/2014 06:1811/26/2014 14:03VELASCOERASTOMIGUEL9938187799381877APT 1184 1250 OLD NORCROSS TUCKER RD, TUCKER GA 30084* DUI-ALCOHOL$2006CBGwinnett County PoliceCharges
11/25/2014 06:1811/26/2014 14:03VELASCOERASTOMIGUEL9938187799381877APT 1184 1250 OLD NORCROSS TUCKER RD, TUCKER GA 30084HOLD FOR IMMIGRATION$0NBGwinnett County PoliceCharges
11/25/2014 06:02BROWNMEREDITHHAYNIE9948446199484461 515 HARVARD DRIVE NW, LILBURN GA 30047FAILURE TO APPEAR$438.5CBGwinnett County PoliceCharges
11/25/2014 06:02BROWNMEREDITHHAYNIE9948446199484461 515 HARVARD DRIVE NW, LILBURN GA 30047@ * BURGLARY$0NBGwinnett County PoliceCharges
11/25/2014 06:02BROWNMEREDITHHAYNIE9948446199484461 515 HARVARD DRIVE NW, LILBURN GA 30047* OBSTRUCTION LAW ENFORCEMENT OFFICER$1300SBGwinnett County PoliceCharges
11/25/2014 05:43SHELTONMICHAELLYNN9951753599517535 209 JONES RD LOT A8, CHURCH HILL TN 37642POSS OF OPEN ALCOHOL CONTAINER$2950CBGwinnett County PoliceCharges
11/25/2014 05:43SHELTONMICHAELLYNN9951753599517535 209 JONES RD LOT A8, CHURCH HILL TN 37642* INTERFER. WITH CALL FOR EMER. ASSIST.$2950CBGwinnett County PoliceCharges
11/25/2014 04:3511/25/2014 22:53DUFFIELEWISMALIK9951753099517530 2001 HUNTERS CLUB LN, NORCROSS GA 30093*DUI$1419.5SBSuwanee PoliceCharges
11/25/2014 04:3511/25/2014 22:53DUFFIELEWISMALIK9951753099517530 2001 HUNTERS CLUB LN, NORCROSS GA 30093IMPROPER LN CHANGE/FAIL TO MAINTAIN LN$123SBSuwanee PoliceCharges
11/25/2014 04:3511/25/2014 22:53DUFFIELEWISMALIK9951753099517530 2001 HUNTERS CLUB LN, NORCROSS GA 30093OPEN CONTAINER$286SBSuwanee PoliceCharges
11/25/2014 04:3511/25/2014 22:53DUFFIELEWISMALIK9951753099517530 2001 HUNTERS CLUB LN, NORCROSS GA 30093EXPIRED TAG$150SBSuwanee PoliceCharges
11/25/2014 04:3511/25/2014 22:53DUFFIELEWISMALIK9951753099517530 2001 HUNTERS CLUB LN, NORCROSS GA 30093UNSAFE TIRES$123SBSuwanee PoliceCharges
11/25/2014 04:11STARRKESEANJERONE9951752999517529 522 MARSH LAKE RD, LAWRENCEVILLE GA 30045@ * ROBBERY$0NBGwinnett County PoliceCharges
11/25/2014 04:11STARRKESEANJERONE9951752999517529 522 MARSH LAKE RD, LAWRENCEVILLE GA 30045@ * BATTERY$5700CBGwinnett County PoliceCharges
11/25/2014 04:00LOGANARJUNA9950945199509451 6107 TRACY VALLEY DR, NORCROSS GA 30093@ * ROBBERY$0NBGwinnett County PoliceCharges
11/25/2014 04:00LOGANARJUNA9950945199509451 6107 TRACY VALLEY DR, NORCROSS GA 30093@ * AGGRAVATED ASSAULT$0NBGwinnett County PoliceCharges
11/25/2014 04:00LOGANARJUNA9950945199509451 6107 TRACY VALLEY DR, NORCROSS GA 30093FAILURE TO OBEY STOP SIGN$68SBGwinnett County PoliceCharges
11/25/2014 04:00LOGANARJUNA9950945199509451 6107 TRACY VALLEY DR, NORCROSS GA 30093@ * BATTERY$5700CBGwinnett County PoliceCharges
11/25/2014 04:00LOGANARJUNA9950945199509451 6107 TRACY VALLEY DR, NORCROSS GA 30093* POSS OF FIREARM BY MINOR$1300SBGwinnett County PoliceCharges
11/25/2014 04:00LOGANARJUNA9950945199509451 6107 TRACY VALLEY DR, NORCROSS GA 30093* POSS OF A WEAPON DURING A CRIME$5700SBGwinnett County PoliceCharges
11/25/2014 04:00LOGANARJUNA9950945199509451 6107 TRACY VALLEY DR, NORCROSS GA 30093*DRIVING WHILE UNLICENSED LICENSE$758.75SBGwinnett County PoliceCharges
11/25/2014 04:00LOGANARJUNA9950945199509451 6107 TRACY VALLEY DR, NORCROSS GA 30093SPEEDING$188SBGwinnett County PoliceCharges
11/25/2014 04:00LOGANARJUNA9950945199509451 6107 TRACY VALLEY DR, NORCROSS GA 30093*VGCSA POSS OF MARIJUANA W/INTENT TO DIS$5700SBGwinnett County PoliceCharges
11/25/2014 04:00LOGANARJUNA9950945199509451 6107 TRACY VALLEY DR, NORCROSS GA 30093*NO DRIVERS LICENSE$705SBGwinnett County PoliceCharges
11/25/2014 03:4611/25/2014 14:40ALICICSELMA9951752899517528 2996 ARDEN WAY, SNELLVILLE GA 30039Violation of Probation$433FIGwinnett County PoliceCharges
11/25/2014 03:27DELPHAMBERMEGAN9500280895002808 11 JUNIPER DR, ROME GA 30161PROBATION VIOLATON$0NBDuluth PoliceCharges
11/25/2014 03:27DELPHAMBERMEGAN9500280895002808 11 JUNIPER DR, ROME GA 30161HOLD FOR OTHER AGENCY$0NBDuluth PoliceCharges
11/25/2014 02:1711/25/2014 05:52LEVISTERCURTISJAMES9946730099467300 705 STATION VIEW RUN, LAWRENCEVILLE GA 30043TAIL LIGHTS$68SBGwinnett County PoliceCharges
11/25/2014 02:1711/25/2014 05:52LEVISTERCURTISJAMES9946730099467300 705 STATION VIEW RUN, LAWRENCEVILLE GA 30043* DRIVING WHILE LIC SUSP/REVOKED$705SBGwinnett County PoliceCharges
11/25/2014 02:1111/25/2014 02:38FIELDSWADDELLKEITH9934127899341278 1706 OAK WOODS CT, LAWRENCEVILLE GA 30043*NO DRIVERS LICENSE$0NBGwinnett County SheriffCharges
11/25/2014 02:0711/25/2014 20:24TATEJENNIFERRHEA9400627799510619 4960 BRASELTON HWY, HOSCHTON GA 30548FAILURE TO APPEAR$196CBGwinnett County SheriffCharges
11/25/2014 02:0211/27/2014 11:21BODYLA'CURYAD'SHAE9946173999461739 5271 B WILLIAMS RD, NORCROSS GA 30093HOLD FOR OTHER AGENCY$0NBGwinnett County PoliceCharges
11/25/2014 02:0211/27/2014 11:21BODYLA'CURYAD'SHAE9946173999461739 5271 B WILLIAMS RD, NORCROSS GA 30093HEADLIGHTS$68SBGwinnett County PoliceCharges
11/25/2014 02:0211/27/2014 11:21BODYLA'CURYAD'SHAE9946173999461739 5271 B WILLIAMS RD, NORCROSS GA 30093AT LEAST ONE BRAKE LIGHT$68SBGwinnett County PoliceCharges
11/25/2014 02:0211/27/2014 11:21BODYLA'CURYAD'SHAE9946173999461739 5271 B WILLIAMS RD, NORCROSS GA 30093FAILURE TO APPEAR$376CBGwinnett County PoliceCharges
11/25/2014 02:0211/27/2014 11:21BODYLA'CURYAD'SHAE9946173999461739 5271 B WILLIAMS RD, NORCROSS GA 30093* DRIVING WHILE LIC SUSP/REVOKED$705SBGwinnett County PoliceCharges
11/25/2014 02:0211/27/2014 11:21BODYLA'CURYAD'SHAE9946173999461739 5271 B WILLIAMS RD, NORCROSS GA 30093TAG LIGHT VISIBLE 50 FT.$68SBGwinnett County PoliceCharges
11/25/2014 01:5611/25/2014 10:25ANTAKIKANESUEKPENYONG9908844899253807 1302 GWINNETT SQUARE CIR, DULUTH GA 30096FAILURE TO APPEAR$305CBGwinnett County PoliceCharges
11/25/2014 01:5511/25/2014 10:16GUILLEN JRRODOLFO9951752799517527 3482 CHAFFIN RDG, DULUTH GA 30096STRIKING UNATTENDED VEHICLE$152SBGwinnett County PoliceCharges
11/25/2014 01:5511/25/2014 10:16GUILLEN JRRODOLFO9951752799517527 3482 CHAFFIN RDG, DULUTH GA 30096* DUI-ALCOHOL$2006SBGwinnett County PoliceCharges
11/25/2014 01:5511/25/2014 10:16GUILLEN JRRODOLFO9951752799517527 3482 CHAFFIN RDG, DULUTH GA 30096* PURCHASE/POSS ALCOHOL PERSON UNDER 21$135SBGwinnett County PoliceCharges
11/25/2014 01:4411/25/2014 21:53MONTGOMERYJAVONCLAYTON9951752299517522 448 ORCHARD DR, STONE MOUNTAIN GA 30083HOLD FOR OTHER AGENCY$0NBGwinnett County PoliceCharges
11/25/2014 01:3411/25/2014 08:36PLUMLEYROBERTLEE9919805399198053 3414 CHIPMUNK TRL, GAINESVILLE GA 30507HOLD FOR OTHER AGENCY$0NBGwinnett County SheriffCharges
11/25/2014 01:2611/27/2014 00:39FIGGURESKEVINHA-SHEM9951752199517521 1919 STEVENS AVE, ELKHART IN 46516TO BE IN PARK AFTER HOURS$135ORGwinnett County PoliceCharges
11/25/2014 01:2611/27/2014 00:39FIGGURESKEVINHA-SHEM9951752199517521 1919 STEVENS AVE, ELKHART IN 46516* DRIVING WHILE LIC SUSP/REVOKED$705ORGwinnett County PoliceCharges
11/25/2014 01:2611/27/2014 00:39FIGGURESKEVINHA-SHEM9951752199517521 1919 STEVENS AVE, ELKHART IN 46516POSSESSION OF LESS 1 OZ. MARIJUANA$585ORGwinnett County PoliceCharges
11/25/2014 01:2311/25/2014 09:34MURADOMARIMATTHEW9951752099517520 2078 ALCOVY SHOALS BLUFF, LAWRENCEVILLE GA 30045POSSESSION OF LESS THAN OZ MARIJUANA$585SBGwinnett County PoliceCharges
11/25/2014 00:52BONDSMENESHACORSHEA9951751999517519 4568 HICKORY BRANCH DR, MEMPHIS TN 38141ESCORT WITHOUT LICENSE$140SBGwinnett County PoliceCharges
11/25/2014 00:52BONDSMENESHACORSHEA9951751999517519 4568 HICKORY BRANCH DR, MEMPHIS TN 38141* PROSTITUTION$1300SBGwinnett County PoliceCharges
11/25/2014 00:52BONDSMENESHACORSHEA9951751999517519 4568 HICKORY BRANCH DR, MEMPHIS TN 38141* KEEPING A PLACE OF PROSTITUTION$1300SBGwinnett County PoliceCharges
11/25/2014 00:52BONDSMENESHACORSHEA9951751999517519 4568 HICKORY BRANCH DR, MEMPHIS TN 38141*LESS THAN AN OZ OF MARIJ.$650SBGwinnett County PoliceCharges
11/25/2014 00:39GIBSONCARLEDWARD9917606499176064 76 SYCAMORE ROAD, WETUMPKA AL 36092* VIOLATION OF PROBATION$0NBGwinnett County SheriffCharges
11/25/2014 00:18WILCOXDONNIE9911390499113904 731 WEST 7TH ST, ADEL GA 31620* PAROLE VIOLATION$0NBGwinnett County PoliceCharges
11/25/2014 00:0911/26/2014 23:28GRANBERRYJASONADAM9800881598008815 3942 SUMMER PLACE, SNELLVILLE GA 30039* DRIVING WHILE LIC SUSP/REVOKED$705ORGwinnett County PoliceCharges
11/25/2014 00:0911/26/2014 23:28GRANBERRYJASONADAM9800881598008815 3942 SUMMER PLACE, SNELLVILLE GA 30039LOITERING & PROWLING$140ORGwinnett County PoliceCharges
11/25/2014 00:0011/25/2014 06:52CORNELIUSINDIADOMINIQUE9951751699517516 3525 CLUB DR, APT. 216, LAWRENCEVILLE GA 30044FAILURE TO APPEAR$100CBGwinnett County PoliceCharges
11/25/2014 00:0011/25/2014 06:52CORNELIUSINDIADOMINIQUE9951751699517516 3525 CLUB DR, APT. 216, LAWRENCEVILLE GA 30044TAG LIGHT VISIBLE 50 FT.$68CBGwinnett County PoliceCharges
11/24/2014 23:43JOHNSONDAVIDLEE9903019399030193 1123 MARTINS CHAPEL RD, LAWRENCEVILLE GA 30045* VIOLATION OF PROBATION$0NBGwinnett County SheriffCharges
11/24/2014 23:43JOHNSONDAVIDLEE9903019399030193 1123 MARTINS CHAPEL RD, LAWRENCEVILLE GA 30045* VGCSA-SCHEDULE II$0NBGwinnett County SheriffCharges
11/24/2014 23:43JOHNSONDAVIDLEE9903019399030193 1123 MARTINS CHAPEL RD, LAWRENCEVILLE GA 30045* OBSTRUCTION LAW ENFORCEMENT OFFICER$2400SBGwinnett County SheriffCharges
11/24/2014 23:43JOHNSONDAVIDLEE9903019399030193 1123 MARTINS CHAPEL RD, LAWRENCEVILLE GA 30045* OBSTRUCTION LAW ENFORCEMENT OFFICER$2400SBGwinnett County SheriffCharges
11/24/2014 23:43JOHNSONDAVIDLEE9903019399030193 1123 MARTINS CHAPEL RD, LAWRENCEVILLE GA 30045FAILURE TO HAVE LICENSE ON PERSON$19SBGwinnett County SheriffCharges
11/24/2014 23:43JOHNSONDAVIDLEE9903019399030193 1123 MARTINS CHAPEL RD, LAWRENCEVILLE GA 30045EXPIRED TAG$152SBGwinnett County SheriffCharges
11/24/2014 23:43JOHNSONDAVIDLEE9903019399030193 1123 MARTINS CHAPEL RD, LAWRENCEVILLE GA 30045EXPIRED LICENSE$68SBGwinnett County SheriffCharges
11/24/2014 23:31WILLIAMSANTHONYDOMANIQUE9935549099355506 2772 SAM CALVIN DR, DACULA GA 30019* VIOLATION OF PROBATION$0NBGwinnett County SheriffCharges
11/24/2014 23:2111/25/2014 15:13ZHANGYONG9951751599517515 745 CATAMOUNT WAY, LILBURN GA 30047@ * BATTERY$3500SBGwinnett County PoliceCharges
11/24/2014 23:1511/25/2014 13:15BROWNXAVIERDAVONTE9951751499517514 1120 HARBOR GROVE, BUFORD GA 30518* POSS. <1oz Marijuana$654SBLawrenceville PoliceCharges
11/24/2014 23:1511/25/2014 13:15BROWNXAVIERDAVONTE9951751499517514 1120 HARBOR GROVE, BUFORD GA 30518NO INSURANCE$440SBLawrenceville PoliceCharges
11/24/2014 23:1511/25/2014 13:15BROWNXAVIERDAVONTE9951751499517514 1120 HARBOR GROVE, BUFORD GA 30518POSS OF DRUG RELATED OBJECTS$390SBLawrenceville PoliceCharges
11/24/2014 23:1511/25/2014 13:15BROWNXAVIERDAVONTE9951751499517514 1120 HARBOR GROVE, BUFORD GA 30518DRIVING WITH SUSPENDED TAG$803SBLawrenceville PoliceCharges
11/24/2014 23:09ASSAMOIEDOUARD9946003299509106 114 NOBLE DRIVE APT 114, NORCROSS GA 30092* VIOLATION OF PROBATION$0NBGwinnett County SheriffCharges
11/24/2014 23:0511/25/2014 17:20GOODWINJEFFERYBERNARD9950753399507533 2831 HARRIS ST, EASTPOINT GA 30344FAILURE TO APPEAR$4100CBGwinnett County SheriffCharges
11/24/2014 23:00WILLIAMSROBERTWESLEY9943027799430277 1316 WOODLAWN ST, PITTSBURG PA 15221* VIOLATION OF PROBATION$0NBPrisoner Transport ServicesCharges
11/24/2014 22:55MONCRIEFFEERICKBRANDON9942502699425026 9 HIDDEN VALLEY DR, LAWRENCEVILLE GA 30044FAILURE TO APPEAR$0NBPrisoner Transport ServicesCharges
11/24/2014 22:55MONCRIEFFEERICKBRANDON9942502699425026 9 HIDDEN VALLEY DR, LAWRENCEVILLE GA 30044HOLD FOR OTHER AGENCY$0NBPrisoner Transport ServicesCharges
11/24/2014 22:5211/25/2014 04:48MEJIA-FUENTESWILLYANTONIO9949361899493618 3094 ABBOTTS OAK WAY, DULUTH GA 30097@ * THEFT BY SHOPLIFTING$1850SBDuluth PoliceCharges
11/24/2014 22:5211/25/2014 04:48MEJIA-FUENTESWILLYANTONIO9949361899493618 3094 ABBOTTS OAK WAY, DULUTH GA 30097* PURCHASE OR POSS OF ALCOHOL BY MINOR$1850SBDuluth PoliceCharges
11/24/2014 22:5211/25/2014 04:48MEJIA-FUENTESWILLYANTONIO9949361899493618 3094 ABBOTTS OAK WAY, DULUTH GA 30097* OBSTRUCTION LAW ENFORCEMENT OFFICER$1850SBDuluth PoliceCharges
11/24/2014 22:4611/25/2014 07:24SMALLSLISAMARIE9949320599493205 2591 LANDINGTON WAY, DULUTH GA 30096* PROSTITUTION$1300SBGwinnett County PoliceCharges
11/24/2014 22:4611/25/2014 07:24SMALLSLISAMARIE9949320599493205 2591 LANDINGTON WAY, DULUTH GA 30096* KEEPING A PLACE OF PROSTITUTION$1300SBGwinnett County PoliceCharges
11/24/2014 22:4211/27/2014 11:19JORDANMARCENA9951751399517531 3212 CANDLEWOOD DR APT D, EAST POINT GA 30044* PROSTITUTION$1300SBGwinnett County PoliceCharges
11/24/2014 22:4211/27/2014 11:19JORDANMARCENA9951751399517531 3212 CANDLEWOOD DR APT D, EAST POINT GA 30044* KEEPING A PLACE OF PROSTITUTION$1300SBGwinnett County PoliceCharges
11/24/2014 22:4211/27/2014 11:19JORDANMARCENA9951751399517531 3212 CANDLEWOOD DR APT D, EAST POINT GA 30044HOLD FOR OTHER AGENCY$0NBGwinnett County PoliceCharges
11/24/2014 22:4211/27/2014 11:19JORDANMARCENA9951751399517531 3212 CANDLEWOOD DR APT D, EAST POINT GA 30044* GIVING FALSE NAME OR INFORMATION$2400SBGwinnett County PoliceCharges
11/24/2014 22:4211/27/2014 11:19JORDANMARCENA9951751399517531 3212 CANDLEWOOD DR APT D, EAST POINT GA 30044HOLD FOR OTHER AGENCY$0NBGwinnett County PoliceCharges
11/24/2014 22:37MEDRANO-MELENDEZJOSE MARTIR9951751299517512 1635 PIRKLE RD APT# 703, NORCROSS GA 30093@ * AGGRAVATED ASSAULT$11200SBGwinnett County PoliceCharges
11/24/2014 22:37MEDRANO-MELENDEZJOSE MARTIR9951751299517512 1635 PIRKLE RD APT# 703, NORCROSS GA 30093HOLD FOR IMMIGRATION$0NBGwinnett County PoliceCharges
11/24/2014 22:30MELENDEZ VENTURAJOSEOSMAR9951751199517511 1635 PIRKLE RD APT#703, NORCROSS GA 30093@ * BATTERY$4050SBGwinnett County PoliceCharges
11/24/2014 22:30MELENDEZ VENTURAJOSEOSMAR9951751199517511 1635 PIRKLE RD APT#703, NORCROSS GA 30093HOLD FOR IMMIGRATION$0NBGwinnett County PoliceCharges
11/24/2014 22:05ROMEROCARLOS9951751099517510 404 WOODCLIFF DR, LILBURN GA 30047@ * BATTERY$1300SBGwinnett County SheriffCharges
11/24/2014 22:05ROMEROCARLOS9951751099517510 404 WOODCLIFF DR, LILBURN GA 30047CRUELTY TO CHILDREN-3RD DEGREE$1300SBGwinnett County SheriffCharges
11/24/2014 22:05ROMEROCARLOS9951751099517510 404 WOODCLIFF DR, LILBURN GA 30047CRUELTY TO CHILDREN-3RD DEGREE$1300SBGwinnett County SheriffCharges
11/24/2014 22:05ROMEROCARLOS9951751099517510 404 WOODCLIFF DR, LILBURN GA 30047CRUELTY TO CHILDREN-3RD DEGREE$1300SBGwinnett County SheriffCharges
11/24/2014 22:05ROMEROCARLOS9951751099517510 404 WOODCLIFF DR, LILBURN GA 30047CRUELTY TO CHILDREN-3RD DEGREE$1300SBGwinnett County SheriffCharges
11/24/2014 22:05ROMEROCARLOS9951751099517510 404 WOODCLIFF DR, LILBURN GA 30047HOLD FOR IMMIGRATION$0NBGwinnett County SheriffCharges
11/24/2014 21:2111/25/2014 09:27PATTERSONDANIELSCOTT9951750999517509 460 TANNER RD, DACULA GA 30019HOLD FOR OTHER AGENCY$0NBGwinnett County SheriffCharges
11/24/2014 21:2111/25/2014 09:27PATTERSONDANIELSCOTT9951750999517509 460 TANNER RD, DACULA GA 30019HOLD FOR OTHER AGENCY$0NBGwinnett County SheriffCharges
11/24/2014 21:1311/25/2014 19:11FLORES MARTINEZFRANCISCO9947701199477028 5321 COVENTRY CT, NORCROSS GA 30071POSS OF < 1 OZ OF MARIJ.$585CBGwinnett County PoliceCharges
11/24/2014 21:0911/25/2014 03:00LAUJORDAN9947557299475572 4195 HOPKINS BLUFF WAY, DULUTH GA 30096POSS OF < 1 OZ OF MARIJ.$585CBGwinnett County PoliceCharges
11/24/2014 20:45HOWEJASONMICHAEL9907250199072501 555 TANNERS LN, BETHLEHEM GA 30620* VIOLATION OF PROBATION$0NBGwinnett County SheriffCharges
11/24/2014 20:45HOWEJASONMICHAEL9907250199072501 555 TANNERS LN, BETHLEHEM GA 30620* VIOLATION OF PROBATION$0NBGwinnett County SheriffCharges
11/24/2014 20:24FERGUSONADRIANNAMICHELLE9946053699460536 570 MATTIE FARM PL, LAWRENCEVILLE GA 30044POSS OF < 1 OZ OF MARIJ.$585ORGwinnett County PoliceCharges
11/24/2014 20:24FERGUSONADRIANNAMICHELLE9946053699460536 570 MATTIE FARM PL, LAWRENCEVILLE GA 30044* VIOLATION OF PROBATION$0NBGwinnett County PoliceCharges
11/24/2014 20:21SCRIVENTUWANADENEAN9951750899517508 5400 MEMORIAL DR APT 24F, STONE MOUNTAIN GA 30083FAILURE TO APPEAR$856CBGwinnett County PoliceCharges
11/24/2014 20:10LEWISCLEVONTETSHON9947716299477162 5409 TREE SUMMIT PKWY, DULUTH GA 30096*FORGERY 4TH DEGREE$5700SBDuluth PoliceCharges
11/24/2014 20:10LEWISCLEVONTETSHON9947716299477162 5409 TREE SUMMIT PKWY, DULUTH GA 30096FAILURE TO APPEAR$705CBDuluth PoliceCharges
11/24/2014 20:10LEWISCLEVONTETSHON9947716299477162 5409 TREE SUMMIT PKWY, DULUTH GA 30096HOLD FOR OTHER AGENCY$0NBDuluth PoliceCharges
11/24/2014 20:0111/25/2014 13:37PEREZANGELROBERT9951750799517507 1579 LAWRENCEVILLE-SUWANEE RD, LAWRENCEVILLE GA 30043HOLD FOR OTHER AGENCY$0NBSuwanee PoliceCharges
11/24/2014 20:0111/25/2014 13:37PEREZANGELROBERT9951750799517507 1579 LAWRENCEVILLE-SUWANEE RD, LAWRENCEVILLE GA 30043SEATBELT VIOLATION/OVER 18 YRS OLD$15SBSuwanee PoliceCharges
11/24/2014 20:0111/25/2014 13:37PEREZANGELROBERT9951750799517507 1579 LAWRENCEVILLE-SUWANEE RD, LAWRENCEVILLE GA 30043*SUSPENDED LICENSE$1176.25SBSuwanee PoliceCharges
11/24/2014 19:3911/24/2014 23:43WILKINSZABRINAANTOINETTE9944286299442862 3350 SWEETWATER RD APT 401, LAWRENCEVILLE GA 30044* THEFT BY SHOPLIFTING$788CBLawrenceville PoliceCharges
11/24/2014 19:2111/25/2014 01:09PRAWLDAVIDJOHN HORNETT9951038099510380 1157 BRAMLETT FORSET CT, LAWRENCEVILLE GA 30045* DRIVING WHILE LIC SUSP/REVOKED$705SBGwinnett County PoliceCharges
11/24/2014 19:16GILES-BLAYLOCKNOELRICKONYA9928796699319547 5414 NORTON AVE, KANSAS CITY MO 64130FAILURE TO APPEAR$0NBPrisoner Transport ServicesCharges
11/24/2014 19:16GILES-BLAYLOCKNOELRICKONYA9928796699319547 5414 NORTON AVE, KANSAS CITY MO 64130* BAIL JUMPING$0NBPrisoner Transport ServicesCharges
11/24/2014 19:1011/25/2014 22:13PEREZ-AJUCUCHEATHER9951034499510344 4717 ALPINE DR, LILBURN GA 30047FAILURE TO APPEAR$820CBGwinnett County PoliceCharges
11/24/2014 19:1011/25/2014 22:13PEREZ-AJUCUCHEATHER9951034499510344 4717 ALPINE DR, LILBURN GA 30047@ * BATTERY$1300SBGwinnett County PoliceCharges
11/24/2014 18:5811/25/2014 02:31PETTYSHAMAYAFONCE9951750699517506 2274 SALT SPRINGS PL, AUSTELL GA 30168HOLD FOR OTHER AGENCY$0NBDuluth PoliceCharges
11/24/2014 18:4511/25/2014 00:16CULPSTACEYLEE9951750499517504 102 CLUB LAKES PKWY, LAWRENCEVILLE GA 30044@ * THEFT BY SHOPLIFTING$1300SBGwinnett County PoliceCharges
11/24/2014 18:3211/25/2014 11:15WOOTENTE DREALNICOLE9951750399517503 8205 DUNLEAF ARC WAY, NORCROSS GA 30093Violation of Probation$0NBGwinnett County SheriffCharges
11/24/2014 18:21POWELLANGELAMICHELLE9928830199288301 816 N CLAYTON ST APT 3, LAWRENCEVILLE GA 30046OTHER OFFENSE$0NBGwinnett County SheriffCharges
11/24/2014 18:1911/26/2014 14:18COLONDARLENEEVETTE9946804299468042 4981 WHITEWATER DR, PEACHTREE CORNERS GA 30092OTHER OFFENSE$0NBGwinnett County SheriffCharges
11/24/2014 18:13NEALCARLLADAREIN9948958499489584LOT 23C 4255 SMOKECREEK PKWY, SNELLVILLE GA 30039OTHER OFFENSE$0NBGwinnett County SheriffCharges
11/24/2014 17:5911/25/2014 01:38DANIELOSWALD9951750299517502 1081 WILDWOOD WAKE BEND, DACULA GA 30019@ * SIMPLE BATTERY$2400SBGwinnett County PoliceCharges
11/24/2014 17:5911/25/2014 01:38DANIELOSWALD9951750299517502 1081 WILDWOOD WAKE BEND, DACULA GA 30019@ * BATTERY$2400SBGwinnett County PoliceCharges
11/24/2014 17:2811/24/2014 23:41WILLIAMSMARYKATHERINE9951750199517501 5371 APPLE GROVE RD, BUFORD GA 30519* VGCSA-SCHEDULE II$11200SBGwinnett County SheriffCharges
11/24/2014 17:22MOOREVENETTA9951750099517500 51 CALDWELL RD, LAWRENCEVILLE GA 30046@ * AGGRAVATED ASSAULT$0NBLawrenceville PoliceCharges
11/24/2014 17:22MOOREVENETTA9951750099517500 51 CALDWELL RD, LAWRENCEVILLE GA 30046CRUELTY TO CHILDREN-3RD DEGREE$2950SBLawrenceville PoliceCharges
11/24/2014 17:22MOOREVENETTA9951750099517500 51 CALDWELL RD, LAWRENCEVILLE GA 30046CRUELTY TO CHILDREN-3RD DEGREE$2950SBLawrenceville PoliceCharges
11/24/2014 16:3211/24/2014 21:11DUKECEDRICF9951749999517499 4700 LAKE HILL TRL, ELLENWOOD GA 30294VEHICLE RECORDS MUST BE KEPT$1300SBGwinnett County SheriffCharges
11/24/2014 15:5411/25/2014 18:15PALACIOSMARCOSDAVID9923058399230583 202 LAKE DR APT#A &B, DORAVILLE GA 30340* FINANCIAL IDENTITY FRAUD$5700SBGA Dept. of TransportationCharges
11/24/2014 15:5411/25/2014 18:15PALACIOSMARCOSDAVID9923058399230583 202 LAKE DR APT#A &B, DORAVILLE GA 30340* FORGERY-1ST DEGREE$5700SBGA Dept. of TransportationCharges
11/24/2014 15:37BERRYMANJESSICAAARON9949319599493195 1049 GRIFFIN ST, STONE MOUNTAIN GA 30083* VIOLATION OF PROBATION$0NBGwinnett County SheriffCharges
11/24/2014 15:0311/24/2014 22:21RIZVISYED ALAY ALI9951749699517496 8105 WOOD IRON DR, DULUTH GA 30097FAILURE TO APPEAR$315CBGwinnett County SheriffCharges
11/24/2014 15:0311/24/2014 22:21RIZVISYED ALAY ALI9951749699517496 8105 WOOD IRON DR, DULUTH GA 30097FAILURE TO APPEAR$280CBGwinnett County SheriffCharges
11/24/2014 14:5011/26/2014 00:30HERNANDEZ-ORDONEZPAOLA9951749499517494 3396 HAMILTON MILL ROAD, BUFORD GA 30519@ * THEFT BY SHOPLIFTING$0NBGwinnett County SheriffCharges
11/24/2014 14:5011/26/2014 00:30HERNANDEZ-ORDONEZPAOLA9951749499517494 3396 HAMILTON MILL ROAD, BUFORD GA 30519HOLD FOR IMMIGRATION$0NBGwinnett County SheriffCharges
11/24/2014 14:40MONTALVONORBERTO9934539799345397 2345 WATERFORD PARK DR, LAWRENCEVILLE GA 30044* PAROLE VIOLATION$0NBGA Pardons and ParolesCharges
11/24/2014 14:3711/24/2014 23:20MADRIGAL-AGUILARFRANCISCOJAVIER9951749099517490 421 CHASE COMMON DR, NORCROSS GA 30071*DRIVING W/O LICENSE-FAIL OBTAIN 30 DAYS$705CBGwinnett County PoliceCharges
11/24/2014 14:3711/24/2014 23:20MADRIGAL-AGUILARFRANCISCOJAVIER9951749099517490 421 CHASE COMMON DR, NORCROSS GA 30071TAIL LIGHTS$68CBGwinnett County PoliceCharges
11/24/2014 14:3711/24/2014 23:20MADRIGAL-AGUILARFRANCISCOJAVIER9951749099517490 421 CHASE COMMON DR, NORCROSS GA 30071WINDSHIELD NOT IN GOOD CONDITION$68CBGwinnett County PoliceCharges
11/24/2014 14:3511/24/2014 22:19CRAWFORDCURTISXAVIER DARON9951748999517489 5735 PRINCETON OAKS DR, BUFORD GA 30518SPEEDING$180SBGA State PatrolCharges
11/24/2014 14:3511/24/2014 22:19CRAWFORDCURTISXAVIER DARON9951748999517489 5735 PRINCETON OAKS DR, BUFORD GA 30518POSSESSION OF LESS THAN OZ MARIJUANA$585SBGA State PatrolCharges
11/24/2014 14:2411/24/2014 22:02HAIRSTONMAURYCORNELIUS9945401799517488 10 TROTTERS CT, COVINGTON GA 30016FAILURE TO APPEAR$805CBGwinnett County SheriffCharges
11/24/2014 14:2111/24/2014 23:19JACOBSANTONIOJAMAL9951149599513398 772 DEER LAKE TRL, STONE MOUNTAIN GA 30087FAILURE TO APPEAR$705CBGwinnett County SheriffCharges
11/24/2014 14:1011/25/2014 21:22LUPU-RIPANUMIRIAMELENA9946466599464665 2506 CARAY CT, LAWRENCEVILLE GA 30043*HIT AND RUN$420CBGwinnett County PoliceCharges
11/24/2014 14:1011/25/2014 21:22LUPU-RIPANUMIRIAMELENA9946466599464665 2506 CARAY CT, LAWRENCEVILLE GA 30043IMPROPER/ERRATIC LANE CHANGE$96CBGwinnett County PoliceCharges
11/24/2014 14:0511/25/2014 17:43WILLIAMSDESMONLERELL9951748699517486 125 MALLARD DR, ATHENS GA 30606Violation of Probation$0NBLawrenceville PoliceCharges
11/24/2014 13:5811/24/2014 19:49RAMSEYBREANNERIONNA9951748599517485 255 HONEYSUCKLE CIR APT 410, LAWRENCEVILLE GA 30046DISORDERLY CONDUCT$439CBLawrenceville PoliceCharges
11/24/2014 13:54PATECARSONSEAVER9938258799382587 85 AMICALOLA WOODS RD, DAWSONVILLE GA 30534* VIOLATION OF PROBATION$0NBGwinnett County SheriffCharges
11/24/2014 13:49TOUATALI9951611499516114 4972 STATION CIRCLE, NORCROSS GA 30071CONTEMPT OF COURT (SUPERIOR)$62900CBGwinnett County SheriffCharges
11/24/2014 13:40LIMASBENJAMINENRIQUE9945569199455691 242 MILL CREEK PL, ROSWELL GA 30076* VIOLATION OF PROBATION$0NBGwinnett County SheriffCharges
11/24/2014 13:40LIMASBENJAMINENRIQUE9945569199455691 242 MILL CREEK PL, ROSWELL GA 30076@ * CRUELTY TO CHILDREN$0NBGwinnett County SheriffCharges
11/24/2014 13:0711/24/2014 14:41AGUILERA-REYESLEONARDOVICENTE9951748499517484 4805 WARNERS TRL, NORCROSS GA 30093* DRIVING WHILE LIC SUSP/REVOKED$0NBGwinnett County SheriffCharges
11/24/2014 13:0211/25/2014 18:48HAMILTONDESHAWNSHAQUILLE9951748399517483 803 ASHLEY LAKES DR, NORCROSS GA 30092* CRIMINAL TRESPASS$1300SBGwinnett County SheriffCharges
11/24/2014 12:54PEPPERSCAITLINLAINE9950586399505863 190 BAXTER DRIVE, ATHENS GA 30606Violation of Probation$0NBNorcross PoliceCharges
11/24/2014 12:54PEPPERSCAITLINLAINE9950586399505863 190 BAXTER DRIVE, ATHENS GA 30606HOLD FOR OTHER AGENCY$0NBNorcross PoliceCharges
11/24/2014 12:2911/24/2014 20:44LONGJORDANMAURICE9951748299517482 3673 GALDWAY DR, SNELLVILLE GA 30039NOISE VIOLATION$153.5SBSnellville PoliceCharges
11/24/2014 12:2911/24/2014 20:44LONGJORDANMAURICE9951748299517482 3673 GALDWAY DR, SNELLVILLE GA 30039DISPLAY OF LICENSE PLATES$117SBSnellville PoliceCharges
11/24/2014 12:2911/24/2014 20:44LONGJORDANMAURICE9951748299517482 3673 GALDWAY DR, SNELLVILLE GA 30039DRUG-RELATED ACTIVITIES$288.5SBSnellville PoliceCharges
11/24/2014 12:2911/24/2014 20:44LONGJORDANMAURICE9951748299517482 3673 GALDWAY DR, SNELLVILLE GA 30039Possession of Marijuana less 1oz$784SBSnellville PoliceCharges
11/24/2014 12:2211/26/2014 02:00MCDOWELLDAMONTEGEROD9911257299112572 1312 DODGER WAY, LAWRENCEVILLE GA 30045* DISORDERLY CONDUCT$2400SBLawrenceville PoliceCharges
11/24/2014 12:2211/26/2014 02:00MCDOWELLDAMONTEGEROD9911257299112572 1312 DODGER WAY, LAWRENCEVILLE GA 30045PUBLIC DRUNKENNESS$2400SBLawrenceville PoliceCharges
11/24/2014 12:2211/26/2014 02:00MCDOWELLDAMONTEGEROD9911257299112572 1312 DODGER WAY, LAWRENCEVILLE GA 30045*OBSTRUCTION OF OFFICER$2400SBLawrenceville PoliceCharges
11/24/2014 11:4311/24/2014 13:06ELLISJACOBCORDERO9951748099517480 123 LAMINACK CIR, LAFAYETTE GA 30328* DRIVING WHILE LICENSE WITHDRAWN$0NBGwinnett County SheriffCharges
11/24/2014 11:3111/24/2014 16:52LATHAMGEORGEWOOD9951747999517479 2910 CHAMONIX DR, CUMMING GA 30041CONTEMPT OF COURT$0NBGwinnett County SheriffCharges
11/24/2014 11:0311/25/2014 20:25HARTBRANDIMICHELE9951324699513246 2191 ROCKBRIDGE ROAD, STONE MOUNTAIN GA 30087FAILURE TO APPEAR$1716CBLawrenceville PoliceCharges
11/24/2014 11:02JACOBSANDREW9936400399364003 421 FRESHMAN DR, LAWRENCEVILLE GA 30044*FORGERY 3RD DEGREE$0NBGwinnett County SheriffCharges
11/24/2014 11:02JACOBSANDREW9936400399364003 421 FRESHMAN DR, LAWRENCEVILLE GA 30044*FORGERY 3RD DEGREE$0NBGwinnett County SheriffCharges
11/24/2014 10:2411/24/2014 11:58FERGUSONVICTOREUGENE9951747899517481 360 H ST NE, WASHINGTON DC 20002* DRIVING WHILE LIC SUSP/REVOKED$0NBGwinnett County SheriffCharges
11/24/2014 10:2111/24/2014 12:06BOYDMICHAELAL9951144799511447 517 SHADOW VALLEY CT, LITHONIA GA 30058*DRIVING W/O LICENSE-FAIL OBTAIN 30 DAYS$0NBGwinnett County SheriffCharges
11/24/2014 10:1811/24/2014 17:01GONZALEZ-MORENLUISE9951747799517477 8347 UNION GROVE RD, LITHONIA GA 30058SPEEDING$215CBGwinnett County PoliceCharges
11/24/2014 10:1811/24/2014 17:01GONZALEZ-MORENLUISE9951747799517477 8347 UNION GROVE RD, LITHONIA GA 30058*NO DRIVERS LICENSE$705CBGwinnett County PoliceCharges
11/24/2014 10:0411/24/2014 16:00JOSEYANTOINETTECHERE9951747699517476 3920 CLUB DRIVE APT 324, DULUTH GA 30096SPEEDING IN CONSTRUCTION SITE 19-23 OVER$500SBLawrenceville PoliceCharges
11/24/2014 10:0411/24/2014 16:00JOSEYANTOINETTECHERE9951747699517476 3920 CLUB DRIVE APT 324, DULUTH GA 30096*EXPIRED OR NO DRIVER'S LICENSE$803SBLawrenceville PoliceCharges
11/24/2014 09:5511/25/2014 10:09DUPIGNYGIRVANOWENLUKE9600856796008567 515 CHARLESTON LN, LAWRENCEVILLE GA FAILURE TO APPEAR$115CBNorcross PoliceCharges
11/24/2014 09:5511/25/2014 10:09DUPIGNYGIRVANOWENLUKE9600856796008567 515 CHARLESTON LN, LAWRENCEVILLE GA HOLD FOR IMMIGRATION$0NBNorcross PoliceCharges
11/24/2014 09:3211/24/2014 19:46SANCHEZKARENANA9951747599517475 595 EAGLES CREST VILLAGE APT 20, ROSWELL GA 30076FOLLOWING TOO CLOSE$68CBGwinnett County PoliceCharges
11/24/2014 09:3211/24/2014 19:46SANCHEZKARENANA9951747599517475 595 EAGLES CREST VILLAGE APT 20, ROSWELL GA 30076*DRIVING W/O LICENSE-FAIL OBTAIN 30 DAYS$705CBGwinnett County PoliceCharges
11/24/2014 09:0111/24/2014 18:24COOKKEVINALEXANDER9951747499517474 164 ALTA VISTA DR, CLEVELAND GA 30528* DRIVING WHILE LIC SUSP/REVOKED$705SBGA State PatrolCharges
11/24/2014 08:5611/24/2014 13:09MARTINEZ-RODRIGUEZCARLOSGALDINO9951747399517473 355 MIMOSA DRIVE, BUFORD GA 30518SPEEDING$180CBGwinnett County PoliceCharges
11/24/2014 08:5611/24/2014 13:09MARTINEZ-RODRIGUEZCARLOSGALDINO9951747399517473 355 MIMOSA DRIVE, BUFORD GA 30518*DRIVING W/O LICENSE-FAIL OBTAIN 30 DAYS$705CBGwinnett County PoliceCharges
11/24/2014 08:4611/24/2014 10:57LEGARDADANIELANDREW9951747299517472 2848 ROSEMONT DR, LAWRENCEVILLE GA 30044* DRIVING WHILE LIC SUSP/REVOKED$0NBGwinnett County SheriffCharges
11/24/2014 08:26BULLAYMARKEVIUSDEJON9949437299494372 168 BROWNLEE RD, ATLANTA GA 30331FAILURE TO APPEAR$0NBGwinnett County SheriffCharges
11/24/2014 07:5811/27/2014 11:22LEERODERICKJAMEL9950474199504741 4352 PLEASANT POINT DR APT E, DECATUR GA 30034HEADLIGHTS$68SBGA State PatrolCharges
11/24/2014 07:5811/27/2014 11:22LEERODERICKJAMEL9950474199504741 4352 PLEASANT POINT DR APT E, DECATUR GA 30034* DRIVING WHILE LIC SUSP/REVOKED$705SBGA State PatrolCharges
11/24/2014 07:5811/27/2014 11:22LEERODERICKJAMEL9950474199504741 4352 PLEASANT POINT DR APT E, DECATUR GA 30034HOLD FOR OTHER AGENCY$0NBGA State PatrolCharges
11/24/2014 07:3011/26/2014 07:11BELLDERRICKJAMAL9942342599423425 634 HUIE RD, RIVERDALE GA 30274SPEEDING IN CONSTRUCTION SITE 15-18 OVER$340ORLawrenceville PoliceCharges
11/24/2014 07:3011/26/2014 07:11BELLDERRICKJAMAL9942342599423425 634 HUIE RD, RIVERDALE GA 30274FALSE INFORMATION TO POLICE OFFICER$439ORLawrenceville PoliceCharges
11/24/2014 07:3011/26/2014 07:11BELLDERRICKJAMAL9942342599423425 634 HUIE RD, RIVERDALE GA 30274*DRIVING WHILE LIC.SUSP/REVOKED$803ORLawrenceville PoliceCharges
11/24/2014 06:5311/24/2014 20:08GALLEGOS-FERNANDEZJOSEGREGORIO9951747199517471 1225 ARDSLEY PL, NORCROSS GA 30093@ * BATTERY$2400CBGwinnett County SheriffCharges
11/24/2014 06:5311/24/2014 20:08GALLEGOS-FERNANDEZJOSEGREGORIO9951747199517471 1225 ARDSLEY PL, NORCROSS GA 30093HOLD FOR IMMIGRATION$0NBGwinnett County SheriffCharges
11/24/2014 06:16GARCIA-CANALESMELVIN9913529099356536 233 CHASE COMMON DR, NORCROSS GA 30071Violation of Probation$0NBNorcross PoliceCharges
11/24/2014 06:16GARCIA-CANALESMELVIN9913529099356536 233 CHASE COMMON DR, NORCROSS GA 30071HOLD FOR IMMIGRATION$0NBNorcross PoliceCharges
11/24/2014 05:46LOPEZ-GONZALEZCARLOS9945918099459180 33 WILBANKS, BUFORD GA 30518*VGCSA OF C/S$5700SBGwinnett County PoliceCharges
11/24/2014 05:46LOPEZ-GONZALEZCARLOS9945918099459180 33 WILBANKS, BUFORD GA 30518*VGCSA OF C/S$5700SBGwinnett County PoliceCharges
11/24/2014 05:46LOPEZ-GONZALEZCARLOS9945918099459180 33 WILBANKS, BUFORD GA 30518* VIOLATION OF PROBATION$0NBGwinnett County PoliceCharges
11/24/2014 05:46LOPEZ-GONZALEZCARLOS9945918099459180 33 WILBANKS, BUFORD GA 30518HOLD FOR IMMIGRATION$0NBGwinnett County PoliceCharges
11/24/2014 05:4311/24/2014 16:58ZECENA GONZALEZJUANALBERTO9951747099517470 7230 BRIARDALE DR, CUMMING GA 30041*LESS THAN AN OZ OF MARIJ.$1300SBGwinnett County PoliceCharges
11/24/2014 05:4311/24/2014 16:58ZECENA GONZALEZJUANALBERTO9951747099517470 7230 BRIARDALE DR, CUMMING GA 30041*VGCSA OF C/S$5700SBGwinnett County PoliceCharges
11/24/2014 05:4311/24/2014 16:58ZECENA GONZALEZJUANALBERTO9951747099517470 7230 BRIARDALE DR, CUMMING GA 30041*VGCSA OF C/S$5700SBGwinnett County PoliceCharges
11/24/2014 04:3811/25/2014 17:19EICHELBERGERCHADKELI9951746999517469 3425 SHEREE TRAIL, STONE MOUNTAIN GA 30087* DUI-ALCOHOL$2006ORGwinnett County PoliceCharges
11/24/2014 04:3811/25/2014 17:19EICHELBERGERCHADKELI9951746999517469 3425 SHEREE TRAIL, STONE MOUNTAIN GA 30087IMPROPER/ERRATIC LANE CHANGE$96ORGwinnett County PoliceCharges
11/24/2014 04:3811/25/2014 17:19EICHELBERGERCHADKELI9951746999517469 3425 SHEREE TRAIL, STONE MOUNTAIN GA 30087POSSESSION OF LESS THAN OZ MARIJUANA$585ORGwinnett County PoliceCharges
11/24/2014 04:1511/24/2014 14:41JOHNSONJOHNANTHONY9940300799403007 1122 SUGAR HILL RD APT 1, BUFORD GA 30518* DRIVING WHILE LICENSE WITHDRAWN$705SBGwinnett County PoliceCharges
11/24/2014 03:5411/24/2014 22:00CUAYAHUITL GARCIAANGEL9951746899517468 1923 GWINNETT STATION CIR, TUCKER GA 30084*DISORDERLY CONDUCT$135CBGwinnett County PoliceCharges
11/24/2014 03:5411/24/2014 22:00CUAYAHUITL GARCIAANGEL9951746899517468 1923 GWINNETT STATION CIR, TUCKER GA 30084HOLD FOR OTHER AGENCY$0NBGwinnett County PoliceCharges
11/24/2014 02:4111/24/2014 10:59SMITHDAVIDPHILLIP9918206699182066 5532 MAGNOLIA WAY, BUFORD GA 30518* DRIVING WHILE LIC SUSP/REVOKED$705SBGwinnett County PoliceCharges
11/24/2014 02:4111/24/2014 10:59SMITHDAVIDPHILLIP9918206699182066 5532 MAGNOLIA WAY, BUFORD GA 30518TAG LIGHT VISIBLE 50 FT.$68SBGwinnett County PoliceCharges
11/24/2014 02:2211/24/2014 04:01KIAWUCIATTAINDIA9951746799517467 2695 TRIBBLE COVE CT, LAWRENCEVILLE GA 30045FAILURE TO APPEAR$75CBGwinnett County SheriffCharges
11/24/2014 02:0611/24/2014 04:05NGUYENJENNYTRAM THUY9948171699481716 1007 DUNLEAF ARC WAY, NORCROSS GA 30093*DRIVING WHILE LIC SUSP/REV$715CBLilburn PoliceCharges
11/24/2014 02:0011/25/2014 03:45SISCOSHANEANDRE9937194899371948 1338 MEMORIAL DR SE, ATLANTA GA 30317POSSESSION OF MARIJUANA <1 OZ.$654SBLawrenceville PoliceCharges
11/24/2014 01:3611/24/2014 07:19IRAHETAPATRICKENRIQUE9945925099459250 1907 PARK CROSSING WAY NW, LILBURN GA 30047POSSESSION OF LESS 1 OZ. MARIJUANA$585SBGwinnett County PoliceCharges
11/24/2014 01:3611/24/2014 07:19IRAHETAPATRICKENRIQUE9945925099459250 1907 PARK CROSSING WAY NW, LILBURN GA 30047FAILURE TO APPEAR$525CBGwinnett County PoliceCharges
11/24/2014 01:2611/25/2014 19:13DEJESUSMANUELALFONSO9922762799227627 866 LAWDALE COURT, NORCROSS GA 30093* DUI-MORE THAN 0.10%BLOOD ALCOHOL$2006SBGwinnett County PoliceCharges
11/24/2014 01:2611/25/2014 19:13DEJESUSMANUELALFONSO9922762799227627 866 LAWDALE COURT, NORCROSS GA 30093M/V WRONG SIDE OF ROAD$68SBGwinnett County PoliceCharges
11/24/2014 01:2611/25/2014 19:13DEJESUSMANUELALFONSO9922762799227627 866 LAWDALE COURT, NORCROSS GA 30093GIVING WRONG SIGNAL$68SBGwinnett County PoliceCharges
11/24/2014 01:2611/25/2014 19:13DEJESUSMANUELALFONSO9922762799227627 866 LAWDALE COURT, NORCROSS GA 30093IMPROPER/ERRATIC LANE CHANGE$68SBGwinnett County PoliceCharges
11/24/2014 01:20THOMPSONDEJUANDEMETRICE9905567099055670APT A 3226 QUAILS LAKE VILLAGE LN, NORCROSS GA 30093FAILURE TO PAY/CHILD SUPPORT$3000CBGwinnett County PoliceCharges
11/24/2014 01:20THOMPSONDEJUANDEMETRICE9905567099055670APT A 3226 QUAILS LAKE VILLAGE LN, NORCROSS GA 30093@ * THEFT BY SHOPLIFTING$1300SBGwinnett County PoliceCharges
11/24/2014 01:1311/24/2014 04:48HOSTETLERMATTHEWRYAN9912263899122638 360 LAKE VALLEY DR, LOGANVILLE GA 30052*BURGLARY 2ND DEGREE$11200SBGwinnett County SheriffCharges
11/24/2014 01:1311/24/2014 03:56CABBELLHOUSTONEUGENE9951746699517466 4047 LAURIE JO DR SW, MARIETTA GA 30008FTA BENCH WARRANT$1126CBLawrenceville PoliceCharges
11/24/2014 00:5611/24/2014 04:54JONESTYLERSERENE9951746599517465 215 PAPERMILL RD APT 7H, LAWRENCEVILLE GA 30046* DRIVING WHILE LIC SUSP/REVOKED$705SBGwinnett County PoliceCharges
11/24/2014 00:5211/24/2014 03:59DERASGABRIELAYVETTE9933404499352346 2083 HUDDERSFIELD WAY APT B, NORCROSS GA 30071SPEEDING$211SBLilburn PoliceCharges
11/24/2014 00:5211/24/2014 03:59DERASGABRIELAYVETTE9933404499352346 2083 HUDDERSFIELD WAY APT B, NORCROSS GA 30071POSS MARIJUANA < 1OZ$780SBLilburn PoliceCharges
11/24/2014 00:3411/26/2014 00:34HALLWILLIAMERSKINE9937304499373044 2300 ROCKBRIDGE CT APT J101, NORCROSS GA 30093* DRIVING WHILE LIC SUSP/REVOKED$705ORGwinnett County SheriffCharges
11/24/2014 00:3411/26/2014 00:34HALLWILLIAMERSKINE9937304499373044 2300 ROCKBRIDGE CT APT J101, NORCROSS GA 30093FAILURE TO MAINTAIN INSURANCE$299ORGwinnett County SheriffCharges
11/24/2014 00:3411/26/2014 00:34HALLWILLIAMERSKINE9937304499373044 2300 ROCKBRIDGE CT APT J101, NORCROSS GA 30093REMOVED PLATE W. INTENT TO CON$152ORGwinnett County SheriffCharges
11/24/2014 00:3411/26/2014 00:34HALLWILLIAMERSKINE9937304499373044 2300 ROCKBRIDGE CT APT J101, NORCROSS GA 30093EXPIRED OR NO LICENSE PLATE OR DECAL$152ORGwinnett County SheriffCharges
11/24/2014 00:2611/24/2014 03:46MARTINVIRGILWAISHAD9951746499517464 7038 HIGHWAY 547, PORT GIBSON MS 39150EXPIRED OR NO LICENSE PLATE OR DECAL$152SBGwinnett County PoliceCharges
11/24/2014 00:2611/24/2014 03:46MARTINVIRGILWAISHAD9951746499517464 7038 HIGHWAY 547, PORT GIBSON MS 39150* DRIVING WHILE LIC SUSP/REVOKED$705SBGwinnett County PoliceCharges
11/24/2014 00:1711/24/2014 12:51CAJAS-BARRIOSSAUL9922286699222866 1285 SOUTHERN WOODS DR APT G, TUCKER GA 30084HOLD FOR OTHER AGENCY$0NBGwinnett County SheriffCharges
11/23/2014 23:5411/26/2014 00:40PUGHDAMIONJAJUAN9902639299026392 3565 SOUTH ST APT 103, DULUTH GA 30096PEDDLER PERMIT REQUIRED$1000ORDuluth PoliceCharges
11/23/2014 23:4211/24/2014 03:53DIXONDYLANCHANCE9951746399517463 4235 LINDA LN SW, LILBURN GA 30047THEFT BY SHOPLIFTING$420CBLilburn PoliceCharges
11/23/2014 23:24WESTERICWILLIAM9921605599216055 2065 CHAMPIONS PKWY, LAWRENCEVILLE GA 30044LOITERING OR PROWLING$1300SBGwinnett County PoliceCharges
11/23/2014 23:24WESTERICWILLIAM9921605599216055 2065 CHAMPIONS PKWY, LAWRENCEVILLE GA 30044* OBSTRUCTION LAW ENFORCEMENT OFFICER$2400SBGwinnett County PoliceCharges
11/23/2014 23:24WESTERICWILLIAM9921605599216055 2065 CHAMPIONS PKWY, LAWRENCEVILLE GA 30044* DRIVING WHILE LIC SUSP/REVOKED$1850SBGwinnett County PoliceCharges
11/23/2014 23:24WESTERICWILLIAM9921605599216055 2065 CHAMPIONS PKWY, LAWRENCEVILLE GA 30044RECKLESS DRIVING$5700SBGwinnett County PoliceCharges
11/23/2014 23:24WESTERICWILLIAM9921605599216055 2065 CHAMPIONS PKWY, LAWRENCEVILLE GA 30044FAILURE TO APPEAR$196ORGwinnett County PoliceCharges
11/23/2014 23:24WESTERICWILLIAM9921605599216055 2065 CHAMPIONS PKWY, LAWRENCEVILLE GA 30044@ * RECKLESS CONDUCT$27700CBGwinnett County PoliceCharges
11/23/2014 23:24WESTERICWILLIAM9921605599216055 2065 CHAMPIONS PKWY, LAWRENCEVILLE GA 30044FAILURE TO APPEAR$1151ORGwinnett County PoliceCharges
11/23/2014 23:24WESTERICWILLIAM9921605599216055 2065 CHAMPIONS PKWY, LAWRENCEVILLE GA 30044@ * SIMPLE ASSAULT$5700CBGwinnett County PoliceCharges
11/23/2014 23:24WESTERICWILLIAM9921605599216055 2065 CHAMPIONS PKWY, LAWRENCEVILLE GA 30044* FLEEING OR ATTEMPTING TO ELUDE$5700SBGwinnett County PoliceCharges
11/23/2014 23:1511/25/2014 13:32FREEMANJAMALDEONTE9950302499503024 3016 FETLOCK DR SW, MARIETTA GA 30064Violation of Probation$0NBLawrenceville PoliceCharges
11/23/2014 23:0711/25/2014 19:17LLOPISNAOMIPRISCILLA9951746299517462 1050 COURT DR APT I, DULUTH GA 30096* DRIVING WHILE LIC SUSP/REVOKED$705SBGwinnett County PoliceCharges
11/23/2014 23:0711/25/2014 19:17LLOPISNAOMIPRISCILLA9951746299517462 1050 COURT DR APT I, DULUTH GA 30096FAILURE TO MAINTAIN INSURANCE$299SBGwinnett County PoliceCharges
11/23/2014 23:0711/25/2014 19:17LLOPISNAOMIPRISCILLA9951746299517462 1050 COURT DR APT I, DULUTH GA 30096FAILURE TO APPEAR$805CBGwinnett County PoliceCharges
11/23/2014 23:0711/25/2014 19:17LLOPISNAOMIPRISCILLA9951746299517462 1050 COURT DR APT I, DULUTH GA 30096FAILURE TO APPEAR$252CBGwinnett County PoliceCharges
11/23/2014 22:58JONESLAURENNECHELLE9951746199517461 100 CASTOR DR APT E8, NORCROSS GA 30071FAILURE TO APPEAR$1440CBGwinnett County SheriffCharges
11/23/2014 22:4311/24/2014 01:42IRBYAISHAANNETTE9938226799382267 1217 WILLIAMSBURG LN, NORCROSS GA 30093* CRIMINAL DAMAGE TO PROPERTY-2ND DEGREE$2950SBGwinnett County SheriffCharges
11/23/2014 22:4311/24/2014 01:42IRBYAISHAANNETTE9938226799382267 1217 WILLIAMSBURG LN, NORCROSS GA 30093* CRIMINAL TRESPASS$2950SBGwinnett County SheriffCharges
11/23/2014 22:35FARMERIVENESUMPTER9946887599468875 2760 IVEY SPRINGS CT, BUFORD GA 30519* FORGERY-1ST DEGREE$0NBGwinnett County SheriffCharges
11/23/2014 22:3411/25/2014 10:16WILLIAMSEQUEILLMANUEL9951746099517460 2380 FORT DANIELS DR, DACULA GA 30019THEFT BY SHOPLIFTING$420ORLilburn PoliceCharges
11/23/2014 22:2911/24/2014 00:52LIASGREGORYLEE9107054491070544 5832 KAY DR APT A, NORCROSS GA 30093* VIOLATION OF EMPLOYMENT SECURITY LAW$6800SBGwinnett County SheriffCharges
11/23/2014 22:2611/24/2014 07:16WILSONRICHARDLAMAR9948090599480905 4350 JIMMY CARTER BLVD APT 1323, NORCROSS GA 30093@ * THEFT BY SHOPLIFTING$1300SBGwinnett County PoliceCharges
11/23/2014 21:13FUENTES-GOMEZJOSE9926850199451847 3367 NORTHCREST RD, DORAVILLE GA 30340Violation of Probation$0NBGwinnett County SheriffCharges
11/23/2014 21:13FUENTES-GOMEZJOSE9926850199451847 3367 NORTHCREST RD, DORAVILLE GA 30340HOLD FOR OTHER AGENCY$0NBGwinnett County SheriffCharges
11/23/2014 21:0911/24/2014 17:03PARHAMAMANDAMARIE9945847499458474 1820 WILD CIR, CLARKSTON GA 30021FAILURE TO APPEAR$705CBGwinnett County SheriffCharges
11/23/2014 21:03MORRISSEYRICHARD9950387899503878 195 ARIZONA AVENUE, ATLANTA GA 30307* GIVING FALSE NAME OR INFORMATION$0NBGwinnett County SheriffCharges
11/23/2014 21:03MORRISSEYRICHARD9950387899503878 195 ARIZONA AVENUE, ATLANTA GA 30307HOLD FOR OTHER AGENCY$0NBGwinnett County SheriffCharges
11/23/2014 21:02WALDENFRANKLINDERON9938286599382865 820 GRIMES BRIDGE RD, ROSWELL GA 30075HOLD FOR COURT$0NBGwinnett County SheriffCharges
11/23/2014 20:5711/24/2014 03:54ELLISWALKERALEXANDER9951745999517459 521 MORGAN BAY CT, SUWANEE GA 30024@ * THEFT BY TAKING$1300SBGwinnett County SheriffCharges
11/23/2014 20:5311/25/2014 03:02BOWENRYANJOSHUA9936415799364157 1160 COURT DRIVE APT O, DULUTH GA 30096*MAUFACTUR/POSS/PURCH/DIST/SALE MARIJUAN$5700SBGwinnett County SheriffCharges
11/23/2014 20:5311/25/2014 03:02BOWENRYANJOSHUA9936415799364157 1160 COURT DRIVE APT O, DULUTH GA 30096*MAUFACTUR/POSS/PURCH/DIST/SALE MARIJUAN$5700SBGwinnett County SheriffCharges
11/23/2014 20:5311/25/2014 03:02BOWENRYANJOSHUA9936415799364157 1160 COURT DRIVE APT O, DULUTH GA 30096*VGCSA OF C/S$5700SBGwinnett County SheriffCharges
11/23/2014 20:4711/24/2014 20:20BELLBRANDONALLAN9941892699418926 1201 SUMMERCHASE DR, DULUTH GA 30096*NO DRIVERS LICENSE$705SBGwinnett County SheriffCharges
11/23/2014 20:4711/24/2014 20:20BELLBRANDONALLAN9941892699418926 1201 SUMMERCHASE DR, DULUTH GA 30096* DRIVING WHILE LIC SUSP/REVOKED$705SBGwinnett County SheriffCharges
11/23/2014 20:4711/24/2014 20:20BELLBRANDONALLAN9941892699418926 1201 SUMMERCHASE DR, DULUTH GA 30096POSSESSION OF LESS THAT 1 OZ$585SBGwinnett County SheriffCharges
11/23/2014 20:4711/24/2014 20:20BELLBRANDONALLAN9941892699418926 1201 SUMMERCHASE DR, DULUTH GA 30096HOLD FOR OTHER AGENCY$0NBGwinnett County SheriffCharges
11/23/2014 20:4711/24/2014 20:20BELLBRANDONALLAN9941892699418926 1201 SUMMERCHASE DR, DULUTH GA 30096HOLD FOR OTHER AGENCY$0NBGwinnett County SheriffCharges
11/23/2014 20:4111/24/2014 17:37GURROLASIERRA9951745899517458 236 HIDDEN ACRES RD, WINDER GA 30680*NO DRIVERS LICENSE$705SBGwinnett County PoliceCharges
11/23/2014 20:4111/24/2014 17:37GURROLASIERRA9951745899517458 236 HIDDEN ACRES RD, WINDER GA 30680FAIL TO YIELD RIGHT OF WAY TO VEHICLE$96SBGwinnett County PoliceCharges
11/23/2014 20:4011/24/2014 03:50LOPEZEDUARDO9949122999491229 1716 VERANDA CHASE DR, LAWRENCEVILLE GA 30044FAILURE TO APPEAR$315CBGwinnett County PoliceCharges
11/23/2014 20:4011/24/2014 03:50LOPEZEDUARDO9949122999491229 1716 VERANDA CHASE DR, LAWRENCEVILLE GA 30044* DRIVING WHILE LICENSE WITHDRAWN$705SBGwinnett County PoliceCharges
11/23/2014 20:2911/24/2014 11:06RAMIREZ-OLAREANMARTHAELENA9949972799499727 810 MCCART RD, LAWRENCEVILLE GA 30045@ * BATTERY$5700SBGwinnett County PoliceCharges
11/23/2014 20:2911/24/2014 11:06RAMIREZ-OLAREANMARTHAELENA9949972799499727 810 MCCART RD, LAWRENCEVILLE GA 30045@ * FALSE IMPRISONMENT$5700SBGwinnett County PoliceCharges
11/23/2014 20:1911/24/2014 03:12CHUCKCRYSTALMONICA JOAN PALMER9938581999385819 3030 EVERSON CT, SNELLVILLE GA 30039@ * THEFT BY SHOPLIFTING$2400SBGwinnett County PoliceCharges
11/23/2014 20:1711/24/2014 03:08SAMUELSKARAANN9951745799517457 13 BEACH ST APT1, MOUNT VERNON GA 10550@ * THEFT BY SHOPLIFTING$2400SBGwinnett County PoliceCharges
11/23/2014 20:0511/24/2014 03:48SANTANAANGELRAFAEL9951745699517456 2238 NW 5TH ST, MIAMI FL 33125THEFT BY SHOPLIFTING$420SBLilburn PoliceCharges
11/23/2014 19:5511/24/2014 16:59GARRITYLIAMDENNIS9951745499517454 409 E WESLEY RD NE, ATLANTA GA 30305* DUI - DRUGS/ALCOHOL$2006SBGwinnett County PoliceCharges
11/23/2014 19:5511/24/2014 16:59GARRITYLIAMDENNIS9951745499517454 409 E WESLEY RD NE, ATLANTA GA 30305IMPROPER PARKING$56SBGwinnett County PoliceCharges
11/23/2014 19:5511/23/2014 22:54AKBARYSEENABENJAMIM9949379199517455 1934 GINA VIEW TERRACE, SUWANEE GA 30024*LESS THAN AN OZ OF MARIJ.$1300CBGwinnett County SheriffCharges
11/23/2014 19:21BROCKANDREACOLLEEN9943518899435188 1610 BENTRIDGE DR, LAWRENCEVILLE GA 30043FAILURE TO APPEAR$348CBGwinnett County SheriffCharges
11/23/2014 19:21BROCKANDREACOLLEEN9943518899435188 1610 BENTRIDGE DR, LAWRENCEVILLE GA 30043* VIOLATION OF PROBATION$0NBGwinnett County SheriffCharges
11/23/2014 19:21BROCKANDREACOLLEEN9943518899435188 1610 BENTRIDGE DR, LAWRENCEVILLE GA 30043VIOLATION OF PROBATION$0NBGwinnett County SheriffCharges
11/23/2014 19:0411/24/2014 01:53HOMINH HUYNGUYEN9951745399517453 2914 VALLEY SPRING DR, LAWRENCEVILLE GA 30044FOLLOWING TOO CLOSELY$96SBGwinnett County PoliceCharges
11/23/2014 19:0411/24/2014 01:53HOMINH HUYNGUYEN9951745399517453 2914 VALLEY SPRING DR, LAWRENCEVILLE GA 30044*VGCSA POSS OF MARIJUANA W/INTENT TO DIS$11200SBGwinnett County PoliceCharges
11/23/2014 18:5611/24/2014 00:48WADSWORTHTERRYWILLIAM9939036999390369 1110 BALLPARK LANE APT 8102, LAWRENCEVILLE GA 30043*SUSPENDED LICENSE$1176.25SBSuwanee PoliceCharges
11/23/2014 18:5611/24/2014 00:48WADSWORTHTERRYWILLIAM9939036999390369 1110 BALLPARK LANE APT 8102, LAWRENCEVILLE GA 30043NEW NAME/ADDRESS CHANGE-60 DAYS$82SBSuwanee PoliceCharges
11/23/2014 18:5611/24/2014 00:48WADSWORTHTERRYWILLIAM9939036999390369 1110 BALLPARK LANE APT 8102, LAWRENCEVILLE GA 30043OPEN CONTAINER$286SBSuwanee PoliceCharges
11/23/2014 18:45LLOYDSAMANTHA9940972199409721 129 SWEETBRIAR DR, PALMETTO GA 30268* VIOLATION OF PROBATION$0NBGwinnett County SheriffCharges
11/23/2014 18:4111/24/2014 07:54GARCIAMIGUEL89516948951694 730 JOHNS LANDING WAY, LAWRENCEVILLE GA 30045* DRIVING WHILE LICENSE WITHDRAWN$705CBGwinnett County PoliceCharges
11/23/2014 18:1711/24/2014 17:39BRYANTASHLEYMEKALE9951745299517452 5495 BLUEGRASS DRIVE, ATLANTA GA 30349FAILURE TO APPEAR$1055CBGwinnett County SheriffCharges
11/23/2014 18:1011/24/2014 17:48COLEMANLEROYCHARLES9951745099517450 2 FLEETWOOD DR, RIVERDALE GA 30296FAILURE TO APPEAR$805CBGwinnett County SheriffCharges
11/23/2014 18:10JOHNSONEARLBERNARD9951745199517451 5445 WEDGEWOOD CT SW, LILBURN GA 30047@ * ROBBERY$0NBGwinnett County SheriffCharges
11/23/2014 17:25SMITHHEATHERBROOKE9922653599226535 2245 ROBERT HARDEMAN RD LOT 2, WINTERVILLE GA 30683FAILURE TO APPEAR$0NBGwinnett County SheriffCharges
11/23/2014 15:0111/23/2014 21:36YARBROUGHTHOMASROSS9951744999517449 2332 MERRYMOUNT DRIVE, SUWANEE GA 30024FAILURE TO APPEAR$315CBGwinnett County SheriffCharges
11/23/2014 14:55DEANRANDALLALLEN9919364599193645 3700 MORGANS RIDGE COURT, BUFORD GA 30519* VIOLATION OF PROBATION$0NBGwinnett County SheriffCharges
11/23/2014 14:3711/23/2014 18:47CLARKDEVANJOSEPH9951744899517448 515 DUNAGAN DR, LAWRENCEVILLE GA 30045*DUI .02 UNDER 21$2006SBGwinnett County PoliceCharges
11/23/2014 14:3711/23/2014 18:47CLARKDEVANJOSEPH9951744899517448 515 DUNAGAN DR, LAWRENCEVILLE GA 30045IMPROPER LANE CHANGE$96SBGwinnett County PoliceCharges
11/23/2014 13:46ABDULLAHKHALIL9951744699517446 4523 SHERRY LN, HIXSON TN 37343@ * FALSE IMPRISONMENT$0NBGwinnett County PoliceCharges
11/23/2014 13:46ABDULLAHKHALIL9951744699517446 4523 SHERRY LN, HIXSON TN 37343@ * KIDNAPPING$0NBGwinnett County PoliceCharges
11/23/2014 13:46ABDULLAHKHALIL9951744699517446 4523 SHERRY LN, HIXSON TN 37343CRUELTY TO CHILDREN-3RD DEGREE$2400SBGwinnett County PoliceCharges
11/23/2014 13:46ABDULLAHKHALIL9951744699517446 4523 SHERRY LN, HIXSON TN 37343*HOME INVASION$0NBGwinnett County PoliceCharges
11/23/2014 13:46ABDULLAHKHALIL9951744699517446 4523 SHERRY LN, HIXSON TN 37343@ * AGGRAVATED ASSAULT$0NBGwinnett County PoliceCharges
11/23/2014 13:38ROBERSONKEVINLABORN9951744599517445 3611 EASTGLEN CT, CHATTANOOGA TN 37406@ * FALSE IMPRISONMENT$0NBGwinnett County PoliceCharges
11/23/2014 13:38ROBERSONKEVINLABORN9951744599517445 3611 EASTGLEN CT, CHATTANOOGA TN 37406@ * KIDNAPPING$0NBGwinnett County PoliceCharges
11/23/2014 13:38ROBERSONKEVINLABORN9951744599517445 3611 EASTGLEN CT, CHATTANOOGA TN 37406*HOME INVASION$0NBGwinnett County PoliceCharges
11/23/2014 13:0911/23/2014 17:53HIRESDARRELLLAVERNE9106113791061137 2910 BUFORD DR APT 813, BUFORD GA 30519@ * TERRORISTIC THREATS & ACTS$5700SBGwinnett County PoliceCharges
11/23/2014 12:1411/24/2014 23:17ALVAREZ-MERCADOJUANABUNDIO9919369499193702APT 107 3350 SWEETWATER RD, LAWRENCEVILLE GA 30044FAILURE TO APPEAR$330CBGwinnett County SheriffCharges
11/23/2014 12:1411/24/2014 23:17ALVAREZ-MERCADOJUANABUNDIO9919369499193702APT 107 3350 SWEETWATER RD, LAWRENCEVILLE GA 30044*DRIVING W/O LICENSE-FAIL OBTAIN 30 DAYS$2950CBGwinnett County SheriffCharges
11/23/2014 11:54BORSTCORYWILLIAM9912278699122786 125 CEDAR LN, MORGANTON GA 30560* VIOLATION OF PROBATION$0NBGwinnett County SheriffCharges
11/23/2014 10:5511/23/2014 15:45BLOODWORTHSYDNEYALEXANDRIA9951744399517443 1022 OAK CHASE DR APT B, TUCKER GA 30084@ * BATTERY$1300SBGwinnett County PoliceCharges
11/23/2014 10:5511/23/2014 15:45BLOODWORTHSYDNEYALEXANDRIA9951744399517443 1022 OAK CHASE DR APT B, TUCKER GA 30084CRUELTY TO CHILDREN-3RD DEGREE$1300SBGwinnett County PoliceCharges
11/23/2014 09:4011/23/2014 14:57RANDLEANTWANDAVIANTE9951744299517442LOT 82 316 CARTER RD, AUBURN GA 30011Violation of Probation$350CBAuburn PDCharges
11/23/2014 09:2511/23/2014 16:55HARPERTERRYLEE9951744099517440 6321 LOVE ST, AUSTELL GA 30168HOLD FOR OTHER AGENCY$0NBLilburn PoliceCharges
11/23/2014 07:4711/23/2014 13:24AZRIELELIYAHOELIRAN9945568699455686 4760 BANKSIDE WAY, NORCROSS GA 30092* DUI-ALCOHOL$2006SBGwinnett County PoliceCharges
11/23/2014 06:25DIBRELLAUMIECEMARIE9947416499474164 703 NORTH 28TH AVE, PHOENIX AZ 85051FAILURE TO APPEAR$0NBGwinnett County PoliceCharges
11/23/2014 06:0911/23/2014 15:41SONGDAVID9951743899517438 2771 TUSCANY PARK DR, LAWRENCEVILLE GA 30043* DUI-MORE THAN 0.10%BLOOD ALCOHOL$2006SBGwinnett County PoliceCharges
11/23/2014 06:0911/23/2014 15:41SONGDAVID9951743899517438 2771 TUSCANY PARK DR, LAWRENCEVILLE GA 30043IMPROPER LANE CHANGE$96SBGwinnett County PoliceCharges
11/23/2014 06:0211/25/2014 06:20ELLIOTTKATHYCORNETT9948867399488673 6494 BLUE WATER DR, BUFORD GA 30518* DUI-ALCOHOL$0NBGwinnett County SheriffCharges
11/23/2014 05:5911/23/2014 12:36SHIELDSCAPRISHANTELL9951743799517437 643 AMAL DR SW, ATLANTA GA 30315*DISORDERLY CONDUCT$135CBGwinnett County PoliceCharges
11/23/2014 05:1911/23/2014 19:14JOHNSONGABRIELCALEB9951743699517436J 1463 RAINTREE DR, ROSWELL GA 30076IMPROPER LANE CHANGE$68SBGwinnett County PoliceCharges
11/23/2014 05:1911/23/2014 19:14JOHNSONGABRIELCALEB9951743699517436J 1463 RAINTREE DR, ROSWELL GA 30076* DRIVING WHILE LIC SUSP/REVOKED$705SBGwinnett County PoliceCharges
11/23/2014 05:1911/23/2014 19:14JOHNSONGABRIELCALEB9951743699517436J 1463 RAINTREE DR, ROSWELL GA 30076*DUI - ALCOHOL$2006SBGwinnett County PoliceCharges
11/23/2014 05:04CRUZ-CRUZROSALINO9921541299215449 2135 HOLLY PARK DRIVE, CUMMING GA 30040-6468Violation of Probation$0NBGwinnett County PoliceCharges
11/23/2014 05:04CRUZ-CRUZROSALINO9921541299215449 2135 HOLLY PARK DRIVE, CUMMING GA 30040-6468*DRIVING W/O LICENSE-FAIL OBTAIN 30 DAYS$705SBGwinnett County PoliceCharges
11/23/2014 05:04CRUZ-CRUZROSALINO9921541299215449 2135 HOLLY PARK DRIVE, CUMMING GA 30040-6468HOLD FOR IMMIGRATION$0NBGwinnett County PoliceCharges
11/23/2014 05:04CRUZ-CRUZROSALINO9921541299215449 2135 HOLLY PARK DRIVE, CUMMING GA 30040-6468DRIVING WITHOUT HEADLIGHTS$68SBGwinnett County PoliceCharges
11/23/2014 04:5311/25/2014 05:05BIGIRIMANACONSTANTIN9951743599517435APT 45-574 2135 GODBY RD, ATLANTA GA 30349*DUI--ALCOHOL$1266ORLilburn PoliceCharges
11/23/2014 04:5311/25/2014 05:05BIGIRIMANACONSTANTIN9951743599517435APT 45-574 2135 GODBY RD, ATLANTA GA 30349*DUI--ENDANGERING CHILD$1266ORLilburn PoliceCharges
11/23/2014 04:5311/25/2014 05:05BIGIRIMANACONSTANTIN9951743599517435APT 45-574 2135 GODBY RD, ATLANTA GA 30349*DUI--ENDANGERING CHILD$1266ORLilburn PoliceCharges
11/23/2014 04:5311/25/2014 05:05BIGIRIMANACONSTANTIN9951743599517435APT 45-574 2135 GODBY RD, ATLANTA GA 30349*DUI--ENDANGERING CHILD$1266ORLilburn PoliceCharges
11/23/2014 04:4011/23/2014 09:05JOSEPHSONY-JOHNY9951743499517434 1674 JAMIE LEIGH CT, SNELLVILLE GA 30078EXPIRED LICENSE$68SBGwinnett County PoliceCharges
11/23/2014 04:4011/23/2014 09:05JOSEPHSONY-JOHNY9951743499517434 1674 JAMIE LEIGH CT, SNELLVILLE GA 30078* DUI-ALCOHOL$2006SBGwinnett County PoliceCharges
11/23/2014 04:0311/23/2014 12:32BAILEYMICHAEL9907580699075806 4470 ANDERSON LIVSEY LN, SNELLVILLE GA 30039@ * SIMPLE BATTERY$1300SBGwinnett County PoliceCharges
11/23/2014 03:4811/25/2014 01:57SALDANA-PEREZMARCOANTONIO9911313599412272 1510 SOMERSET VALE CT, LAWRENCEVILLE GA 30044*IMPROPER PASSING EMERGECY/TOWING/HWY VE$180ORGwinnett County PoliceCharges
11/23/2014 03:4811/25/2014 01:57SALDANA-PEREZMARCOANTONIO9911313599412272 1510 SOMERSET VALE CT, LAWRENCEVILLE GA 30044IMPROPER LANE CHANGE$68ORGwinnett County PoliceCharges
11/23/2014 03:4811/25/2014 01:57SALDANA-PEREZMARCOANTONIO9911313599412272 1510 SOMERSET VALE CT, LAWRENCEVILLE GA 30044* DUI-ALCOHOL$2006ORGwinnett County PoliceCharges
11/23/2014 03:3311/26/2014 15:28MARTINEZELTERT9951743399517433 2246 SEASONS PKWY, NORCROSS GA 30093DISORDERLY CONDUCT$135CBGwinnett County PoliceCharges
11/23/2014 03:3311/26/2014 15:28MARTINEZELTERT9951743399517433 2246 SEASONS PKWY, NORCROSS GA 30093* OBSTRUCTION LAW ENFORCEMENT OFFICER$1300CBGwinnett County PoliceCharges
11/23/2014 03:3311/26/2014 15:28MARTINEZELTERT9951743399517433 2246 SEASONS PKWY, NORCROSS GA 30093HOLD FOR IMMIGRATION$0NBGwinnett County PoliceCharges
11/23/2014 03:3111/23/2014 07:13GRAHAMDONTE9946515799465157 1470 BOGGS RD APT 609, DULUTH GA 30096*NO DRIVERS LICENSE$705SBGwinnett County PoliceCharges
11/23/2014 03:3111/23/2014 07:13GRAHAMDONTE9946515799465157 1470 BOGGS RD APT 609, DULUTH GA 30096FAILURE TO OBEY TRAFFIC DEVICE$56SBGwinnett County PoliceCharges
11/23/2014 03:1211/23/2014 11:46LUOSAMUELKALONGO9909830099098300 3103 LITTLE BEAR LN, BUFORD GA 30519@ * BATTERY$4050SBGwinnett County PoliceCharges
11/23/2014 03:07STEINANTHONYRICHARD9924711999247119 2012 RED ROSE LN, LOGANVILLE GA 30052@ * ENTERING AN AUTO$0NBGwinnett County PoliceCharges
11/23/2014 03:07STEINANTHONYRICHARD9924711999247119 2012 RED ROSE LN, LOGANVILLE GA 30052*VGCSA OF C/S$0NBGwinnett County PoliceCharges
11/23/2014 03:07STEINANTHONYRICHARD9924711999247119 2012 RED ROSE LN, LOGANVILLE GA 30052LOITERING OR PROWLING$1300SBGwinnett County PoliceCharges
11/23/2014 02:56CARPENTERCRAIGLAVERNE9936331899363318 2115 VINE STREET, SNELLVILLE GA 30078@ * ENTERING AN AUTO$0NBGwinnett County PoliceCharges
11/23/2014 02:5111/25/2014 18:53BURGESSKEVINBRENT9910493899104938 1016 MANDALAY CT SW, LILBURN GA 30047Violation of Probation$0NBGwinnett County PoliceCharges
11/23/2014 02:32COBBJEREMIAHDEVONNE9951742999517429 461 WINDSONG LN, SOCIAL CIRCLE GA 30025* OBSTRUCTION LAW ENFORCEMENT OFFICER$1850SBGwinnett County PoliceCharges
11/23/2014 02:32COBBJEREMIAHDEVONNE9951742999517429 461 WINDSONG LN, SOCIAL CIRCLE GA 30025* DUI-ALCOHOL$2006SBGwinnett County PoliceCharges
11/23/2014 02:32COBBJEREMIAHDEVONNE9951742999517429 461 WINDSONG LN, SOCIAL CIRCLE GA 30025HOLD FOR OTHER AGENCY$0NBGwinnett County PoliceCharges
11/23/2014 02:32COBBJEREMIAHDEVONNE9951742999517429 461 WINDSONG LN, SOCIAL CIRCLE GA 30025* DRIVING WHILE LIC SUSP/REVOKED$705SBGwinnett County PoliceCharges
11/23/2014 02:1011/25/2014 01:59IVYBRIANSCOTT9951742899517428 3202 SUMMER WOOD CIR, SNELLVILLE GA 30039*SUSPENDED/REVOKED LIC$816ORSnellville PoliceCharges
11/23/2014 02:07WILLIAMSRONTAVIUSLEE9946001499460014 6050 PEACHTREE INDUSTRIAL BLVD #321, NORCROSS GA 30071@ * BATTERY$0NBNorcross PoliceCharges
11/23/2014 02:0111/23/2014 05:22HERNANDEZJOSEE9951742799517427 74 MELANIE ROSE LN, LAWRENCEVILLE GA 30044FAILURE TO APPEAR$150CBGwinnett County PoliceCharges
11/23/2014 01:5011/24/2014 03:18SHIPLEYLACHELLED9951742699517426A 2408 DUNWOODY XING, ATLANTA GA 30338* DUI-MORE THAN 0.10%BLOOD ALCOHOL$2006SBGwinnett County PoliceCharges
11/23/2014 01:5011/24/2014 03:18SHIPLEYLACHELLED9951742699517426A 2408 DUNWOODY XING, ATLANTA GA 30338IMPROPER LANE CHANGE$68SBGwinnett County PoliceCharges
11/23/2014 01:5011/24/2014 03:18SHIPLEYLACHELLED9951742699517426A 2408 DUNWOODY XING, ATLANTA GA 30338SPEEDING$215SBGwinnett County PoliceCharges
11/23/2014 01:3711/26/2014 15:30NAVAJOSELUIS9935464899354648 301 NOBLE FOREST DR APT 1500, PEACHTREE CORNERS GA 30092FAILURE TO YIELD FOR EMERGENCY$96ORGwinnett County PoliceCharges
11/23/2014 01:3711/26/2014 15:30NAVAJOSELUIS9935464899354648 301 NOBLE FOREST DR APT 1500, PEACHTREE CORNERS GA 30092M/V WRONG SIDE OF ROAD$96ORGwinnett County PoliceCharges
11/23/2014 01:3711/26/2014 15:30NAVAJOSELUIS9935464899354648 301 NOBLE FOREST DR APT 1500, PEACHTREE CORNERS GA 30092IMPROPER LANE CHANGE$96ORGwinnett County PoliceCharges
11/23/2014 01:3711/26/2014 15:30NAVAJOSELUIS9935464899354648 301 NOBLE FOREST DR APT 1500, PEACHTREE CORNERS GA 30092*NO DRIVERS LICENSE$705ORGwinnett County PoliceCharges
11/23/2014 01:3711/26/2014 15:30NAVAJOSELUIS9935464899354648 301 NOBLE FOREST DR APT 1500, PEACHTREE CORNERS GA 30092FAIL TO RPT STRIKING FIXED OBJECT$96ORGwinnett County PoliceCharges
11/23/2014 01:3711/26/2014 15:30NAVAJOSELUIS9935464899354648 301 NOBLE FOREST DR APT 1500, PEACHTREE CORNERS GA 30092* DUI-MORE THAN 0.10%BLOOD ALCOHOL$2006ORGwinnett County PoliceCharges
11/23/2014 01:3711/26/2014 15:30NAVAJOSELUIS9935464899354648 301 NOBLE FOREST DR APT 1500, PEACHTREE CORNERS GA 30092HOLD FOR IMMIGRATION$0NBGwinnett County PoliceCharges
11/23/2014 01:3711/26/2014 15:30NAVAJOSELUIS9935464899354648 301 NOBLE FOREST DR APT 1500, PEACHTREE CORNERS GA 30092*HIT & RUN-FAILURE TO STOP & RENDER AID$425ORGwinnett County PoliceCharges
11/23/2014 01:3611/23/2014 09:45BOWERSOCKDUSTINLEIGH9951742599517425 1620 HIGHLAND CT, AUBURN GA 30011SPEEDING$189SBAuburn PDCharges
11/23/2014 01:3611/23/2014 09:45BOWERSOCKDUSTINLEIGH9951742599517425 1620 HIGHLAND CT, AUBURN GA 30011*DUI$779SBAuburn PDCharges
11/23/2014 01:22MONTESEDUARDO9951742499517424 6159 ARBOR LINKS RD, LITHONIA GA 30058*LESS THAN AN OZ OF MARIJ.$1850SBGwinnett County PoliceCharges
11/23/2014 01:22MONTESEDUARDO9951742499517424 6159 ARBOR LINKS RD, LITHONIA GA 30058* GIVING FALSE NAME OR INFORMATION$1850SBGwinnett County PoliceCharges
11/23/2014 01:22MONTESEDUARDO9951742499517424 6159 ARBOR LINKS RD, LITHONIA GA 30058POSS OF OPEN ALCOHOL CONTAINER$299SBGwinnett County PoliceCharges
11/23/2014 01:22MONTESEDUARDO9951742499517424 6159 ARBOR LINKS RD, LITHONIA GA 30058POSS OF OPEN ALCOHOL CONTAINER$299SBGwinnett County PoliceCharges
11/23/2014 01:22MONTESEDUARDO9951742499517424 6159 ARBOR LINKS RD, LITHONIA GA 30058IMPROPER STOP W/IN AN INTERSECTION$56SBGwinnett County PoliceCharges
11/23/2014 01:22MONTESEDUARDO9951742499517424 6159 ARBOR LINKS RD, LITHONIA GA 30058HOLD FOR OTHER AGENCY$0NBGwinnett County PoliceCharges
11/23/2014 01:19BROWN-CHISOLMANTHONYEMANUEL9920751899207518 3364 CHELSEA PARK LN APT I, PEACHTREE CORNERS GA 30092HOLD FOR OTHER AGENCY$0NBGwinnett County PoliceCharges
11/23/2014 01:19BROWN-CHISOLMANTHONYEMANUEL9920751899207518 3364 CHELSEA PARK LN APT I, PEACHTREE CORNERS GA 30092*FUGITIVE FROM JUSTICE$0NBGwinnett County PoliceCharges
11/23/2014 01:0811/26/2014 12:04PABLOROMO99517423995174233014 5000 CHARLES ST SE, SMYRNA GA 30080RUNNING RED LIGHT$133ORLawrenceville PoliceCharges
11/23/2014 01:0811/26/2014 12:04PABLOROMO99517423995174233014 5000 CHARLES ST SE, SMYRNA GA 30080RUNNING RED LIGHT$133ORLawrenceville PoliceCharges
11/23/2014 01:0811/26/2014 12:04PABLOROMO99517423995174233014 5000 CHARLES ST SE, SMYRNA GA 30080DRIVING UNDER INFLUENCE DRUGS/ALCOHOL$1230ORLawrenceville PoliceCharges
11/23/2014 01:0811/26/2014 12:04PABLOROMO99517423995174233014 5000 CHARLES ST SE, SMYRNA GA 30080HOLD FOR IMMIGRATION$0NBLawrenceville PoliceCharges
11/23/2014 01:0811/26/2014 12:04PABLOROMO99517423995174233014 5000 CHARLES ST SE, SMYRNA GA 30080EXPIRED OR NO LICENSE ON PERSON$393ORLawrenceville PoliceCharges
11/23/2014 01:0511/23/2014 04:45NNAIFEEDWARDIZUKA9951742299517422 985 WHITE BIRCH WAY, LAWRENCEVILLE GA 30043* DRIVING WHILE LICENSE WITHDRAWN$705SBGwinnett County PoliceCharges
11/23/2014 00:52SANCHEZERICEDUARDO9951742199517421 41580 OLD DANNY RD LOT 20, BAY MINETTE AL 36507*TRAFFICKING IN METHAMPHETAMINE$0NBGA State PatrolCharges
11/23/2014 00:52SANCHEZERICEDUARDO9951742199517421 41580 OLD DANNY RD LOT 20, BAY MINETTE AL 36507HOLD FOR IMMIGRATION$0NBGA State PatrolCharges
11/23/2014 00:48GUZMANJAIME9951742099517420 1117 N ENOS ST, VISALIA CA 93292*TRAFFICKING IN METHAMPHETAMINE$0NBGeorgia Bureau of InvestigationCharges
11/23/2014 00:48GUZMANJAIME9951742099517420 1117 N ENOS ST, VISALIA CA 93292* TRAFFICKING COCAINE, MARIJUANA, ETC.$0NBGeorgia Bureau of InvestigationCharges
11/23/2014 00:45GARCIA-CARABANTESJ-MANUEL9916383599163835 1364 PIRKLE RD, NORCROSS GA 30093*TRAFFICKING IN METHAMPHETAMINE$0NBGA State PatrolCharges
11/23/2014 00:45GARCIA-CARABANTESJ-MANUEL9916383599163835 1364 PIRKLE RD, NORCROSS GA 30093HOLD FOR IMMIGRATION$0NBGA State PatrolCharges
11/23/2014 00:2911/23/2014 10:41MARQUEZSTEPHANIE9951741999517419 910 HARTFORD RUN, BUFORD GA 30518* DUI-ALCOHOL$2006SBGwinnett County PoliceCharges
11/23/2014 00:2911/23/2014 10:41MARQUEZSTEPHANIE9951741999517419 910 HARTFORD RUN, BUFORD GA 30518POSS OF < 1 OZ OF MARIJ.$585SBGwinnett County PoliceCharges
11/23/2014 00:2011/26/2014 15:28ORTIZ-PADILLADIMAZRONEY9951741899517441 404 2ND ST, DOCENA AL 35060PED UNDER INFLUENCE ON R/WAY$152SBGwinnett County PoliceCharges
11/23/2014 00:2011/26/2014 15:28ORTIZ-PADILLADIMAZRONEY9951741899517441 404 2ND ST, DOCENA AL 35060HOLD FOR IMMIGRATION$0NBGwinnett County PoliceCharges
11/22/2014 23:3711/25/2014 16:03PRATHERCHARLESDEWITT9951741799517417 1205 LAKEFIELD PL, JOHNS CREEK GA 30097* GIVING FALSE NAME OR INFORMATION$1300SBLawrenceville PoliceCharges
11/22/2014 23:3311/26/2014 15:27LOPEZ-GOMEZENRIQUE9951741699517416 503 LIA HILLS DR, NORCROSS GA 30071*DUI$1580ORNorcross PoliceCharges
11/22/2014 23:3311/26/2014 15:27LOPEZ-GOMEZENRIQUE9951741699517416 503 LIA HILLS DR, NORCROSS GA 30071*NO VALID LICENSE$860ORNorcross PoliceCharges
11/22/2014 23:3311/26/2014 15:27LOPEZ-GOMEZENRIQUE9951741699517416 503 LIA HILLS DR, NORCROSS GA 30071FAILURE TO MAINTAIN LANE$210ORNorcross PoliceCharges
11/22/2014 23:3311/26/2014 15:27LOPEZ-GOMEZENRIQUE9951741699517416 503 LIA HILLS DR, NORCROSS GA 30071FAILURE TO DIM HEADLIGHTS$110ORNorcross PoliceCharges
11/22/2014 23:3311/26/2014 15:27LOPEZ-GOMEZENRIQUE9951741699517416 503 LIA HILLS DR, NORCROSS GA 30071HOLD FOR IMMIGRATION$0NBNorcross PoliceCharges
11/22/2014 23:3311/26/2014 15:27LOPEZ-GOMEZENRIQUE9951741699517416 503 LIA HILLS DR, NORCROSS GA 30071BRAKE LIGHT/SIGNAL DEVICE REQUIRED$110ORNorcross PoliceCharges
11/22/2014 22:5911/24/2014 23:23MOSSMILESALEXANDER9951741599517415 12861 WATERHAVEN CIR, ORLANDO FL 32828*SHOPLIFTING LESS THAN 300.00$311.25ORDuluth PoliceCharges
11/22/2014 22:0411/24/2014 17:43FULLERNICHOLEYVETTE9946520799465207 3906 LODGE ALLEY, DULUTH GA 30096VIOLATION OF PROBATION$0NBDuluth PoliceCharges
11/22/2014 21:4411/23/2014 01:12AGUILAR-ORTEGAMIRNAARACELI9951741399517413 2104 POND ROAD, DULUTH GA 30096*NO VALID LICENSE$860CBNorcross PoliceCharges
11/22/2014 21:4411/23/2014 01:12AGUILAR-ORTEGAMIRNAARACELI9951741399517413 2104 POND ROAD, DULUTH GA 30096FAILURE TO HAVE TWO HEADLIGHTS$110CBNorcross PoliceCharges
11/22/2014 21:1211/23/2014 04:34BROUGHTONANTANESHIANICHOLE9951741199517411 1890 SHADY CREEK LN, LAWRENCEVILLE GA 30043@ * THEFT BY SHOPLIFTING$1300SBGwinnett County PoliceCharges
11/22/2014 21:0311/23/2014 02:07WILLIAMSRODRICOAMAIR9951741099517410 1455 JUNEAU WAY, GRAYSON GA 30017THEFT BY SHOPLIFTING$420SBLilburn PoliceCharges
11/22/2014 20:4111/23/2014 20:10RUIZJAVIER9951740999517409 2705 MALL OF GEORGIA BLVD APT 708, BUFORD GA 30519FAILURE TO YIELD$96SBGwinnett County PoliceCharges
11/22/2014 20:4111/23/2014 20:10RUIZJAVIER9951740999517409 2705 MALL OF GEORGIA BLVD APT 708, BUFORD GA 30519FAILURE TO MAINTAIN INSURANCE$299SBGwinnett County PoliceCharges
11/22/2014 20:4111/23/2014 20:10RUIZJAVIER9951740999517409 2705 MALL OF GEORGIA BLVD APT 708, BUFORD GA 30519POSSESSION OF LESS 1 OZ. MARIJUANA$585SBGwinnett County PoliceCharges
11/22/2014 20:4111/23/2014 20:10RUIZJAVIER9951740999517409 2705 MALL OF GEORGIA BLVD APT 708, BUFORD GA 30519RECKLESS DRIVING$425SBGwinnett County PoliceCharges
11/22/2014 20:3911/23/2014 00:21HOFFMANLAURENBETH9945408999454089 3045 HEATHERSTONE WAY, LAWRENCEVILLE GA 30043SPEEDING / 2ND OFFENSE / 31-99 OVER$350SBLawrenceville PoliceCharges
11/22/2014 20:3911/23/2014 00:21HOFFMANLAURENBETH9945408999454089 3045 HEATHERSTONE WAY, LAWRENCEVILLE GA 30043RECKLESS DRIVING$633SBLawrenceville PoliceCharges
11/22/2014 20:3111/24/2014 10:59DARDENJEROMEANDRE9944765499447654 1941 RIVER CREST WAY, LAWRENCEVILLE GA 30045@ * THEFT BY SHOPLIFTING$7900SBSnellville PoliceCharges
11/22/2014 19:5711/23/2014 18:28HOLIDAYTRONEISHA9939733899397338 7065 JIMMY CARTER BLVD RM# 415, NORCROSS GA 30092DISORDERLY CONDUCT-FIGHTING$135CBGwinnett County PoliceCharges
11/22/2014 18:4511/23/2014 12:03CHAMPAGNEKAYCECHASE9942774299462988 1024 CAMP CREEK DR SW, LILBURN GA 30047THEFT BY SHOPLIFTING$420SBLilburn PoliceCharges
11/22/2014 18:4011/26/2014 15:26GOMEZCARLOS9951740899517408 5834 SINGLETON RD, NORCROSS GA 30093THEFT BY SHOPLIFTING$420ORLilburn PoliceCharges
11/22/2014 18:4011/26/2014 15:26GOMEZCARLOS9951740899517408 5834 SINGLETON RD, NORCROSS GA 30093HOLD FOR IMMIGRATION$0NBLilburn PoliceCharges
11/22/2014 18:0011/26/2014 09:13DILLARDCAROLWILLIAMS9951740799517407 3813 AMBER TRL, DULUTH GA 30096ALL LENSES MUST BE GOOD$68ORGwinnett County PoliceCharges
11/22/2014 18:0011/26/2014 09:13DILLARDCAROLWILLIAMS9951740799517407 3813 AMBER TRL, DULUTH GA 30096* DRIVING WHILE LIC SUSP/REVOKED$705ORGwinnett County PoliceCharges
11/22/2014 18:0011/26/2014 09:13DILLARDCAROLWILLIAMS9951740799517407 3813 AMBER TRL, DULUTH GA 30096FAILURE TO APPEAR$305CBGwinnett County PoliceCharges
11/22/2014 17:44LOUKASJAMESDEAN9921602599216025 790 HARBOR BAY DR, LAWRENCEVILLE GA 30045@ * SIMPLE BATTERY$0NBGwinnett County PoliceCharges
11/22/2014 17:44LOUKASJAMESDEAN9921602599216025 790 HARBOR BAY DR, LAWRENCEVILLE GA 30045HOLD FOR OTHER AGENCY$0NBGwinnett County PoliceCharges
11/22/2014 17:07THACKERJUSTINBRANT9947102299471022 1011 JORDAN ROAD, DACULA GA 30019*DUI - ALCOHOL$1300SBGwinnett County SheriffCharges
11/22/2014 17:07THACKERJUSTINBRANT9947102299471022 1011 JORDAN ROAD, DACULA GA 30019* PAROLE VIOLATION$0NBGwinnett County SheriffCharges
11/22/2014 16:49GEOHAGHANCAROLYNMICHELLE9951740699517406 3372 BLAISDELL RD, BUFORD GA 30519@ * AGGRAVATED ASSAULT$0NBGwinnett County PoliceCharges
11/22/2014 16:49GEOHAGHANCAROLYNMICHELLE9951740699517406 3372 BLAISDELL RD, BUFORD GA 30519@ * AGGRAVATED ASSAULT$0NBGwinnett County PoliceCharges
11/22/2014 16:49GEOHAGHANCAROLYNMICHELLE9951740699517406 3372 BLAISDELL RD, BUFORD GA 30519*HOME INVASION$0NBGwinnett County PoliceCharges
11/22/2014 16:43GEOHAGHANEMONSADE9951740599517405 3372 BLAISDELL RD, BUFORD GA 30519@ * AGGRAVATED ASSAULT$0NBGwinnett County PoliceCharges
11/22/2014 16:43GEOHAGHANEMONSADE9951740599517405 3372 BLAISDELL RD, BUFORD GA 30519@ * AGGRAVATED ASSAULT$0NBGwinnett County PoliceCharges
11/22/2014 16:43GEOHAGHANEMONSADE9951740599517405 3372 BLAISDELL RD, BUFORD GA 30519*HOME INVASION$0NBGwinnett County PoliceCharges
11/22/2014 16:35GEOHAGHANMARKC9951740499517404 3372 BLAISDELL ROAD, BUFORD GA 30519@ * AGGRAVATED ASSAULT$0NBGwinnett County PoliceCharges
11/22/2014 16:35GEOHAGHANMARKC9951740499517404 3372 BLAISDELL ROAD, BUFORD GA 30519@ * AGGRAVATED ASSAULT$0NBGwinnett County PoliceCharges
11/22/2014 16:35GEOHAGHANMARKC9951740499517404 3372 BLAISDELL ROAD, BUFORD GA 30519*HOME INVASION$0NBGwinnett County PoliceCharges
11/22/2014 16:35GEOHAGHANMARKC9951740499517404 3372 BLAISDELL ROAD, BUFORD GA 30519* POSS OF FIREARM BY CONVICTED FELON$0NBGwinnett County PoliceCharges
11/22/2014 16:33MCDONALDRYANORAN9936528899365288 3372 BLAISDELL RD, BUFORD GA 30519@ * AGGRAVATED ASSAULT$0NBGwinnett County PoliceCharges
11/22/2014 16:33MCDONALDRYANORAN9936528899365288 3372 BLAISDELL RD, BUFORD GA 30519@ * AGGRAVATED ASSAULT$0NBGwinnett County PoliceCharges
11/22/2014 16:33MCDONALDRYANORAN9936528899365288 3372 BLAISDELL RD, BUFORD GA 30519*HOME INVASION$0NBGwinnett County PoliceCharges
11/22/2014 15:4211/22/2014 20:09WILSONMLAUNDACACHET9951740399517403 4025 MCGINNIS FERRY RD APT 1509, SUWANEE GA 30024*DRIVING ON SUSP. LIC$971.75SBDuluth PoliceCharges
11/22/2014 15:4211/22/2014 20:09WILSONMLAUNDACACHET9951740399517403 4025 MCGINNIS FERRY RD APT 1509, SUWANEE GA 30024SPEEDING 19-23 OVER$213.25SBDuluth PoliceCharges
11/22/2014 15:0811/22/2014 19:57GUZMANRAMIRO9951740299517402 109 CEDAR RIDGE TRL, LAWRENCEVILLE GA 30046*DRIVING WHILE LIC.SUSP/REVOKED$803CBLawrenceville PoliceCharges
11/22/2014 15:0811/22/2014 19:57GUZMANRAMIRO9951740299517402 109 CEDAR RIDGE TRL, LAWRENCEVILLE GA 30046OPERATING W/O PROPER TAG/DECAL$163CBLawrenceville PoliceCharges
11/22/2014 15:00ESTRADA-OREGONSINDIFABIOLA9951740199517401 2103 SAINT CLAIR DRIVE NE, ATLANTA GA 30329HOLD FOR IMMIGRATION$0NBGwinnett County SheriffCharges
11/22/2014 15:00ESTRADA-OREGONSINDIFABIOLA9951740199517401 2103 SAINT CLAIR DRIVE NE, ATLANTA GA 30329*TRAFFICKING IN METHAMPHETAMINE$0NBGwinnett County SheriffCharges
11/22/2014 14:4911/25/2014 13:16ALEXANDERSARAMARIE9950206199502061 175 CHATTACHOOCHEE ST, CORNELIA GA 30531HOLD FOR COURT$0NBGwinnett County SheriffCharges
11/22/2014 14:4611/23/2014 18:45VASQUEZHECTORJOSE9942869699428696 3133 SHALLOWFORD RD, CHAMBLEE GA 30341OPEN CONTAINER LAW$299SBGwinnett County PoliceCharges
11/22/2014 14:4611/23/2014 18:45VASQUEZHECTORJOSE9942869699428696 3133 SHALLOWFORD RD, CHAMBLEE GA 30341@ * THEFT BY SHOPLIFTING$2400SBGwinnett County PoliceCharges
11/22/2014 14:3111/25/2014 16:06CHAPMANDEREKTYLER9943335499433354 3347 HINSDALE LN, BUFORD GA 30519Violation of Probation$0NBLawrenceville PoliceCharges
11/22/2014 14:1611/22/2014 18:30ROSALES - LOPEZANTONIO9951740099517400 1055 MOCKINGBIRD TRL, NORCROSS GA 30093Failure to Appear$410CBGwinnett County PoliceCharges
11/22/2014 12:3111/25/2014 18:55JONESDESTAHULBERT9948833199488331 245 TRELAWNEY DR, COVINGTON GA 30016Violation of Probation$0NBGwinnett County SheriffCharges
11/22/2014 12:2611/26/2014 11:09ROBINSONWILLIELEE9948063499480634 571 POND WEED DR, LAWRENCEVILLE GA 30045FAILURE TO APPEAR$873CBGwinnett County SheriffCharges
11/22/2014 12:2611/26/2014 11:09ROBINSONWILLIELEE9948063499480634 571 POND WEED DR, LAWRENCEVILLE GA 30045FAILURE TO APPEAR$0NBGwinnett County SheriffCharges
11/22/2014 12:2611/26/2014 11:09ROBINSONWILLIELEE9948063499480634 571 POND WEED DR, LAWRENCEVILLE GA 30045FAILURE TO APPEAR$1809CBGwinnett County SheriffCharges
11/22/2014 12:2611/26/2014 11:09ROBINSONWILLIELEE9948063499480634 571 POND WEED DR, LAWRENCEVILLE GA 30045HOLD FOR OTHER AGENCY$0NBGwinnett County SheriffCharges
11/22/2014 12:1911/26/2014 15:06THOMASGEORGELEVI9951739999517399 3175 MEDLOCK BRIDGE ROAD ROOM 160, NORCROSS GA 30071Violation of Probation$0NBDuluth PoliceCharges
11/22/2014 12:16COUSINSSTEPHENCHRISTOPHER9934746099347494 3007 WINDY HILL POINT, LAWRENCEVILLE GA 30046* VIOLATION OF PROBATION$0NBDuluth PoliceCharges
11/22/2014 12:16COUSINSSTEPHENCHRISTOPHER9934746099347494 3007 WINDY HILL POINT, LAWRENCEVILLE GA 30046TAGS: OPERATING W/OUT PROPER TAG/DECAL$66.25ORDuluth PoliceCharges
11/22/2014 12:16COUSINSSTEPHENCHRISTOPHER9934746099347494 3007 WINDY HILL POINT, LAWRENCEVILLE GA 30046NO BRAKE LIGHTS OR WORKING TURN SIGNALS$94.25ORDuluth PoliceCharges
11/22/2014 12:10ACOSTA-VARGASSANTOSJAVIER9942896599428969 5175 RUNNING FOX TRL, NORCROSS GA 30071Violation of Probation$0NBGwinnett County PoliceCharges
11/22/2014 12:10ACOSTA-VARGASSANTOSJAVIER9942896599428969 5175 RUNNING FOX TRL, NORCROSS GA 30071Violation of Probation$0NBGwinnett County PoliceCharges
11/22/2014 12:10ACOSTA-VARGASSANTOSJAVIER9942896599428969 5175 RUNNING FOX TRL, NORCROSS GA 30071HOLD FOR IMMIGRATION$0NBGwinnett County PoliceCharges
11/22/2014 11:4411/22/2014 14:21FRETWELLAMYR9951739899517398 4624 CANDY LN NW, LILBURN GA 30047*OPEN CONTAINER$259CBSnellville PoliceCharges
11/22/2014 11:4411/22/2014 14:21FRETWELLAMYR9951739899517398 4624 CANDY LN NW, LILBURN GA 30047PUBLIC DRUNK$288.5CBSnellville PoliceCharges
11/22/2014 11:4411/22/2014 14:21FRETWELLAMYR9951739899517398 4624 CANDY LN NW, LILBURN GA 30047*SHOPLIFTING LESS THAN 300.00$558.5CBSnellville PoliceCharges
11/22/2014 11:33FELTONDEMARIUSKENTRAY9949919499499194 1790 HICKORY STATION CIR, SNELLVILLE GA 30078VIOLATION OF PROBATION$0NBSnellville PoliceCharges
11/22/2014 11:2711/25/2014 23:52BAUGHMANLARRYDEAN9945026599450265 120 TUXEDO ROAD, ATHENS GA 30606Violation of Probation$0NBNorcross PoliceCharges
11/22/2014 11:1911/22/2014 14:40STOVERDEVONDEIONTAE9951739799517397 5200 ALDERBURGH COURT, SUWANEE GA 30024* POSS OF C/S OR MARIJUANA$1300SBGwinnett County SheriffCharges
11/22/2014 11:1911/22/2014 14:40STOVERDEVONDEIONTAE9951739799517397 5200 ALDERBURGH COURT, SUWANEE GA 30024*POSS AND USE OF DRUG RELATED$1300SBGwinnett County SheriffCharges
11/22/2014 10:54KURMALANJOHN9951739699517396 126 LEGACY DRIVE, HOSCHTON GA 30548FAILURE TO APPEAR$2260CBBraselton PDCharges
11/22/2014 09:2111/26/2014 16:13CARITHERSJEROME9950190699501906 1910 ARGONNE DR, MORROW GA 30260VIOLATION OF PROBATION$0NBGwinnett County PoliceCharges
11/22/2014 08:2711/22/2014 15:14RIVERSJOVONMAURICE9920074199200741 2250 WATERFORD PARK DR, LAWRENCEVILLE GA 30044* DUI-ALCOHOL$2006SBGwinnett County PoliceCharges
11/22/2014 06:34ZALASARJUANILAREON9922739399439043 2243 PLASTER ROAD, ATLANTA GA 30345Failure to Appear$0NBNorcross PoliceCharges
11/22/2014 06:34ZALASARJUANILAREON9922739399439043 2243 PLASTER ROAD, ATLANTA GA 30345HOLD FOR IMMIGRATION$0NBNorcross PoliceCharges
11/22/2014 05:5311/22/2014 10:34HARRELLEMILYGRACE9951739399517393 1464 ADAIR HILL CT, DACULA GA 30019* PURCHASE/POSS ALCOHOL PERSON UNDER 21$135SBGwinnett County PoliceCharges
11/22/2014 05:5311/22/2014 10:34HARRELLEMILYGRACE9951739399517393 1464 ADAIR HILL CT, DACULA GA 30019* GIVING FALSE NAME OR INFORMATION$1300SBGwinnett County PoliceCharges
11/22/2014 05:4411/22/2014 15:28MELO-RIVERAANAKARINA9951739299517392 1308 WILDFLOWER DOWNS, LAWRENCEVILLE GA 30044* DUI - DRUGS/ALCOHOL$2006SBGwinnett County PoliceCharges
11/22/2014 05:4411/22/2014 15:28MELO-RIVERAANAKARINA9951739299517392 1308 WILDFLOWER DOWNS, LAWRENCEVILLE GA 30044IMPROPER LANE CHANGE$68SBGwinnett County PoliceCharges
11/22/2014 05:3311/22/2014 12:50SIMRYANEUSON9951739099517390 396 PIEDMONT AVE NE APT 6026, ATLANTA GA 30308* DUI-UNDER THE AGE OF 21$2006SBGwinnett County PoliceCharges
11/22/2014 05:3311/22/2014 12:50SIMRYANEUSON9951739099517390 396 PIEDMONT AVE NE APT 6026, ATLANTA GA 30308FAILURE TO OBEY SIGNS OR CONTROL DEVICES$96SBGwinnett County PoliceCharges
11/22/2014 05:3311/22/2014 10:46GALBERTHKEVONMARCELLUS9951739199517391 515 FULTON ST SW UNIT 2206, ATLANTA GA 30312* DUI-MORE THAN 0.10%BLOOD ALCOHOL$2006SBGwinnett County PoliceCharges
11/22/2014 05:3311/22/2014 10:46GALBERTHKEVONMARCELLUS9951739199517391 515 FULTON ST SW UNIT 2206, ATLANTA GA 30312IMPROPER LANE CHANGE$68SBGwinnett County PoliceCharges
11/22/2014 05:3311/22/2014 10:46GALBERTHKEVONMARCELLUS9951739199517391 515 FULTON ST SW UNIT 2206, ATLANTA GA 30312FAILURE TO HAVE LICENSE ON PERSON$19SBGwinnett County PoliceCharges
11/22/2014 05:3311/22/2014 10:46GALBERTHKEVONMARCELLUS9951739199517391 515 FULTON ST SW UNIT 2206, ATLANTA GA 30312NO PASSING ON SHOULDER OF ROAD$68SBGwinnett County PoliceCharges
11/22/2014 05:3311/22/2014 10:46GALBERTHKEVONMARCELLUS9951739199517391 515 FULTON ST SW UNIT 2206, ATLANTA GA 30312SPEEDING$285SBGwinnett County PoliceCharges
11/22/2014 05:2111/22/2014 11:38KIMSUNGJAE9951738999517389 605 JAMES LEE DR, SUWANEE GA 30024DIS COND - PUBLIC INTOXICATION$125CBGwinnett County PoliceCharges
11/22/2014 05:2111/22/2014 11:38KIMSUNGJAE9951738999517389 605 JAMES LEE DR, SUWANEE GA 30024POSS/PURCHASE ALCOHOL UNDER 21$190CBGwinnett County PoliceCharges
11/22/2014 05:10COLDMONBRIANKEITH JR9950827499508274 1745 CHARMETH RD, LITHONIA GA 30058VIOLATION OF PROBATION$0NBSnellville PoliceCharges
11/22/2014 05:09CLARKEDGARLEE9920139399246564 468 CRANE DR, LAWRENCEVILLE GA 30046FAILURE TO APPEAR$348CBSnellville PoliceCharges
11/22/2014 05:09CLARKEDGARLEE9920139399246564 468 CRANE DR, LAWRENCEVILLE GA 30046*VGCSA OF C/S$5700SBSnellville PoliceCharges
11/22/2014 05:09CLARKEDGARLEE9920139399246564 468 CRANE DR, LAWRENCEVILLE GA 30046*POSS AND USE OF DRUG RELATED$1300SBSnellville PoliceCharges
11/22/2014 05:09CLARKEDGARLEE9920139399246564 468 CRANE DR, LAWRENCEVILLE GA 30046TAG LIGHT VISIBLE 50 FT.$116.5SBSnellville PoliceCharges
11/22/2014 04:5211/22/2014 16:43SUTTONAMIELYNETTE9951738899517388 2491 CRUMPS LANDING CIR, SNELLVILLE GA 30039*VGCSA OF C/S$5700SBSnellville PoliceCharges
11/22/2014 04:5211/22/2014 11:46VOLLENWEIDERELIZABETHMAE9934917399349173 1250 WATER SHINE WAY, SNELLVILLE GA 30078*POSS AND USE OF DRUG RELATED$1300SBSnellville PoliceCharges
11/22/2014 03:5311/22/2014 16:23GRIFFITHRYANRUSSELL9911112299111122 715 RIVER OAK LOOP, LAWRENCEVILLE GA 30044* DUI-MORE THAN 0.10%BLOOD ALCOHOL$2006SBGwinnett County PoliceCharges
11/22/2014 03:5311/22/2014 16:23GRIFFITHRYANRUSSELL9911112299111122 715 RIVER OAK LOOP, LAWRENCEVILLE GA 30044IMPROPER LANE CHANGE$68SBGwinnett County PoliceCharges
11/22/2014 03:5311/22/2014 16:23GRIFFITHRYANRUSSELL9911112299111122 715 RIVER OAK LOOP, LAWRENCEVILLE GA 30044EXPIRED OR NO LICENSE PLATE OR DECAL$152SBGwinnett County PoliceCharges
11/22/2014 03:3911/22/2014 10:37CANTYLINDSEYANN9951738699517386 1970 FARMWOOD DR, LAWRENCEVILLE GA 30043IMPROPER LANE CHANGE$96SBGwinnett County PoliceCharges
11/22/2014 03:3911/22/2014 10:37CANTYLINDSEYANN9951738699517386 1970 FARMWOOD DR, LAWRENCEVILLE GA 30043* DUI-MORE THAN 0.10%BLOOD ALCOHOL$2006SBGwinnett County PoliceCharges
11/22/2014 03:3111/25/2014 21:52SHIELDSLAURENASHLEY9949928999499289 1065 RIVER OVERLOOK DR, LAWRENCEVILLE GA 30043HOLD FOR OTHER AGENCY$0NBLawrenceville PoliceCharges
11/22/2014 03:3111/25/2014 21:52SHIELDSLAURENASHLEY9949928999499289 1065 RIVER OVERLOOK DR, LAWRENCEVILLE GA 30043CONTEMPT OF COURT$45CBLawrenceville PoliceCharges
11/22/2014 03:3011/22/2014 12:11BENNETTSHANIQUAMONIQUE9951738599517385 505 OVERLOOK PARK LN, LAWRENCEVILLE GA 30043* DUI-ALCOHOL$2006ORGwinnett County PoliceCharges
11/22/2014 03:3011/22/2014 12:11BENNETTSHANIQUAMONIQUE9951738599517385 505 OVERLOOK PARK LN, LAWRENCEVILLE GA 30043IMPROPER LANE CHANGE$68ORGwinnett County PoliceCharges
11/22/2014 03:3011/22/2014 12:11BENNETTSHANIQUAMONIQUE9951738599517385 505 OVERLOOK PARK LN, LAWRENCEVILLE GA 30043OPERATING VEHICLE W/TEXT MESSAGING(<18)$150ORGwinnett County PoliceCharges
11/22/2014 03:1411/25/2014 14:23PACHECO-JIMENEZGERMAN9951738399517383 2800 HERRINGTON WOODS CT APT 1-102, LAWRENCEVILLE GA 30044*DUI--ALCOHOL$1266SBLilburn PoliceCharges
11/22/2014 03:1411/25/2014 14:23PACHECO-JIMENEZGERMAN9951738399517383 2800 HERRINGTON WOODS CT APT 1-102, LAWRENCEVILLE GA 30044OBSTRUCTING INTERSECTION$85SBLilburn PoliceCharges
11/22/2014 03:1411/25/2014 14:23PACHECO-JIMENEZGERMAN9951738399517383 2800 HERRINGTON WOODS CT APT 1-102, LAWRENCEVILLE GA 30044*NOT LICENSED TO DRIVE$715SBLilburn PoliceCharges
11/22/2014 03:1411/25/2014 14:23PACHECO-JIMENEZGERMAN9951738399517383 2800 HERRINGTON WOODS CT APT 1-102, LAWRENCEVILLE GA 30044HOLD FOR OTHER AGENCY$0NBLilburn PoliceCharges
11/22/2014 03:1011/24/2014 04:10LEWISTOMMIEANTHONY9950176499501764 1214 BRAMLETT CREEK PL, LAWRENCEVILLE GA 30045TAG LIGHT REQUIRED$88ORLawrenceville PoliceCharges
11/22/2014 03:1011/24/2014 04:10LEWISTOMMIEANTHONY9950176499501764 1214 BRAMLETT CREEK PL, LAWRENCEVILLE GA 30045*DRIVING WHILE LIC.SUSP/REVOKED$803ORLawrenceville PoliceCharges
11/22/2014 02:5711/24/2014 02:15SHIELDSMICHAELEDWARD9947838999478389 1977 EMERSON LAKE CIR, SNELLVILLE GA 30078*OPEN CONTAINER$259ORSnellville PoliceCharges
11/22/2014 02:5711/24/2014 02:15SHIELDSMICHAELEDWARD9947838999478389 1977 EMERSON LAKE CIR, SNELLVILLE GA 30078MINOR POSS OF ALCOHOL$262ORSnellville PoliceCharges
11/22/2014 02:5711/24/2014 02:15SHIELDSMICHAELEDWARD9947838999478389 1977 EMERSON LAKE CIR, SNELLVILLE GA 30078OPERATING W/LEARNER'S PERMIT$117ORSnellville PoliceCharges
11/22/2014 02:4211/25/2014 11:15LUNAISAIAS9951738299517382 1865 OAK RIDGE LN, LAWRENCEVILLE GA 30044* DUI-MORE THAN 0.10%BLOOD ALCOHOL$2006ORGwinnett County PoliceCharges
11/22/2014 02:4211/25/2014 11:15LUNAISAIAS9951738299517382 1865 OAK RIDGE LN, LAWRENCEVILLE GA 30044IMPROPER LANE CHANGE$68ORGwinnett County PoliceCharges
11/22/2014 02:4211/25/2014 11:15LUNAISAIAS9951738299517382 1865 OAK RIDGE LN, LAWRENCEVILLE GA 30044*DRIVING W/O LICENSE-FAIL OBTAIN 30 DAYS$705ORGwinnett County PoliceCharges
11/22/2014 02:4211/25/2014 11:15LUNAISAIAS9951738299517382 1865 OAK RIDGE LN, LAWRENCEVILLE GA 30044HOLD FOR IMMIGRATION$0NBGwinnett County PoliceCharges
11/22/2014 02:4011/22/2014 11:42CLARKANGELLAMONT9951738199517381 4069 NORTHRIDGE WAY #3, NORCROSS GA 30093POSS OF OPEN ALCOHOL CONTAINER$299SBGwinnett County PoliceCharges
11/22/2014 02:4011/22/2014 11:42CLARKANGELLAMONT9951738199517381 4069 NORTHRIDGE WAY #3, NORCROSS GA 30093IMPROPER LANE CHANGE$68SBGwinnett County PoliceCharges
11/22/2014 02:4011/22/2014 11:42CLARKANGELLAMONT9951738199517381 4069 NORTHRIDGE WAY #3, NORCROSS GA 30093* DUI-MORE THAN 0.10%BLOOD ALCOHOL$2006SBGwinnett County PoliceCharges
11/22/2014 02:11HARRISANTHONYLAMAR9933471699334760 909 ABBEY PARK WAY, LAWRENCEVILLE GA 30044FAILURE TO APPEAR$579.5CBSnellville PoliceCharges
11/22/2014 02:0311/22/2014 08:48CAMPBELLWINSTONANTHONY9951737799517377 666 MARTIN RD, STONE MOUNTAIN GA 30088*POSS < 1 OZ$437.5SBSnellville PoliceCharges
11/22/2014 02:0311/22/2014 08:48CAMPBELLWINSTONANTHONY9951737799517377 666 MARTIN RD, STONE MOUNTAIN GA 30088SPEEDING 16-20 OVER$186.5SBSnellville PoliceCharges
11/22/2014 01:59SAPPDONTE9947596499475964 5445 MALLARD TRL, LITHONIA GA 30058* VIOLATION OF PROBATION$0NBPrisoner Transport ServicesCharges
11/22/2014 01:52SHORTROBERTCOLYER9944974099449740 7780 SKYLINE DR, SHERILLFORD GA 28673FAILURE TO APPEAR$0NBPrisoner Transport ServicesCharges
11/22/2014 01:50BODDIESPURGEION9901474599014745 3819 MEADOW CREEK DR, PEACHTREE CORNERS GA 30092* VIOLATION OF PROBATION$0NBPrisoner Transport ServicesCharges
11/22/2014 01:1311/22/2014 10:03SMITHFREDERICKJEROME9951737699517376 706 ADAMS FARM CT, LAWRENCEVILLE GA 30046*VGCSA POSS OF MARIJUANA W/INTENT TO DIS$5700SBGwinnett County PoliceCharges
11/22/2014 01:00TRANJOHNN9950280299502802 1425 DANBURY DR, NORCROSS GA 30093FAILURE TO OBEY BY PEDESTRIAN$68ORGwinnett County PoliceCharges
11/22/2014 01:00TRANJOHNN9950280299502802 1425 DANBURY DR, NORCROSS GA 30093* VIOLATION OF PROBATION$0NBGwinnett County PoliceCharges
11/22/2014 00:4311/22/2014 12:48HAMPTONCALEBSEAN9951737599517375 1911 SEASONS PKWY, NORCROSS GA 30093IMPROPER LEFT TURN$56SBGwinnett County PoliceCharges
11/22/2014 00:4311/22/2014 12:48HAMPTONCALEBSEAN9951737599517375 1911 SEASONS PKWY, NORCROSS GA 30093*LESS THAN AN OZ OF MARIJ.$1300SBGwinnett County PoliceCharges
11/22/2014 00:3311/22/2014 13:54MCLEMOREMARTINSHAWNDELL9949516099495160 3720 STEVE REYNOLDS BLVD #233, DULUTH GA 30096*LESS THAN AN OZ OF MARIJ.$1300CBGwinnett County PoliceCharges
11/22/2014 00:2511/22/2014 02:00HARRISGERALDLYNN9951737499517374 1842 PATTERSON PARK DR, LAWRENCEVILLE GA 30044* VIOLATION OF EMPLOYMENT SECURITY LAW$2950SBGwinnett County SheriffCharges
11/22/2014 00:2511/22/2014 05:42HARRISGERALDLYNN9951737499517374 1842 PATTERSON PARK DR, LAWRENCEVILLE GA 30044* VIOLATION OF EMPLOYMENT SECURITY LAW$2950SBGwinnett County SheriffCharges
11/22/2014 00:1711/25/2014 18:54JENKINSDEVONTAA9946804699468046 202 COUNTY ROAD 162, HOUSTON MS 38851Violation of Probation$0NBGwinnett County SheriffCharges
11/22/2014 00:03JOHNSONLAWRENCECHARLES9942561899425618 2101 VALLEY OAKS DR SE, SMYRNA GA 30080* VIOLATION OF PROBATION$0NBGwinnett County SheriffCharges
11/22/2014 00:03JOHNSONLAWRENCECHARLES9942561899425618 2101 VALLEY OAKS DR SE, SMYRNA GA 30080* VIOLATION OF PROBATION$0NBGwinnett County SheriffCharges
11/21/2014 23:5311/22/2014 03:23SONGHEEEUK9951737399517373 2771 TUSCANY PARK DR, LAWRENCEVILLE GA 30043* DUI-MORE THAN 0.10%BLOOD ALCOHOL$2006CBGwinnett County PoliceCharges
11/21/2014 23:5311/22/2014 03:23SONGHEEEUK9951737399517373 2771 TUSCANY PARK DR, LAWRENCEVILLE GA 30043IMPROPER/ERRATIC LANE CHANGE$68CBGwinnett County PoliceCharges
11/21/2014 23:5311/22/2014 03:23SONGHEEEUK9951737399517373 2771 TUSCANY PARK DR, LAWRENCEVILLE GA 30043EXPIRED LICENSE$68CBGwinnett County PoliceCharges
11/21/2014 23:5211/22/2014 17:37POOLETYLERLOGAN9951737299517372 4350 JIMMY CARTER BLVD APT 224, NORCROSS GA 30093DISORDERLY CONDUCT$420CBLilburn PoliceCharges
11/21/2014 23:39SIMMONSJORDANCODI9951737199517371 2280 HARVEST RIDGE CIRCLE, BUFORD GA 30519*VGCSA OF C/S$0NBNorcross PoliceCharges
11/21/2014 23:35OHNEMUSBRANDONJACOB9951737099517370 1351 MIDDLEBURG HUNT, LAWRENCEVILLE 30043*VGCSA OF C/S$0NBNorcross PoliceCharges
11/21/2014 23:3211/22/2014 02:09KILINCAHMETSAID9951736999517369 705 CLEMSON LN, LAWRENCEVILLE GA 30043DISORDERLY CONDUCT$422CBSuwanee PoliceCharges
11/21/2014 23:2311/22/2014 14:48HOFFMANNATALIAREBECCA9926546799265467 3740 CLUB DRIVE, DULUTH GA 30097DISORDERLY CONDUCT$140SBGwinnett County PoliceCharges
11/21/2014 22:5011/22/2014 09:29FRANCOISALAIN-GIRARD9951736899517368 3270 EMMA MARIE PL, BUFORD GA 30519POSSESSION OF LESS 1 OZ. MARIJUANA$585SBGwinnett County PoliceCharges
11/21/2014 22:43WHITTEMORECHRISTOPHERJASON9949260699492606 5440 WINDSWEPT TRCE, SUGAR HILL GA 30518* VGCSA-SCHEDULE I$5700SBGwinnett County PoliceCharges
11/21/2014 22:43WHITTEMORECHRISTOPHERJASON9949260699492606 5440 WINDSWEPT TRCE, SUGAR HILL GA 30518@ * ROBBERY$11200SBGwinnett County PoliceCharges
11/21/2014 22:29SYKESRONNY9951736799517367 2301 HIGHPOINT RD, SNELLVILLE GA 30078@ * ARMED ROBBERY$0NBGwinnett County PoliceCharges
11/21/2014 22:2811/25/2014 11:37JONESLEONARDSPENCER9951736699517366 714 IVEY PARK LN, PEACHTREE CORNERS GA 30092@ * SIMPLE ASSAULT$1300SBGwinnett County PoliceCharges
11/21/2014 22:2811/25/2014 11:37JONESLEONARDSPENCER9951736699517366 714 IVEY PARK LN, PEACHTREE CORNERS GA 30092* OBSTRUCTION LAW ENFORCEMENT OFFICER$1300SBGwinnett County PoliceCharges
11/21/2014 22:2811/25/2014 11:37JONESLEONARDSPENCER9951736699517366 714 IVEY PARK LN, PEACHTREE CORNERS GA 30092HOLD FOR IMMIGRATION$0NBGwinnett County PoliceCharges
11/21/2014 22:1311/22/2014 04:11TORRESARTIMIO9951736599517365B2 3401 FOX ST, DULUTH GA 30096TAIL LIGHT REQUIREMENTS$110CBNorcross PoliceCharges
11/21/2014 22:1311/22/2014 04:11TORRESARTIMIO9951736599517365B2 3401 FOX ST, DULUTH GA 30096*NO VALID LICENSE$860CBNorcross PoliceCharges
11/21/2014 22:09BARNESROGEREVERETT9106151991061519 2252 KIMBERLY WAY, SNELLVILLE GA 30078VIOLATION OF PROBATION$0NBSnellville PoliceCharges
11/21/2014 21:5011/22/2014 11:35ELHOUSSEINIVANITY9951736499517364 2206 WINDY HILL POINTE, LAWRENCEVILLE GA 30045*NEW RESIDENT-30 DAYS TO OBTAIN LICENSE$129.25SBDuluth PoliceCharges
11/21/2014 21:5011/22/2014 11:35ELHOUSSEINIVANITY9951736499517364 2206 WINDY HILL POINTE, LAWRENCEVILLE GA 30045FAILURE TO MAINTAIN LANE$129.25SBDuluth PoliceCharges
11/21/2014 21:3711/23/2014 20:53FLENOURYKENDALL9950387599503875 2500 PLEASANT HILL ROAD APT 1515, DULUTH GA 30096* DUI - DRUGS/ALCOHOL$0NBGwinnett County SheriffCharges
11/21/2014 21:3011/24/2014 22:04TORRESJOSEANTONIO9947240899472408 3322 OAKCLIFF ROAD, ATLANTA GA 30340NO LICENSE ON PERSON$0NBGwinnett County SheriffCharges
11/21/2014 21:2911/23/2014 21:14SILVAAMANDARODRIGUES9951736399517363 3365 FOREST BEND DRIVE, SNELLVILLE GA 30039DISORDERLY CONDUCT$140ORGwinnett County PoliceCharges
11/21/2014 21:1911/22/2014 01:20COLIN-MARTINEZEDGARDO9951736299517362 3292 DULUTH PINES NORTH APT B, DULUTH GA 30096FAIL DIM HEADLIGHTS W/I 200 FT OVERTAK V$129.25CBDuluth PoliceCharges
11/21/2014 21:1911/22/2014 01:20COLIN-MARTINEZEDGARDO9951736299517362 3292 DULUTH PINES NORTH APT B, DULUTH GA 30096*LICENSE:DRIVING WHILE UNLIC. OR EXPIRED$731.25CBDuluth PoliceCharges
11/21/2014 21:0511/22/2014 05:54BOATRIGHTJANMARIE9951736199517387 988 DEE KENNEDY RD, AUBURN GA 30011@ * THEFT BY SHOPLIFTING$1300SBGwinnett County PoliceCharges
11/21/2014 20:4411/22/2014 16:20GAINES IICHARLESEDWARD9951555799515557 1931 PATTERSON PARK DR, LAWRENCEVILLE GA 30044BRAKE LIGHTS REQUIRED$68SBGwinnett County PoliceCharges
11/21/2014 20:4411/22/2014 16:20GAINES IICHARLESEDWARD9951555799515557 1931 PATTERSON PARK DR, LAWRENCEVILLE GA 30044* DRIVING WHILE LIC SUSP/REVOKED$705SBGwinnett County PoliceCharges
11/21/2014 20:4411/22/2014 16:20GAINES IICHARLESEDWARD9951555799515557 1931 PATTERSON PARK DR, LAWRENCEVILLE GA 30044BRAKE LIGHTS REQUIRED$68SBGwinnett County PoliceCharges
11/21/2014 20:3211/26/2014 05:13WILLIAMSHEATHERROSE9951736099517360 1470 BOGGS RD APT 103, DULUTH GA 30096Violation of Probation$0NBGwinnett County SheriffCharges
11/21/2014 20:0311/22/2014 01:04HILLSTEVENBRADLEY9951735999517359 1105 SUMMERCHASE DR, DULUTH GA 30096TAGS: OPERATING W/OUT PROPER TAG/DECAL$66.25SBDuluth PoliceCharges
11/21/2014 20:0311/22/2014 01:04HILLSTEVENBRADLEY9951735999517359 1105 SUMMERCHASE DR, DULUTH GA 30096*DRIVING ON SUSP. LIC$971.75SBDuluth PoliceCharges
11/21/2014 19:4811/23/2014 19:34WASHINGTONRAYFORDOBRIEN9951004299510042 2124 KESWICK VILLAGE CT NE, CONYERS GA 30013*LICENSE: DRIVING WHILE UNLICENSED OR EX$0NBGwinnett County SheriffCharges
11/21/2014 19:2711/25/2014 08:10REYESYANETHDELCARMEN9943522099435220 1038 EVANGELINE WAY, NORCROSS GA 30093THEFT BY SHOPLIFTING$420ORLilburn PoliceCharges
11/21/2014 19:2711/25/2014 08:10REYESYANETHDELCARMEN9943522099435220 1038 EVANGELINE WAY, NORCROSS GA 30093HOLD FOR IMMIGRATION$0NBLilburn PoliceCharges
11/21/2014 19:1911/25/2014 00:02ALVAREZ-MERAALEJANDRO9951735899517358 000 DAVENPORT ROAD, DULUTH GA 30096NO PROFANITY IN PARK$140ORGwinnett County PoliceCharges
11/21/2014 19:1911/25/2014 00:02ALVAREZ-MERAALEJANDRO9951735899517358 000 DAVENPORT ROAD, DULUTH GA 30096HOLD FOR IMMIGRATION$0NBGwinnett County PoliceCharges
11/21/2014 19:1511/21/2014 22:00RUBIOKYLEIGHDANIELLE9945282099452820 3743 RED ROSE CT, LOGANVILLE GA 30052* AFFRAY$2400SBGwinnett County SheriffCharges
11/21/2014 18:5611/22/2014 02:29KINNEMELINDAANN9951735799517357 5377 WALKER RD, STONE MOUNTAIN GA 30088@ * THEFT BY SHOPLIFTING$1300SBGwinnett County PoliceCharges
11/21/2014 18:4511/21/2014 23:29ANDERSONJAMALSHARIF9951735699517356 5847 ALLEE WAY, BRASELTON GA 30517* DUI-ALCOHOL$2006SBGA State PatrolCharges
11/21/2014 18:4511/21/2014 23:29ANDERSONJAMALSHARIF9951735699517356 5847 ALLEE WAY, BRASELTON GA 30517IMPROPER STOPPING$68SBGA State PatrolCharges
11/21/2014 18:0411/23/2014 17:59BURCHJOANELLEN9951735599517355 20 FLINT COURT, HOSCHTON GA 30548NO INSURANCE$0NBGwinnett County SheriffCharges
11/21/2014 18:0011/25/2014 12:02EVANSGEORGENMN9951735499517354 3640 SEELYE DRIVE, AUGUSTA GA 30906HOLD FOR OTHER AGENCY$0NBGwinnett County PoliceCharges
11/21/2014 17:55ALSTONSHAH'KOREDDIE RALIEK9950453999512422 2529 PIERCE CIR, SNELLVILLE GA 30078@ * BATTERY$650NBGwinnett County SheriffCharges
11/21/2014 17:42DOSTERKRISTINJON9946552099465520 102 QUAIL VALLEY RD, AUBURN GA 30011@ * THEFT BY SHOPLIFTING$1300SBGwinnett County PoliceCharges
11/21/2014 17:3611/22/2014 01:14PINONANA9951735299517352 1087 RIVER RIDGE DR, NORCROSS GA 30093*THEFT X SHOPLIFTING$420CBLilburn PoliceCharges
11/21/2014 17:23BYRDWISDOMNAOMIE9947247999472479LOT 51C 4255 SMOKECREEK PKWY, SNELLVILLE GA 30039@ * THEFT BY CONVERSION$0NBSnellville PoliceCharges
11/21/2014 16:4311/21/2014 22:28STEWARTMICHAELBLAIR9949430099494300 5811 GATEWAY BLVD, STONE MOUNTAIN GA 30087*LESS THAN AN OZ OF MARIJ.$1300SBGwinnett County SheriffCharges
11/21/2014 16:2711/21/2014 22:23SMITHJAVIERALEXANDER9951720599517205 3470 ANDREA CT, SNELLVILLE GA 30039*FORGERY 3RD DEGREE$5700SBSnellville PoliceCharges
11/21/2014 16:2011/23/2014 15:08LEWISMARCIALORAINE9951735199517351 160 HANCOCK LN, ATHENS GA 30605@ * THEFT BY SHOPLIFTING$2400SBGwinnett County PoliceCharges
11/21/2014 16:17HOLMESNIGELJAMES9929092199290921APT 150 6015 OAKBROOK PKWY, NORCROSS GA 30093@ * ROBBERY$0NBGwinnett County PoliceCharges
11/21/2014 16:0711/22/2014 01:23DIXONEROMONDARIUS9951003299510032 5615 WYLAKE DRIVE, NORCROSS GA 30093FAILURE TO APPEAR$570CBDuluth PoliceCharges
11/21/2014 15:4211/21/2014 21:24WANGYUQIN9944435199444351 1968 LEGRAND CIR, LAWRENCEVILLE GA 30043MASSAGE PARLOR PERMIT$140CBGwinnett County PoliceCharges
11/21/2014 15:4211/21/2014 21:24WANGYUQIN9944435199444351 1968 LEGRAND CIR, LAWRENCEVILLE GA 30043UNLAWFUL ADVERTISEMENT OF MASSAGE THERAP$1300CBGwinnett County PoliceCharges
11/21/2014 15:3111/21/2014 22:27PANYI9951735099517350 1933 EXECUTIVE DR, LAWRENCEVILLE GA 30097PRACTICING MASSAGE THERAPY W/O LICENSE$1300CBGwinnett County PoliceCharges
11/21/2014 15:3011/23/2014 14:39DANIELCOREYSHONTEL9951734999517349 2952 VALLEY RIDGE DRIVE, DECATUR GA 30032*DRIVING WITH SUSPENDED TAG$731.25ORDuluth PoliceCharges
11/21/2014 15:3011/23/2014 14:39DANIELCOREYSHONTEL9951734999517349 2952 VALLEY RIDGE DRIVE, DECATUR GA 30032*DRIVING WHILE LICENSE SUSP/REVOKED$971.75ORDuluth PoliceCharges
11/21/2014 15:21WILSONROBERTDARRELL9949803599498035 3747 YOUTH MONROE RD LOT 83, LOGANVILLE GA 30052VIOLATION OF PROBATION$0NBSnellville PoliceCharges
11/21/2014 15:16CHAMBLINTYLERLEE9950379099503790 3082 OLD OAK DR, LOGANVILLE GA 30052VIOLATION OF PROBATION$0NBSnellville PoliceCharges
11/21/2014 15:12HARRISONBRANDONTYLER9938413399384133 575 PENROD PL NW, LILBURN GA 30047@ * AGGRAVATED ASSAULT$0NBGwinnett County PoliceCharges
11/21/2014 15:12HARRISONBRANDONTYLER9938413399384133 575 PENROD PL NW, LILBURN GA 30047@ * AGGRAVATED ASSAULT$0NBGwinnett County PoliceCharges
11/21/2014 15:12HARRISONBRANDONTYLER9938413399384133 575 PENROD PL NW, LILBURN GA 30047@ * RECKLESS CONDUCT$2400SBGwinnett County PoliceCharges
11/21/2014 15:12HARRISONBRANDONTYLER9938413399384133 575 PENROD PL NW, LILBURN GA 30047@ * THEFT BY DECEPTION$2400SBGwinnett County PoliceCharges
11/21/2014 14:3511/26/2014 16:10RAMAPURATHCHERIANJOSEPH9950058299500582 4116 MEADOW GREEN DR, OLD HICKORY TN 37138@ * SIMPLE ASSAULT$1300SBGwinnett County SheriffCharges
11/21/2014 14:31SHALULYMARYALICE9947986299479862 1338 DUNMORE CT, CLOVER SC 29710Violation of Probation$0NBProbationCharges
11/21/2014 14:31SHALULYMARYALICE9947986299479862 1338 DUNMORE CT, CLOVER SC 29710* VIOLATION OF PROBATION$0NBProbationCharges
11/21/2014 14:27MASHHADISHAWNALI9947197099471970 374 HEMLOCK DR, LAWRENCEVILLE GA 30046OTHER OFFENSE$0NBGwinnett County SheriffCharges
11/21/2014 14:2111/26/2014 21:04LEEJONATHANJAE YOUN9949266199492661 2936 LANDINGTON WAY, DULUTH GA 30096OTHER OFFENSE$0NBGwinnett County SheriffCharges
11/21/2014 14:16MCCLEARROBERTJOHN9942002899420028 1132 WEHUNT CR, LITHONIA GA 30058VIOLATION OF PROBATION$0NBSnellville PoliceCharges
11/21/2014 14:12KELLEYRACHELALICIA9937599899375998 3988 LAKE RUBY LN, SUWANEE GA 30024HOLD FOR COURT$0NBGwinnett County SheriffCharges
11/21/2014 14:09KENNEDYWILLIAMIV9941844799418447 1122 ALYSUM AVE, LAWRENCEVILLE GA 30045@ * BURGLARY$11200SBGwinnett County SheriffCharges
11/21/2014 14:09KENNEDYWILLIAMIV9941844799418447 1122 ALYSUM AVE, LAWRENCEVILLE GA 30045@ * BURGLARY$0NBGwinnett County SheriffCharges
11/21/2014 14:07STEWARDDEVPHNANTHONY9930133499301334 3645 SCOTLAND LN, SNELLVILLE GA 30039* PAROLE VIOLATION$0NBProbationCharges
11/21/2014 14:0507/16/2014 05:04WALLACEJAMADJACQUE9937566799375667 2358 BROAD CREEK DR, STONE MOUNTAIN GA 30087Violation of Probation$0NBGwinnett County SheriffCharges
11/21/2014 14:0507/16/2014 05:04WALLACEJAMADJACQUE9937566799375667 2358 BROAD CREEK DR, STONE MOUNTAIN GA 30087@ * MURDER$0NBGwinnett County SheriffCharges
11/21/2014 14:0507/16/2014 05:04WALLACEJAMADJACQUE9937566799375667 2358 BROAD CREEK DR, STONE MOUNTAIN GA 30087@ * AGGRAVATED ASSAULT$0NBGwinnett County SheriffCharges
11/21/2014 14:0507/16/2014 05:04WALLACEJAMADJACQUE9937566799375667 2358 BROAD CREEK DR, STONE MOUNTAIN GA 30087@ * AGGRAVATED ASSAULT$0NBGwinnett County SheriffCharges
11/21/2014 14:0507/16/2014 05:04WALLACEJAMADJACQUE9937566799375667 2358 BROAD CREEK DR, STONE MOUNTAIN GA 30087* POSS OF A WEAPON DURING A CRIME$0NBGwinnett County SheriffCharges
11/21/2014 14:0507/16/2014 05:04WALLACEJAMADJACQUE9937566799375667 2358 BROAD CREEK DR, STONE MOUNTAIN GA 30087* VIOLATION OF PROBATION$0NBGwinnett County SheriffCharges
11/21/2014 14:0507/16/2014 05:04WALLACEJAMADJACQUE9937566799375667 2358 BROAD CREEK DR, STONE MOUNTAIN GA 30087HOLD FOR OTHER AGENCY$0NBGwinnett County SheriffCharges
11/21/2014 13:21ALONSOCYNTHIAJOY9919396799193981 219 FOREST PL, LAWRENCEVILLE GA 30045Violation of Probation$0NBProbationCharges
11/21/2014 13:11MCFARLANDMILTRALEVETTE9920530199295829 5185A WEXFORD LANE, NORCROSS GA 30071FAILURE TO APPEAR$0NBGwinnett County SheriffCharges
11/21/2014 13:0111/21/2014 20:41HAYNESLLOYDALLEN9951734799517347 5727 GENE SARAZEN DR, BRASELTON GA 30517@ * THEFT BY CONVERSION$33200SBGwinnett County SheriffCharges
11/21/2014 12:5711/21/2014 14:00WALLACEJAMADJACQUE9937566799375667 2358 BROAD CREEK DR, STONE MOUNTAIN GA 30087$Gwinnett County SheriffCharges
11/21/2014 12:5611/24/2014 18:27MOOREDEWEYDEMAN9948312699483126 217 WALLIS ST, JONESBORO GA 30236Violation of Probation$0NBGwinnett County SheriffCharges
11/21/2014 12:52JONESRODRICKROSHELL9909777299097772 1135A JEFFERSON ST, ATLANTA GA 30318* VIOLATION OF PROBATION$0NBGwinnett County SheriffCharges
11/21/2014 12:52JONESRODRICKROSHELL9909777299097772 1135A JEFFERSON ST, ATLANTA GA 30318HOLD FOR OTHER AGENCY$0NBGwinnett County SheriffCharges
11/21/2014 12:48CAINEARLKENNETH9946723299467232 723 PINETRACE CT, LAWRENCEVILLE GA 30043* VIOLATION OF PROBATION$0NBGwinnett County SheriffCharges
11/21/2014 12:48CAINEARLKENNETH9946723299467232 723 PINETRACE CT, LAWRENCEVILLE GA 30043* VIOLATION OF PROBATION$0NBGwinnett County SheriffCharges
11/21/2014 12:46PIPER-BLAKEKURTPATRICK9941793699417936 3326 HARMON RIDGE CT, BUFORD GA 30519* VIOLATION OF PROBATION$0NBGwinnett County SheriffCharges
11/21/2014 12:36TRANTHINGOC HOA9949299199492991 1621 CLUB PKWY, NORCROSS GA 30093Violation of Probation$0NBGwinnett County SheriffCharges
11/21/2014 12:36TRANTHINGOC HOA9949299199492991 1621 CLUB PKWY, NORCROSS GA 30093HOLD FOR IMMIGRATION$0NBGwinnett County SheriffCharges
11/21/2014 12:30BRIGGSTONYVINTO9902104799192267 2202 SPRINGDALE DRIVE, SNELLVILLE GA 30078@ * THEFT BY CONVERSION$0NBGwinnett County SheriffCharges
11/21/2014 12:2011/21/2014 22:22WOODARDSMORRISTERRY III9945248299452483 228 OVERLOOK PARK LN, LAWRENCEVILLE GA 30043HOLD FOR OTHER AGENCY$0NBProbationCharges
11/21/2014 12:1611/21/2014 16:28GRANFELDTGRAYSONLEE9943293799432937 699 PONCE DE LEON AVE APT 338, ATLANTA GA 30308FAILURE TO APPEAR$891CBSuwanee PoliceCharges
11/21/2014 11:56REINSHANNONLYNN9300107393001073 2494 WINDMERE DR, NORCROSS GA 30071EXPLOITATION OF DISABLED ADULT$0NBGwinnett County SheriffCharges
11/21/2014 11:56REINSHANNONLYNN9300107393001073 2494 WINDMERE DR, NORCROSS GA 30071* FINANCIAL IDENTITY FRAUD$0NBGwinnett County SheriffCharges
11/21/2014 11:5011/26/2014 22:27BIRTSCARLOSTERRELL9942906499429064 653 BRIDGE AVE, FOREST PARK GA 30297Violation of Probation$1847CBSuwanee PoliceCharges
11/21/2014 10:40THOMASASIAGABRIELLE9947818599478185 4271 CATALPA CT, ELLENWOOD GA 30294HOLD FOR COURT$0NBGwinnett County SheriffCharges
11/21/2014 10:2311/21/2014 18:49RODRIGUEZ-TORRESALBERTO9946707499467074 1009 GLASGOW DR NW, LILBURN GA 30047FOLLOWING TOO CLOSE$96CBGwinnett County PoliceCharges
11/21/2014 10:2311/21/2014 18:49RODRIGUEZ-TORRESALBERTO9946707499467074 1009 GLASGOW DR NW, LILBURN GA 30047*DRIVING W/O LICENSE-FAIL OBTAIN 30 DAYS$705CBGwinnett County PoliceCharges
11/21/2014 10:1611/21/2014 15:10HILLFABIANANTONIO9951734699517346 2608 CLUB PL, DULUTH GA 30096* DRIVING WHILE LIC SUSP/REVOKED$705SBGwinnett County PoliceCharges
11/21/2014 10:01JONESGENODEANGELO9935080499350804 408 HEARTH PLACE, LAWRENCEVILLE GA 30043* VIOLATION OF PROBATION$0NBProbationCharges
11/21/2014 09:5411/21/2014 10:59DANIEL JRJOHNWILLIAMS9951734599517345 1110 ROWAN OAK CIRCLE, BOGART GA 30622*NO DRIVERS LICENSE$0NBGwinnett County SheriffCharges
11/21/2014 09:0211/22/2014 16:55THOMPSONDARRYLLYNN9946400299464002 4553 GROVE LAKE ST, LOGANVILLE GA 30052* VIOLATION OF EMPLOYMENT SECURITY LAW$5700SBGwinnett County PoliceCharges
11/21/2014 09:0211/22/2014 16:55THOMPSONDARRYLLYNN9946400299464002 4553 GROVE LAKE ST, LOGANVILLE GA 30052* FLEEING OR ATTEMPTING TO ELUDE$5700SBGwinnett County PoliceCharges
11/21/2014 09:0211/22/2014 16:55THOMPSONDARRYLLYNN9946400299464002 4553 GROVE LAKE ST, LOGANVILLE GA 30052SPEEDING$1300SBGwinnett County PoliceCharges
11/21/2014 09:0211/22/2014 16:55THOMPSONDARRYLLYNN9946400299464002 4553 GROVE LAKE ST, LOGANVILLE GA 30052@ * BATTERY$2400SBGwinnett County PoliceCharges
11/21/2014 09:0211/22/2014 16:55THOMPSONDARRYLLYNN9946400299464002 4553 GROVE LAKE ST, LOGANVILLE GA 30052CRUELTY TO CHILDREN-3RD DEGREE$1300SBGwinnett County PoliceCharges
11/21/2014 09:0211/22/2014 16:55THOMPSONDARRYLLYNN9946400299464002 4553 GROVE LAKE ST, LOGANVILLE GA 30052CRUELTY TO CHILDREN-3RD DEGREE$1300SBGwinnett County PoliceCharges
11/21/2014 08:30HALLGINOCHRISTOPHER9922372699223726 1050 CHAPEL HILL DR, LAWRENCEVILLE GA 30046FAILURE TO REGISTER AS A SEX OFFENDER$0NBGwinnett County SheriffCharges
11/21/2014 08:30HALLGINOCHRISTOPHER9922372699223726 1050 CHAPEL HILL DR, LAWRENCEVILLE GA 30046HOLD FOR OTHER AGENCY$0NBGwinnett County SheriffCharges
11/21/2014 08:1011/24/2014 08:58MURPHYJEANINEMARIE9945750199457501 649 CREEKVIEW DRIVE, LAWRENCEVILLE GA 30044*DRIVING UNDER INFLUENCE DRUGS/ALCOHOL$0NBGwinnett County SheriffCharges
11/21/2014 05:3611/22/2014 01:01HAWKINSWILLIAMFREDRICK9930530299305302 313 SUMMERFEILD CIRCLE, GROVETOWN GA 30813IMPROPER LN CHANGE/FAIL TO MAINTAIN LN$123SBSuwanee PoliceCharges
11/21/2014 05:3611/22/2014 01:01HAWKINSWILLIAMFREDRICK9930530299305302 313 SUMMERFEILD CIRCLE, GROVETOWN GA 30813OPEN CONTAINER$286SBSuwanee PoliceCharges
11/21/2014 05:3611/22/2014 01:01HAWKINSWILLIAMFREDRICK9930530299305302 313 SUMMERFEILD CIRCLE, GROVETOWN GA 30813*DUI$1419.5SBSuwanee PoliceCharges
11/21/2014 05:3611/22/2014 01:01HAWKINSWILLIAMFREDRICK9930530299305302 313 SUMMERFEILD CIRCLE, GROVETOWN GA 30813POSSESSION OF MARIJUANA LESS THAN 1 OUNC$1220SBSuwanee PoliceCharges
11/21/2014 05:1811/21/2014 15:07TORRENCESHERARDLAMAR9951734299517342 7020 SETTERS WAY, LITHONIA GA 30038* GIVING FALSE NAME OR INFORMATION$1300SBGwinnett County PoliceCharges
11/21/2014 05:1811/21/2014 15:07TORRENCESHERARDLAMAR9951734299517342 7020 SETTERS WAY, LITHONIA GA 30038TAG LIGHT VISIBLE 50 FT.$68SBGwinnett County PoliceCharges
11/21/2014 05:1811/21/2014 15:07TORRENCESHERARDLAMAR9951734299517342 7020 SETTERS WAY, LITHONIA GA 30038* DRIVING WHILE LIC SUSP/REVOKED$705SBGwinnett County PoliceCharges
11/21/2014 04:3011/21/2014 09:26PALMERTONYDEANDRELL9951734199517341APT 1101 1325 SIX FLAGS DR, AUSTELL GA 30168M/V WRONG SIDE OF ROAD$68SBGwinnett County PoliceCharges
11/21/2014 04:3011/21/2014 09:26PALMERTONYDEANDRELL9951734199517341APT 1101 1325 SIX FLAGS DR, AUSTELL GA 30168* DUI-ALCOHOL$2006SBGwinnett County PoliceCharges
11/21/2014 04:3011/21/2014 09:26PALMERTONYDEANDRELL9951734199517341APT 1101 1325 SIX FLAGS DR, AUSTELL GA 30168IMPROPER/ERRATIC LANE CHANGE$68SBGwinnett County PoliceCharges
11/21/2014 04:2111/21/2014 11:40CLARKBRYANPHILLIP9600702196007021 891 CHANDLER RD, LAWRENCEVILLE GA 30045LOITERING OR PROWLING$1300SBGwinnett County PoliceCharges
11/21/2014 04:2111/21/2014 11:40CLARKBRYANPHILLIP9600702196007021 891 CHANDLER RD, LAWRENCEVILLE GA 30045* VGCSA-SCHEDULE II$3500SBGwinnett County PoliceCharges
11/21/2014 04:2111/21/2014 11:40CLARKBRYANPHILLIP9600702196007021 891 CHANDLER RD, LAWRENCEVILLE GA 30045* VGCSA-SCHEDULE II$3500SBGwinnett County PoliceCharges
11/21/2014 04:2111/21/2014 11:40CLARKBRYANPHILLIP9600702196007021 891 CHANDLER RD, LAWRENCEVILLE GA 30045* VGCSA-SCHEDULE II$4050SBGwinnett County PoliceCharges
11/21/2014 04:0511/21/2014 14:37MURPHYRODNEYJERMAINE9951734099517340 1461 CHAMIREY DR SW, MARIETTA GA 30008DISORDERLY CONDUCT-PUBLIC INTOXICATION$360CBNorcross PoliceCharges
11/21/2014 02:5811/21/2014 10:29SIMPSONCEDEQUAKELLIE KADESHA9951733899517338 3776 PINE VILLAGE PL, LOGANVILLE GA 30052EXPIRED TAG$152SBGwinnett County PoliceCharges
11/21/2014 02:5811/21/2014 10:29SIMPSONCEDEQUAKELLIE KADESHA9951733899517338 3776 PINE VILLAGE PL, LOGANVILLE GA 30052POSS OF < 1 OZ OF MARIJ.$585SBGwinnett County PoliceCharges
11/21/2014 02:4711/21/2014 12:20SELPHMARQUISDEMERRIS9951733799517337 4599 WOODGATE HILL TRL, SNELLVILLE GA 30039POSSESSION OF LESS 1 OZ. MARIJUANA$585CBGwinnett County PoliceCharges
11/21/2014 02:41VERA VERAMARCOANTONIO9951733699517336 1183 SANDALWOOD DR, LAWRENCEVILLE GA 30043* DUI-ALCOHOL$1300SBNorcross PoliceCharges
11/21/2014 02:41VERA VERAMARCOANTONIO9951733699517336 1183 SANDALWOOD DR, LAWRENCEVILLE GA 30043* FALSE IDENTIFICATION DOCUMENTS$1300SBNorcross PoliceCharges
11/21/2014 02:41VERA VERAMARCOANTONIO9951733699517336 1183 SANDALWOOD DR, LAWRENCEVILLE GA 30043OPEN CONTAINER LAW$1300SBNorcross PoliceCharges
11/21/2014 02:41VERA VERAMARCOANTONIO9951733699517336 1183 SANDALWOOD DR, LAWRENCEVILLE GA 30043*VGCSA OF C/S$4050SBNorcross PoliceCharges
11/21/2014 02:41VERA VERAMARCOANTONIO9951733699517336 1183 SANDALWOOD DR, LAWRENCEVILLE GA 30043HOLD FOR IMMIGRATION$0NBNorcross PoliceCharges
11/21/2014 02:41VERA VERAMARCOANTONIO9951733699517336 1183 SANDALWOOD DR, LAWRENCEVILLE GA 30043*NO DRIVERS LICENSE$1300SBNorcross PoliceCharges
11/21/2014 02:41VERA VERAMARCOANTONIO9951733699517336 1183 SANDALWOOD DR, LAWRENCEVILLE GA 30043DRIVING AN UNSAFE VEHICLE$1300SBNorcross PoliceCharges
11/21/2014 02:2111/21/2014 05:43HIBBERTBREANNACHEYENNE9941914199419141 1922 PHARRS RD, SNELLVILLE GA 30078*NO DRIVERS LICENSE$705SBGwinnett County PoliceCharges
11/21/2014 02:2111/21/2014 05:43HIBBERTBREANNACHEYENNE9941914199419141 1922 PHARRS RD, SNELLVILLE GA 30078EXPIRED TAG$152SBGwinnett County PoliceCharges
11/21/2014 02:0011/22/2014 13:27LOFTONCORTEZLAMOUNT9951733599517335 2897 SPRUCE CIR, SNELLVILLE GA 30078@ * SIMPLE ASSAULT$1300SBGwinnett County PoliceCharges
11/21/2014 01:1611/21/2014 04:41WHITEKAHLILRASHAD9951733499517334 2272 GREEN HAWK CT, DECATUR GA 30035SPEEDING$248FIGwinnett County SheriffCharges
11/21/2014 00:2911/21/2014 04:44FINKDAVIDTIMOTHYII9700489297004892 4711 PEBBLE CT, BUFORD GA 30518* DRIVING WHILE LICENSE WITHDRAWN$705SBGwinnett County PoliceCharges
11/21/2014 00:2911/21/2014 04:44FINKDAVIDTIMOTHYII9700489297004892 4711 PEBBLE CT, BUFORD GA 30518OPERATING VEH WITH SUSP/CANC/REV REGISTR$705SBGwinnett County PoliceCharges
11/21/2014 00:2911/21/2014 04:44FINKDAVIDTIMOTHYII9700489297004892 4711 PEBBLE CT, BUFORD GA 30518TAG LIGHT VISIBLE 50 FT.$68SBGwinnett County PoliceCharges
11/21/2014 00:25WILSONJOSHUALEONARD9914986099149860 2241 LAWRENCEVILLE SUWANEE RD, SUWANEE GA HOLD FOR OTHER AGENCY$0NBGwinnett County PoliceCharges
11/21/2014 00:0911/21/2014 02:35COOPERCOREYBRIAN9951733299517332 103 14TH ST, CUMMING GA 30040HOLD FOR OTHER AGENCY$0NBGwinnett County SheriffCharges
11/21/2014 00:0911/22/2014 23:17SINGHINDI9951733399517333 1651 BEAVER RUIN RD, NORCROSS GA 30071* DRIVING WHILE LIC SUSP/REVOKED$705ORGwinnett County SheriffCharges
11/21/2014 00:0911/22/2014 23:17SINGHINDI9951733399517333 1651 BEAVER RUIN RD, NORCROSS GA 30071FAILURE TO APPEAR$196CBGwinnett County SheriffCharges
11/20/2014 23:4311/21/2014 06:42VELAZQUEZ-DIAZADRIANA9945264099452640 3458 BRECKINRIDGE BLVD, DULUTH GA 30096SPEEDING 19-23 OVER$360CBNorcross PoliceCharges
11/20/2014 23:4311/21/2014 06:42VELAZQUEZ-DIAZADRIANA9945264099452640 3458 BRECKINRIDGE BLVD, DULUTH GA 30096SPEEDING 19-23 OVER$360CBNorcross PoliceCharges
11/20/2014 23:4311/21/2014 06:42VELAZQUEZ-DIAZADRIANA9945264099452640 3458 BRECKINRIDGE BLVD, DULUTH GA 30096DISORDERLY CONDUCT RESIST/OBSTRUCT OFC$360CBNorcross PoliceCharges
11/20/2014 23:4311/21/2014 06:42VELAZQUEZ-DIAZADRIANA9945264099452640 3458 BRECKINRIDGE BLVD, DULUTH GA 30096*NO VALID LICENSE$860CBNorcross PoliceCharges
11/20/2014 23:02LAKERBRENDALEE9951273599512735 741 BISHOP CAREY RD LOT 9, DANIELSVILLE GA 30633FAILURE TO APPEAR$0NBGwinnett County SheriffCharges
11/20/2014 22:3711/21/2014 08:58RAYJOSEPHPHILLIP9951733099517331 115 LEDFORD RD, BUFORD GA 30518SPEEDING$145SBGwinnett County PoliceCharges
11/20/2014 22:3711/21/2014 08:58RAYJOSEPHPHILLIP9951733099517331 115 LEDFORD RD, BUFORD GA 30518* DRIVING WHILE LICENSE WITHDRAWN$705SBGwinnett County PoliceCharges
11/20/2014 22:34WILLIAMSANTONIOMAURICE99369604993696047 451 HUFF ST, LAWRENCEVILLE GA 30045*MAUFACTUR/POSS/PURCH/DIST/SALE MARIJUAN$0NBLawrenceville PoliceCharges
11/20/2014 22:34WILLIAMSANTONIOMAURICE99369604993696047 451 HUFF ST, LAWRENCEVILLE GA 30045*MAUFACTUR/POSS/PURCH/DIST/SALE MARIJUAN$0NBLawrenceville PoliceCharges
11/20/2014 22:24GARCIARAUL9938048499380509 5528 CHARMAINE BND, NORCROSS GA 30071Failure to Appear$1225CBNorcross PoliceCharges
11/20/2014 22:1611/21/2014 03:58KALUTAALEKSEYMIKHAYLOUICH9951732999517329 1401 ELKS CLUB RD, COVINGTON GA 30014*DRIVING WHILE LIC.SUSP/REVOKED$803CBLawrenceville PoliceCharges
11/20/2014 22:1211/21/2014 18:39PURTERMICHAELJEROME9951732899517328APT 9E 6354 SHANNON PKWY, UNION CITY GA 30291*FORGERY 4TH DEGREE$1300SBGwinnett County SheriffCharges
11/20/2014 22:08STACYFARRIS9912434899124348 151 HONEYSUCKLE AVE, LAWRENCEVILLE GA 30046* VIOLATION OF PROBATION$0NBGwinnett County SheriffCharges
11/20/2014 22:05GONZALEZVICTORALFONZO9939109099391090 1222 FOUNTAINHEAD CT, LAWRENCEVILLE GA 30043Violation of Probation$0NBGwinnett County SheriffCharges
11/20/2014 22:05GONZALEZVICTORALFONZO9939109099391090 1222 FOUNTAINHEAD CT, LAWRENCEVILLE GA 30043Violation of Probation$0NBGwinnett County SheriffCharges
11/20/2014 22:05GONZALEZVICTORALFONZO9939109099391090 1222 FOUNTAINHEAD CT, LAWRENCEVILLE GA 30043* VIOLATION OF PROBATION$0NBGwinnett County SheriffCharges
11/20/2014 22:05GONZALEZVICTORALFONZO9939109099391090 1222 FOUNTAINHEAD CT, LAWRENCEVILLE GA 30043* VIOLATION OF PROBATION$0NBGwinnett County SheriffCharges
11/20/2014 22:05GONZALEZVICTORALFONZO9939109099391090 1222 FOUNTAINHEAD CT, LAWRENCEVILLE GA 30043Violation of Probation$0NBGwinnett County SheriffCharges
11/20/2014 22:0411/21/2014 06:16NICHOLASQUINDELDELNAIERO JAMAL9936195099361950 1180 MERCURY DR, LAWRENCEVILLE GA 30045OPERATING VEH WITH SUSP/CANC/REV REGISTR$705SBGwinnett County PoliceCharges
11/20/2014 22:0411/21/2014 06:16NICHOLASQUINDELDELNAIERO JAMAL9936195099361950 1180 MERCURY DR, LAWRENCEVILLE GA 30045*VGCSA POSS OF MARIJUANA W/INTENT TO DIS$5700SBGwinnett County PoliceCharges
11/20/2014 22:0411/21/2014 06:16NICHOLASQUINDELDELNAIERO JAMAL9936195099361950 1180 MERCURY DR, LAWRENCEVILLE GA 30045* VGCSA-SCHEDULE II$2950SBGwinnett County PoliceCharges
11/20/2014 21:5211/21/2014 05:41EVANSDENISHIAQUINNAE9949356599493565 4418 JAMES WADE DR, SNELLVILLE GA 30039*MAUFACTUR/POSS/PURCH/DIST/SALE MARIJUAN$5700SBGwinnett County PoliceCharges
11/20/2014 21:4811/21/2014 06:20CHAUVINSONIADOS SANTOS9951732799517327APT 836 980 WALTHER BLVD, LAWRENCEVILLE GA 30043@ * THEFT BY SHOPLIFTING$1300SBGwinnett County PoliceCharges
11/20/2014 21:3811/21/2014 08:35VASILENKOYULIYASERGEYEVNA9951732699517326APT 836 980 WALTHER BLVD, LAWRENCEVILLE GA 30043@ * THEFT BY SHOPLIFTING$1300SBGwinnett County PoliceCharges
11/20/2014 21:3511/21/2014 19:39PUCKETTMARYKRISTEN9951732599517325 1292 HICKORY HILLS DR, SUGAR HILL GA 30518* INTERFER. WITH CALL FOR EMER. ASSIST.$1850SBGwinnett County PoliceCharges
11/20/2014 21:1411/21/2014 04:59MARTINEZARTURO9951732499517324 230 DALEY AVENUE, WINDER GA 30680*DRIVING W/O LICENSE-FAIL OBTAIN 30 DAYS$705CBGwinnett County PoliceCharges
11/20/2014 21:1011/21/2014 19:01LATORTUEDEMETRISARCHOA9945406999481679 2013 SHEETBEND WAY, LAWRENCEVILLE GA 30045*CRUELTY CHILDREN 2ND.$5700SBGwinnett County PoliceCharges
11/20/2014 21:1011/21/2014 19:01LATORTUEDEMETRISARCHOA9945406999481679 2013 SHEETBEND WAY, LAWRENCEVILLE GA 30045@ * BATTERY$5700SBGwinnett County PoliceCharges
11/20/2014 21:1011/21/2014 19:01LATORTUEDEMETRISARCHOA9945406999481679 2013 SHEETBEND WAY, LAWRENCEVILLE GA 30045* OBSTRUCTION LAW ENFORCEMENT OFFICER$1850SBGwinnett County PoliceCharges
11/20/2014 21:0011/24/2014 20:08HOWARDRANDALLLAMAR9951216699512166 3173 GRIFFIN RD, LYNCHBURG TN 37352FAILURE TO APPEAR$0NBGwinnett County SheriffCharges
11/20/2014 20:38SESSIONSHAWNCOLEMAN9949926299499272 5763 JIM CROW RD, FLOWERY BRANCH GA 30542FAILURE TO APPEAR$315CBGwinnett County SheriffCharges
11/20/2014 20:38SESSIONSHAWNCOLEMAN9949926299499272 5763 JIM CROW RD, FLOWERY BRANCH GA 30542* VIOLATION OF PROBATION$0NBGwinnett County SheriffCharges
11/20/2014 20:3311/21/2014 02:54WALKERNICHOLASDANIEL9951732399517323 911 TREE PARK CIR, FLOWERY BRANCH GA 30542* FALSE REPORT OF A CRIME$10000ORGwinnett County SheriffCharges
11/20/2014 20:2611/21/2014 00:14WILLIAMSDANIELMICHAEL9951732299517322 12308 JEFFERSON CIRCLE NORTH, CHAMBLEE GA 30341FAILURE TO APPEAR$150FIGwinnett County SheriffCharges
11/20/2014 20:16CARMANROBERTLEE9946045499495147 411 BEAVER RUIN RD, LILBURN GA 30047FAILURE TO APPEAR$0NBGwinnett County SheriffCharges
11/20/2014 20:16CARMANROBERTLEE9946045499495147 411 BEAVER RUIN RD, LILBURN GA 30047* VIOLATION OF PROBATION$0NBGwinnett County SheriffCharges
11/20/2014 20:16CARMANROBERTLEE9946045499495147 411 BEAVER RUIN RD, LILBURN GA 30047* VIOLATION OF PROBATION$0NBGwinnett County SheriffCharges
11/20/2014 20:1311/21/2014 00:50CAMARILLOROSA9951732199517321 1012 DUNDEE DR NW, LILBURN GA 30047Failure to Appear$350CBGwinnett County SheriffCharges
11/20/2014 20:0711/21/2014 17:15LATIMOREANTTWAINFITZGERALD9951732099517320APT 80 875 GARDEN WALK BLVD, ATLANTA GA 30349CROSS D-HWY/GORE/BAR/SHLD/ EM L$68SBGA State PatrolCharges
11/20/2014 20:0711/21/2014 17:15LATIMOREANTTWAINFITZGERALD9951732099517320APT 80 875 GARDEN WALK BLVD, ATLANTA GA 30349* DRIVING WHILE LIC SUSP/REVOKED$705SBGA State PatrolCharges
11/20/2014 19:5911/21/2014 00:47MORALES RIVERAKARINAGIRSELLE9950323699503236 4670 SAGEMONT CT, NORCROSS GA 30093FAILURE TO APPEAR$280CBGwinnett County SheriffCharges
11/20/2014 19:4911/25/2014 22:21CLARKELAWRENCEBARRINGTON9915767399157673 4637 ALPINE DR SW, LILBURN GA 30047FAILURE TO PAY/CHILD SUPPORT$61460.18CBGwinnett County SheriffCharges
11/20/2014 19:4911/25/2014 22:21CLARKELAWRENCEBARRINGTON9915767399157673 4637 ALPINE DR SW, LILBURN GA 30047FAILURE TO APPEAR$900CBGwinnett County SheriffCharges
11/20/2014 19:3511/22/2014 19:53HOWELLTIMOTHYLANE9106117791061177APT 10 420 COURTLAND ST NE, ATLANTA GA 30308DISORDERLY CONDUCT$140ORGwinnett County PoliceCharges
11/20/2014 19:2511/21/2014 03:15MCELRATHROLANDRAY9951731999517319 3650 ASHFORD DUNWOODY RD NE APT 627, ATLANTA GA 30319@ * THEFT BY TAKING$5700SBGwinnett County PoliceCharges
11/20/2014 19:14ATHAASHLEYMELISSA9912765499127654 107 OLD GINN RD, COMMERCE GA 30529*VGCSA OF C/S$0NBGwinnett County SheriffCharges
11/20/2014 18:5811/22/2014 10:00CASONBRANDONASHLEY9928186099281860 PO BOX 3149, LOGANVILLE GA 30052* DRIVING WHILE LICENSE WITHDRAWN$705SBGwinnett County SheriffCharges
11/20/2014 18:5811/22/2014 10:00CASONBRANDONASHLEY9928186099281860 PO BOX 3149, LOGANVILLE GA 30052OPERATING VEH WITH SUSP/CANC/REV REGISTR$705SBGwinnett County SheriffCharges
11/20/2014 18:5811/22/2014 10:00CASONBRANDONASHLEY9928186099281860 PO BOX 3149, LOGANVILLE GA 30052FTA BENCH WARRANT$1003CBGwinnett County SheriffCharges
11/20/2014 18:5811/22/2014 10:00CASONBRANDONASHLEY9928186099281860 PO BOX 3149, LOGANVILLE GA 30052NO PROOF OF INSURANCE-MOTORCYCLE$299SBGwinnett County SheriffCharges
11/20/2014 18:5811/22/2014 10:00CASONBRANDONASHLEY9928186099281860 PO BOX 3149, LOGANVILLE GA 30052HOLD FOR OTHER AGENCY$0NBGwinnett County SheriffCharges
11/20/2014 18:5011/25/2014 11:16SEVERIANOCASTROSOLIS9926013299517339APT KK1 1750 BRIARWOOD RD, ATLANTA GA 30329TAG LIGHT VISIBLE 50 FT.$68ORGwinnett County SheriffCharges
11/20/2014 18:5011/25/2014 11:16SEVERIANOCASTROSOLIS9926013299517339APT KK1 1750 BRIARWOOD RD, ATLANTA GA 30329*NO DRIVERS LICENSE$705ORGwinnett County SheriffCharges
11/20/2014 18:5011/25/2014 11:16SEVERIANOCASTROSOLIS9926013299517339APT KK1 1750 BRIARWOOD RD, ATLANTA GA 30329HOLD FOR OTHER AGENCY$0NBGwinnett County SheriffCharges
11/20/2014 18:2911/27/2014 11:23REIDJEROME9910394899517314 1721 CEDAR RD, MADISON GA 30625HOLD FOR OTHER AGENCY$0NBGwinnett County PoliceCharges
11/20/2014 18:2911/27/2014 11:23REIDJEROME9910394899517314 1721 CEDAR RD, MADISON GA 30625* GIVING FALSE NAME OR INFORMATION$1300SBGwinnett County PoliceCharges
11/20/2014 18:1111/20/2014 23:50MCCOLUMNPHILDINGJEREMIAH9946190599461905 1489 GREEN BARK CIR W, STONE MOUNTAIN GA 30083DIVIDED HIGHWAY VIOL$123SBSuwanee PoliceCharges
11/20/2014 18:1111/20/2014 23:50MCCOLUMNPHILDINGJEREMIAH9946190599461905 1489 GREEN BARK CIR W, STONE MOUNTAIN GA 30083*DRIVING WHILE UNLICENSED LICENSE$758.75SBSuwanee PoliceCharges
11/20/2014 18:0111/26/2014 21:14JOHNSONDONNAJO9934782199347821 1060 COURT DR, DULUTH GA 30096* DUI - DRUGS/ALCOHOL$0NBGwinnett County SheriffCharges
11/20/2014 17:4611/21/2014 01:20NEWLINCASEYRYAN9951731199517311 4965 DIGGERS WAY, SUGAR HILL GA 30518* CREDIT CARD THEFT$2400SBGwinnett County SheriffCharges
11/20/2014 17:4611/21/2014 01:20NEWLINCASEYRYAN9951731199517311 4965 DIGGERS WAY, SUGAR HILL GA 30518* CREDIT CARD FRAUD$2400SBGwinnett County SheriffCharges
11/20/2014 17:4011/21/2014 03:11MORRISDOUGDEVON9951731099517310 85 SYRACUSE LN, COVINGTON GA 30016SPEEDING$180CBGA State PatrolCharges
11/20/2014 17:4011/21/2014 03:11MORRISDOUGDEVON9951731099517310 85 SYRACUSE LN, COVINGTON GA 30016* DRIVING WHILE LIC SUSP/REVOKED$705CBGA State PatrolCharges
11/20/2014 17:4011/21/2014 03:11MORRISDOUGDEVON9951731099517310 85 SYRACUSE LN, COVINGTON GA 30016FAILURE TO YIELD FOR EMERGENCY$68CBGA State PatrolCharges
11/20/2014 17:2811/20/2014 20:44RODGERSNADIAPATRICIE9951730999517309 1902 PATTERSON CIR, LAWRENCEVILLE GA 30044FAILURE TO APPEAR$100FIGwinnett County SheriffCharges
11/20/2014 17:1711/21/2014 16:01DUNHAMROBERTJUAN9944080199440801 1837 HEMINGWAY LN, ROSWELL GA 30075HOLD FOR OTHER AGENCY$0NBGA State PatrolCharges
11/20/2014 17:1711/21/2014 16:01DUNHAMROBERTJUAN9944080199440801 1837 HEMINGWAY LN, ROSWELL GA 30075HOLD FOR OTHER AGENCY$0NBGA State PatrolCharges
11/20/2014 17:1311/21/2014 16:30PINOSERGIO9950607899506078 3102 LELAND PLACED LANE, LAWRENCEVILLE GA 30044* VIOLATION OF PROBATION$0NBGwinnett County SheriffCharges
11/20/2014 16:4911/22/2014 02:18LUCASWILLIAMFLOYD9951730899517308 4443 SENECA DR, ACWORTH GA 30102HOLD FOR OTHER AGENCY$0NBGwinnett County PoliceCharges
11/20/2014 16:4911/22/2014 02:18LUCASWILLIAMFLOYD9951730899517308 4443 SENECA DR, ACWORTH GA 30102HOLD FOR OTHER AGENCY$0NBGwinnett County PoliceCharges
11/20/2014 16:4911/22/2014 02:18LUCASWILLIAMFLOYD9951730899517308 4443 SENECA DR, ACWORTH GA 30102UNSAFE U-TURN$96SBGwinnett County PoliceCharges
11/20/2014 16:2111/21/2014 16:02CHATMANCHRISTOPHERBERNARD9951730699517306 793 ARBOUR GATE LANE, LAWRENCEVILLE GA 30044HOLD FOR OTHER AGENCY$0NBGwinnett County PoliceCharges
11/20/2014 16:1111/20/2014 22:16BENJAMINSHAMARISEANTE9951730599517305 2017 ARBOR DR, DULUTH GA 30096SEATBELT VIOLATION/OVER 18 YRS OLD$15SBSuwanee PoliceCharges
11/20/2014 16:1111/20/2014 22:16BENJAMINSHAMARISEANTE9951730599517305 2017 ARBOR DR, DULUTH GA 30096*SUSPENDED LICENSE$1176.25SBSuwanee PoliceCharges
11/20/2014 16:0811/21/2014 02:28COMBSARRONASHLEY9929756299297562 1001 LIBERTY VIEW CT, NORCROSS GA 30093*THEFT X SHOPLIFTING$420SBLilburn PoliceCharges
11/20/2014 15:58SHIREMANPHILIPTYLER9951730499517304 5339 ASHLAND DR, FLOWERY BRANCH GA 30542@ * THEFT BY RECEIVING$5700SBGwinnett County PoliceCharges
11/20/2014 15:58SHIREMANPHILIPTYLER9951730499517304 5339 ASHLAND DR, FLOWERY BRANCH GA 30542HOLD FOR OTHER AGENCY$0NBGwinnett County PoliceCharges
11/20/2014 15:2811/20/2014 20:12JOWERSPORSHELATISE9941364199413641 4090 SOUTHFORKE DR, SNELLVILLE GA 30039$Gwinnett County PoliceCharges
11/20/2014 15:27KOROMAMOHAMEDDUKE9905153799051537 115 WHISPER WAY, DACULA GA 30019HOLD FOR OTHER AGENCY$0NBSnellville PoliceCharges
11/20/2014 15:27KOROMAMOHAMEDDUKE9905153799051537 115 WHISPER WAY, DACULA GA 30019* FORGERY-1ST DEGREE$0NBSnellville PoliceCharges
11/20/2014 15:27KOROMAMOHAMEDDUKE9905153799051537 115 WHISPER WAY, DACULA GA 30019* FALSE IDENTIFICATION DOCUMENTS$0NBSnellville PoliceCharges
11/20/2014 15:27KOROMAMOHAMEDDUKE9905153799051537 115 WHISPER WAY, DACULA GA 30019* FORGERY-1ST DEGREE$0NBSnellville PoliceCharges
11/20/2014 15:27KOROMAMOHAMEDDUKE9905153799051537 115 WHISPER WAY, DACULA GA 30019* FALSE IDENTIFICATION DOCUMENTS$0NBSnellville PoliceCharges
11/20/2014 15:27KOROMAMOHAMEDDUKE9905153799051537 115 WHISPER WAY, DACULA GA 30019* FALSE IDENTIFICATION DOCUMENTS$0NBSnellville PoliceCharges
11/20/2014 15:2311/21/2014 02:32SMITHKARENMARIE9949736199497361 1324 SPARROWS LN, NORCROSS GA 30093FAILURE TO APPEAR$705CBNorcross PoliceCharges
11/20/2014 15:2311/21/2014 02:32SMITHKARENMARIE9949736199497361 1324 SPARROWS LN, NORCROSS GA 30093*NO VALID LICENSE$860SBNorcross PoliceCharges
11/20/2014 15:2311/21/2014 02:32SMITHKARENMARIE9949736199497361 1324 SPARROWS LN, NORCROSS GA 30093TAIL LIGHT REQUIREMENTS$110SBNorcross PoliceCharges
11/20/2014 15:1911/21/2014 03:17BOONECHARLESNATHAN9951729899517302 628 STONEWALL DR, STONE MOUNTAIN GA 30087*VGCSA LESS THAN 1 OZ.$1150.25SBDuluth PoliceCharges
11/20/2014 15:1511/21/2014 14:17CANALESDOUGLASALEXANDER9951270499512704 875 ASHLAND PARK WAY, LAWRENCEVILLE GA 30045CRUELTY TO CHILDREN-3RD DEGREE$2950CBGwinnett County PoliceCharges
11/20/2014 15:1511/21/2014 14:17CANALESDOUGLASALEXANDER9951270499512704 875 ASHLAND PARK WAY, LAWRENCEVILLE GA 30045CRUELTY TO CHILDREN-3RD DEGREE$2950CBGwinnett County PoliceCharges
11/20/2014 15:1511/21/2014 14:17CANALESDOUGLASALEXANDER9951270499512704 875 ASHLAND PARK WAY, LAWRENCEVILLE GA 30045@ * BATTERY$2950CBGwinnett County PoliceCharges
11/20/2014 15:13GRESHAMHALEYNICOLE9951006899510068 152 PARK DR, JEFFERSON GA 30549* VIOLATION OF PROBATION$0NBGwinnett County SheriffCharges
11/20/2014 15:13GRESHAMHALEYNICOLE9951006899510068 152 PARK DR, JEFFERSON GA 30549HOLD FOR OTHER AGENCY$0NBGwinnett County SheriffCharges
11/20/2014 14:4211/21/2014 03:55ASHMARVINCRAIG9106142191061421 348 GLOCHESTER DR, LOCUST GROVE GA 30248* DRIVING WHILE LIC SUSP/REVOKED$705SBGA State PatrolCharges
11/20/2014 14:4211/21/2014 03:55ASHMARVINCRAIG9106142191061421 348 GLOCHESTER DR, LOCUST GROVE GA 30248SPEEDING$215SBGA State PatrolCharges
11/20/2014 14:40JOHNSONTIMOTHYRAY9951729699517296 1278 SOUTH DESHON RD, LITHONIA GA 30058*FORGERY 4TH DEGREE$2950SBGwinnett County SheriffCharges
11/20/2014 14:3711/20/2014 21:50RIVAS-ABARCAKEVINALEXANDER9951729599517295 884 CROSSING DRIVE, LAWRENCEVILLE GA 30043EXPIRED OR NO LICENSE PLATE OR DECAL$152CBGA State PatrolCharges
11/20/2014 14:3711/20/2014 21:50RIVAS-ABARCAKEVINALEXANDER9951729599517295 884 CROSSING DRIVE, LAWRENCEVILLE GA 30043DISPLAY OF VEH TAG SIM TO GA STATE ISSUE$40CBGA State PatrolCharges
11/20/2014 14:3711/20/2014 21:50RIVAS-ABARCAKEVINALEXANDER9951729599517295 884 CROSSING DRIVE, LAWRENCEVILLE GA 30043*NO DRIVERS LICENSE$705CBGA State PatrolCharges
11/20/2014 14:3211/20/2014 22:37CLARKTERESAAVERYETTA9946242899462428 4360 WINDWARD LANE, NORCROSS GA 30093* FALSE STATEMENTS$5700SBGA Dept. of Motor Vehicle SafetyCharges
11/20/2014 14:24SAMPLETRESSALYNN9915121099151210 2134 CENTENARY MAIN ST, DACULA GA 30019*FUGITIVE FROM JUSTICE$0NBGwinnett County SheriffCharges
11/20/2014 14:24SAMPLETRESSALYNN9915121099151210 2134 CENTENARY MAIN ST, DACULA GA 30019HOLD FOR OTHER AGENCY$0NBGwinnett County SheriffCharges
11/20/2014 14:1911/20/2014 14:58ADKINSBRANDILASHAWN9951729499517294 2911 STONE BRIDGE TRL SW, CONYERS GA 30094@ * THEFT BY SHOPLIFTING$0NBGwinnett County SheriffCharges
11/20/2014 14:1811/20/2014 15:01JOHNSONJONATHANCARL9913433799134337 4464 EMORY DR, SUGAR HILL GA 30518@ * THEFT BY SHOPLIFTING$0NBGwinnett County SheriffCharges
11/20/2014 14:1211/20/2014 14:38BRAWNERCHRISTINALYNN9500426899251211 1296 SCENIC WAY SW, LILBURN GA 30047@ * THEFT BY SHOPLIFTING$0NBGwinnett County SheriffCharges
11/20/2014 14:1011/20/2014 14:45BARAHONANORMAELIZABETH9951729399517293APT 1303 3400 SWEETWATER RD, LAWRENCEVILLE GA 30044@ * THEFT BY SHOPLIFTING$0NBGwinnett County SheriffCharges
11/20/2014 13:56HAYNESTHERANANTHONY9400257594002575APT E4 2601 ROOSEVELT HWY, ATLANTA GA 30337* VIOLATION OF PROBATION$0NBGwinnett County SheriffCharges
11/20/2014 13:56HAYNESTHERANANTHONY9400257594002575APT E4 2601 ROOSEVELT HWY, ATLANTA GA 30337HOLD FOR OTHER AGENCY$0NBGwinnett County SheriffCharges
11/20/2014 13:4111/25/2014 05:23DURARTEMAXIMINO9949550599495505 3213 WINDSCAPE VILLAGE LN, NORCROSS GA 30093FAILURE TO APPEAR$929CBGwinnett County SheriffCharges
11/20/2014 13:4111/25/2014 05:23DURARTEMAXIMINO9949550599495505 3213 WINDSCAPE VILLAGE LN, NORCROSS GA 30093FAILURE TO APPEAR$0Gwinnett County SheriffCharges
11/20/2014 13:33CROWDERCHRISTOPHEREMIL9600524599064060 1301 CRANBROOK CIR, AUSTELL GA 30106* VIOLATION OF PROBATION$0NBGwinnett County SheriffCharges
11/20/2014 13:2411/20/2014 22:19CLARKLYNITADOMONIQUE9949321099493210 217 WESLEY CLUB DR, DECATUR GA 30034*DRIVING WHILE LIC SUSP/REV$715SBLilburn PoliceCharges
11/20/2014 13:0311/20/2014 14:45ORIOLDORCAS9948734399487343 1230 TRIBBLE WOODS LANE, LAWRENCEVILLE GA 30044* DRIVING WHILE LIC SUSP/REVOKED$0NBGwinnett County SheriffCharges
11/20/2014 12:58ILLESEBASTIANPAUL9950242899502428 305 LOCHWOOD TRL, LAWRENCEVILLE GA 30043* VIOLATION OF PROBATION$0NBGwinnett County SheriffCharges
11/20/2014 12:52PIERCEDAVIDEVAN9950294199502941 1988 SUMMERTOWN DRIVE, NORCROSS GA 30071* VIOLATION OF PROBATION$0NBGwinnett County SheriffCharges
11/20/2014 12:3911/20/2014 19:19GUILFOYRICHARDJOHN9951182599511825 1306 N HILL PKWY, ATLANTA GA 30341*VGCSA OF C/S$11200SBGwinnett County SheriffCharges
11/20/2014 12:3911/20/2014 19:19GUILFOYRICHARDJOHN9951182599511825 1306 N HILL PKWY, ATLANTA GA 30341HOLD FOR OTHER AGENCY$0NBGwinnett County SheriffCharges
11/20/2014 12:28DIAZMICHAELANGELO9931828899318288 3865 MORGAN BOX CT, BUFORD GA 30519Failure to Appear$3000CBGwinnett County SheriffCharges
11/20/2014 12:28DIAZMICHAELANGELO9931828899318288 3865 MORGAN BOX CT, BUFORD GA 30519FAILURE TO APPEAR$613CBGwinnett County SheriffCharges
11/20/2014 12:2011/20/2014 16:57SALGUERO-SALGUEROJORGEBALLARDO9951729299517292 1414 HADA LANE, LAWRENCEVILLE GA 30043*NO DRIVERS LICENSE$705CBGwinnett County PoliceCharges
11/20/2014 12:2011/20/2014 16:57SALGUERO-SALGUEROJORGEBALLARDO9951729299517292 1414 HADA LANE, LAWRENCEVILLE GA 30043FAILURE TO YIELD$96CBGwinnett County PoliceCharges
11/20/2014 11:5911/21/2014 08:53JOHNSONEVERETTJEROME9950049999500499 2722 NEWTONS CREST CIR, SNELLVILLE GA 30078SPEEDING 16-20 OVER$186.5SBSnellville PoliceCharges
11/20/2014 11:5911/21/2014 08:53JOHNSONEVERETTJEROME9950049999500499 2722 NEWTONS CREST CIR, SNELLVILLE GA 30078*SUSPENDED/REVOKED LIC$816SBSnellville PoliceCharges
11/20/2014 11:48HOOD-CONLEYCHRISTINEMARIE9947645299476452 1318 OAKCREST CT, LILBURN GA 30047* VIOLATION OF PROBATION$0NBProbationCharges
11/20/2014 11:2111/20/2014 13:52BROWNTWANASIAMONA9951729199517291 2796 RIDERS CT, DACULA GA 30019* DRIVING WHILE LIC SUSP/REVOKED$0NBGwinnett County SheriffCharges
11/20/2014 11:20BELLTOBYALEXIS9700343797003437 940 PINEVIEW RD, COVINGTON GA 30014* VIOLATION OF PROBATION$0NBProbationCharges
11/20/2014 11:1711/20/2014 14:37MCCARTHYJAMESPATRICK9951496799514967 2455 DANVER LANE, BUFORD GA 30519* DRIVING WHILE LIC SUSP/REVOKED$0NBGwinnett County SheriffCharges
11/20/2014 11:1711/20/2014 18:49ZEPEDAVERONICA9951729099517290 2111 HOLLYWOOD DR, LAWRENCEVILLE GA 30044FAILURE TO APPEAR$865CBNorcross PoliceCharges
11/20/2014 11:1711/20/2014 18:49ZEPEDAVERONICA9951729099517290 2111 HOLLYWOOD DR, LAWRENCEVILLE GA 30044FAILURE TO APPEAR$165CBNorcross PoliceCharges
11/20/2014 11:1111/20/2014 18:52LANDAVERDE-BOCANEGRAALEJANDRA9951728999517289APT B 5532 BISHOPS CIR, NORCROSS GA 30093*DRIVING W/O LICENSE-FAIL OBTAIN 30 DAYS$705CBGwinnett County PoliceCharges
11/20/2014 11:0211/20/2014 20:39KILINCMUSTAFAHALIL9951728899517288 705 CLEMSON LANE, LAWRENCEVILLE GA 30043HEADLIGHTS/TAILLIGHTS ON AT ALL TIMES$123CBSuwanee PoliceCharges
11/20/2014 11:0211/20/2014 20:39KILINCMUSTAFAHALIL9951728899517288 705 CLEMSON LANE, LAWRENCEVILLE GA 30043*SUSPENDED LICENSE$1176.25CBSuwanee PoliceCharges
11/20/2014 11:0211/20/2014 20:39KILINCMUSTAFAHALIL9951728899517288 705 CLEMSON LANE, LAWRENCEVILLE GA 30043EXPIRED TAG$150CBSuwanee PoliceCharges
11/20/2014 10:44WINNJONATHANMATTHEW9906110899061108 5496 WILLIAMS SHORE DR, CUMMING GA 30041HOLD FOR COURT$0NBGwinnett County SheriffCharges
11/20/2014 10:43CLAYISHAMTRINNELL9941921899419218 3425 GUY HARBOR WAY, LAWRENCEVILLE GA 30044HOLD FOR COURT$0NBGwinnett County SheriffCharges
11/20/2014 10:42HESTERGEORGEWILSON9945074199450741 2675 DAVID COX ROAD, MAIDEN NC 28650HOLD FOR COURT$0NBGwinnett County SheriffCharges
11/20/2014 10:41TAYLOREDDIE9949672499496724 332 LAKE KNOLL DR NW, LILBURN GA 30047HOLD FOR COURT$0NBGwinnett County SheriffCharges
11/20/2014 10:41DAVISMICHAELLAMAR9939736499397364 2371 SUWANEE POINTE, LAWRENCEVILLE GA 30043HOLD FOR COURT$0NBGwinnett County SheriffCharges
11/20/2014 10:39TREADWAYDONALDLEE9943611099436110 122 BERNICE DR, LAWRENCEVILLE GA 30045HOLD FOR COURT$0NBGwinnett County SheriffCharges
11/20/2014 10:1411/25/2014 19:55BURGOSMAGDALENO9948466399484663 1141 PINE ACRE DR, SUGAR HILL GA 30518SPEEDING$145SBGwinnett County PoliceCharges
11/20/2014 10:1411/25/2014 19:55BURGOSMAGDALENO9948466399484663 1141 PINE ACRE DR, SUGAR HILL GA 30518Violation of Probation$0NBGwinnett County PoliceCharges
11/20/2014 10:0011/20/2014 18:03SIMMONSJACQUES9951585299515852 1226 CHATHAM RD, BUFORD GA 30518*DRIVING WHILE LIC.SUSP/REVOKED$803SBLawrenceville PoliceCharges
11/20/2014 09:2211/20/2014 15:22OWELLERYANJACQUELINE9951728799517287 226 PRESTON PARK DR, DULUTH GA 30096*LICENSE:DRIVING WHILE UNLIC. OR EXPIRED$731.25SBDuluth PoliceCharges
11/20/2014 09:2211/20/2014 15:22OWELLERYANJACQUELINE9951728799517287 226 PRESTON PARK DR, DULUTH GA 30096*DRIVING WITH SUSPENDED TAG$731.25SBDuluth PoliceCharges
11/20/2014 09:1011/20/2014 20:59BROWNGREGORYANDRA9951728699517286APT B 5959 HUNT CLUB RUN, NORCROSS GA 30093@ * SIMPLE ASSAULT$1300SBGwinnett County PoliceCharges
11/20/2014 09:1011/20/2014 20:59BROWNGREGORYANDRA9951728699517286APT B 5959 HUNT CLUB RUN, NORCROSS GA 30093@ * ARSON 1ST DEGREE$7900SBGwinnett County PoliceCharges
11/20/2014 09:1011/20/2014 20:59BROWNGREGORYANDRA9951728699517286APT B 5959 HUNT CLUB RUN, NORCROSS GA 30093* CRIMINAL TRESPASS$1300SBGwinnett County PoliceCharges
11/20/2014 07:50BALLMICHAELTYRELL9935015099350150 4142 STONE MOUNTAIN HWY, LILBURN GA 30047* VIOLATION OF PROBATION$0NBGwinnett County PoliceCharges
11/20/2014 06:0611/20/2014 20:51CAMARGOMARCOANTONIO9500170695001706 2935 WINDWOOD TRL, LAWRENCEVILLE GA 30044* DRIVING WHILE LICENSE WITHDRAWN$705CBGwinnett County PoliceCharges
11/20/2014 05:56HANKINSJOHNNY9951147399511481 4700 SUGARLOAF PKWY, LAWRENCEVILLE GA 30046*BURGLARY 1ST DEGREE$0NBLawrenceville PoliceCharges
11/20/2014 05:56HANKINSJOHNNY9951147399511481 4700 SUGARLOAF PKWY, LAWRENCEVILLE GA 30046@ * THEFT BY TAKING$2950SBLawrenceville PoliceCharges
11/20/2014 05:56HANKINSJOHNNY9951147399511481 4700 SUGARLOAF PKWY, LAWRENCEVILLE GA 30046@ * BATTERY$2400SBLawrenceville PoliceCharges
11/20/2014 05:55ROSSTYSHAWNCAMERON9946140499480351 3405 ESTES PARK DR, SNELLVILLE GA 30039*BURGLARY 1ST DEGREE$0NBLawrenceville PoliceCharges
11/20/2014 05:48SUMMEROURTYLERDEVON9946714199467141 735 WINDING RIVER DRIVE, LAWRENCEVILLE GA 30046*BURGLARY 1ST DEGREE$0NBLawrenceville PoliceCharges
11/20/2014 05:47PYATT COKEQURANRASHAD9951728599517285 1858 LIBBY LN, LAWRENCEVILLE GA 30044*BURGLARY 1ST DEGREE$0NBLawrenceville PoliceCharges
11/20/2014 04:3311/22/2014 03:06BROWNEVANWALKER9951728499517284 360 MOUNT MITCHELL WAY, ALPHARETTA GA 30022* DUI-ALCOHOL$2006ORGwinnett County PoliceCharges
11/20/2014 04:3311/22/2014 03:06BROWNEVANWALKER9951728499517284 360 MOUNT MITCHELL WAY, ALPHARETTA GA 30022* DRIVING WHILE LIC SUSP/REVOKED$705ORGwinnett County PoliceCharges
11/20/2014 04:3311/22/2014 03:06BROWNEVANWALKER9951728499517284 360 MOUNT MITCHELL WAY, ALPHARETTA GA 30022TAG LIGHT VISIBLE 50 FT.$68ORGwinnett County PoliceCharges
11/20/2014 04:3311/22/2014 03:06BROWNEVANWALKER9951728499517284 360 MOUNT MITCHELL WAY, ALPHARETTA GA 30022SIGNAL LIGHTS VISIBLE$68ORGwinnett County PoliceCharges
11/20/2014 04:2111/20/2014 16:04MILLERARONMICHAEL9951728399517283 5632 BREEZY CT SW, LILBURN GA 30047* DUI - DRUGS/ALCOHOL$2006SBGwinnett County PoliceCharges
11/20/2014 04:2111/20/2014 16:04MILLERARONMICHAEL9951728399517283 5632 BREEZY CT SW, LILBURN GA 30047IMPROPER LANE CHANGE$68SBGwinnett County PoliceCharges
11/20/2014 04:2111/20/2014 16:04MILLERARONMICHAEL9951728399517283 5632 BREEZY CT SW, LILBURN GA 30047REFLECTOR VIOLATION$56SBGwinnett County PoliceCharges
11/20/2014 04:2111/20/2014 16:04MILLERARONMICHAEL9951728399517283 5632 BREEZY CT SW, LILBURN GA 30047TAG LIGHT VISIBLE 50 FT.$68SBGwinnett County PoliceCharges
11/20/2014 04:1211/20/2014 20:27REDUCINDO-ANALCOLUIS9951728299517282 659 HUNTINGTON WAY, LILBURN GA 30047* DUI-ALCOHOL$2006CBGwinnett County PoliceCharges
11/20/2014 04:1211/20/2014 20:27REDUCINDO-ANALCOLUIS9951728299517282 659 HUNTINGTON WAY, LILBURN GA 30047* FLEEING OR ELUDE POLICE OFFICER$705CBGwinnett County PoliceCharges
11/20/2014 04:1211/20/2014 20:27REDUCINDO-ANALCOLUIS9951728299517282 659 HUNTINGTON WAY, LILBURN GA 30047*IMPROPER PASSING EMERGECY/TOWING/HWY VE$180CBGwinnett County PoliceCharges
11/20/2014 04:1211/20/2014 20:27REDUCINDO-ANALCOLUIS9951728299517282 659 HUNTINGTON WAY, LILBURN GA 30047OPEN CONTAINER LAW$299CBGwinnett County PoliceCharges
11/20/2014 04:1211/20/2014 20:27REDUCINDO-ANALCOLUIS9951728299517282 659 HUNTINGTON WAY, LILBURN GA 30047IMPROPER LANE CHANGE$68CBGwinnett County PoliceCharges
11/20/2014 04:1211/20/2014 20:27REDUCINDO-ANALCOLUIS9951728299517282 659 HUNTINGTON WAY, LILBURN GA 30047PARKING ON ROADWAY$68CBGwinnett County PoliceCharges
11/20/2014 03:5111/21/2014 11:56ASHCRAFTDURANTHOMAS9951728199517281 2958 MANDY CT, JONESBORO GA 30236FAILURE TO OBEY TRAFFIC DEVICE$56SBGwinnett County PoliceCharges
11/20/2014 03:5111/21/2014 11:56ASHCRAFTDURANTHOMAS9951728199517281 2958 MANDY CT, JONESBORO GA 30236*LESS THAN AN OZ OF MARIJ.$1300SBGwinnett County PoliceCharges
11/20/2014 03:5111/21/2014 11:56ASHCRAFTDURANTHOMAS9951728199517281 2958 MANDY CT, JONESBORO GA 30236*VGCSA OF C/S$2950SBGwinnett County PoliceCharges
11/20/2014 03:2311/20/2014 10:29BAYLAURENMARIE9947873699478736 665 WOODROW DRIVE, LAWRENCEVILLE GA 30043* DUI-MORE THAN 0.10%BLOOD ALCOHOL$2006SBGwinnett County PoliceCharges
11/20/2014 03:1111/20/2014 20:42RAMIREZ-PINEDAJUAN9951727899517278 1990 MORGAN TRACE, CANTON GA 30115*DUI-ALCOHOL LESS SAFE$1623CBDuluth PoliceCharges
11/20/2014 02:4311/20/2014 10:32CRAWFORDTONILEOTA9904588399045883 100 JACKSON BLUFF CT, LAWRENCEVILLE GA 30044*DISORDERLY CONDUCT$135CBGwinnett County PoliceCharges
11/20/2014 02:1011/21/2014 20:09SPARKSSHERRIMICHELLE9951727799517277 5640 SILK OAK WAY, SUGAR HILL GA 30518@ * ROBBERY$5700SBGwinnett County PoliceCharges
11/20/2014 02:1011/21/2014 20:09SPARKSSHERRIMICHELLE9951727799517277 5640 SILK OAK WAY, SUGAR HILL GA 30518@ * BATTERY$1300SBGwinnett County PoliceCharges
11/20/2014 02:1011/21/2014 20:09SPARKSSHERRIMICHELLE9951727799517277 5640 SILK OAK WAY, SUGAR HILL GA 30518HOLD FOR OTHER AGENCY$0NBGwinnett County PoliceCharges
11/20/2014 01:5211/21/2014 20:06NELSONJENNIFERANN9951537899515378 2423 CHABLIS CT, LAWRENCEVILLE GA 30043Violation of Probation$825CBGwinnett County PoliceCharges
11/20/2014 01:5211/21/2014 20:06NELSONJENNIFERANN9951537899515378 2423 CHABLIS CT, LAWRENCEVILLE GA 30043FAILURE TO APPEAR$175CBGwinnett County PoliceCharges
11/20/2014 01:3511/20/2014 08:54TELLEZEDUARDOC9937498699374986 323 MOUNTAIN DR, STONE MOUNTAIN GA 30087FAILURE TO APPEAR$196CBGwinnett County PoliceCharges
11/20/2014 00:5911/22/2014 01:07GOLDIELLOYDRH9924550499245507 4345 OLD NORCROSS RD, DULUTH GA 30096LOITERING & PROWLING$140ORGwinnett County PoliceCharges
11/20/2014 00:41RIDGEWAYPHILLIPJ II9200824792008247 6312 WOODMONT BLVD, NORCROSS GA 30092@ * THEFT BY RECEIVING$0NBNorcross PoliceCharges
11/20/2014 00:41RIDGEWAYPHILLIPJ II9200824792008247 6312 WOODMONT BLVD, NORCROSS GA 30092* USE OF LICENSE PLATE TO CONCEAL I.D.$1300SBNorcross PoliceCharges
11/20/2014 00:41RIDGEWAYPHILLIPJ II9200824792008247 6312 WOODMONT BLVD, NORCROSS GA 30092EXPIRED TAG$1300SBNorcross PoliceCharges
11/20/2014 00:2911/20/2014 13:02CRUMPDESTINYDANIELLE9951727699517276 477 BRUNSWICK CIR, STOCKBRIDGE GA 30281FTA BENCH WARRANT$333CBGwinnett County SheriffCharges
11/20/2014 00:2911/20/2014 13:02CRUMPDESTINYDANIELLE9951727699517276 477 BRUNSWICK CIR, STOCKBRIDGE GA 30281Failure to Appear$451.25CBGwinnett County SheriffCharges
11/20/2014 00:2911/20/2014 13:02CRUMPDESTINYDANIELLE9951727699517276 477 BRUNSWICK CIR, STOCKBRIDGE GA 30281EXPIRED LICENSE$68SBGwinnett County SheriffCharges
11/20/2014 00:2911/20/2014 13:02CRUMPDESTINYDANIELLE9951727699517276 477 BRUNSWICK CIR, STOCKBRIDGE GA 30281* DRIVING WHILE LIC SUSP/REVOKED$705SBGwinnett County SheriffCharges
11/20/2014 00:1011/20/2014 04:33ALVARADO-MONJEMICHELLE9951727599517275 508 ADAMS LAKE BLVD SE, ATLANTA GA 30339DRIVING WITHOUT HEADLIGHTS$68SBGwinnett County PoliceCharges
11/20/2014 00:1011/20/2014 04:33ALVARADO-MONJEMICHELLE9951727599517275 508 ADAMS LAKE BLVD SE, ATLANTA GA 30339EXPIRED TAG$152SBGwinnett County PoliceCharges
11/20/2014 00:1011/20/2014 04:33ALVARADO-MONJEMICHELLE9951727599517275 508 ADAMS LAKE BLVD SE, ATLANTA GA 30339*NO DRIVERS LICENSE$705SBGwinnett County PoliceCharges
11/19/2014 23:5911/20/2014 22:59DAVISNICHOLASALAN9950993099509930 690 BURNHAM RIDGE, LAWRENCEVILLE GA 30046* DRIVING WHILE LIC SUSP/REVOKED$705SBGwinnett County SheriffCharges
11/19/2014 23:5911/20/2014 22:59DAVISNICHOLASALAN9950993099509930 690 BURNHAM RIDGE, LAWRENCEVILLE GA 30046FAILURE TO APPEAR$705CBGwinnett County SheriffCharges
11/19/2014 23:4111/20/2014 13:52SPEARSTERESALYNN9400382094003820 1703 CREEKWALK LANE, OAKWOOD GA 30566@ * THEFT BY SHOPLIFTING$1300SBGwinnett County PoliceCharges
11/19/2014 23:1511/20/2014 12:05SEADORFANGELALUCIA9951727499517274 2505 LEGEND MILL RUN, DACULA GA 30019* DUI-MORE THAN 0.10%BLOOD ALCOHOL$2006SBGwinnett County PoliceCharges
11/19/2014 23:0011/20/2014 02:48STEWARDDEVPHNANTHONY9930133499301334 3645 SCOTLAND LN, SNELLVILLE GA 30039POSSESSION OF LESS 1 OZ. MARIJUANA$585SBGwinnett County SheriffCharges
11/19/2014 22:5511/20/2014 05:26LEERONALDLORENZO994345689943456816 2010 NORTHLAKE PKWY, TUCKER GA 30084* FLEEING OR ELUDE POLICE OFFICER$705SBGwinnett County SheriffCharges
11/19/2014 22:5511/20/2014 05:26LEERONALDLORENZO994345689943456816 2010 NORTHLAKE PKWY, TUCKER GA 30084IMPROPER LANE CHANGE$68SBGwinnett County SheriffCharges
11/19/2014 22:5511/20/2014 05:26LEERONALDLORENZO994345689943456816 2010 NORTHLAKE PKWY, TUCKER GA 30084DRIVING WITHOUT HEADLIGHTS$68SBGwinnett County SheriffCharges
11/19/2014 22:3311/21/2014 18:35ALIIBRAHIMMOHAMED9945837299458372 1610 GREENWOOD DR, NORCROSS GA 30093* POSS OF A WEAPON DURING A CRIME$11200SBGwinnett County SheriffCharges
11/19/2014 22:3311/21/2014 18:35ALIIBRAHIMMOHAMED9945837299458372 1610 GREENWOOD DR, NORCROSS GA 30093*VGCSA INTENT DISTRIBUTE C/S$11200SBGwinnett County SheriffCharges
11/19/2014 22:3311/21/2014 18:35ALIIBRAHIMMOHAMED9945837299458372 1610 GREENWOOD DR, NORCROSS GA 30093*VGCSA POSS OF MARIJUANA W/INTENT TO DIS$11200SBGwinnett County SheriffCharges
11/19/2014 22:3311/21/2014 18:35ALIIBRAHIMMOHAMED9945837299458372 1610 GREENWOOD DR, NORCROSS GA 30093*VGCSA OF C/S$11200SBGwinnett County SheriffCharges
11/19/2014 22:31WILLIAMSTEILAVERONICA9951727399517273 3312 CLASSIC DR, SNELLVILLE GA 30078@ * CRUELTY CHILDREN$5700SBSnellville PoliceCharges
11/19/2014 22:2711/20/2014 02:44BAZILEJAMESLEYJACQUES9951727299517272 1323 BARRETT BLUFF DR, LAWRENCEVILLE GA 30045*POSS WEAPON SCHOOL PROPERTY$1300SBGwinnett County SheriffCharges
11/19/2014 22:2211/20/2014 09:19GIBSONJOSHUAJAMEL KINQUAN9951727199517271 836 TRACE LN, LAWRENCEVILLE GA 30046@ * SIMPLE BATTERY$1300SBGwinnett County PoliceCharges
11/19/2014 22:1911/20/2014 04:52FOYJATAVIONTAIVEZ9951727099517270 1402 PRESTON PARK DR, DULUTH GA 30096TAIL LIGHT REQUIREMENTS$110SBNorcross PoliceCharges
11/19/2014 22:1911/20/2014 04:52FOYJATAVIONTAIVEZ9951727099517270 1402 PRESTON PARK DR, DULUTH GA 30096*DRIVING ON A SUSPENDED LICENSE$860SBNorcross PoliceCharges
11/19/2014 22:1911/20/2014 04:52FOYJATAVIONTAIVEZ9951727099517270 1402 PRESTON PARK DR, DULUTH GA 30096HOLD FOR OTHER AGENCY$0NBNorcross PoliceCharges
11/19/2014 21:36RODRIGUEZJUANJOSE9939386899393868 2455 LOFTON CT, LAWRENCEVILLE GA 30044*LESS THAN AN OZ OF MARIJ.$1300SBGwinnett County PoliceCharges
11/19/2014 21:36RODRIGUEZJUANJOSE9939386899393868 2455 LOFTON CT, LAWRENCEVILLE GA 30044* VIOLATION OF PROBATION$0NBGwinnett County PoliceCharges
11/19/2014 21:1711/21/2014 03:40SPISAKFAITH9951726899517268 3226 SUNDERLAND DRIVE, SNELLVILLE GA 30039* CONTRIB TO THE DELINQUENCY OF MINOR$11200SBGwinnett County PoliceCharges
11/19/2014 21:1711/21/2014 03:40SPISAKFAITH9951726899517268 3226 SUNDERLAND DRIVE, SNELLVILLE GA 30039@ * SIMPLE BATTERY$11200SBGwinnett County PoliceCharges
11/19/2014 21:1711/21/2014 03:40SPISAKFAITH9951726899517268 3226 SUNDERLAND DRIVE, SNELLVILLE GA 30039CRUELTY TO CHILDREN-3RD DEGREE$11200SBGwinnett County PoliceCharges
11/19/2014 20:56FLEMINGKARLEYDANIELLE9950153099501530 3330 CASTLEBERRY VILLAGE CIRCLE, CUMMING GA 30040* VIOLATION OF PROBATION$0NBGwinnett County SheriffCharges
11/19/2014 20:1211/20/2014 14:06BOWLESJAMESPATRICK HENRY9941877099418770 1001 WILLOW TRAIL DR, NORCROSS GA 30093PUBLIC DRUNKENNESS$213ORLawrenceville PoliceCharges
11/19/2014 19:52PAREDESEMANUELBRADLEY9939351499393514 2007 BIG HICKORY TRL, DULUTH GA 30096* POSS OF C/S OR MARIJUANA$1300SBGwinnett County PoliceCharges
11/19/2014 19:52PAREDESEMANUELBRADLEY9939351499393514 2007 BIG HICKORY TRL, DULUTH GA 30096* VIOLATION OF PROBATION$0NBGwinnett County PoliceCharges
11/19/2014 19:42MONTGOMERYCARLJAMES9943867599438675 1322 SPRINGFIELD DR, SEYMOUR TN 37865Violation of Probation$1971CBLawrenceville PoliceCharges
11/19/2014 19:42MONTGOMERYCARLJAMES9943867599438675 1322 SPRINGFIELD DR, SEYMOUR TN 37865Violation of Probation$0NBLawrenceville PoliceCharges
11/19/2014 19:3811/20/2014 00:28DAVISWANDAJEAN9700639097006390 714 SUMMERFIELD ROAD, WINDER GA 30680@ * THEFT BY SHOPLIFTING$5700SBGwinnett County SheriffCharges
11/19/2014 19:3311/20/2014 00:10LEWALLENRYANMICHAEL9948646999486469 1720 KATRINA -JO ANN CIR, DACULA GA 30019* PERJURY$5700SBGwinnett County PoliceCharges
11/19/2014 19:1611/20/2014 05:05MENENDEZCARLOSALBERTO9900516199517269 1015 SPRING BROOK DR, LAWRENCEVILLE GA 30043*NO DRIVERS LICENSE$705CBGwinnett County PoliceCharges
11/19/2014 18:4511/19/2014 22:53SIEGCHELSEYNICOLE9951726799517267 2809 WYNHAVEN OAKS WAY, LAWRENCEVILLE GA 30043DISORDERLY CONDUCT$422CBSuwanee PoliceCharges
11/19/2014 18:4511/19/2014 22:53SIEGCHELSEYNICOLE9951726799517267 2809 WYNHAVEN OAKS WAY, LAWRENCEVILLE GA 30043DISORDERLY CONDUCT$422CBSuwanee PoliceCharges
11/19/2014 18:4411/21/2014 17:20ENGLISHASHLEYDAWN9951726699517266 3542 FLAT RUN DR, BETHLEHEM GA 30620* DUI-ALCOHOL$2006SBGwinnett County PoliceCharges
11/19/2014 18:4411/21/2014 17:20ENGLISHASHLEYDAWN9951726699517266 3542 FLAT RUN DR, BETHLEHEM GA 30620* PURCHASE/POSS ALCOHOL PERSON UNDER 21$135SBGwinnett County PoliceCharges
11/19/2014 18:4411/21/2014 17:20ENGLISHASHLEYDAWN9951726699517266 3542 FLAT RUN DR, BETHLEHEM GA 30620DRIVING AN UNSAFE VEHICLE$96SBGwinnett County PoliceCharges
11/19/2014 18:2411/20/2014 04:57THREATCALVINJEROME9916711899167118 1090 AMHEARST OAKS DR, LAWRENCEVILLE GA 30043* DUI-MORE THAN 0.10%BLOOD ALCOHOL$2006SBGwinnett County PoliceCharges
11/19/2014 18:2411/20/2014 04:57THREATCALVINJEROME9916711899167118 1090 AMHEARST OAKS DR, LAWRENCEVILLE GA 30043URINATING IN PUBLIC$135SBGwinnett County PoliceCharges
11/19/2014 18:2411/20/2014 04:57THREATCALVINJEROME9916711899167118 1090 AMHEARST OAKS DR, LAWRENCEVILLE GA 30043OPERATING VEH WITH SUSP/CANC/REV REGISTR$705SBGwinnett County PoliceCharges
11/19/2014 18:2411/20/2014 04:57THREATCALVINJEROME9916711899167118 1090 AMHEARST OAKS DR, LAWRENCEVILLE GA 30043FAILURE TO MAINTAIN INSURANCE$299SBGwinnett County PoliceCharges
11/19/2014 17:5511/20/2014 01:08FULLERJOHNEMANUEL9801001598010015 22 WINDGATE DR, RIVERDALE GA 30274*DRIVING WHILE LICENSE SUSP/REVOKED$971.75SBDuluth PoliceCharges
11/19/2014 17:2811/19/2014 21:38JIGGETTSARNOLDARNRICE9918612999186129 5865 VILLAGE LOOP, FAIRBURN GA 30213* DRIVING WHILE LIC SUSP/REVOKED$705SBOTHERCharges
11/19/2014 17:2811/19/2014 21:38JIGGETTSARNOLDARNRICE9918612999186129 5865 VILLAGE LOOP, FAIRBURN GA 30213IMPROPER LANE USAGE$96SBOTHERCharges
11/19/2014 17:2811/19/2014 21:38JIGGETTSARNOLDARNRICE9918612999186129 5865 VILLAGE LOOP, FAIRBURN GA 30213IMPROPER/ERRATIC LANE CHANGE$68SBOTHERCharges
11/19/2014 17:2311/20/2014 18:42GILLBENJAMINJOSEPH9949755799497557 3156 CORNER OAK DR, NORCROSS GA 30071Violation of Probation$0NBGwinnett County SheriffCharges
11/19/2014 17:1911/25/2014 23:51KEELTIMOTHYFRANKLIN9934296099342960 431 KIRKLAND RD APT 2111, COVINGTON GA 30016VIOLATION OF PROBATION$1047CBSnellville PoliceCharges
11/19/2014 17:1211/20/2014 00:14CAREYCORANDOLUSMARZANCELLON9200735792007357 934 TREE CREEK BLVD, LAWRENCEVILLE GA 30043*VGCSA POSS OF MARIJUANA W/INTENT TO DIS$5700SBNorcross PoliceCharges
11/19/2014 17:0711/20/2014 18:47REIDPAMELAJOYCE9951726599517265 1155 FOXWOOD DR, DOUGLASVILLE GA 30134@ * THEFT BY TAKING$1300SBGwinnett County PoliceCharges
11/19/2014 17:0011/20/2014 02:03SCONIERSNATALIENICOLE9951726499517264 4172 PLANTATION TRACE DR, DULUTH GA 30096FAILURE TO APPEAR$196CBDuluth PoliceCharges
11/19/2014 16:5711/20/2014 00:31LAZOKARLAMARGARITA9943301399433013 6241 SUMMIT TRL, NORCROSS GA 30092*DRIVING WHILE LICENSE SUSP/REVOKED$971.75SBDuluth PoliceCharges
11/19/2014 16:5711/20/2014 00:31LAZOKARLAMARGARITA9943301399433013 6241 SUMMIT TRL, NORCROSS GA 30092*DRIVING WITH SUSPENDED TAG$731.25SBDuluth PoliceCharges
11/19/2014 16:3311/20/2014 18:05PHAGANJOHNANDREW9948457499484574 1185 BUFORD DAM ROAD, BUFORD GA 30518Failure to Appear$901.75CBSuwanee PoliceCharges
11/19/2014 16:3311/20/2014 18:05PHAGANJOHNANDREW9948457499484574 1185 BUFORD DAM ROAD, BUFORD GA 30518FAILURE TO APPEAR$399CBSuwanee PoliceCharges
11/19/2014 16:2011/20/2014 16:55TURNERCORYDERMEL9951726399517263 233 SCARLET WAY, LAWRENCEVILLE GA 30046* THEFT BY SHOPLIFTING$788SBLawrenceville PoliceCharges
11/19/2014 16:1511/27/2014 11:23RAGINJEROMEJR9908330099083300 156 BETHESDA CHURCH RD APT 714, LAWRENCEVILLE GA 30044@ * THEFT BY SHOPLIFTING$1300SBGwinnett County SheriffCharges
11/19/2014 16:1511/27/2014 11:23RAGINJEROMEJR9908330099083300 156 BETHESDA CHURCH RD APT 714, LAWRENCEVILLE GA 30044HOLD FOR OTHER AGENCY$0NBGwinnett County SheriffCharges
11/19/2014 16:1011/19/2014 23:14BODDIEELIYAH9951726299517262 3450 BRECKINRIDGE BLVD APT 308, DULUTH GA 30096FAILURE TO APPEAR$175CBDuluth PoliceCharges
11/19/2014 15:53BAUDENDISTELKELSEYLEIGH9945115499451154 5618 AVONDALE ROAD, PENSACOLA FL 32536@ * BURGLARY$0NBGwinnett County PoliceCharges
11/19/2014 15:50LOPEZMIGUELPEDRO9944405699444056 1168 FOREST VALE LN, NORCROSS GA 30093* VIOLATION OF PROBATION$0NBGwinnett County SheriffCharges
11/19/2014 15:4911/19/2014 17:36BENNETTLISAMONICA9917949299179492 2995 SPRINGLAKE DR, BUFORD GA 30519* HABITUAL VIOLATOR$0NBGwinnett County SheriffCharges
11/19/2014 15:48LUUJIMMYTUAN9938564299385642 1498 CAMELOT CIR, TUCKER GA 30084Violation of Probation$0NBGwinnett County SheriffCharges
11/19/2014 15:48LUUJIMMYTUAN9938564299385642 1498 CAMELOT CIR, TUCKER GA 30084* VIOLATION OF PROBATION$0NBGwinnett County SheriffCharges
11/19/2014 15:33BELLGREGORYLAMAR9901886799018867 7472 WOODS CT, LITHONIA GA 30058FAILURE TO APPEAR$320CBGwinnett County PoliceCharges
11/19/2014 15:33BELLGREGORYLAMAR9901886799018867 7472 WOODS CT, LITHONIA GA 30058FAILURE TO APPEAR$205CBGwinnett County PoliceCharges
11/19/2014 15:33BELLGREGORYLAMAR9901886799018867 7472 WOODS CT, LITHONIA GA 30058@ * BATTERY$2400SBGwinnett County PoliceCharges
11/19/2014 15:33BELLGREGORYLAMAR9901886799018867 7472 WOODS CT, LITHONIA GA 30058FAILURE TO APPEAR$252CBGwinnett County PoliceCharges
11/19/2014 15:33BELLGREGORYLAMAR9901886799018867 7472 WOODS CT, LITHONIA GA 30058* INTERFER. WITH CALL FOR EMER. ASSIST.$2400SBGwinnett County PoliceCharges
11/19/2014 15:2111/20/2014 12:17PADENDARRELL9951726099517260 2100 CHATTAHOOCHEE DR, DULUTH GA 30097@ * THEFT BY TAKING$1300SBDuluth PoliceCharges
11/19/2014 15:1611/20/2014 00:44HOODARLANDUS9943610499482249 4031 CAMARON WAY, SNELLVILLE GA 30039@ * BATTERY$5700SBDuluth PoliceCharges
11/19/2014 14:5611/21/2014 14:23GARCIAROLANDOVELAZQUEZ9911780699117806 5371 BUCCANEER CIRCLE, NORCROSS GA 30093*DRIVING ON A SUSPENDED LICENSE$860CBNorcross PoliceCharges
11/19/2014 14:5611/21/2014 14:23GARCIAROLANDOVELAZQUEZ9911780699117806 5371 BUCCANEER CIRCLE, NORCROSS GA 3009360 DAYS TO CHANGE NAME/ADDRESS$110CBNorcross PoliceCharges
11/19/2014 14:5611/21/2014 14:23GARCIAROLANDOVELAZQUEZ9911780699117806 5371 BUCCANEER CIRCLE, NORCROSS GA 30093HOLD FOR IMMIGRATION$0NBNorcross PoliceCharges
11/19/2014 14:4811/19/2014 19:44THOMASKIRKLANDBRANDON9948384599483845 1463 VIRGIL POND LANE, LOGANVILLE GA 30052*DRIVING WHILE LIC.SUSP/REVOKED$803SBLawrenceville PoliceCharges
11/19/2014 14:18SIMPSONDESHAWNDARNELL9940374599403745 3436 CANYON POINT CIR, ROSWELL GA 30076* VIOLATION OF PROBATION$0NBGwinnett County SheriffCharges
11/19/2014 14:18SIMPSONDESHAWNDARNELL9940374599403745 3436 CANYON POINT CIR, ROSWELL GA 30076@ * BATTERY$1300SBGwinnett County SheriffCharges
11/19/2014 14:18SIMPSONDESHAWNDARNELL9940374599403745 3436 CANYON POINT CIR, ROSWELL GA 30076CRUELTY TO CHILDREN-3RD DEGREE$1300SBGwinnett County SheriffCharges
11/19/2014 14:18KAHNERIKKRISTOPHER9928093499280934 6546 WHITE SPRUCE AVE, BRASELTON GA 30517@ * RECKLESS CONDUCT$5700SBGwinnett County SheriffCharges
11/19/2014 14:18KAHNERIKKRISTOPHER9928093499280934 6546 WHITE SPRUCE AVE, BRASELTON GA 30517*VGCSA OF C/S$0NBGwinnett County SheriffCharges
11/19/2014 14:18SIMPSONDESHAWNDARNELL9940374599403745 3436 CANYON POINT CIR, ROSWELL GA 30076* CRIMINAL TRESPASS$1300SBGwinnett County SheriffCharges
11/19/2014 14:1111/24/2014 17:20MENDOZAJOSEARMANDO9949183399491833 37 DUNLAP STREET, GAINESVILLE GA 30501FAILURE TO APPEAR$0NBGwinnett County SheriffCharges
11/19/2014 14:10DUTTONADAMBLAKE9949179499491794 280 OAK ST, ROYSTON GA 30662* VIOLATION OF PROBATION$0NBGwinnett County SheriffCharges
11/19/2014 13:5911/24/2014 16:53ROYWILLIAMGLEN9936225999362259 4135 ARCADIA INDUSTRIAL CIR SW, LILBURN GA 30047Violation of Probation$0NBGwinnett County SheriffCharges
11/19/2014 13:50FISHERANDREWCHARLES9946803599468035 2645 SPRINGMONTE PL, CUMMING GA 30041HOLD FOR COURT$0NBGwinnett County SheriffCharges
11/19/2014 13:50FISHERANDREWCHARLES9946803599468035 2645 SPRINGMONTE PL, CUMMING GA 30041* VIOLATION OF PROBATION$0NBGwinnett County SheriffCharges
11/19/2014 13:4811/26/2014 21:07ROBERTS-PATTERSONADRIANSHEMARR9951319599513195 3017 GUNTHER AVE, BRONX NY 10469* DRIVING WHILE LIC SUSP/REVOKED$0NBGwinnett County SheriffCharges
11/19/2014 13:2911/24/2014 11:18THAINAMQUOC9400739194007391 6865 MIMOSA CIRCLE, TUCKER 30084IMPROPER PASSING$96SBGwinnett County PoliceCharges
11/19/2014 13:2911/24/2014 11:18THAINAMQUOC9400739194007391 6865 MIMOSA CIRCLE, TUCKER 30084IMPROPER PASSING BY CUTTING IN$84SBGwinnett County PoliceCharges
11/19/2014 13:2911/24/2014 11:18THAINAMQUOC9400739194007391 6865 MIMOSA CIRCLE, TUCKER 30084HOLD FOR IMMIGRATION$0NBGwinnett County PoliceCharges
11/19/2014 13:2911/24/2014 11:18THAINAMQUOC9400739194007391 6865 MIMOSA CIRCLE, TUCKER 30084AGGRESSIVE DRIVING$425SBGwinnett County PoliceCharges
11/19/2014 13:1411/21/2014 03:11DEJESUSJUANCARLOS9939219399392193 3061 OAKCLIFF RD, DORAVILLE GA 30341FAILURE TO APPEAR$0NBGwinnett County SheriffCharges
11/19/2014 13:1411/21/2014 03:11DEJESUSJUANCARLOS9939219399392193 3061 OAKCLIFF RD, DORAVILLE GA 30341HOLD FOR OTHER AGENCY$0NBGwinnett County SheriffCharges
11/19/2014 13:1411/21/2014 03:11DEJESUSJUANCARLOS9939219399392193 3061 OAKCLIFF RD, DORAVILLE GA 30341HOLD FOR IMMIGRATION$0NBGwinnett County SheriffCharges
11/19/2014 13:12LAMMERSTIMOTHYMICHAEL9909597099095970 4941 MEMORIAL DR, STONE MOUNTAIN GA 30083* VIOLATION OF PROBATION$0NBGwinnett County SheriffCharges
11/19/2014 13:12LAMMERSTIMOTHYMICHAEL9909597099095970 4941 MEMORIAL DR, STONE MOUNTAIN GA 30083* FINANCIAL IDENTITY FRAUD$0NBGwinnett County SheriffCharges
11/19/2014 13:12LAMMERSTIMOTHYMICHAEL9909597099095970 4941 MEMORIAL DR, STONE MOUNTAIN GA 30083* FINANCIAL IDENTITY FRAUD$0NBGwinnett County SheriffCharges
11/19/2014 13:12LAMMERSTIMOTHYMICHAEL9909597099095970 4941 MEMORIAL DR, STONE MOUNTAIN GA 30083HOLD FOR OTHER AGENCY$0NBGwinnett County SheriffCharges
11/19/2014 13:0211/20/2014 13:00COLONMARCUSWILLIAM9951725899517258 4764 ESTUARY CIR, ACWORTH GA 30101HOLD FOR OTHER AGENCY$0NBGwinnett County SheriffCharges
11/19/2014 12:5511/19/2014 21:58SAMUELBRIANMATTHEW9915899699158996 2523 DAVENHAM LN, DULUTH GA 30096POSSESSION OF LESS 1 OZ. MARIJUANA$585SBGwinnett County PoliceCharges
11/19/2014 12:30SASSOSPHILIPTHEODORE9911865299118652 1931 CARRIAGE BROOK CT, DACULA GA 30019* VIOLATION OF PROBATION$0NBGwinnett County SheriffCharges
11/19/2014 12:25GRAVITTERICSTEVEN9941198299411982 1137 BILLY MCGEE RD, LAWRENCEVILLE GA 30045* VIOLATION OF PROBATION$0NBGwinnett County SheriffCharges
11/19/2014 12:1611/19/2014 18:05CERASOJOHNATHANBLAKE9951725799517257 218 3RD AVENUE B, WINDER GA 30680RECKLESS DRIVING$425CBGwinnett County PoliceCharges
11/19/2014 12:1611/19/2014 18:05CERASOJOHNATHANBLAKE9951725799517257 218 3RD AVENUE B, WINDER GA 30680EXPIRED TAG$152CBGwinnett County PoliceCharges
11/19/2014 12:0511/19/2014 13:42JENNIFERDEENA9951725699517256 3021 GREEN MEADOW LANE, SNELLVILLE GA 30321* DRIVING WHILE LIC SUSP/REVOKED$0NBGwinnett County SheriffCharges
11/19/2014 11:5711/19/2014 13:16PARNELLTIANNASHANEQUA9951725599517255 376 COOPERS POND DR, LAWRENCEVILLE GA 30044*DRIVING W/O LICENSE-FAIL OBTAIN 30 DAYS$0NBGwinnett County SheriffCharges
11/19/2014 11:52SANCHEZMANUELLORENZO9951345499513454 315 VILLA TRACE, VILLA RICA GA 30180@ * BATTERY$1300SBGwinnett County SheriffCharges
11/19/2014 11:52SANCHEZMANUELLORENZO9951345499513454 315 VILLA TRACE, VILLA RICA GA 30180@ * BATTERY$1300SBGwinnett County SheriffCharges
11/19/2014 11:52SANCHEZMANUELLORENZO9951345499513454 315 VILLA TRACE, VILLA RICA GA 30180HOLD FOR IMMIGRATION$0NBGwinnett County SheriffCharges
11/19/2014 11:52SANCHEZMANUELLORENZO9951345499513454 315 VILLA TRACE, VILLA RICA GA 30180CRUELTY TO CHILDREN-3RD DEGREE$1300SBGwinnett County SheriffCharges
11/19/2014 11:2811/24/2014 20:31HUFFEMILYMARIE9948386199483861 23 HUFF HILL RD, COMMERCE GA 30529Violation of Probation$0NBGwinnett County SheriffCharges
11/19/2014 11:1911/20/2014 21:20ANDREWSMARQUIS9951725499517254 1970 MEADOWCHASE CT, SNELLVILLE GA 30078@ * SIMPLE BATTERY$1300SBGwinnett County Public Schools PoliceCharges
11/19/2014 11:0811/19/2014 16:37ARREAGA-RODRIGUEZOSCARENRIQUE9944286699442866 4657 WARNERS TRL, NORCROSS GA 30093FAILURE TO OBEY STOP SIGN$68SBGwinnett County PoliceCharges
11/19/2014 11:0811/19/2014 16:37ARREAGA-RODRIGUEZOSCARENRIQUE9944286699442866 4657 WARNERS TRL, NORCROSS GA 30093*DRIVING W/O LICENSE-FAIL OBTAIN 30 DAYS$705SBGwinnett County PoliceCharges
11/19/2014 10:5611/20/2014 10:56YATESCHRISTOPHERMICHAEL9951725399517253 3621 RAINBOW CIR, SNELLVILLE GA 30039HOLD FOR OTHER AGENCY$0NBLawrenceville PoliceCharges
11/19/2014 10:1111/25/2014 18:44HARDEGREEDAVIDBRYAN9107074291070742 1488 MORGAN RD, CANTON GA 30115* DRIVING WHILE LIC SUSP/REVOKED$1300SBSnellville PoliceCharges
11/19/2014 10:1111/25/2014 18:44HARDEGREEDAVIDBRYAN9107074291070742 1488 MORGAN RD, CANTON GA 30115SPEEDING$1300SBSnellville PoliceCharges
11/19/2014 10:1111/25/2014 18:44HARDEGREEDAVIDBRYAN9107074291070742 1488 MORGAN RD, CANTON GA 30115DL TO BE EXHIBITED ON DEMAND$1300SBSnellville PoliceCharges
11/19/2014 10:1111/25/2014 18:44HARDEGREEDAVIDBRYAN9107074291070742 1488 MORGAN RD, CANTON GA 30115*VGCSA OF C/S$2400SBSnellville PoliceCharges
11/19/2014 10:1111/25/2014 18:44HARDEGREEDAVIDBRYAN9107074291070742 1488 MORGAN RD, CANTON GA 30115*VGCSA OF C/S$2400SBSnellville PoliceCharges
11/19/2014 10:1111/25/2014 18:44HARDEGREEDAVIDBRYAN9107074291070742 1488 MORGAN RD, CANTON GA 30115*VGCSA OF C/S$3400SBSnellville PoliceCharges
11/19/2014 10:1111/25/2014 18:44HARDEGREEDAVIDBRYAN9107074291070742 1488 MORGAN RD, CANTON GA 30115* GIVING FALSE NAME OR INFORMATION$2400SBSnellville PoliceCharges
11/19/2014 09:4811/19/2014 11:05JORDANMICHAELKEITH9951725299517252 2073 ARBOR SPRINGS WAY, BUFORD GA 30519* DRIVING WHILE LICENSE WITHDRAWN$NBGwinnett County SheriffCharges
11/19/2014 09:3511/19/2014 14:33THOMASTILICIATONYETTE9950543499505434 1008 HAMPTON SQ, LAWRENCEVILLE GA 30046* VIOLATION OF EMPLOYMENT SECURITY LAW$11200SBGwinnett County SheriffCharges
11/19/2014 09:2111/19/2014 15:53DELGRECOPAULANDREW9951725199517251 541 SHYLAR CREEK LANE, BUFORD GA 30518@ * THEFT BY SHOPLIFTING$0NBGwinnett County SheriffCharges
11/19/2014 09:1811/19/2014 13:58ARELLANOEDGARIVAN9951725099517250 908 BAYCREEK LANDING, LOGANVILLE GA 30052* DRIVING WHILE LIC SUSP/REVOKED$705CBGwinnett County PoliceCharges
11/19/2014 09:0511/20/2014 17:01OTTENLOGANJOSEPH9950282299502822 3035 MILLPINE CT, BUFORD GA 30519Violation of Probation$0NBSnellville PoliceCharges
11/19/2014 08:4611/19/2014 13:47HEATHCOEBARBARALYNN9927504999275049 2706 TREEHOUSE PKWY, NORCROSS GA 30093FAILURE TO APPEAR$115CBDuluth PoliceCharges
11/19/2014 08:4611/19/2014 13:47HEATHCOEBARBARALYNN9927504999275049 2706 TREEHOUSE PKWY, NORCROSS GA 30093*DRIVING WHILE LICENSE SUSP/REVOKED$971.75SBDuluth PoliceCharges
11/19/2014 08:4011/21/2014 08:23MARTINJ.B.9935236799352367 1106 TALON TRCE, LAWRENCEVILLE GA 30043PROHIBITED U-TURN/SIGN POSTED$68ORGwinnett County PoliceCharges
11/19/2014 08:4011/21/2014 08:23MARTINJ.B.9935236799352367 1106 TALON TRCE, LAWRENCEVILLE GA 30043* DRIVING WHILE LIC SUSP/REVOKED$705ORGwinnett County PoliceCharges
11/19/2014 08:3811/19/2014 20:30SORTOJUANRAMON9943188599431885 3106 SPRING MEADOW DR, SNELLVILLE GA 30039*DISORDERLY CONDUCT$135SBGwinnett County PoliceCharges
11/19/2014 08:3811/19/2014 20:30SORTOJUANRAMON9943188599431885 3106 SPRING MEADOW DR, SNELLVILLE GA 30039POSSESSION OF LESS THAN OZ MARIJUANA$585SBGwinnett County PoliceCharges
11/19/2014 07:4611/19/2014 13:02VEACHTIMOTHYWAYNE9951724999517249 5939 LEXINGTON WAY, BRASELTON GA 30517DISORDERLY CONDUCT$276CBBraselton PDCharges
11/19/2014 06:48MILLSTYRONELIVINGSTONE9921828399218283 4350 HOPKINS RUN DRIVE, DULUTH GA 30096@ * AGGRAVATED ASSAULT$0NBGwinnett County PoliceCharges
11/19/2014 06:48MILLSTYRONELIVINGSTONE9921828399218283 4350 HOPKINS RUN DRIVE, DULUTH GA 30096* POSS OF A WEAPON DURING A CRIME$0NBGwinnett County PoliceCharges
11/19/2014 06:33HAMMONDELIZABETHMARIE9942338299423382 8830 CAS TRL, GAINESVILLE GA 30506* PROSTITUTION$1850SBGwinnett County PoliceCharges
11/19/2014 06:33HAMMONDELIZABETHMARIE9942338299423382 8830 CAS TRL, GAINESVILLE GA 30506* KEEPING A PLACE OF PROSTITUTION$1850SBGwinnett County PoliceCharges
11/19/2014 06:33HAMMONDELIZABETHMARIE9942338299423382 8830 CAS TRL, GAINESVILLE GA 30506* VGCSA-SCHEDULE I$2950SBGwinnett County PoliceCharges
11/19/2014 06:33HAMMONDELIZABETHMARIE9942338299423382 8830 CAS TRL, GAINESVILLE GA 30506HOLD FOR OTHER AGENCY$0NBGwinnett County PoliceCharges
11/19/2014 06:0611/20/2014 12:01DUNAMSKERYNMONTRIS9929366799293667 812 SEASON PARKWAY, NORCROSS GA 30093* POINTING GUN OR PISTOL AT ANOTHER$2400CBGwinnett County SheriffCharges
11/19/2014 05:2111/19/2014 13:13HALLHEATHERLEIGH9951724899517248 23A APPALACHEE CHURCH RD, AUBURN GA 30011FAILURE TO APPEAR$725CBAuburn PDCharges
11/19/2014 04:3311/19/2014 05:02WHITEERICKASINE9951724799517247 5323 CORINTH DR, STONE MOUNTAIN GA 30087@ * THEFT BY RECEIVING$0NBGwinnett County PoliceCharges
11/19/2014 04:3311/19/2014 05:02WHITEERICKASINE9951724799517247 5323 CORINTH DR, STONE MOUNTAIN GA 30087* OBSTRUCTION LAW ENFORCEMENT OFFICER$0NBGwinnett County PoliceCharges
11/19/2014 03:5711/19/2014 09:12WALLACEANTWAUNDEMARIO9951724699517246 255 ROCK ISLAND LANE, ELLENWOOD GA 30294* DUI-ALCOHOL$2006SBGwinnett County PoliceCharges
11/19/2014 03:5711/19/2014 09:12WALLACEANTWAUNDEMARIO9951724699517246 255 ROCK ISLAND LANE, ELLENWOOD GA 30294IMPROPER/ERRATIC LANE CHANGE$68SBGwinnett County PoliceCharges
11/19/2014 03:5711/19/2014 09:12WALLACEANTWAUNDEMARIO9951724699517246 255 ROCK ISLAND LANE, ELLENWOOD GA 30294M/V WRONG SIDE OF ROAD$68SBGwinnett County PoliceCharges
11/19/2014 03:05ROMANIELLOCATHLEENMARIE9951724499517244 140 WINDCROFT CT NW, ACWORTH GA 30101* PROSTITUTION$0NBGwinnett County PoliceCharges
11/19/2014 03:05ROMANIELLOCATHLEENMARIE9951724499517244 140 WINDCROFT CT NW, ACWORTH GA 30101HOLD FOR OTHER AGENCY$0NBGwinnett County PoliceCharges
11/19/2014 03:05ROMANIELLOCATHLEENMARIE9951724499517244 140 WINDCROFT CT NW, ACWORTH GA 30101* KEEPING A PLACE OF PROSTITUTION$1850SBGwinnett County PoliceCharges
11/19/2014 03:05ROMANIELLOCATHLEENMARIE9951724499517244 140 WINDCROFT CT NW, ACWORTH GA 30101* VGCSA-SCHEDULE I$0NBGwinnett County PoliceCharges
11/19/2014 01:5411/19/2014 12:27HOLTKAYLAMICHELLE9951724399517243 2490 CRUMPS LANDING CIR, SNELLVILLE GA 30039TAG LIGHT VISIBLE 50 FT.$68SBGwinnett County PoliceCharges
11/19/2014 01:5411/19/2014 12:27HOLTKAYLAMICHELLE9951724399517243 2490 CRUMPS LANDING CIR, SNELLVILLE GA 30039NO LICENSE PLATE$152SBGwinnett County PoliceCharges
11/19/2014 01:5411/19/2014 12:27HOLTKAYLAMICHELLE9951724399517243 2490 CRUMPS LANDING CIR, SNELLVILLE GA 30039*NO DRIVERS LICENSE$705SBGwinnett County PoliceCharges
11/19/2014 01:52LANDRYBRITNYMARIE9937293699372936APT 230 4422 NORTHEAST EXPY, ATLANTA GA 30340FAILURE TO APPEAR$1582CBGwinnett County PoliceCharges
11/19/2014 01:52LANDRYBRITNYMARIE9937293699372936APT 230 4422 NORTHEAST EXPY, ATLANTA GA 30340* PROSTITUTION$1850SBGwinnett County PoliceCharges
11/19/2014 01:52LANDRYBRITNYMARIE9937293699372936APT 230 4422 NORTHEAST EXPY, ATLANTA GA 30340* KEEPING A PLACE OF PROSTITUTION$1850SBGwinnett County PoliceCharges
11/19/2014 01:52LANDRYBRITNYMARIE9937293699372936APT 230 4422 NORTHEAST EXPY, ATLANTA GA 30340*VGCSA OF C/S$2950SBGwinnett County PoliceCharges
11/19/2014 01:52LANDRYBRITNYMARIE9937293699372936APT 230 4422 NORTHEAST EXPY, ATLANTA GA 30340FAILURE TO APPEAR$0NBGwinnett County PoliceCharges
11/19/2014 01:52LANDRYBRITNYMARIE9937293699372936APT 230 4422 NORTHEAST EXPY, ATLANTA GA 30340* GIVING FALSE NAME OR INFORMATION$1850SBGwinnett County PoliceCharges
11/19/2014 01:4311/19/2014 14:21FULLERCHRISTOPHERDAVID9923819999238199 608 OLD HICKORY LANE SW, LILBURN GA 30047* DRIVING WHILE LIC SUSP/REVOKED$705CBGwinnett County PoliceCharges
11/19/2014 01:4311/19/2014 14:21FULLERCHRISTOPHERDAVID9923819999238199 608 OLD HICKORY LANE SW, LILBURN GA 30047HOLD FOR OTHER AGENCY$0NBGwinnett County PoliceCharges
11/19/2014 01:3011/20/2014 02:06LAWSONSNEMARAMONQUINN9951724199517241 1026 BRENTON LEAF DR, RUSKIN FL 33570IMPROPER/ERRATIC LANE CHANGE$68SBGwinnett County PoliceCharges
11/19/2014 01:3011/20/2014 02:06LAWSONSNEMARAMONQUINN9951724199517241 1026 BRENTON LEAF DR, RUSKIN FL 33570* DUI - DRUGS/ALCOHOL$2006SBGwinnett County PoliceCharges
11/19/2014 00:1911/19/2014 03:21HERRERAKEVINAGUSTIN9951385299513852 3558 OLD CHAMBLEE TUCKER ROAD APT 8, DORAVILLE GA 30340* DRIVING WHILE LIC SUSP/REVOKED$705CBGwinnett County SheriffCharges
11/19/2014 00:1011/21/2014 00:04HOFFMANJULIAHEATHER MAN9944433999444842 409 VILLAGE BLUFF DR, LAWRENCEVILLE GA 30046BRAKE LIGHT STANDARDS$60ORLawrenceville PoliceCharges
11/19/2014 00:1011/21/2014 00:04HOFFMANJULIAHEATHER MAN9944433999444842 409 VILLAGE BLUFF DR, LAWRENCEVILLE GA 30046*DRIVING WHILE LIC.SUSP/REVOKED$803ORLawrenceville PoliceCharges
11/18/2014 23:4011/19/2014 18:36CHAVEZEDGAR9950992499509924 4940 ZACHARY CT, CUMMING GA 30040* DRIVING WHILE LIC SUSP/REVOKED$705CBGwinnett County SheriffCharges
11/18/2014 23:4011/19/2014 18:36CHAVEZEDGAR9950992499509924 4940 ZACHARY CT, CUMMING GA 30040FAILURE TO APPEAR$2000CBGwinnett County SheriffCharges
11/18/2014 23:2811/19/2014 20:15COBBKINTELENARD9936501299365024 1768 CUTLEAF CREEK RD, GRAYSON GA 30017FAILURE TO APPEAR$215FIGwinnett County PoliceCharges
11/18/2014 23:2811/19/2014 20:15COBBKINTELENARD9936501299365024 1768 CUTLEAF CREEK RD, GRAYSON GA 30017FAILURE TO APPEAR$315CBGwinnett County PoliceCharges
11/18/2014 23:0611/19/2014 11:25JEONSEONGYONG9938240999382409 3590 MILLER FARMS LN, DULUTH GA 30096HOLD FOR OTHER AGENCY$0NBGwinnett County SheriffCharges
11/18/2014 23:0511/19/2014 05:54REYES-LOPEZERICKGABRIEL9951723799517237 3665 LAWRENCEVILLE HIGHWAY APT#602, TUCKER GA 30084*NOT LICENSED TO DRIVE$715CBLilburn PoliceCharges
11/18/2014 23:0511/19/2014 05:54REYES-LOPEZERICKGABRIEL9951723799517237 3665 LAWRENCEVILLE HIGHWAY APT#602, TUCKER GA 30084SPEEDING$169CBLilburn PoliceCharges
11/18/2014 22:5611/19/2014 12:55OKUNATOSAMUELOLUBANJI9948713299487132 1086 BETH MEADOW CT, LAWRENCEVILLE GA 30043@ * SIMPLE BATTERY$1300SBGwinnett County PoliceCharges
11/18/2014 22:5011/21/2014 14:25BAUGHANMICHAELCHRISTOPHER9924453899244538 3302 AMBER TRL, DULUTH GA 30096FAILURE TO APPEAR$240CBGwinnett County SheriffCharges
11/18/2014 22:5011/21/2014 14:25BAUGHANMICHAELCHRISTOPHER9924453899244538 3302 AMBER TRL, DULUTH GA 30096HOLD FOR OTHER AGENCY$0NBGwinnett County SheriffCharges
11/18/2014 22:46JARIWALLASUNNYAMYN9950067499500674 2382 YOUNG AMERICA DR, LAWRENCEVILLE GA 30043* VIOLATION OF PROBATION$0NBGwinnett County SheriffCharges
11/18/2014 22:3411/19/2014 05:29COVINGTONNICOLETTEKAROLE9915609899156098APT T10 100 CASTOR DR, LAWRENCEVILLE GA 30071*HIT AND RUN$5700SBGwinnett County SheriffCharges
11/18/2014 22:22KOLUBAHGARMAIDARBAR9948142299481424 633 FAIRFAX PL, LAWRENCEVILLE GA 30043* VIOLATION OF PROBATION$0NBGwinnett County SheriffCharges
11/18/2014 22:02WHITEDENZELORLANDO9947128999471289 1020 COURT DRIVE APT A, DULUTH GA 30096@ * AGGRAVATED ASSAULT$0NBGwinnett County PoliceCharges
11/18/2014 22:02WHITEDENZELORLANDO9947128999471289 1020 COURT DRIVE APT A, DULUTH GA 30096* FRAUD OF ALTERED ID$0NBGwinnett County PoliceCharges
11/18/2014 22:02WHITEDENZELORLANDO9947128999471289 1020 COURT DRIVE APT A, DULUTH GA 30096@ * ARMED ROBBERY$0NBGwinnett County PoliceCharges
11/18/2014 22:02WHITEDENZELORLANDO9947128999471289 1020 COURT DRIVE APT A, DULUTH GA 30096@ * ARMED ROBBERY$0NBGwinnett County PoliceCharges
11/18/2014 22:02WHITEDENZELORLANDO9947128999471289 1020 COURT DRIVE APT A, DULUTH GA 30096@ * ARMED ROBBERY$0NBGwinnett County PoliceCharges
11/18/2014 21:59SMITHSHORVONGAVANTE9948914199489141 3815 GREEN BAY DR, LAWRENCEVILLE GA 30044@ * ARMED ROBBERY$0NBGwinnett County PoliceCharges
11/18/2014 21:59SMITHSHORVONGAVANTE9948914199489141 3815 GREEN BAY DR, LAWRENCEVILLE GA 30044@ * ARMED ROBBERY$0NBGwinnett County PoliceCharges
11/18/2014 21:59SMITHSHORVONGAVANTE9948914199489141 3815 GREEN BAY DR, LAWRENCEVILLE GA 30044HOLD FOR OTHER AGENCY$0NBGwinnett County PoliceCharges
11/18/2014 21:59SMITHSHORVONGAVANTE9948914199489141 3815 GREEN BAY DR, LAWRENCEVILLE GA 30044@ * ARMED ROBBERY$0NBGwinnett County PoliceCharges
11/18/2014 21:4911/19/2014 05:26WILKERSONNILAJAFOLAYON9951723599517235 1186 DOVE POINT CT, MABLETON GA 30126@ * THEFT BY CONVERSION$5700SBGwinnett County SheriffCharges
11/18/2014 21:26MERRITTRANDYDOMINIQUE9901644899016520 650 BONA RD, BUFORD GA 30518* OBSTRUCTION LAW ENFORCEMENT OFFICER$1300SBGwinnett County SheriffCharges
11/18/2014 21:26MERRITTRANDYDOMINIQUE9901644899016520 650 BONA RD, BUFORD GA 30518* VIOLATION OF PROBATION$0NBGwinnett County SheriffCharges
11/18/2014 21:26MERRITTRANDYDOMINIQUE9901644899016520 650 BONA RD, BUFORD GA 30518Violation of Probation$0NBGwinnett County SheriffCharges
11/18/2014 21:26MERRITTRANDYDOMINIQUE9901644899016520 650 BONA RD, BUFORD GA 30518* VIOLATION OF PROBATION$0NBGwinnett County SheriffCharges
11/18/2014 21:2411/20/2014 17:58ROBBINSTIMOTHYJACK9904889799048897 283 LAUREN MARIE DR, BRASELTON GA 30517*VGCSA OF C/S$5700SBGwinnett County SheriffCharges
11/18/2014 21:2411/20/2014 17:58ROBBINSTIMOTHYJACK9904889799048897 283 LAUREN MARIE DR, BRASELTON GA 30517* SALE, DIST OR POSS DANGEROUS DRUGS$2400SBGwinnett County SheriffCharges
11/18/2014 21:2411/20/2014 17:58ROBBINSTIMOTHYJACK9904889799048897 283 LAUREN MARIE DR, BRASELTON GA 30517* SALE, DIST OR POSS DANGEROUS DRUGS$1300SBGwinnett County SheriffCharges
11/18/2014 21:01WATTSIRISNICOLE9940326299445296 4988 WYCLIFFE DR, STONE MOUNTAIN GA 30087* VIOLATION OF PROBATION$0NBGwinnett County SheriffCharges
11/18/2014 21:01WATTSIRISNICOLE9940326299445296 4988 WYCLIFFE DR, STONE MOUNTAIN GA 30087FAILURE TO APPEAR$593CBGwinnett County SheriffCharges
11/18/2014 20:5411/18/2014 23:35LEEJOSHUAGORDON9951723399517233 128 HOGAN RD, CLEVELAND GA 30528SOLICITING WITHOUT A PERMIT$140CBGwinnett County PoliceCharges
11/18/2014 20:40POUGHKHALIFHISUAN9951723299517232 235 FOREST PLACE, LAWRENCEVILLE GA 30046@ * BATTERY$5700SBLawrenceville PoliceCharges
11/18/2014 20:40POUGHKHALIFHISUAN9951723299517232 235 FOREST PLACE, LAWRENCEVILLE GA 30046*NO DRIVERS LICENSE$705SBLawrenceville PoliceCharges
11/18/2014 20:40POUGHKHALIFHISUAN9951723299517232 235 FOREST PLACE, LAWRENCEVILLE GA 30046OPERATING VEH WITH SUSP/CANC/REV REGISTR$705SBLawrenceville PoliceCharges
11/18/2014 20:2511/19/2014 05:52SPRADLINJONATHANL9951723199517231 4044 LAKE CARLTON RD S., LOGANVILLE GA 30052@ * THEFT BY SHOPLIFTING$2400SBGwinnett County PoliceCharges
11/18/2014 20:0911/19/2014 21:57EPPSCHRISTOPHERMICHAEL9951723099517230 2045 PATE RIDGE DR, LOGANVILLE GA 3005ENTER GUARD LINE OR JAIL UNER INFLUENCE$1850SBLilburn PoliceCharges
11/18/2014 20:0111/19/2014 02:05HARRISASHLEYMARIE9951722999517229 4166 ROUND STONE DR, SNELLVILLE GA 30039@ * THEFT BY SHOPLIFTING$0ORGwinnett County PoliceCharges
11/18/2014 19:5811/19/2014 10:40SMITHSKYLERJORDAN9940089399400893 2004 HOWELL WALK, DULUTH GA 30096HOLD FOR OTHER AGENCY$0NBGwinnett County SheriffCharges
11/18/2014 19:3311/19/2014 01:53MARSHALLCOLLINFLOYD9921588299215882 3450 BRECKENRIDGE BLVD APT 407, DULUTH GA 30096UNSAFE U-TURN$96CBGwinnett County PoliceCharges
11/18/2014 19:3311/19/2014 01:53MARSHALLCOLLINFLOYD9921588299215882 3450 BRECKENRIDGE BLVD APT 407, DULUTH GA 30096*HIT AND RUN$420CBGwinnett County PoliceCharges
11/18/2014 19:1811/19/2014 02:02PAULINOMARLINELIZABETH9951722899517228 2085 PARLIAMENT DR, LAWRENCEVILLE GA 30043*MAUFACTUR/POSS/PURCH/DIST/SALE MARIJUAN$5700SBGwinnett County PoliceCharges
11/18/2014 19:1111/19/2014 01:54PAULINOMARVIN9949720299497202 2282 ASHLEY FALLS LN, SUWANEE GA 30024*MAUFACTUR/POSS/PURCH/DIST/SALE MARIJUAN$5700SBGwinnett County PoliceCharges
11/18/2014 19:0111/24/2014 17:22ROMAINEDENZELNELSON9944440099444400 2957 JOSEPH MARION CT, SNELLVILLE GA 30039@ * SIMPLE BATTERY$2400SBGwinnett County PoliceCharges
11/18/2014 17:50BONEEVANMICHAEL9949878599498785 3906 CARRIAGE HOUSE DR, CUMMING GA 30040OTHER OFFENSE$0NBGwinnett County SheriffCharges
11/18/2014 17:2811/19/2014 00:35BENITEZCESARABERTO9951722799517227 3393 PEACHTREE CONER CIR, NORCROSS GA 30092* DRIVING WHILE LIC SUSP/REVOKED$705SBGwinnett County PoliceCharges
11/18/2014 17:2011/19/2014 14:11FLOWERSEDWARD9951722699517226 6260 EDWARD ST, ATLANTA GA 30340OPER VEH W/O VALIDATION DECAL$171.25SBDuluth PoliceCharges
11/18/2014 17:2011/19/2014 14:11FLOWERSEDWARD9951722699517226 6260 EDWARD ST, ATLANTA GA 30340HOLD FOR OTHER AGENCY$0NBDuluth PoliceCharges
11/18/2014 17:2011/19/2014 14:11FLOWERSEDWARD9951722699517226 6260 EDWARD ST, ATLANTA GA 30340HOLD FOR OTHER AGENCY$0NBDuluth PoliceCharges
11/18/2014 17:0711/19/2014 01:51TURNERJASONWYNN9913744899137448 840 CUSTOM LN, WINDER GA 30680*FORGERY 4TH DEGREE$5700SBHall County SOCharges
11/18/2014 16:3811/21/2014 16:32WAYNETIMOTHYEARL9951722499517224 3435 TWIN VILLAGE LANE, SNELLVILLE GA 30039FAILURE TO APPEAR$888.5CBGwinnett County SheriffCharges
11/18/2014 16:3811/21/2014 16:32WAYNETIMOTHYEARL9951722499517224 3435 TWIN VILLAGE LANE, SNELLVILLE GA 30039FAILURE TO APPEAR$212CBGwinnett County SheriffCharges
11/18/2014 16:3811/21/2014 16:32WAYNETIMOTHYEARL9951722499517224 3435 TWIN VILLAGE LANE, SNELLVILLE GA 30039* PAROLE VIOLATION$0NBGwinnett County SheriffCharges
11/18/2014 16:2011/18/2014 21:38TRANJASON9951722399517223 1106 MAGNOLIA POINTE BLVD, DULUTH GA 30096*IMPROPER PASSING EMERGECY/TOWING/HWY VE$180CBGA State PatrolCharges
11/18/2014 16:2011/18/2014 21:38TRANJASON9951722399517223 1106 MAGNOLIA POINTE BLVD, DULUTH GA 30096* DRIVING WHILE LIC SUSP/REVOKED$705CBGA State PatrolCharges
11/18/2014 16:1611/18/2014 22:56HOCKERTGLENNMORGAN9930078099300780 4650 DEEP CREEK DR, SUGAR HILL GA 30518FAILURE TO OBEY STOP SIGN$68CBGwinnett County PoliceCharges
11/18/2014 16:1611/18/2014 22:56HOCKERTGLENNMORGAN9930078099300780 4650 DEEP CREEK DR, SUGAR HILL GA 30518* DRIVING WHILE LIC SUSP/REVOKED$705CBGwinnett County PoliceCharges
11/18/2014 15:5811/18/2014 17:12PATELDARSHANAGIRISH9951722299517222 1352 WYNGATE PLACE, LAWRENCEVILLE GA 30043@ * THEFT BY SHOPLIFTING$0ORGwinnett County PoliceCharges
11/18/2014 15:29MCNEALPRECHUSATAVIA9945376699453766 3258 TUGGLE IVES DRIVE, BUFORD GA 30519VIOLATION OF PROBATION$0NBBraselton PDCharges
11/18/2014 14:5211/20/2014 21:38JOSEPHJARVISELDERICK9904393099043930 668 SWANS LANDING DR, DACULA GA 30019VIOLATION OF PROBATION$0NBLawrenceville PoliceCharges
11/18/2014 14:3811/19/2014 01:18POTTSNICHOLASJAMAL9951721799517217APT D5 4650 E PONCE DE LEON AVE, CLARKSTON GA 30021FAILURE TO APPEAR$254CBSnellville PoliceCharges
11/18/2014 14:28GORDONMALIKALI9951721699517216 7395 AMHURST TER, ATLANTA GA 30349HOLD FOR OTHER AGENCY$0NBDuluth PoliceCharges
11/18/2014 14:28GORDONMALIKALI9951721699517216 7395 AMHURST TER, ATLANTA GA 30349* GIVING FALSE NAME OR INFORMATION$2950CBDuluth PoliceCharges
11/18/2014 14:28GORDONMALIKALI9951721699517216 7395 AMHURST TER, ATLANTA GA 30349*LESS THAN AN OZ OF MARIJ.$2950SBDuluth PoliceCharges
11/18/2014 14:1511/25/2014 22:02ENNISEMMANUELREGINALD9951624799516247 3355 SWEETWATER RD APT 7006, LAWRENCEVILLE GA 30044HOLD FOR OTHER AGENCY$0NBGwinnett County PoliceCharges
11/18/2014 14:1511/25/2014 22:02ENNISEMMANUELREGINALD9951624799516247 3355 SWEETWATER RD APT 7006, LAWRENCEVILLE GA 30044* OBSTRUCTION LAW ENFORCEMENT OFFICER$1300SBGwinnett County PoliceCharges
11/18/2014 13:5611/18/2014 17:29ROSSLAWRENCEEUGENE9400100494001004 1887 TOWN PLACE, SNELLVILLE GA 30078* DRIVING WHILE LIC SUSP/REVOKED$0NBGwinnett County SheriffCharges
11/18/2014 13:55HICKSCHAUNCEYEUGENE9949254299492542 2765 SHALLOWFORD RD NE, ATLANTA GA 30341@ * THEFT BY SHOPLIFTING$5700SBGwinnett County PoliceCharges
11/18/2014 13:55HICKSCHAUNCEYEUGENE9949254299492542 2765 SHALLOWFORD RD NE, ATLANTA GA 30341* POSS TOOL FOR COMMISION OF A CRIME$0NBGwinnett County PoliceCharges
11/18/2014 13:55HICKSCHAUNCEYEUGENE9949254299492542 2765 SHALLOWFORD RD NE, ATLANTA GA 30341* GIVING FALSE NAME OR INFORMATION$5700SBGwinnett County PoliceCharges
11/18/2014 13:55HICKSCHAUNCEYEUGENE9949254299492542 2765 SHALLOWFORD RD NE, ATLANTA GA 30341* VIOLATION OF PROBATION$0NBGwinnett County PoliceCharges
11/18/2014 13:55HICKSCHAUNCEYEUGENE9949254299492542 2765 SHALLOWFORD RD NE, ATLANTA GA 30341HOLD FOR OTHER AGENCY$0NBGwinnett County PoliceCharges
11/18/2014 13:55HICKSCHAUNCEYEUGENE9949254299492542 2765 SHALLOWFORD RD NE, ATLANTA GA 30341HOLD FOR OTHER AGENCY$0NBGwinnett County PoliceCharges
11/18/2014 13:23CLARKDIANALYNN9600663299509404 43 CREEK SIDE DR, HOSCHTON GA 30548FAILURE TO PAY/CHILD SUPPORT$5000CBGwinnett County SheriffCharges
11/18/2014 13:23CLARKDIANALYNN9600663299509404 43 CREEK SIDE DR, HOSCHTON GA 30548Violation of Probation$0NBGwinnett County SheriffCharges
11/18/2014 13:0611/19/2014 18:01BROWNANTONIOJAMES9920455499204554 374B HOLLY RIDGE DR NW APT B, LILBURN GA 30047Violation of Probation$0NBGwinnett County SheriffCharges
11/18/2014 12:5011/19/2014 00:34ENGLANDXAVIEREDWARD9943903499439034 212 RIDGE BROOK TRL, DULUTH GA 30096*DRIVING WHILE LICENSE SUSP/REVOKED$971.75SBDuluth PoliceCharges
11/18/2014 12:43SUDDERTHDIANNEMCCOY9950199199501991 709 WELLS RD, HOMER GA 30547Violation of Probation$0NBGwinnett County SheriffCharges
11/18/2014 12:43SUDDERTHDIANNEMCCOY9950199199501991 709 WELLS RD, HOMER GA 30547* VIOLATION OF PROBATION$0NBGwinnett County SheriffCharges
11/18/2014 12:3011/18/2014 20:22MONROEZAKIAAMIRA9951721599517215 436 PEGG RD SW, ATLANTA GA 30315HOLD FOR OTHER AGENCY$0NBGwinnett County SheriffCharges
11/18/2014 12:2611/18/2014 18:37REYES-GARCIAANACENOBIA9951721499517214 1602 WINDY CHAPEL PARK, DORAVILLE GA 30360*DRIVING WHILE LICENSE SUSP/REVOKED$971.75SBDuluth PoliceCharges
11/18/2014 12:0411/26/2014 15:09PRINCERICHARDWAYNE9500342195003421 684 GLOCHESTER PL, NORCROSS GA 30071NOT TO SOLICITE EMP/BUS/CONT$650SBGwinnett County PoliceCharges
11/18/2014 11:53WILLIAMSJOHN9942081799420817 1300 AVERY DR, JONESBORO GA 30238* VIOLATION OF PROBATION$0NBGwinnett County SheriffCharges
11/18/2014 11:50OSBORNEBRYANDOUGLAS9915632699156326 6345 GARDEN LN, FLOWERY BRANCH GA 30542HOLD FOR COURT$0NBGwinnett County SheriffCharges
11/18/2014 11:50OSBORNEBRYANDOUGLAS9915632699156326 6345 GARDEN LN, FLOWERY BRANCH GA 30542FAILURE TO APPEAR$0NBGwinnett County SheriffCharges
11/18/2014 11:35GLASTERCASEYJAMAL9948758199487581 600 GARSON DR NE APT10304, ATLANTA GA 30324HOLD FOR OTHER AGENCY$0NBGwinnett County SheriffCharges
11/18/2014 11:35GLASTERCASEYJAMAL9948758199487581 600 GARSON DR NE APT10304, ATLANTA GA 30324FAILURE TO APPEAR$0NBGwinnett County SheriffCharges
11/18/2014 11:30HANCOCKDEMETRICANTWAN9924053499240534 1166 BROWN BRIDGE RD, COMMERCE GA 30530* TRAFFICKING COCAINE, MARIJUANA, ETC.$0NBGA State PatrolCharges
11/18/2014 11:1811/24/2014 20:54CERON-ROBLESOSCARENRIQUE9916330499163304 5883 HILLSIDE DR, ATLANTA GA 30340Violation of Probation$0NBGwinnett County SheriffCharges
11/18/2014 11:0211/25/2014 11:55THOMASJASONSCOTT9950095399500953 733 KILLIAN RD, STANLEY NC 28164FAILURE TO APPEAR$2187ORGwinnett County SheriffCharges
11/18/2014 10:58SCOTTMARVINANTONIO9949540499495404 1433 FAIRBANKS ST SW, ATLANTA GA 30310HOLD FOR COURT$0NBGwinnett County SheriffCharges
11/18/2014 10:2211/25/2014 13:34CHAFFINJAMESCALVIN891923699220235 261 OMEGA ST, LAWRENCEVILLE GA 30046Violation of Probation$0NBLawrenceville PoliceCharges
11/18/2014 10:1211/18/2014 16:41THOMPSONBRANDONKEITH9948275099482750 704 JACKSONS MILL WAY NW, LILBURN GA 30047* DRIVING WHILE LIC SUSP/REVOKED$705CBGA State PatrolCharges
11/18/2014 10:1211/18/2014 16:41THOMPSONBRANDONKEITH9948275099482750 704 JACKSONS MILL WAY NW, LILBURN GA 30047SPEEDING$215CBGA State PatrolCharges
11/18/2014 10:06SAENZNICHOLASHERNANDO9949079399490793 1251 PROVIDENCE DR, LAWRENCEVILLE GA 30044* VIOLATION OF PROBATION$0NBGwinnett County SheriffCharges
11/18/2014 10:0311/20/2014 09:28ADKINSSTANLEY9951324099513240 5632 SKYLAR CREEK LN, BUFORD GA 30518* DUI - DRUGS/ALCOHOL$0NBGwinnett County SheriffCharges
11/18/2014 10:0111/18/2014 11:24STATENDONALDWAYNE9951721399517213 3909 WINTERSWEET DR, DECATUR GA 30034* DRIVING WHILE LIC SUSP/REVOKED$0NBGwinnett County SheriffCharges
11/18/2014 09:5611/18/2014 11:27GARRISONLEONARDBRIAN9951721299517212 1645 PATRICK MILL PL, BUFORD GA 30518* DRIVING WHILE LICENSE WITHDRAWN$0NBGwinnett County SheriffCharges
11/18/2014 09:3411/21/2014 19:11MURRAYVERNONEDMUNDA9949330399493303 186 ARCADIA CIR, ATLANTA GA 30314FAILURE TO APPEAR$0NBGwinnett County SheriffCharges
11/18/2014 09:3106/21/2014 23:05CARMICHAELDEMONTAE9950949799509497 2462 CLUB DR, LAWRENCEVILLE GA 30044@ * ARMED ROBBERY$0NBGwinnett County SheriffCharges
11/18/2014 09:3106/21/2014 23:05CARMICHAELDEMONTAE9950949799509497 2462 CLUB DR, LAWRENCEVILLE GA 30044@ * ARMED ROBBERY$0NBGwinnett County SheriffCharges
11/18/2014 09:3106/21/2014 23:05CARMICHAELDEMONTAE9950949799509497 2462 CLUB DR, LAWRENCEVILLE GA 30044@ * AGGRAVATED ASSAULT$0NBGwinnett County SheriffCharges
11/18/2014 09:3106/21/2014 23:05CARMICHAELDEMONTAE9950949799509497 2462 CLUB DR, LAWRENCEVILLE GA 30044@ * BATTERY$1300SBGwinnett County SheriffCharges
11/18/2014 09:3106/21/2014 23:05CARMICHAELDEMONTAE9950949799509497 2462 CLUB DR, LAWRENCEVILLE GA 30044@ * AGGRAVATED ASSAULT$0NBGwinnett County SheriffCharges
11/18/2014 09:3106/21/2014 23:05CARMICHAELDEMONTAE9950949799509497 2462 CLUB DR, LAWRENCEVILLE GA 30044@ * ARMED ROBBERY$0NBGwinnett County SheriffCharges
11/18/2014 09:3106/21/2014 23:05CARMICHAELDEMONTAE9950949799509497 2462 CLUB DR, LAWRENCEVILLE GA 30044@ * AGGRAVATED ASSAULT$0NBGwinnett County SheriffCharges
11/18/2014 09:2311/18/2014 17:19GROSSBRANDONJAMAR9945060799450607 3062 MAJESTIC PARK CT, DULUTH GA 30096TAGS: OPERATING W/OUT PROPER TAG/DECAL$66.25CBDuluth PoliceCharges
11/18/2014 09:2311/18/2014 17:19GROSSBRANDONJAMAR9945060799450607 3062 MAJESTIC PARK CT, DULUTH GA 30096IMPROPER TRANSFER OF TAG$172CBDuluth PoliceCharges
11/18/2014 09:2311/18/2014 17:19GROSSBRANDONJAMAR9945060799450607 3062 MAJESTIC PARK CT, DULUTH GA 30096*LICENSE:DRIVING WHILE UNLIC. OR EXPIRED$731.25CBDuluth PoliceCharges
11/18/2014 09:0711/18/2014 19:14VOTHANHDINH9951721099517210 730 WALNUT CREEK DR NW, LILBURN GA 30047FAILURE TO APPEAR$805CBGwinnett County PoliceCharges
11/18/2014 08:5011/18/2014 09:30CARMICHAELDEMONTAE9950949799509497 2462 CLUB DR, LAWRENCEVILLE GA 30044$Gwinnett County SheriffCharges
11/18/2014 07:4611/24/2014 17:21EDELSTEINNEILEDWARD9939257799392577 2441 TRELLIS CT, SUWANEE GA 30024FAILURE TO APPEAR$1520SBGwinnett County PoliceCharges
11/18/2014 06:57GLASSTIMOTHYCURTIS9940060099400600 4701 VALLEY RIDGE DR, DULUTH GA 30096* VIOLATION OF PROBATION$0NBGwinnett County PoliceCharges
11/18/2014 06:4211/18/2014 11:44SINGHMOHABIR9946912999469129 411 BEDFORD BAY LN, LAWRENCEVILLE GA 30046HOLD FOR OTHER AGENCY$0NBGwinnett County PoliceCharges
11/18/2014 06:0311/19/2014 03:31ROGERSALEXANDRANICHOLE9951720899517208APT F 3660 MORNINGSIDE VILLAGE LN, ATLANTA GA 30340*LESS THAN AN OZ OF MARIJ.$1300SBGwinnett County PoliceCharges
11/18/2014 05:5011/19/2014 03:30THOMPSONANGALEEKSHARVONNA9951720799517207 237 BETTIS ST, WEST MEMPHIS, AR AR 72301*LESS THAN AN OZ OF MARIJ.$1300SBGwinnett County PoliceCharges
11/18/2014 05:2011/24/2014 14:14CALDWELL JRANTHONYQ9951720699517206 1500 ALEXANDER TRACE, APT. 201, CANTON GA 30114SPEEDING$250ORGwinnett County PoliceCharges
11/18/2014 05:2011/24/2014 14:14CALDWELL JRANTHONYQ9951720699517206 1500 ALEXANDER TRACE, APT. 201, CANTON GA 30114* DRIVING WHILE LIC SUSP/REVOKED$705ORGwinnett County PoliceCharges
11/18/2014 05:2011/24/2014 14:14CALDWELL JRANTHONYQ9951720699517206 1500 ALEXANDER TRACE, APT. 201, CANTON GA 30114HOLD FOR OTHER AGENCY$0NBGwinnett County PoliceCharges
11/18/2014 04:5211/19/2014 01:56SMITHJAVIERALEXANDER9951720599517205 3470 ANDREA CT, SNELLVILLE GA 30039* GIVING FALSE NAME OR INFORMATION$1300SBSnellville PoliceCharges
11/18/2014 04:5211/19/2014 01:56SMITHJAVIERALEXANDER9951720599517205 3470 ANDREA CT, SNELLVILLE GA 30039* FALSE REPORT OF A CRIME$1300SBSnellville PoliceCharges
11/18/2014 03:50SCALESEVERETTCORNELL9946312899463128 4350 STONE MOUNTAIN HWY RM 242, LILBURN GA 30047* DRIVING WHILE LIC SUSP/REVOKED$705Gwinnett County PoliceCharges
11/18/2014 03:50SCALESEVERETTCORNELL9946312899463128 4350 STONE MOUNTAIN HWY RM 242, LILBURN GA 30047* GIVING FALSE NAME OR INFORMATION$1300Gwinnett County PoliceCharges
11/18/2014 03:50SCALESEVERETTCORNELL9946312899463128 4350 STONE MOUNTAIN HWY RM 242, LILBURN GA 30047FAILURE TO MAINTAIN INSURANCE$299SBGwinnett County PoliceCharges
11/18/2014 03:50SCALESEVERETTCORNELL9946312899463128 4350 STONE MOUNTAIN HWY RM 242, LILBURN GA 30047HOLD FOR OTHER AGENCY$0Gwinnett County PoliceCharges
11/18/2014 03:1011/20/2014 02:46COXBRANDONPHILIP9951720499517204 4221 KENT DR, POWDER SPRINGS GA 30127*SHOPLIFTING LESS THAN 300.00$311.25ORDuluth PoliceCharges
11/18/2014 02:2911/18/2014 11:24JEROMEJACKY9951169099511690 408 CLUB PL, DULUTH GA 30096RUNNING RED LIGHT$133SBLawrenceville PoliceCharges
11/18/2014 02:2911/18/2014 11:24JEROMEJACKY9951169099511690 408 CLUB PL, DULUTH GA 30096VIOL OF COND. OF PERMIT$503SBLawrenceville PoliceCharges
11/18/2014 02:0311/18/2014 08:35SHARIFANWAR9951720399517203 5125 LAKEBROOK RUN, STONE MOUNTAIN GA 30087*VGCSA POSS OF MARIJUANA W/INTENT TO DIS$2950SBGwinnett County PoliceCharges
11/18/2014 01:4111/18/2014 06:13RAINEYASHLEYBENITA9951720299517202 4371 WINTERS CHAPEL RD, ATLANTA GA 30360* DUI-ALCOHOL$2006SBGwinnett County PoliceCharges
11/18/2014 01:19WESTJONATHANWAYNE9930238299302382 939 PINEDALE TERRACE, SUGAR HILL GA 30518* PAROLE VIOLATION$0NBGwinnett County PoliceCharges
11/18/2014 00:5411/20/2014 00:08PRICECALEB9951720199517201 100 DANIEL AVE, GREENVILLE SC 29611* DUI-ALCOHOL$2006ORGwinnett County PoliceCharges
11/18/2014 00:5411/20/2014 00:08PRICECALEB9951720199517201 100 DANIEL AVE, GREENVILLE SC 29611IMPROPER LANE CHANGE$68ORGwinnett County PoliceCharges
11/18/2014 00:5411/20/2014 00:08PRICECALEB9951720199517201 100 DANIEL AVE, GREENVILLE SC 29611OPEN CONTAINER LAW$299ORGwinnett County PoliceCharges
11/18/2014 00:4811/25/2014 13:33MATLOCKMALIKQAADIR9950635099506350 3819 KITTERY PT, SNELLVILLE GA 30039FAILURE TO APPEAR$1599CBLawrenceville PoliceCharges
11/18/2014 00:38LAMBERTCORYNICHOLS9919583199195831 3377 CROSS RD, BUFORD GA 30519* PAROLE VIOLATION$0NBGA Pardons and ParolesCharges
11/18/2014 00:1811/18/2014 11:31BELLTAMIKARACHELL9951720099517200 335 YELLW IRIS RD, GRAYSON GA 30017@ * BATTERY$1300SBGwinnett County PoliceCharges
11/18/2014 00:1811/18/2014 11:31BELLTAMIKARACHELL9951720099517200 335 YELLW IRIS RD, GRAYSON GA 30017CRUELTY TO CHILDREN-3RD DEGREE$1300SBGwinnett County PoliceCharges
11/18/2014 00:10WASHINGTONTAMMYLEE9935375999353759 1380 PLAZA AVE, ATLANTA GA 30310Violation of Probation$0NBLawrenceville PoliceCharges
11/18/2014 00:10WASHINGTONTAMMYLEE9935375999353759 1380 PLAZA AVE, ATLANTA GA 30310Violation of Probation$0NBLawrenceville PoliceCharges
11/17/2014 23:5511/19/2014 18:08MCDANIELSTEPHENANTHONY9950533599505335 3181 MONROE HWY, WATKINSVILLE GA 30677Violation of Probation$1084CBAuburn PDCharges
11/17/2014 23:4611/18/2014 05:30ESPAILLATALLANJOSE9932845899328458APT J305 2255 SATELLITE BLVD, DULUTH GA 30097FAILURE TO APPEAR$200CBGwinnett County SheriffCharges
11/17/2014 23:3511/18/2014 02:45SMITHJUSTINSCOTT9951719999517199 111 BLEEKER ST, LAWRENCEVILLE GA 30044FAILURE TO APPEAR$40CBGwinnett County SheriffCharges
11/17/2014 23:1911/18/2014 05:24JOHNSONCHRISTOPHERALLEN9949873699498736 2582 CAESAR CT, DULUTH GA 30097*LESS THAN AN OZ OF MARIJ.$1300SBGwinnett County SheriffCharges
11/17/2014 23:05CIENA-LOZADAMARCOSANTONIO9908705199087051 92 SCENIC HWY, LAWRENCEVILLE GA 30046* DUI-ALCOHOL$2006ORGwinnett County PoliceCharges
11/17/2014 23:05CIENA-LOZADAMARCOSANTONIO9908705199087051 92 SCENIC HWY, LAWRENCEVILLE GA 30046* USE OF LICENSE PLATE TO CONCEAL I.D.$705ORGwinnett County PoliceCharges
11/17/2014 23:05CIENA-LOZADAMARCOSANTONIO9908705199087051 92 SCENIC HWY, LAWRENCEVILLE GA 30046FAILURE TO OBEY STOP SIGN$68ORGwinnett County PoliceCharges
11/17/2014 23:05CIENA-LOZADAMARCOSANTONIO9908705199087051 92 SCENIC HWY, LAWRENCEVILLE GA 30046OPEN CONTAINER LAW$299ORGwinnett County PoliceCharges
11/17/2014 23:05CIENA-LOZADAMARCOSANTONIO9908705199087051 92 SCENIC HWY, LAWRENCEVILLE GA 30046*DRIVING W/O LICENSE-FAIL OBTAIN 30 DAYS$705ORGwinnett County PoliceCharges
11/17/2014 23:05CIENA-LOZADAMARCOSANTONIO9908705199087051 92 SCENIC HWY, LAWRENCEVILLE GA 30046FAILURE TO MAINTAIN INSURANCE$299ORGwinnett County PoliceCharges
11/17/2014 23:05CIENA-LOZADAMARCOSANTONIO9908705199087051 92 SCENIC HWY, LAWRENCEVILLE GA 30046OPERATING VEH WITH SUSP/CANC/REV REGISTR$705ORGwinnett County PoliceCharges
11/17/2014 23:05CIENA-LOZADAMARCOSANTONIO9908705199087051 92 SCENIC HWY, LAWRENCEVILLE GA 30046Violation of Probation$0NBGwinnett County PoliceCharges
11/17/2014 23:05CIENA-LOZADAMARCOSANTONIO9908705199087051 92 SCENIC HWY, LAWRENCEVILLE GA 30046Violation of Probation$0Gwinnett County PoliceCharges
11/17/2014 22:56DECASPERSCOTTDOUGLAS9800194898001948 1346 UPSHUR PL, BUFORD GA 30519* PAROLE VIOLATION$0NBGA Pardons and ParolesCharges
11/17/2014 22:4111/18/2014 03:55ROSASJOSEDANIEL9936859699368596 268 WILLOW COVE CT, LAWRENCEVILLE GA 30044DRIVING WITHOUT HEADLIGHTS$68CBGwinnett County PoliceCharges
11/17/2014 22:4111/18/2014 03:55ROSASJOSEDANIEL9936859699368596 268 WILLOW COVE CT, LAWRENCEVILLE GA 30044*NO DRIVERS LICENSE$705CBGwinnett County PoliceCharges
11/17/2014 22:2611/18/2014 04:32CHARLESARIELLEALCINA9948120499481204 710 BECKENHAM WALK DR, DACULA GA 30019*HIT & RUN-FAILURE TO STOP & RENDER AID$2950SBGwinnett County SheriffCharges
11/17/2014 22:2611/18/2014 04:32CHARLESARIELLEALCINA9948120499481204 710 BECKENHAM WALK DR, DACULA GA 30019IMPROPER/ERRATIC LANE CHANGE$650SBGwinnett County SheriffCharges
11/17/2014 22:2611/18/2014 04:32CHARLESARIELLEALCINA9948120499481204 710 BECKENHAM WALK DR, DACULA GA 30019* OBSTRUCTION LAW ENFORCEMENT OFFICER$2400SBGwinnett County SheriffCharges
11/17/2014 21:2111/18/2014 05:52SOLISWILLIEGUILLERMO9928894099288940 4257 CENTENNIAL TRL, DULUTH GA 30096*VGCSA OF C/S$5700SBGwinnett County SheriffCharges
11/17/2014 21:1411/21/2014 23:31EVANSMELVINWILLIAM9949945099499450 2320 CHANDLER GROVE DR, BUFORD GA 30519* CRIMINAL TRESPASS$1300SBGwinnett County PoliceCharges
11/17/2014 20:4411/18/2014 05:15TAYLORCHERYLPEARL9932777099327770 1564 HERRINGTON RD APT 2323, LAWRENCEVILLE GA 30043@ * THEFT BY SHOPLIFTING$1300SBGwinnett County PoliceCharges
11/17/2014 20:4111/27/2014 09:30COLLINSLATRECIAANTASIA-LORSHAE9951719899517198 4130 SORING DR, DOUGLASVILLE GA 30135HOLD FOR OTHER AGENCY$0NBGwinnett County PoliceCharges
11/17/2014 20:4111/27/2014 09:30COLLINSLATRECIAANTASIA-LORSHAE9951719899517198 4130 SORING DR, DOUGLASVILLE GA 30135ESCORT W/O LICENSE$135SBGwinnett County PoliceCharges
11/17/2014 20:4111/27/2014 09:30COLLINSLATRECIAANTASIA-LORSHAE9951719899517198 4130 SORING DR, DOUGLASVILLE GA 30135* KEEPING A PLACE OF PROSTITUTION$1300SBGwinnett County PoliceCharges
11/17/2014 20:4111/27/2014 09:30COLLINSLATRECIAANTASIA-LORSHAE9951719899517198 4130 SORING DR, DOUGLASVILLE GA 30135* PROSTITUTION$1300SBGwinnett County PoliceCharges
11/17/2014 20:35MARTINCHARLESRAY9600445796004457 2051 GREENCREST DR, GAINESVILLE GA 30504@ * THEFT BY RECEIVING$0NBGwinnett County SheriffCharges
11/17/2014 20:35MARTINCHARLESRAY9600445796004457 2051 GREENCREST DR, GAINESVILLE GA 30504@ * THEFT/BRINGING PROPINTO STATE$0NBGwinnett County SheriffCharges
11/17/2014 20:35MARTINCHARLESRAY9600445796004457 2051 GREENCREST DR, GAINESVILLE GA 30504HOLD FOR OTHER AGENCY$0NBGwinnett County SheriffCharges
11/17/2014 20:3110/06/2014 14:47BOWENMICHAELCAREST9801124598011245STE 100 1475 BUFORD DR, LAWRENCEVILLE GA 30043*OBSTRUCTION OF OFFICER$2400SBGwinnett County SheriffCharges
11/17/2014 20:3110/06/2014 14:47BOWENMICHAELCAREST9801124598011245STE 100 1475 BUFORD DR, LAWRENCEVILLE GA 30043LOITERING OR PROWLING$2400SBGwinnett County SheriffCharges
11/17/2014 20:3110/06/2014 14:47BOWENMICHAELCAREST9801124598011245STE 100 1475 BUFORD DR, LAWRENCEVILLE GA 30043* VIOLATION OF PROBATION$0NBGwinnett County SheriffCharges
11/17/2014 20:3110/06/2014 14:47BOWENMICHAELCAREST9801124598011245STE 100 1475 BUFORD DR, LAWRENCEVILLE GA 30043HOLD FOR OTHER AGENCY$0NBGwinnett County SheriffCharges
11/17/2014 20:2311/26/2014 00:27ELLISTAMARIALANETT9951719799517197 2286 HARMONY LAKE CIR, LITHONIA GA 30058FAILURE TO APPEAR$460CBGwinnett County SheriffCharges
11/17/2014 19:58REIDGEORGEWINFEREY9942743499427434 2950 SPRINGDALE RD APT A1, ATLANTA GA 30315* VIOLATION OF PROBATION$0NBGwinnett County SheriffCharges
11/17/2014 19:5811/19/2014 18:47ALBERTPARISRAMERO9942712399427123 505 FULTON STREET APT 1219, ATLANTA GA 30312Violation of Probation$0NBGwinnett County SheriffCharges
11/17/2014 19:5211/26/2014 17:37DIAZJANEYMARLEEN9950253299502532 232 SANDPIPER LN, BEAN STATION TN 37708FAILURE TO APPEAR$0NBGwinnett County SheriffCharges
11/17/2014 19:5211/26/2014 17:37DIAZJANEYMARLEEN9950253299502532 232 SANDPIPER LN, BEAN STATION TN 37708* BAIL JUMPING$0NBGwinnett County SheriffCharges
11/17/2014 19:44LEBINH9947070099470700 5059 VICTOR TRL, NORCROSS GA 30071* VIOLATION OF PROBATION$0NBGwinnett County SheriffCharges
11/17/2014 19:44LEBINH9947070099470700 5059 VICTOR TRL, NORCROSS GA 30071HOLD FOR IMMIGRATION$0NBGwinnett County SheriffCharges
11/17/2014 19:1711/18/2014 01:29WILSONRODERICKLADALE9951719699517196 171 AUBURN AVE UNIT 67, ATLANTA GA 30303EXPIRED OR NO LICENSE PLATE OR DECAL$152SBGwinnett County SheriffCharges
11/17/2014 19:1711/18/2014 01:29WILSONRODERICKLADALE9951719699517196 171 AUBURN AVE UNIT 67, ATLANTA GA 30303* DRIVING WHILE LIC SUSP/REVOKED$705SBGwinnett County SheriffCharges
11/17/2014 19:0711/18/2014 18:37DOZIERDANIELLEM9951719599517195 5304 WINSLOW CROSSING NORTH, LITHONIA GA 30038FAILURE TO MAINTAIN INSURANCE$299SBGwinnett County PoliceCharges
11/17/2014 19:0711/18/2014 18:37DOZIERDANIELLEM9951719599517195 5304 WINSLOW CROSSING NORTH, LITHONIA GA 30038* DRIVING WHILE LIC SUSP/REVOKED$705SBGwinnett County PoliceCharges
11/17/2014 17:57JONESMICHAELTYRONE9947913699479136 516 WEST CROGAN ST, LAWRENCEVILLE GA 30046* POSS OF FIREARM BY CONVICTED FELON$0NBGA State PatrolCharges
11/17/2014 17:57JONESMICHAELTYRONE9947913699479136 516 WEST CROGAN ST, LAWRENCEVILLE GA 30046* OBSTRUCTION LAW ENFORCEMENT OFFICER$2950SBGA State PatrolCharges
11/17/2014 17:57JONESMICHAELTYRONE9947913699479136 516 WEST CROGAN ST, LAWRENCEVILLE GA 30046VEH SEAT BELT REQUIRED-FRONT SEAT$15SBGA State PatrolCharges
11/17/2014 17:57JONESMICHAELTYRONE9947913699479136 516 WEST CROGAN ST, LAWRENCEVILLE GA 30046* FLEEING OR ATTEMPTING TO ELUDE$705SBGA State PatrolCharges
11/17/2014 17:57JONESMICHAELTYRONE9947913699479136 516 WEST CROGAN ST, LAWRENCEVILLE GA 30046*LESS THAN AN OZ OF MARIJ.$2950SBGA State PatrolCharges
11/17/2014 17:57JONESMICHAELTYRONE9947913699479136 516 WEST CROGAN ST, LAWRENCEVILLE GA 30046RECKLESS DRIVING$425SBGA State PatrolCharges
11/17/2014 17:57JONESMICHAELTYRONE9947913699479136 516 WEST CROGAN ST, LAWRENCEVILLE GA 30046FAILURE TO KEEP IN PROPER LANE$68SBGA State PatrolCharges
11/17/2014 17:57JONESMICHAELTYRONE9947913699479136 516 WEST CROGAN ST, LAWRENCEVILLE GA 30046M/V WRONG SIDE OF ROAD$68SBGA State PatrolCharges
11/17/2014 17:57JONESMICHAELTYRONE9947913699479136 516 WEST CROGAN ST, LAWRENCEVILLE GA 30046GIVING WRONG SIGNAL$68SBGA State PatrolCharges
11/17/2014 17:57JONESMICHAELTYRONE9947913699479136 516 WEST CROGAN ST, LAWRENCEVILLE GA 30046FAILURE TO KEEP IN PROPER LANE$68SBGA State PatrolCharges
11/17/2014 17:57JONESMICHAELTYRONE9947913699479136 516 WEST CROGAN ST, LAWRENCEVILLE GA 30046CROSS D-HWY/GORE/BAR/SHLD/ EM L$68SBGA State PatrolCharges
11/17/2014 17:4511/17/2014 23:12BOTELLO-JUAREZJAVIER9951719399517193 2170 STONEOAK DR, LAWRENCEVILLE GA 30043@ * THEFT BY SHOPLIFTING$1300CBGwinnett County PoliceCharges
11/17/2014 17:3911/18/2014 06:26BAXTERQUINESHATRENETTE9951301899513018 2357 PARK MANOR VW, SNELLVILLE GA 30078FAILURE TO APPEAR$196CBGwinnett County PoliceCharges
11/17/2014 17:30NICKENSWINSTINRAY9932576699325766 335 HAYMARKET LN, LAWRENCEVILLE GA 30046* VIOLATION OF PROBATION$0NBDOCCharges
11/17/2014 17:1011/20/2014 16:20CRUZ-MENDEZFRANCISCO9919535999195359 1355 GRAVES RD APT O/8, NORCROSS GA 30093* DRIVING WHILE LIC SUSP/REVOKED$705CBGwinnett County SheriffCharges
11/17/2014 17:1011/20/2014 16:20CRUZ-MENDEZFRANCISCO9919535999195359 1355 GRAVES RD APT O/8, NORCROSS GA 30093HOLD FOR IMMIGRATION$0NBGwinnett County SheriffCharges
11/17/2014 16:5811/18/2014 02:06GRIFFITHVASHAUNLENELL9951719299517192 980 WALTER BLVD, LAWRENCEVILLE GA 30043@ * SIMPLE BATTERY$1300SBGwinnett County SheriffCharges
11/17/2014 16:5211/21/2014 14:28MCROBERTSMICHAELCONNOR9947142499471424 1525 WILKES CREST DR, DACULA GA 30019* PERJURY$0NBGwinnett County PoliceCharges
11/17/2014 16:42SHELTONPRESTONJOHN9913614899136148 3331 HADDON HALL DRIVE, BUFORD GA 30519* PAROLE VIOLATION$0NBGA Pardons and ParolesCharges
11/17/2014 16:2911/17/2014 23:38MALIVENDIJOSEPH9951719199517191 2309 FIVE FORKS TRICKUM RD, LAWRENCEVILLE GA 30044*SHOPLIFTING LESS THAN 300.00$558.5SBSnellville PoliceCharges
11/17/2014 16:1111/18/2014 12:40FINDLEYHENRYMILLER89124038912403 742 BEDROCK RUN, LAWRENCEVILLE GA 30043Failure to Appear$1801.25CBSuwanee PoliceCharges
11/17/2014 15:56GUYKEITHALLEN9903007699030076 125 SYCAMORE CIR, MONROE GA 30655*BURGLARY 2ND DEGREE$0NBGwinnett County SheriffCharges
11/17/2014 15:56GUYKEITHALLEN9903007699030076 125 SYCAMORE CIR, MONROE GA 30655*BURGLARY 2ND DEGREE$0NBGwinnett County SheriffCharges
11/17/2014 15:56GUYKEITHALLEN9903007699030076 125 SYCAMORE CIR, MONROE GA 30655*BURGLARY 2ND DEGREE$0NBGwinnett County SheriffCharges
11/17/2014 15:5211/17/2014 23:57REAVESROBINLORRAINE9951719099517190 877 MAJESTIC CT, LAWRENCEVILLE GA 30044*DRIVING WHILE LIC SUSP/REV$715SBLilburn PoliceCharges
11/17/2014 15:4611/19/2014 18:24SHARPTONALISONLEAH9951589999515899 373 AGNES CT, LAWRENCEVILLE GA 30046DISORDERLY CONDUCT$439ORLawrenceville PoliceCharges
11/17/2014 15:3811/18/2014 16:49DIXONBRITTANYCHARNELLE9948589799485897 2700 BRASELTON HWY STE 10-326, DACULA GA 30019* VIOLATION OF PROBATION$0NBGwinnett County SheriffCharges
11/17/2014 15:2411/18/2014 23:38KIMHYOCHEOL9800811398008113 3134 DAVENPORT RD, DULUTH GA 30096*DUI - ALCOHOL$2006ORGwinnett County PoliceCharges
11/17/2014 15:2411/18/2014 23:38KIMHYOCHEOL9800811398008113 3134 DAVENPORT RD, DULUTH GA 30096IMPROPER/ERRATIC LANE CHANGE$68ORGwinnett County PoliceCharges
11/17/2014 15:2411/18/2014 23:38KIMHYOCHEOL9800811398008113 3134 DAVENPORT RD, DULUTH GA 30096FAILURE TO YIELD FOR EMERGENCY$68ORGwinnett County PoliceCharges
11/17/2014 15:2411/18/2014 23:38KIMHYOCHEOL9800811398008113 3134 DAVENPORT RD, DULUTH GA 30096FAILURE TO OBEY TRAFFIC DEVICE$56ORGwinnett County PoliceCharges
11/17/2014 15:2411/18/2014 23:38KIMHYOCHEOL9800811398008113 3134 DAVENPORT RD, DULUTH GA 30096FAILURE TO OBEY TRAFFIC DEVICE$56ORGwinnett County PoliceCharges
11/17/2014 15:1511/18/2014 17:19FRADYMICHELLELEIGH9936001699360016 1939 DISCOVERY DR, AUBURN GA 30011HOLD FOR OTHER AGENCY$0NBDuluth PoliceCharges
11/17/2014 15:1011/17/2014 23:10XIONGJERRYTOU9905750199057501 335 OAKDALE DR, AUBURN GA 30011* POSS OF C/S OR MARIJUANA$3500SBGwinnett County SheriffCharges
11/17/2014 15:0111/18/2014 18:44WARRENJASONADAM9947833999478339 6940 FREEPORT RD, RIVERVIEW FL 33578Violation of Probation$1422FILilburn PoliceCharges
11/17/2014 14:5311/18/2014 18:19CARRERAEDWARDB9938830699388306 1035 DOMINION CT, LAWRENCEVILLE GA 30044* INTERFER. WITH CALL FOR EMER. ASSIST.$1300SBGwinnett County PoliceCharges
11/17/2014 14:5311/18/2014 18:19CARRERAEDWARDB9938830699388306 1035 DOMINION CT, LAWRENCEVILLE GA 30044* CRIMINAL DAMAGE TO PROPERTY-2ND DEGREE$1300SBGwinnett County PoliceCharges
11/17/2014 14:4311/17/2014 21:41OWOEYETAJUDENABOILA9905764299057782 320 STONEVIEW TRAL, LILBURN GA 30047FAILURE TO APPEAR$119CBGwinnett County SheriffCharges
11/17/2014 14:3611/17/2014 21:07GUNNFREDRICKA9947374399473743 424 ANSLEY BROOK DR, LAWRENCEVILLE GA 30044HOLD FOR OTHER AGENCY$0NBGwinnett County SheriffCharges
11/17/2014 14:3111/19/2014 18:38HUTCHERSONCHRISTOPHERALAN9943770399437703 450 BAY GROVE RD, LOGANVILLE GA 30052Violation of Probation$0NBGwinnett County SheriffCharges
11/17/2014 14:2611/17/2014 17:56ALEXANDERWILLIAMLEE9951237699512376 3402 CHESTERFIELD CT, SNELLVILLE GA 30039*NO DRIVERS LICENSE$0NBGwinnett County SheriffCharges
11/17/2014 14:1511/17/2014 22:53GRIFFINDARIUSTREYMONTE9932728099358679 3837 MORAN WAY APT B, NORCROSS GA 30092Violation of Probation$0NBGwinnett County SheriffCharges
11/17/2014 14:1511/17/2014 22:53GRIFFINDARIUSTREYMONTE9932728099358679 3837 MORAN WAY APT B, NORCROSS GA 30092* VIOLATION OF PROBATION$0NBGwinnett County SheriffCharges
11/17/2014 14:1511/20/2014 11:32GRIFFINDARIUSTREYMONTE9932728099358679 3837 MORAN WAY APT B, NORCROSS GA 30092* VIOLATION OF PROBATION$0NBGwinnett County SheriffCharges
11/17/2014 14:1511/20/2014 11:32GRIFFINDARIUSTREYMONTE9932728099358679 3837 MORAN WAY APT B, NORCROSS GA 30092Violation of Probation$0NBGwinnett County SheriffCharges
11/17/2014 14:0811/17/2014 14:29PALMERDESIRAECHANTAL9951718899517188 1434 ADAIR HILL CT, DACULA GA 30019@ * THEFT BY SHOPLIFTING$0NBGwinnett County SheriffCharges
11/17/2014 13:5611/18/2014 01:31TOULONEVANAUGUSTUS9951718699517186 5905 WILD AZALEA CV, SUGAR HILL GA 30518@ * BATTERY$1300SBGwinnett County PoliceCharges
11/17/2014 13:5411/21/2014 10:35ASKEWBOBBYRHASHAD9951718599517185 100 CASTOR DR APT E9, NORCROSS GA 30071Violation of Probation$0NBGwinnett County PoliceCharges
11/17/2014 13:4511/17/2014 20:00TOULONJACQUELINESMITH9951718399517183 5905 WILD AZALEA CV, SUGAR HILL GA 30518@ * BATTERY$0ORGwinnett County PoliceCharges
11/17/2014 13:3811/18/2014 01:34RIVERAPETEMARCO9937768399377683 4410 RIDERS RIDGE TRL, SNELLVILLE GA 30039@ * THEFT BY SHOPLIFTING$1300SBGwinnett County PoliceCharges
11/17/2014 13:3811/18/2014 01:34RIVERAPETEMARCO9937768399377683 4410 RIDERS RIDGE TRL, SNELLVILLE GA 30039* CARRYING CONCEALED WEAPON$2950SBGwinnett County PoliceCharges
11/17/2014 13:3811/18/2014 01:34RIVERAPETEMARCO9937768399377683 4410 RIDERS RIDGE TRL, SNELLVILLE GA 30039* POSS TOOL FOR COMMISION OF A CRIME$4050SBGwinnett County PoliceCharges
11/17/2014 13:3511/22/2014 05:29COBBSRYANMICHAEL9950867199508671 6394 FLAT ROCK DR, FLOWERY BRANCH GA 30542* VIOLATION OF PROBATION$0NBGwinnett County SheriffCharges
11/17/2014 13:3211/18/2014 11:44GARCIA-PEREZLEONARDO9950958399509583 6259 S NORCROSS TUCKER RD L9, TUCKER GA 30084HOLD FOR OTHER AGENCY$0NBGwinnett County SheriffCharges
11/17/2014 13:2411/20/2014 13:00HYDEETHANTERRY9951718199517181APT 1 4049 NORTHRIDGE WAY, NORCROSS GA 30093HOLD FOR OTHER AGENCY$0NBGwinnett County SheriffCharges
11/17/2014 13:1711/17/2014 20:15STANTONJOHNMICHAEL9951717999517179 1825 STONEOAK CIR, LAWRENCEVILLE GA 30043*DRIVING WHILE LICENSE SUSP/REVOKED$971.75SBDuluth PoliceCharges
11/17/2014 13:1711/17/2014 20:15STANTONJOHNMICHAEL9951717999517179 1825 STONEOAK CIR, LAWRENCEVILLE GA 30043RAN RED ARROW$129.25SBDuluth PoliceCharges
11/17/2014 13:0711/18/2014 11:20VAUGHNGARYLOUDON9700052297000522 915 PACES COMMONS DR, DULUTH GA 30096HOLD FOR OTHER AGENCY$0NBLilburn PoliceCharges
11/17/2014 12:5111/20/2014 10:57HANNERTYSONTYSHAWN9951521399515213 6350 OAKLEY RD APT 2100, UNION CITY GA 30291HOLD FOR COURT$0NBGwinnett County SheriffCharges
11/17/2014 12:5111/20/2014 10:57HANNERTYSONTYSHAWN9951521399515213 6350 OAKLEY RD APT 2100, UNION CITY GA 30291@ PARTICIPATE IN GANG ACTIVITY$0NBGwinnett County SheriffCharges
11/17/2014 12:5111/20/2014 10:57HANNERTYSONTYSHAWN9951521399515213 6350 OAKLEY RD APT 2100, UNION CITY GA 30291@ * THEFT BY SHOPLIFTING$0NBGwinnett County SheriffCharges
11/17/2014 12:4711/17/2014 15:51MARTINEZMIGUELLIRA9903573199035731 107 CHASE LANE, NORCROSS GA 30093*NO DRIVERS LICENSE$0NBGwinnett County SheriffCharges
11/17/2014 12:4711/20/2014 10:59WHITETODDRHOLETER9945530999455309 4910 VALLEY DALE DR SW, LILBURN GA 30047HOLD FOR COURT$0NBGwinnett County SheriffCharges
11/17/2014 12:3611/19/2014 14:04RABANALES-SANDOVALMARLONOSIEL9939919099399190 1780 GRAVES RD, ATLANTA GA 30093*NO DRIVERS LICENSE$0NBGwinnett County SheriffCharges
11/17/2014 12:3611/19/2014 14:04RABANALES-SANDOVALMARLONOSIEL9939919099399190 1780 GRAVES RD, ATLANTA GA 30093HOLD FOR IMMIGRATION$0NBGwinnett County SheriffCharges
11/17/2014 12:3211/23/2014 05:02REYNOLDSKEVINMICHAEL9941754599417545 353 WEST COLLEGE ST, OZARK AL 36360Violation of Probation$0NBGwinnett County PoliceCharges
11/17/2014 12:3211/23/2014 05:02REYNOLDSKEVINMICHAEL9941754599417545 353 WEST COLLEGE ST, OZARK AL 36360* VIOLATION OF PROBATION$0NBGwinnett County PoliceCharges
11/17/2014 12:2411/17/2014 20:32PEREZDOMINGOANTONIO9951717899517178 5675 CARDIGAN TRACE, SUGAR HILL GA 30518* VIOLATION OF EMPLOYMENT SECURITY LAW$5700SBPrisoner Transport ServicesCharges
11/17/2014 12:17MELCH0RAMAURIALEJANDRO9949354299493542 1241 DAHLIA ST, OXNARD GA 93036FAILURE TO APPEAR$0NBPrisoner Transport ServicesCharges
11/17/2014 12:17MELCH0RAMAURIALEJANDRO9949354299493542 1241 DAHLIA ST, OXNARD GA 93036HOLD FOR OTHER AGENCY$0NBPrisoner Transport ServicesCharges
11/17/2014 12:0811/26/2014 21:12EVANSNATHANIELLAMONT9948293599482935 1265 SAINT FRANCIS CT, LOCUST GROVE GA 30248Violation of Probation$0NBProbationCharges
11/17/2014 12:0811/26/2014 21:12EVANSNATHANIELLAMONT9948293599482935 1265 SAINT FRANCIS CT, LOCUST GROVE GA 30248* VIOLATION OF PROBATION$0NBProbationCharges
11/17/2014 12:05WALLERJAVONLORENZO9944556299445562 4060 CITRON CT, NORCROSS GA 30093* VIOLATION OF PROBATION$0NBProbationCharges
11/17/2014 11:55SMITHJOHNNIEEDWARD9931284699312846 3421 NEW HOPE RD, LAWRENCEVILLE GA 30046FAILURE TO APPEAR$1335CBGwinnett County SheriffCharges
11/17/2014 11:55SMITHJOHNNIEEDWARD9931284699312846 3421 NEW HOPE RD, LAWRENCEVILLE GA 30046FAILURE TO APPEAR$0NBGwinnett County SheriffCharges
11/17/2014 11:4411/17/2014 20:59BROWN-BATESSHARONCASSANDRA9936914899517194 2227 HIGH POINT RD, SNELLVILLE GA 30078@ * THEFT BY SHOPLIFTING$1300SBSnellville PoliceCharges
11/17/2014 10:3811/17/2014 16:36ROBERTSMICHAELREID9951717799517177 7320 PEA RIDGE RD, GAINESVILLE GA 30506* DRIVING WHILE LIC SUSP/REVOKED$705CBGwinnett County PoliceCharges
11/17/2014 10:3211/17/2014 18:38GARMONMAULDINRUBIN9951717699517176 188 KENT DR, MACON GA 31220@ * THEFT BY TAKING$1300SBGA State PatrolCharges
11/17/2014 10:3211/17/2014 18:38GARMONMAULDINRUBIN9951717699517176 188 KENT DR, MACON GA 31220VEH SEAT BELT REQUIRED-FRONT SEAT$15SBGA State PatrolCharges
11/17/2014 10:23BRADBURYFRANKOBRIEN9940737499407374 358 ARBOUR RUN, SUWANEE GA 30024VIOLATION OF PROBATION$0NBGwinnett County SheriffCharges
11/17/2014 10:2011/17/2014 12:34MASONJONATHANC9951717599517175 3333 OAK VALLEY, TOCCOA GA 30577*NO DRIVERS LICENSE$NBGwinnett County SheriffCharges
11/17/2014 10:1511/17/2014 13:01HERNANDEZ CASTILLOHENRYESTEBAN9951717499517174 765 JACKSONS MILL WAY, LILBURN GA 30047*DRIVING W/O LICENSE-FAIL OBTAIN 30 DAYS$0NBGwinnett County SheriffCharges
11/17/2014 10:0911/19/2014 14:25ROMEROLUISDE LOS SANTOS9950716099507160 4025 JACKSON SHOALS CT, LAWRENCEVILLE GA 30044*VGCSA OF C/S$0NBGwinnett County SheriffCharges
11/17/2014 10:0911/19/2014 14:25ROMEROLUISDE LOS SANTOS9950716099507160 4025 JACKSON SHOALS CT, LAWRENCEVILLE GA 30044HOLD FOR IMMIGRATION$0NBGwinnett County SheriffCharges
11/17/2014 08:3411/18/2014 00:42COPELANDBOBBYSTINSON9951717399517173 4303 CEDAR RIDGE TRL, STONE MOUNTAIN GA 33083HOLD FOR OTHER AGENCY$0NBGwinnett County PoliceCharges
11/17/2014 05:4811/17/2014 09:17TOBIASALBERTODEJESUS9940211799414814 985 CLOVER LN, LAWRENCEVILLE GA 30044* DUI-ALCOHOL$2006SBGwinnett County PoliceCharges
11/17/2014 05:4811/17/2014 09:17TOBIASALBERTODEJESUS9940211799414814 985 CLOVER LN, LAWRENCEVILLE GA 30044EXPIRED LICENSE$68SBGwinnett County PoliceCharges
11/17/2014 05:4811/17/2014 09:17TOBIASALBERTODEJESUS9940211799414814 985 CLOVER LN, LAWRENCEVILLE GA 30044* FLEEING OR ATTEMPTING TO ELUDE$705SBGwinnett County PoliceCharges
11/17/2014 05:4811/17/2014 09:17TOBIASALBERTODEJESUS9940211799414814 985 CLOVER LN, LAWRENCEVILLE GA 30044IMPROPER LANE CHANGE$96SBGwinnett County PoliceCharges
11/17/2014 05:4811/17/2014 09:17TOBIASALBERTODEJESUS9940211799414814 985 CLOVER LN, LAWRENCEVILLE GA 30044IMPROPER LANE CHANGE$96SBGwinnett County PoliceCharges
11/17/2014 05:0411/18/2014 16:43CAUTHENRODERICKMONTOYA9908488899084888 713 STONEBRIDGE WAY, LITHONIA GA 30058FAILURE TO APPEAR$399CBGwinnett County PoliceCharges
11/17/2014 04:5411/17/2014 13:49SANCHEZJAIME9600452596004525 2057 ALCOVY TRACE WAY, LAWRENCEVILLE GA 30045@ * SIMPLE BATTERY$2950SBGwinnett County SheriffCharges
11/17/2014 04:5411/17/2014 13:49SANCHEZJAIME9600452596004525 2057 ALCOVY TRACE WAY, LAWRENCEVILLE GA 30045* INTERFER. WITH CALL FOR EMER. ASSIST.$2950SBGwinnett County SheriffCharges
11/17/2014 04:5411/17/2014 13:49SANCHEZJAIME9600452596004525 2057 ALCOVY TRACE WAY, LAWRENCEVILLE GA 30045CRUELTY TO CHILDREN-3RD DEGREE$2950SBGwinnett County SheriffCharges
11/17/2014 04:5411/17/2014 13:49SANCHEZJAIME9600452596004525 2057 ALCOVY TRACE WAY, LAWRENCEVILLE GA 30045CRUELTY TO CHILDREN-3RD DEGREE$2950SBGwinnett County SheriffCharges
11/17/2014 04:09ANDRADEPERLAIVANE9946719999467199APT A 5493 BISHOPS CIR, NORCROSS GA 30093*OBSTRUCTION OF OFFICER$5000SBGwinnett County PoliceCharges
11/17/2014 04:09ANDRADEPERLAIVANE9946719999467199APT A 5493 BISHOPS CIR, NORCROSS GA 30093* OBSTRUCTION LAW ENFORCEMENT OFFICER$2950SBGwinnett County PoliceCharges
11/17/2014 04:09ANDRADEPERLAIVANE9946719999467199APT A 5493 BISHOPS CIR, NORCROSS GA 30093POSS/PURCHASE ALCOHOL UNDER 21$140SBGwinnett County PoliceCharges
11/17/2014 04:09ANDRADEPERLAIVANE9946719999467199APT A 5493 BISHOPS CIR, NORCROSS GA 30093PED UNDER INFLUENCE ON R/WAY$152SBGwinnett County PoliceCharges
11/17/2014 04:09ANDRADEPERLAIVANE9946719999467199APT A 5493 BISHOPS CIR, NORCROSS GA 30093* VIOLATION OF PROBATION$0NBGwinnett County PoliceCharges
11/17/2014 00:3911/19/2014 01:29COSBYKEISHALASHON9951716899517169 3428 FAIRWAY OAK DR APT 1G, LAWRENCEVILLE GA 30044ILLEGAL PARK, STAND, STOP W/IN INTERSEC$98ORLawrenceville PoliceCharges
11/17/2014 00:3911/19/2014 01:29COSBYKEISHALASHON9951716899517169 3428 FAIRWAY OAK DR APT 1G, LAWRENCEVILLE GA 30044* DUI ALCOHOL$1230ORLawrenceville PoliceCharges
11/17/2014 00:3311/17/2014 22:46JOHNSONCAMERONLA RAY9948269899482698` 706 CCLUB LAKES PARKWAY, LAWRENCEVILLE GA 30044* GIVING FALSE NAME OR INFORMATION$1300SBGwinnett County PoliceCharges
11/17/2014 00:2411/20/2014 16:21MANZANO-TELLEZEDGAR9951716799517167 1146 WILLIAMS BROOK LN, NORCROSS GA 30093DRIVING ON WRONG SIDE$115ORNorcross PoliceCharges
11/17/2014 00:2411/20/2014 16:21MANZANO-TELLEZEDGAR9951716799517167 1146 WILLIAMS BROOK LN, NORCROSS GA 30093DRIVING ON WRONG SIDE$115ORNorcross PoliceCharges
11/17/2014 00:2411/20/2014 16:21MANZANO-TELLEZEDGAR9951716799517167 1146 WILLIAMS BROOK LN, NORCROSS GA 30093*HIT & RUN$1165ORNorcross PoliceCharges
11/17/2014 00:2411/20/2014 16:21MANZANO-TELLEZEDGAR9951716799517167 1146 WILLIAMS BROOK LN, NORCROSS GA 30093*NO VALID LICENSE$860ORNorcross PoliceCharges
11/17/2014 00:2411/20/2014 16:21MANZANO-TELLEZEDGAR9951716799517167 1146 WILLIAMS BROOK LN, NORCROSS GA 30093HOLD FOR IMMIGRATION$0NBNorcross PoliceCharges
11/17/2014 00:1711/18/2014 19:57TARBERTCOURTNEYQUENTEZ9949444699494446 3400 SWEETWATER RD APT#9, LAWRENCEVILLE GA 30044Violation of Probation$984CBGwinnett County PoliceCharges
11/17/2014 00:1711/18/2014 19:57TARBERTCOURTNEYQUENTEZ9949444699494446 3400 SWEETWATER RD APT#9, LAWRENCEVILLE GA 30044FAILURE TO APPEAR$186FIGwinnett County PoliceCharges
11/16/2014 23:5111/17/2014 07:20HONDONTRAMEKAPROSHAE9951716699517166 3211 SHADOW WALK LN, TUCKER GA 30084FAILURE TO APPEAR$399CBGwinnett County PoliceCharges
11/16/2014 23:30WILSONSHAWANMALIK9949316699493166 3925 LAUREL BROOK WY, SNELLVILLE GA 30039Violation of Probation$0NBGwinnett County SheriffCharges
11/16/2014 23:30WILSONSHAWANMALIK9949316699493166 3925 LAUREL BROOK WY, SNELLVILLE GA 30039* VIOLATION OF PROBATION$0NBGwinnett County SheriffCharges
11/16/2014 23:30WILSONSHAWANMALIK9949316699493166 3925 LAUREL BROOK WY, SNELLVILLE GA 30039FAILURE TO APPEAR$720CBGwinnett County SheriffCharges
11/16/2014 23:1511/17/2014 13:28MALDONADO-GAMEZRODRIGO9951716599517165 412 WHITE OAK DR NW, LILBURN GA 30047IMPROPER LANE CHANGE$155CBLilburn PoliceCharges
11/16/2014 23:1511/17/2014 13:28MALDONADO-GAMEZRODRIGO9951716599517165 412 WHITE OAK DR NW, LILBURN GA 30047*DUTY TO STOP WHEN INVOLVED IN ACCIDENT$715CBLilburn PoliceCharges
11/16/2014 23:1511/17/2014 13:28MALDONADO-GAMEZRODRIGO9951716599517165 412 WHITE OAK DR NW, LILBURN GA 30047PURCHASING/POSSESSION ALCOHOL UNDER 21$550CBLilburn PoliceCharges
11/16/2014 22:2211/20/2014 16:22ELORZA-ZAVALETAHUGO9928376799283767 833 ALLGOOD RD, STONE MOUNTAIN GA 30083FAILURE TO MAINTAIN LANE$280ORNorcross PoliceCharges
11/16/2014 22:2211/20/2014 16:22ELORZA-ZAVALETAHUGO9928376799283767 833 ALLGOOD RD, STONE MOUNTAIN GA 30083*DUI$1580ORNorcross PoliceCharges
11/16/2014 22:2211/20/2014 16:22ELORZA-ZAVALETAHUGO9928376799283767 833 ALLGOOD RD, STONE MOUNTAIN GA 30083OPEN CONTAINER$305ORNorcross PoliceCharges
11/16/2014 22:2211/20/2014 16:22ELORZA-ZAVALETAHUGO9928376799283767 833 ALLGOOD RD, STONE MOUNTAIN GA 30083HOLD FOR IMMIGRATION$0NBNorcross PoliceCharges
11/16/2014 22:2211/20/2014 16:22ELORZA-ZAVALETAHUGO9928376799283767 833 ALLGOOD RD, STONE MOUNTAIN GA 30083*NO VALID LICENSE$860ORNorcross PoliceCharges
11/16/2014 21:4711/17/2014 21:45WOODJOSHUAWILLIAM9500391195003911 HOMELESS, BUFORD GA 30019* DUI-ALCOHOL$2006SBGwinnett County PoliceCharges
11/16/2014 21:4711/17/2014 21:45WOODJOSHUAWILLIAM9500391195003911 HOMELESS, BUFORD GA 30019IMPROPER LANE CHANGE$96SBGwinnett County PoliceCharges
11/16/2014 21:4711/17/2014 21:45WOODJOSHUAWILLIAM9500391195003911 HOMELESS, BUFORD GA 30019M/V WRONG SIDE OF ROAD$96SBGwinnett County PoliceCharges
11/16/2014 21:4711/17/2014 21:45WOODJOSHUAWILLIAM9500391195003911 HOMELESS, BUFORD GA 30019FAIL TO RPT STRIKING FIXED OBJECT$96SBGwinnett County PoliceCharges
11/16/2014 21:4711/17/2014 21:45WOODJOSHUAWILLIAM9500391195003911 HOMELESS, BUFORD GA 30019OPEN CONTAINER LAW$299SBGwinnett County PoliceCharges
11/16/2014 21:4711/17/2014 21:45WOODJOSHUAWILLIAM9500391195003911 HOMELESS, BUFORD GA 30019STRIKING UNATTENDED VEHICLE$152SBGwinnett County PoliceCharges
11/16/2014 21:4711/17/2014 21:45WOODJOSHUAWILLIAM9500391195003911 HOMELESS, BUFORD GA 30019*HIT & RUN-FAILURE TO STOP & RENDER AID$425SBGwinnett County PoliceCharges
11/16/2014 21:4011/17/2014 01:25SOLOMONTAIRENLATHRON9945575499455764 5645 HAMMOND DR, NORCROSS GA 30071FAILURE TO APPEAR$252CBGwinnett County SheriffCharges
11/16/2014 21:1211/16/2014 23:33ORKANDROBERTLOUIS9951716499517164 3688 WEDGEWOOD CHASE, NORCROSS GA 30092@ * BATTERY$2950CBGwinnett County PoliceCharges
11/16/2014 21:08WELCHCAROLYNLONG9927489499342461 3639 MANSFIELD LN, SNELLVILLE GA 30039* FINANCIAL IDENTITY FRAUD$0NBGwinnett County SheriffCharges
11/16/2014 21:08WELCHCAROLYNLONG9927489499342461 3639 MANSFIELD LN, SNELLVILLE GA 30039* FINANCIAL IDENTITY FRAUD$0NBGwinnett County SheriffCharges
11/16/2014 21:08WELCHCAROLYNLONG9927489499342461 3639 MANSFIELD LN, SNELLVILLE GA 30039* FINANCIAL IDENTITY FRAUD$0NBGwinnett County SheriffCharges
11/16/2014 21:08WELCHCAROLYNLONG9927489499342461 3639 MANSFIELD LN, SNELLVILLE GA 30039EXPLOITATION OF DISABLED ADULT$0NBGwinnett County SheriffCharges
11/16/2014 21:08WELCHCAROLYNLONG9927489499342461 3639 MANSFIELD LN, SNELLVILLE GA 30039* FINANCIAL IDENTITY FRAUD$0NBGwinnett County SheriffCharges
11/16/2014 20:5811/18/2014 21:12HOLSTICKZACCHEUSLEMEK9950525299505252 727 DEAN RD, SUWANEE GA 30024FAILURE TO APPEAR$570CBGwinnett County PoliceCharges
11/16/2014 20:5111/18/2014 19:56BAKERBRANDENDEANTHONY9933125499331254 2850 DELK RD APT19H, MARIETTA GA 30067SPEEDING$125ORGwinnett County PoliceCharges
11/16/2014 20:5111/18/2014 19:56BAKERBRANDENDEANTHONY9933125499331254 2850 DELK RD APT19H, MARIETTA GA 30067* DRIVING WHILE LIC SUSP/REVOKED$705ORGwinnett County PoliceCharges
11/16/2014 20:4011/17/2014 04:09AFUWAPEYETUNDEOMOBDWALE9951716399517163 2239 HOWARDS FERRY RD, MARIETTA GA 30062FAILURE TO APPEAR$315CBGwinnett County SheriffCharges
11/16/2014 20:4011/17/2014 04:09AFUWAPEYETUNDEOMOBDWALE9951716399517163 2239 HOWARDS FERRY RD, MARIETTA GA 30062NON-RESIDENT NO TAG/AFT 30 DAYS$152SBGwinnett County SheriffCharges
11/16/2014 20:4011/17/2014 04:09AFUWAPEYETUNDEOMOBDWALE9951716399517163 2239 HOWARDS FERRY RD, MARIETTA GA 30062*DRIVING W/O LICENSE-FAIL OBTAIN 30 DAYS$705SBGwinnett County SheriffCharges
11/16/2014 20:25AYALAJUANJOSE9951716299517162 1222 JENNY LYNN DR, NORCROSS GA 30093@ * AGGRAVATED ASSAULT$0NBLilburn PoliceCharges
11/16/2014 20:1711/21/2014 20:18NEWELLJASONALAN9906802699068026 1130 GRAYLAND HILLS TRAIL, LAWRENCEVILLE GA 30046* DUI ALCOHOL$0NBGwinnett County SheriffCharges
11/16/2014 20:05ARNOLDBRADLEYALEXANDER9948825699488256 7314 CORAL LAKE DR, FLOWERY BRANCH GA 30542* VIOLATION OF PROBATION$0NBGwinnett County SheriffCharges
11/16/2014 20:05ARNOLDBRADLEYALEXANDER9948825699488256 7314 CORAL LAKE DR, FLOWERY BRANCH GA 30542Violation of Probation$0NBGwinnett County SheriffCharges
11/16/2014 19:50GUILLENJOSE9927901399279013 34 ALEJO CT, NEWNAN GA 30263Violation of Probation$0NBGwinnett County PoliceCharges
11/16/2014 19:50GUILLENJOSE9927901399279013 34 ALEJO CT, NEWNAN GA 30263* DUI-ALCOHOL$2006SBGwinnett County PoliceCharges
11/16/2014 19:50GUILLENJOSE9927901399279013 34 ALEJO CT, NEWNAN GA 30263*NO DRIVERS LICENSE$705SBGwinnett County PoliceCharges
11/16/2014 19:50GUILLENJOSE9927901399279013 34 ALEJO CT, NEWNAN GA 30263HOLD FOR IMMIGRATION$0NBGwinnett County PoliceCharges
11/16/2014 19:50GUILLENJOSE9927901399279013 34 ALEJO CT, NEWNAN GA 30263* VIOLATION OF PROBATION$0NBGwinnett County PoliceCharges
11/16/2014 19:50GUILLENJOSE9927901399279013 34 ALEJO CT, NEWNAN GA 30263* GIVING FALSE NAME OR INFORMATION$1300SBGwinnett County PoliceCharges
11/16/2014 19:50GUILLENJOSE9927901399279013 34 ALEJO CT, NEWNAN GA 30263IMPROPER LANE CHANGE$68SBGwinnett County PoliceCharges
11/16/2014 19:29WILSONMICHAELDORAN9600117496001174 895 SHANNON RD SW, LOGANVILLE GA 30052EXPIRED OR NO LICENSE ON PERSON$393ORLawrenceville PoliceCharges
11/16/2014 19:29WILSONMICHAELDORAN9600117496001174 895 SHANNON RD SW, LOGANVILLE GA 30052REMOVING, AFFIXING PLATE TO CONCEAL$763ORLawrenceville PoliceCharges
11/16/2014 19:29WILSONMICHAELDORAN9600117496001174 895 SHANNON RD SW, LOGANVILLE GA 30052FAILURE TO APPEAR$972.5CBLawrenceville PoliceCharges
11/16/2014 19:29WILSONMICHAELDORAN9600117496001174 895 SHANNON RD SW, LOGANVILLE GA 30052HOLD FOR OTHER AGENCY$0NBLawrenceville PoliceCharges
11/16/2014 19:29WILSONMICHAELDORAN9600117496001174 895 SHANNON RD SW, LOGANVILLE GA 30052*FUGITIVE FROM JUSTICE$0NBLawrenceville PoliceCharges
11/16/2014 19:29WILSONMICHAELDORAN9600117496001174 895 SHANNON RD SW, LOGANVILLE GA 30052HOLD FOR OTHER AGENCY$0NBLawrenceville PoliceCharges
11/16/2014 19:1111/16/2014 23:33WALWYNALEXANDERANTHONY9947916299479162 1300 CHANDLER RIDGE DR, LAWRENCEVILLE GA 30045LOITERING AND PROWLING$135CBGwinnett County PoliceCharges
11/16/2014 19:0411/19/2014 02:38EDWARDSBRANDYMICHELLE9943814399438143 256 PINE VALLEY WAY, LAWRENCEVILLE GA 30046FAILURE TO APPEAR$288.5CBGwinnett County SheriffCharges
11/16/2014 18:5911/16/2014 21:14PEREZ-GARCIADEBORANOHEMI9951715999517159 6750 PEACHTREE IND DR, DORAVILLE GA 30360*NO DRIVERS LICENSE$0NBGwinnett County SheriffCharges
11/16/2014 18:5011/17/2014 00:37YUMAN-CIFUENTESWALTERSANDRO9951715899517158 1320 TIMBERCREST CT, LAWRENCEVILLE GA 30045*NO DRIVERS LICENSE$705CBGwinnett County PoliceCharges
11/16/2014 18:5011/17/2014 00:37YUMAN-CIFUENTESWALTERSANDRO9951715899517158 1320 TIMBERCREST CT, LAWRENCEVILLE GA 30045DRIVING WITHOUT HEADLIGHTS$68CBGwinnett County PoliceCharges
11/16/2014 18:4111/17/2014 00:01JENKINSSANDRA9951715799517157 1202 AUTUMN VILLAGE CT, DULUTH GA 30096* VIOLATION OF EMPLOYMENT SECURITY LAW$6800SBGwinnett County SheriffCharges
11/16/2014 18:27MCCAINMARK9941296299412962 8 WALTHALL ST SE, ATLANTA GA 30317@ * THEFT BY SHOPLIFTING$0NBGwinnett County PoliceCharges
11/16/2014 18:1111/16/2014 21:59WARTELLABRADLEYGORDON9934165299341652 816 NORTH CLAYTON ST, LAWRENCEVILLE GA 30046* THEFT BY SHOPLIFTING$788SBLawrenceville PoliceCharges
11/16/2014 18:0909/20/2013 12:38WARTELLABRADLEYGORDON9934165299341652 816 NORTH CLAYTON ST, LAWRENCEVILLE GA 30046*BURGLARY 2ND DEGREE$5700SBLawrenceville PoliceCharges
11/16/2014 18:0909/20/2013 12:38WARTELLABRADLEYGORDON9934165299341652 816 NORTH CLAYTON ST, LAWRENCEVILLE GA 30046*BURGLARY 2ND DEGREE$11200SBLawrenceville PoliceCharges
11/16/2014 18:0909/20/2013 12:38WARTELLABRADLEYGORDON9934165299341652 816 NORTH CLAYTON ST, LAWRENCEVILLE GA 30046*BURGLARY 2ND DEGREE$11200SBLawrenceville PoliceCharges
11/16/2014 18:0909/20/2013 12:38WARTELLABRADLEYGORDON9934165299341652 816 NORTH CLAYTON ST, LAWRENCEVILLE GA 30046*BURGLARY 2ND DEGREE$11200SBLawrenceville PoliceCharges
11/16/2014 18:0909/20/2013 12:38WARTELLABRADLEYGORDON9934165299341652 816 NORTH CLAYTON ST, LAWRENCEVILLE GA 30046*VGCSA OF C/S$0NBLawrenceville PoliceCharges
11/16/2014 18:0911/26/2013 05:13WARTELLABRADLEYGORDON9934165299341652 816 NORTH CLAYTON ST, LAWRENCEVILLE GA 30046*BURGLARY 2ND DEGREE$5700SBLawrenceville PoliceCharges
11/16/2014 18:0911/26/2013 05:13WARTELLABRADLEYGORDON9934165299341652 816 NORTH CLAYTON ST, LAWRENCEVILLE GA 30046*BURGLARY 2ND DEGREE$11200SBLawrenceville PoliceCharges
11/16/2014 18:0911/26/2013 05:13WARTELLABRADLEYGORDON9934165299341652 816 NORTH CLAYTON ST, LAWRENCEVILLE GA 30046*VGCSA OF C/S$0NBLawrenceville PoliceCharges
11/16/2014 18:0911/26/2013 05:13WARTELLABRADLEYGORDON9934165299341652 816 NORTH CLAYTON ST, LAWRENCEVILLE GA 30046*BURGLARY 1ST DEGREE$0NBLawrenceville PoliceCharges
11/16/2014 18:0911/16/2014 18:08WARTELLABRADLEYGORDON9934165299341652 816 NORTH CLAYTON ST, LAWRENCEVILLE GA 30046*BURGLARY 1ST DEGREE$0NBLawrenceville PoliceCharges
11/16/2014 18:0911/16/2014 18:08WARTELLABRADLEYGORDON9934165299341652 816 NORTH CLAYTON ST, LAWRENCEVILLE GA 30046*BURGLARY 2ND DEGREE$11200SBLawrenceville PoliceCharges
11/16/2014 18:0911/16/2014 18:08WARTELLABRADLEYGORDON9934165299341652 816 NORTH CLAYTON ST, LAWRENCEVILLE GA 30046*VGCSA OF C/S$0NBLawrenceville PoliceCharges
11/16/2014 18:0911/16/2014 18:08WARTELLABRADLEYGORDON9934165299341652 816 NORTH CLAYTON ST, LAWRENCEVILLE GA 30046*BURGLARY 2ND DEGREE$11200SBLawrenceville PoliceCharges
11/16/2014 18:0911/16/2014 18:08WARTELLABRADLEYGORDON9934165299341652 816 NORTH CLAYTON ST, LAWRENCEVILLE GA 30046*BURGLARY 2ND DEGREE$11200SBLawrenceville PoliceCharges
11/16/2014 18:0911/16/2014 18:08WARTELLABRADLEYGORDON9934165299341652 816 NORTH CLAYTON ST, LAWRENCEVILLE GA 30046*BURGLARY 2ND DEGREE$11200SBLawrenceville PoliceCharges
11/16/2014 18:0911/16/2014 18:08WARTELLABRADLEYGORDON9934165299341652 816 NORTH CLAYTON ST, LAWRENCEVILLE GA 30046*BURGLARY 2ND DEGREE$5700SBLawrenceville PoliceCharges
11/16/2014 18:0911/26/2013 05:13WARTELLABRADLEYGORDON9934165299341652 816 NORTH CLAYTON ST, LAWRENCEVILLE GA 30046*BURGLARY 2ND DEGREE$0NBLawrenceville PoliceCharges
11/16/2014 18:0911/26/2013 05:13WARTELLABRADLEYGORDON9934165299341652 816 NORTH CLAYTON ST, LAWRENCEVILLE GA 30046*VGCSA OF C/S$0NBLawrenceville PoliceCharges
11/16/2014 18:0911/16/2014 18:10WARTELLABRADLEYGORDON9934165299341652 816 NORTH CLAYTON ST, LAWRENCEVILLE GA 30046*BURGLARY 1ST DEGREE$0NBLawrenceville PoliceCharges
11/16/2014 18:0911/16/2014 18:10WARTELLABRADLEYGORDON9934165299341652 816 NORTH CLAYTON ST, LAWRENCEVILLE GA 30046*BURGLARY 2ND DEGREE$11200SBLawrenceville PoliceCharges
11/16/2014 18:0911/16/2014 18:10WARTELLABRADLEYGORDON9934165299341652 816 NORTH CLAYTON ST, LAWRENCEVILLE GA 30046*VGCSA OF C/S$0NBLawrenceville PoliceCharges
11/16/2014 18:0911/16/2014 18:10WARTELLABRADLEYGORDON9934165299341652 816 NORTH CLAYTON ST, LAWRENCEVILLE GA 30046*BURGLARY 2ND DEGREE$11200SBLawrenceville PoliceCharges
11/16/2014 18:0911/16/2014 18:10WARTELLABRADLEYGORDON9934165299341652 816 NORTH CLAYTON ST, LAWRENCEVILLE GA 30046*BURGLARY 2ND DEGREE$11200SBLawrenceville PoliceCharges
11/16/2014 18:0911/16/2014 18:10WARTELLABRADLEYGORDON9934165299341652 816 NORTH CLAYTON ST, LAWRENCEVILLE GA 30046*BURGLARY 2ND DEGREE$11200SBLawrenceville PoliceCharges
11/16/2014 18:0911/16/2014 18:10WARTELLABRADLEYGORDON9934165299341652 816 NORTH CLAYTON ST, LAWRENCEVILLE GA 30046*BURGLARY 2ND DEGREE$5700SBLawrenceville PoliceCharges
11/16/2014 18:0911/16/2014 18:08WARTELLABRADLEYGORDON9934165299341652 816 NORTH CLAYTON ST, LAWRENCEVILLE GA 30046*BURGLARY 2ND DEGREE$0NBLawrenceville PoliceCharges
11/16/2014 18:0911/16/2014 18:08WARTELLABRADLEYGORDON9934165299341652 816 NORTH CLAYTON ST, LAWRENCEVILLE GA 30046*VGCSA OF C/S$0NBLawrenceville PoliceCharges
11/16/2014 18:0911/16/2014 18:10WARTELLABRADLEYGORDON9934165299341652 816 NORTH CLAYTON ST, LAWRENCEVILLE GA 30046*BURGLARY 2ND DEGREE$0NBLawrenceville PoliceCharges
11/16/2014 18:0911/16/2014 18:10WARTELLABRADLEYGORDON9934165299341652 816 NORTH CLAYTON ST, LAWRENCEVILLE GA 30046*VGCSA OF C/S$0NBLawrenceville PoliceCharges
11/16/2014 18:0911/26/2013 05:13WARTELLABRADLEYGORDON9934165299341652 816 NORTH CLAYTON ST, LAWRENCEVILLE GA 30046*BURGLARY 2ND DEGREE$11200SBLawrenceville PoliceCharges
11/16/2014 18:0911/26/2013 05:13WARTELLABRADLEYGORDON9934165299341652 816 NORTH CLAYTON ST, LAWRENCEVILLE GA 30046*BURGLARY 2ND DEGREE$11200SBLawrenceville PoliceCharges
11/16/2014 18:0911/26/2013 05:13WARTELLABRADLEYGORDON9934165299341652 816 NORTH CLAYTON ST, LAWRENCEVILLE GA 30046*BURGLARY 2ND DEGREE$11200SBLawrenceville PoliceCharges
11/16/2014 18:0909/20/2013 12:38WARTELLABRADLEYGORDON9934165299341652 816 NORTH CLAYTON ST, LAWRENCEVILLE GA 30046*BURGLARY 2ND DEGREE$0NBLawrenceville PoliceCharges
11/16/2014 18:0909/20/2013 12:38WARTELLABRADLEYGORDON9934165299341652 816 NORTH CLAYTON ST, LAWRENCEVILLE GA 30046*BURGLARY 1ST DEGREE$0NBLawrenceville PoliceCharges
11/16/2014 18:0909/20/2013 12:38WARTELLABRADLEYGORDON9934165299341652 816 NORTH CLAYTON ST, LAWRENCEVILLE GA 30046*BURGLARY 2ND DEGREE$11200SBLawrenceville PoliceCharges
11/16/2014 18:0909/20/2013 12:38WARTELLABRADLEYGORDON9934165299341652 816 NORTH CLAYTON ST, LAWRENCEVILLE GA 30046*VGCSA OF C/S$0NBLawrenceville PoliceCharges
11/16/2014 18:0209/20/2013 12:38WARTELLABRADLEYGORDON9934165299341652 816 NORTH CLAYTON ST, LAWRENCEVILLE GA 30046*BURGLARY 2ND DEGREE$5700SBLawrenceville PoliceCharges
11/16/2014 18:0209/20/2013 12:38WARTELLABRADLEYGORDON9934165299341652 816 NORTH CLAYTON ST, LAWRENCEVILLE GA 30046*BURGLARY 2ND DEGREE$11200SBLawrenceville PoliceCharges
11/16/2014 18:0209/20/2013 12:38WARTELLABRADLEYGORDON9934165299341652 816 NORTH CLAYTON ST, LAWRENCEVILLE GA 30046*BURGLARY 2ND DEGREE$11200SBLawrenceville PoliceCharges
11/16/2014 18:0209/20/2013 12:38WARTELLABRADLEYGORDON9934165299341652 816 NORTH CLAYTON ST, LAWRENCEVILLE GA 30046*BURGLARY 2ND DEGREE$11200SBLawrenceville PoliceCharges
11/16/2014 18:0209/20/2013 12:38WARTELLABRADLEYGORDON9934165299341652 816 NORTH CLAYTON ST, LAWRENCEVILLE GA 30046*BURGLARY 1ST DEGREE$0NBLawrenceville PoliceCharges
11/16/2014 18:0209/20/2013 12:38WARTELLABRADLEYGORDON9934165299341652 816 NORTH CLAYTON ST, LAWRENCEVILLE GA 30046*VGCSA OF C/S$0NBLawrenceville PoliceCharges
11/16/2014 18:0209/20/2013 12:38WARTELLABRADLEYGORDON9934165299341652 816 NORTH CLAYTON ST, LAWRENCEVILLE GA 30046*BURGLARY 2ND DEGREE$11200SBLawrenceville PoliceCharges
11/16/2014 18:0209/20/2013 12:38WARTELLABRADLEYGORDON9934165299341652 816 NORTH CLAYTON ST, LAWRENCEVILLE GA 30046*VGCSA OF C/S$0NBLawrenceville PoliceCharges
11/16/2014 18:0211/26/2013 05:13WARTELLABRADLEYGORDON9934165299341652 816 NORTH CLAYTON ST, LAWRENCEVILLE GA 30046*BURGLARY 2ND DEGREE$5700SBLawrenceville PoliceCharges
11/16/2014 18:0211/16/2014 18:08WARTELLABRADLEYGORDON9934165299341652 816 NORTH CLAYTON ST, LAWRENCEVILLE GA 30046*BURGLARY 2ND DEGREE$5700SBLawrenceville PoliceCharges
11/16/2014 18:0211/26/2013 05:13WARTELLABRADLEYGORDON9934165299341652 816 NORTH CLAYTON ST, LAWRENCEVILLE GA 30046*BURGLARY 2ND DEGREE$0NBLawrenceville PoliceCharges
11/16/2014 18:0211/26/2013 05:13WARTELLABRADLEYGORDON9934165299341652 816 NORTH CLAYTON ST, LAWRENCEVILLE GA 30046*VGCSA OF C/S$0NBLawrenceville PoliceCharges
11/16/2014 18:0211/26/2013 05:13WARTELLABRADLEYGORDON9934165299341652 816 NORTH CLAYTON ST, LAWRENCEVILLE GA 30046*BURGLARY 1ST DEGREE$0NBLawrenceville PoliceCharges
11/16/2014 18:0211/26/2013 05:13WARTELLABRADLEYGORDON9934165299341652 816 NORTH CLAYTON ST, LAWRENCEVILLE GA 30046*BURGLARY 2ND DEGREE$11200SBLawrenceville PoliceCharges
11/16/2014 18:0211/26/2013 05:13WARTELLABRADLEYGORDON9934165299341652 816 NORTH CLAYTON ST, LAWRENCEVILLE GA 30046*VGCSA OF C/S$0NBLawrenceville PoliceCharges
11/16/2014 18:0211/26/2013 05:13WARTELLABRADLEYGORDON9934165299341652 816 NORTH CLAYTON ST, LAWRENCEVILLE GA 30046*BURGLARY 2ND DEGREE$11200SBLawrenceville PoliceCharges
11/16/2014 18:0211/26/2013 05:13WARTELLABRADLEYGORDON9934165299341652 816 NORTH CLAYTON ST, LAWRENCEVILLE GA 30046*BURGLARY 2ND DEGREE$11200SBLawrenceville PoliceCharges
11/16/2014 18:0211/26/2013 05:13WARTELLABRADLEYGORDON9934165299341652 816 NORTH CLAYTON ST, LAWRENCEVILLE GA 30046*BURGLARY 2ND DEGREE$11200SBLawrenceville PoliceCharges
11/16/2014 18:0211/16/2014 18:10WARTELLABRADLEYGORDON9934165299341652 816 NORTH CLAYTON ST, LAWRENCEVILLE GA 30046*BURGLARY 2ND DEGREE$0NBLawrenceville PoliceCharges
11/16/2014 18:0211/16/2014 18:10WARTELLABRADLEYGORDON9934165299341652 816 NORTH CLAYTON ST, LAWRENCEVILLE GA 30046*VGCSA OF C/S$0NBLawrenceville PoliceCharges
11/16/2014 18:0211/16/2014 18:10WARTELLABRADLEYGORDON9934165299341652 816 NORTH CLAYTON ST, LAWRENCEVILLE GA 30046*BURGLARY 1ST DEGREE$0NBLawrenceville PoliceCharges
11/16/2014 18:0211/16/2014 18:10WARTELLABRADLEYGORDON9934165299341652 816 NORTH CLAYTON ST, LAWRENCEVILLE GA 30046*BURGLARY 2ND DEGREE$11200SBLawrenceville PoliceCharges
11/16/2014 18:0211/16/2014 18:10WARTELLABRADLEYGORDON9934165299341652 816 NORTH CLAYTON ST, LAWRENCEVILLE GA 30046*VGCSA OF C/S$0NBLawrenceville PoliceCharges
11/16/2014 18:0211/16/2014 18:10WARTELLABRADLEYGORDON9934165299341652 816 NORTH CLAYTON ST, LAWRENCEVILLE GA 30046*BURGLARY 2ND DEGREE$11200SBLawrenceville PoliceCharges
11/16/2014 18:0211/16/2014 18:10WARTELLABRADLEYGORDON9934165299341652 816 NORTH CLAYTON ST, LAWRENCEVILLE GA 30046*BURGLARY 2ND DEGREE$11200SBLawrenceville PoliceCharges
11/16/2014 18:0211/16/2014 18:10WARTELLABRADLEYGORDON9934165299341652 816 NORTH CLAYTON ST, LAWRENCEVILLE GA 30046*BURGLARY 2ND DEGREE$11200SBLawrenceville PoliceCharges
11/16/2014 18:0211/16/2014 18:10WARTELLABRADLEYGORDON9934165299341652 816 NORTH CLAYTON ST, LAWRENCEVILLE GA 30046*BURGLARY 2ND DEGREE$5700SBLawrenceville PoliceCharges
11/16/2014 18:0211/16/2014 18:08WARTELLABRADLEYGORDON9934165299341652 816 NORTH CLAYTON ST, LAWRENCEVILLE GA 30046*BURGLARY 2ND DEGREE$0NBLawrenceville PoliceCharges
11/16/2014 18:0211/16/2014 18:08WARTELLABRADLEYGORDON9934165299341652 816 NORTH CLAYTON ST, LAWRENCEVILLE GA 30046*VGCSA OF C/S$0NBLawrenceville PoliceCharges
11/16/2014 18:0211/16/2014 18:08WARTELLABRADLEYGORDON9934165299341652 816 NORTH CLAYTON ST, LAWRENCEVILLE GA 30046*BURGLARY 1ST DEGREE$0NBLawrenceville PoliceCharges
11/16/2014 18:0211/16/2014 18:08WARTELLABRADLEYGORDON9934165299341652 816 NORTH CLAYTON ST, LAWRENCEVILLE GA 30046*BURGLARY 2ND DEGREE$11200SBLawrenceville PoliceCharges
11/16/2014 18:0211/16/2014 18:08WARTELLABRADLEYGORDON9934165299341652 816 NORTH CLAYTON ST, LAWRENCEVILLE GA 30046*VGCSA OF C/S$0NBLawrenceville PoliceCharges
11/16/2014 18:0211/16/2014 18:08WARTELLABRADLEYGORDON9934165299341652 816 NORTH CLAYTON ST, LAWRENCEVILLE GA 30046*BURGLARY 2ND DEGREE$11200SBLawrenceville PoliceCharges
11/16/2014 18:0211/16/2014 18:08WARTELLABRADLEYGORDON9934165299341652 816 NORTH CLAYTON ST, LAWRENCEVILLE GA 30046*BURGLARY 2ND DEGREE$11200SBLawrenceville PoliceCharges
11/16/2014 18:0211/16/2014 18:08WARTELLABRADLEYGORDON9934165299341652 816 NORTH CLAYTON ST, LAWRENCEVILLE GA 30046*BURGLARY 2ND DEGREE$11200SBLawrenceville PoliceCharges
11/16/2014 18:0209/20/2013 12:38WARTELLABRADLEYGORDON9934165299341652 816 NORTH CLAYTON ST, LAWRENCEVILLE GA 30046*BURGLARY 2ND DEGREE$0NBLawrenceville PoliceCharges
11/16/2014 17:4711/18/2014 20:44WILLIAMSJOHNHENRY9951715699517156 1470 BOGGS RD APT 1208, DULUTH GA 30096* GIVING FALSE NAME OR INFORMATION$1300SBGwinnett County PoliceCharges
11/16/2014 17:4711/18/2014 20:44WILLIAMSJOHNHENRY9951715699517156 1470 BOGGS RD APT 1208, DULUTH GA 30096HOLD FOR OTHER AGENCY$0NBGwinnett County PoliceCharges
11/16/2014 17:4011/16/2014 22:41WILLIAMSKYNESHARONETT9935336699353366 1640 TERRY MILL LN, GRAYSON GA 30017*GA RES/ NO LIC AFT 30 DAYS$718SBSnellville PoliceCharges
11/16/2014 17:4011/16/2014 22:41WILLIAMSKYNESHARONETT9935336699353366 1640 TERRY MILL LN, GRAYSON GA 30017*NO DRIVERS LICENSE$719SBSnellville PoliceCharges
11/16/2014 17:3811/20/2014 15:03SOUMOUNOUCHELIE9942425799424257 4893 WARNERS TRAIL, NORCROSS GA 30093Failure to Appear$1170CBNorcross PoliceCharges
11/16/2014 17:3811/20/2014 15:03SOUMOUNOUCHELIE9942425799424257 4893 WARNERS TRAIL, NORCROSS GA 30093FAILURE TO APPEAR$985CBNorcross PoliceCharges
11/16/2014 17:3011/18/2014 19:11ADDISONDEMAINJEDEJUANTHEZE9951715499517154 1754 CANNONBALL CT, LAWRENCEVILLE GA 30044* THEFT BY SHOPLIFTING$788ORLawrenceville PoliceCharges
11/16/2014 16:4211/18/2014 17:14PASHMANNANCYANN9951715399517153 3956 CHEROKEE TRL, SUWANEE GA 30024*DRIVING ON A SUSPENDED LICENSE$860ORNorcross PoliceCharges
11/16/2014 16:4211/18/2014 17:14PASHMANNANCYANN9951715399517153 3956 CHEROKEE TRL, SUWANEE GA 30024FAILURE TO APPEAR$196CBNorcross PoliceCharges
11/16/2014 16:1511/16/2014 22:48JACKSONERICULYSSES9948050599480505 60 SARATOGA DR, LAWRENCEVILLE GA 30044* DEPOSIT ACCOUNT FRAUD$1300SBGwinnett County SheriffCharges
11/16/2014 16:1511/16/2014 22:48JACKSONERICULYSSES9948050599480505 60 SARATOGA DR, LAWRENCEVILLE GA 30044* DEPOSIT ACCOUNT FRAUD$1300SBGwinnett County SheriffCharges
11/16/2014 16:1511/16/2014 22:48JACKSONERICULYSSES9948050599480505 60 SARATOGA DR, LAWRENCEVILLE GA 30044* DEPOSIT ACCOUNT FRAUD$1300SBGwinnett County SheriffCharges
11/16/2014 15:39MANUELSTANLEYJOHN9951715299517152 652 GERIZIM CT SE, MABLETON GA 30126*VGCSA POSS OF MARIJUANA W/INTENT TO DIS$0NBGwinnett County PoliceCharges
11/16/2014 15:39MANUELSTANLEYJOHN9951715299517152 652 GERIZIM CT SE, MABLETON GA 30126* DRIVING WHILE LIC SUSP/REVOKED$1300CBGwinnett County PoliceCharges
11/16/2014 15:39MANUELSTANLEYJOHN9951715299517152 652 GERIZIM CT SE, MABLETON GA 30126WINDOWS<32%LIGHT$650CBGwinnett County PoliceCharges
11/16/2014 15:39MANUELSTANLEYJOHN9951715299517152 652 GERIZIM CT SE, MABLETON GA 30126HOLD FOR OTHER AGENCY$0NBGwinnett County PoliceCharges
11/16/2014 14:1411/16/2014 17:49STROUDDAVISGIBSON9951715199517151 4414 WINDSOR CT, LILBURN GA 30047POSSESSION OF LESS 1 OZ. MARIJUANA$585CBGwinnett County PoliceCharges
11/16/2014 14:0211/16/2014 18:58ORRDEVINWILLIAM9951715099517150 5555 FIVE FORKS TRICKUM RD, STONE MOUNTAIN GA 30087POSSESSION OF LESS THAN OZ MARIJUANA$585SBGwinnett County PoliceCharges
11/16/2014 13:5311/17/2014 21:52NICOLASROSA9951714999517149 783 CLAIRIDDLE OAK CT, LAWRENCEVILLE GA 30046* ENDANGERING SECURITY INTEREST$2400CBGwinnett County SheriffCharges
11/16/2014 13:4411/16/2014 17:45MARTINEZ-RAMIREZILDI9951714899517148 55 PARIS DR, LAWRENCEVILLE GA 30043@ * THEFT OF LOST/MISLAID PROPERTY$2400CBGwinnett County SheriffCharges
11/16/2014 13:0511/16/2014 16:13BROWNINGMILTONWAYNE9951714799517147 6020 BUCKNER CREEK CT, MABLETON GA 30126HOLD FOR OTHER AGENCY$0NBGwinnett County PoliceCharges
11/16/2014 12:4211/16/2014 16:59MCMILLIANTONYALYNN9951714699517146 3010 JESTER CT, DULUTH GA 30096BRAKE LIGHT/SIGNAL DEVICE REQUIRED$110CBNorcross PoliceCharges
11/16/2014 12:4211/16/2014 16:59MCMILLIANTONYALYNN9951714699517146 3010 JESTER CT, DULUTH GA 30096FAILURE TO APPEAR$275FINorcross PoliceCharges
11/16/2014 12:1211/16/2014 20:01RAMIREZEDUARDODANIEL9951714599517145 3949 ELMSIDE VILLAGE LN APT F, NORCROSS GA 30092FAIL TO YEILD TURNING LEFT$210CBNorcross PoliceCharges
11/16/2014 12:1211/16/2014 20:01RAMIREZEDUARDODANIEL9951714599517145 3949 ELMSIDE VILLAGE LN APT F, NORCROSS GA 30092*NO VALID LICENSE$860CBNorcross PoliceCharges
11/16/2014 11:2711/17/2014 14:02LECROYSTACYWAYNE9106161891061618 1506 FARMINGTON WAY APT 114, WINDER GA 30680SPEEDING$215SBGwinnett County PoliceCharges
11/16/2014 11:2711/17/2014 14:02LECROYSTACYWAYNE9106161891061618 1506 FARMINGTON WAY APT 114, WINDER GA 30680HOLD FOR OTHER AGENCY$0NBGwinnett County PoliceCharges
11/16/2014 11:0711/16/2014 20:31BAUTISTA-SANTIAGOANGEL9937339299483738 1382 KINGS RIDGE DR, NORCROSS GA 30093*NO VALID LICENSE$860CBNorcross PoliceCharges
11/16/2014 11:0711/16/2014 20:31BAUTISTA-SANTIAGOANGEL9937339299483738 1382 KINGS RIDGE DR, NORCROSS GA 30093FAILURE TO APPEAR$901CBNorcross PoliceCharges
11/16/2014 11:0111/16/2014 15:20BONILLAJUANBAUTISTA9951714399517143 4818 JOY LN SW, LILBURN GA 30047FAILURE TO APPEAR$165CBNorcross PoliceCharges
11/16/2014 10:5811/16/2014 16:52CHANGYUPO9951714299517142 125 JENNINGS MILL PKWY APT 11108, ATHENS GA 30004Violation of Probation$343CBLawrenceville PoliceCharges
11/16/2014 10:3711/16/2014 23:22PEEBLESKIM9951714199517141 3616 BOB BRYANT RD, GAINESVILLE GA 30507DIS COND - PUBLIC INTOXICATION$125SBGwinnett County PoliceCharges
11/16/2014 10:3711/16/2014 23:22PEEBLESKIM9951714199517141 3616 BOB BRYANT RD, GAINESVILLE GA 30507*VGCSA OF C/S$2950SBGwinnett County PoliceCharges
11/16/2014 09:3411/16/2014 14:05MOOREANDREAANTHONETTE9951714099517140 990 HARBINS RD APT 2A, NORCROSS GA 30093@ * SIMPLE BATTERY$1300CBGwinnett County PoliceCharges
11/16/2014 09:2411/16/2014 19:33HOLIDAYJOELENE9951713999517139 4529 MONTGOMERY WAY, DULUTH GA 30096@ * AGGRAVATED ASSAULT$11200SBGwinnett County PoliceCharges
11/16/2014 08:5211/16/2014 10:47TZINTZUN-PAQUEENRIQUE9951713799517137 3188 SHALLOWFORD RD NE, CHAMBLEE GA 30341*DISORDERLY CONDUCT$135CBGwinnett County SheriffCharges
11/16/2014 08:11DIAZJOSEMANUEL9949352699493526 372 ROCKBRIDGE RD SW, LILBURN GA 30047*TRAFFICKING IN METHAMPHETAMINE$0NBSnellville PoliceCharges
11/16/2014 08:11DIAZJOSEMANUEL9949352699493526 372 ROCKBRIDGE RD SW, LILBURN GA 30047 * ESCAPE$5700CBSnellville PoliceCharges
11/16/2014 08:11DIAZJOSEMANUEL9949352699493526 372 ROCKBRIDGE RD SW, LILBURN GA 30047FAILURE TO MAINTAIN INSURANCE$299SBSnellville PoliceCharges
11/16/2014 08:11DIAZJOSEMANUEL9949352699493526 372 ROCKBRIDGE RD SW, LILBURN GA 30047* OBSTRUCTION LAW ENFORCEMENT OFFICER$5700CBSnellville PoliceCharges
11/16/2014 08:11DIAZJOSEMANUEL9949352699493526 372 ROCKBRIDGE RD SW, LILBURN GA 30047* FLEEING OR ATTEMPTING TO ELUDE$705SBSnellville PoliceCharges
11/16/2014 08:11DIAZJOSEMANUEL9949352699493526 372 ROCKBRIDGE RD SW, LILBURN GA 30047SPEEDING$215SBSnellville PoliceCharges
11/16/2014 08:11DIAZJOSEMANUEL9949352699493526 372 ROCKBRIDGE RD SW, LILBURN GA 30047PASSING IN NO PASSING ZONE$56SBSnellville PoliceCharges
11/16/2014 08:11DIAZJOSEMANUEL9949352699493526 372 ROCKBRIDGE RD SW, LILBURN GA 30047RECKLESS DRIVING$425SBSnellville PoliceCharges
11/16/2014 07:0711/16/2014 17:47ODUSAHAMEFULE9951713699517136 1189 SHOREHAM DRIVE, COLLEGE PARK GA 30349* CRIMINAL TRESPASS$1300SBGeorgia Gwinnett College PDCharges
11/16/2014 06:4111/21/2014 14:24PAZ-TORRESDAVID9951132399511323 1248 RAIL ROAD AVE, SUGAR HILL GA 30518* DUI-ALCOHOL$2006SBGwinnett County PoliceCharges
11/16/2014 06:4111/21/2014 14:24PAZ-TORRESDAVID9951132399511323 1248 RAIL ROAD AVE, SUGAR HILL GA 30518IMPROPER LANE CHANGE$68SBGwinnett County PoliceCharges
11/16/2014 06:4111/21/2014 14:24PAZ-TORRESDAVID9951132399511323 1248 RAIL ROAD AVE, SUGAR HILL GA 30518HOLD FOR IMMIGRATION$0NBGwinnett County PoliceCharges
11/16/2014 06:4111/21/2014 14:24PAZ-TORRESDAVID9951132399511323 1248 RAIL ROAD AVE, SUGAR HILL GA 30518* DUI - DRUGS/ALCOHOL$0NBGwinnett County PoliceCharges
11/16/2014 06:4111/21/2014 14:24PAZ-TORRESDAVID9951132399511323 1248 RAIL ROAD AVE, SUGAR HILL GA 30518*NO DRIVERS LICENSE$705SBGwinnett County PoliceCharges
11/16/2014 06:2511/16/2014 14:52LAURENTE-SOLANOJOSECARLOS STEVE9936277399362773 3602 CAINBRIDGE CT, LAWRENCEVILLE GA 30044POSS OF < 1 OZ OF MARIJ.$585SBGwinnett County PoliceCharges
11/16/2014 06:2511/16/2014 14:52LAURENTE-SOLANOJOSECARLOS STEVE9936277399362773 3602 CAINBRIDGE CT, LAWRENCEVILLE GA 30044FAILURE TO OBEY STOP SIGN$96SBGwinnett County PoliceCharges
11/16/2014 06:2511/16/2014 14:52LAURENTE-SOLANOJOSECARLOS STEVE9936277399362773 3602 CAINBRIDGE CT, LAWRENCEVILLE GA 30044* DUI - DRUGS/ALCOHOL$2006SBGwinnett County PoliceCharges
11/16/2014 06:16MORALES-QUIJANOISIDORO9951713599517135 5320 ROSWELL RD APT H2, ATLANTA GA 30342@ * AGGRAVATED ASSAULT$5700BOGwinnett County PoliceCharges
11/16/2014 06:16MORALES-QUIJANOISIDORO9951713599517135 5320 ROSWELL RD APT H2, ATLANTA GA 30342HOLD FOR IMMIGRATION$0NBGwinnett County PoliceCharges
11/16/2014 06:0611/16/2014 11:10OBANDOROBERTOC9911242299112422 1108 PRESTON PARK DR, DULUTH GA 30096*DUI$1580SBNorcross PoliceCharges
11/16/2014 06:0611/16/2014 11:10OBANDOROBERTOC9911242299112422 1108 PRESTON PARK DR, DULUTH GA 30096OPEN CONTAINER IN VEHICLE$395SBNorcross PoliceCharges
11/16/2014 05:4011/16/2014 11:45TUCKERBRIDGETTLAVERN9951713399517133 3041 DOWRY DR, LAWRENCEVILLE GA 30044* DUI-MORE THAN 0.10%BLOOD ALCOHOL$2006SBGwinnett County PoliceCharges
11/16/2014 05:2911/19/2014 14:24ADAME-HERNANDEZANTONIO9951713299517132 605 TANNER RD, DACULA GA 30019*LICENSE:DRIVING WHILE UNLIC. OR EXPIRED$731.25ORDuluth PoliceCharges
11/16/2014 05:2911/19/2014 14:24ADAME-HERNANDEZANTONIO9951713299517132 605 TANNER RD, DACULA GA 30019SPEEDING 15-18 OVER$178.25ORDuluth PoliceCharges
11/16/2014 05:2911/19/2014 14:24ADAME-HERNANDEZANTONIO9951713299517132 605 TANNER RD, DACULA GA 30019HOLD FOR IMMIGRATION$0NBDuluth PoliceCharges
11/16/2014 05:16SANTIAGORICHARDTHOMAS9951713199517131 7819 SANDY COVE DR, NEW ORLEANS LA 70128HOLD FOR OTHER AGENCY$0NBGwinnett County PoliceCharges
11/16/2014 05:16SANTIAGORICHARDTHOMAS9951713199517131 7819 SANDY COVE DR, NEW ORLEANS LA 70128IMPROPER LANE CHANGE$68ORGwinnett County PoliceCharges
11/16/2014 05:16SANTIAGORICHARDTHOMAS9951713199517131 7819 SANDY COVE DR, NEW ORLEANS LA 70128*FUGITIVE FROM JUSTICE$0NBGwinnett County PoliceCharges
11/16/2014 05:0611/20/2014 15:02RENNERSOPHIARIDDELL9950613399506133 3369 PEACHTREE CORNERS CIR APT O, NORCROSS GA 30092Violation of Probation$0NBOTHERCharges
11/16/2014 05:0611/20/2014 15:02RENNERSOPHIARIDDELL9950613399506133 3369 PEACHTREE CORNERS CIR APT O, NORCROSS GA 30092Violation of Probation$300FIOTHERCharges
11/16/2014 04:4011/16/2014 09:08LUKEANTWINELAMAR9951712999517129 4350 JIMMY CARTER BLVD APT#224, NORCROSS GA 30093@ * BATTERY$1300SBGwinnett County PoliceCharges
11/16/2014 04:4011/16/2014 09:08LUKEANTWINELAMAR9951712999517129 4350 JIMMY CARTER BLVD APT#224, NORCROSS GA 30093@ * THEFT BY TAKING$1300SBGwinnett County PoliceCharges
11/16/2014 04:2711/16/2014 10:49SURTIAMANMAHEMOODALI9951712899517128 958 WAYNE DR, SNELLVILLE GA 30078*DUI--ALCOHOL$1266CBLilburn PoliceCharges
11/16/2014 04:2711/16/2014 10:49SURTIAMANMAHEMOODALI9951712899517128 958 WAYNE DR, SNELLVILLE GA 30078MOVE OVER LAW$715CBLilburn PoliceCharges
11/16/2014 04:2211/16/2014 12:42STILLCLAYTONWESLEY9951712799517127 2090 KINGS GATE CIR APT D, SNELLVILLE GA 30078* DUI - DRUGS/ALCOHOL$2006SBGwinnett County PoliceCharges
11/16/2014 04:0911/16/2014 06:57NETTESHEIMJOELROBERT9951712699517126 2996 LANDINGTON WAY, DULUTH GA 30096FAILURE TO HAVE TWO HEADLIGHTS$110CBNorcross PoliceCharges
11/16/2014 04:0911/16/2014 06:57NETTESHEIMJOELROBERT9951712699517126 2996 LANDINGTON WAY, DULUTH GA 30096VGCSA < 1 OZ NOT REPORTED$695CBNorcross PoliceCharges
11/16/2014 03:5611/16/2014 12:52HOGANCHANIKALATRICE9951712599517130 2781 CLIFFVIEW DR SW, LILBURN GA 30047HOLD FOR OTHER AGENCY$0NBGwinnett County PoliceCharges
11/16/2014 03:5511/16/2014 16:53RIVASWILLIAMBLAKE9924449499244494 350 BROWNS BRIDGE RD, AUBURN GA 30011FAIL TO STOP AT STOP SIGN @ RR CROSSING$182SBAuburn PDCharges
11/16/2014 03:5511/16/2014 16:53RIVASWILLIAMBLAKE9924449499244494 350 BROWNS BRIDGE RD, AUBURN GA 30011FAIL TO STOP AT STOP SIGN @ RR CROSSING$182SBAuburn PDCharges
11/16/2014 03:5511/16/2014 16:53RIVASWILLIAMBLAKE9924449499244494 350 BROWNS BRIDGE RD, AUBURN GA 30011SPEEDING$504SBAuburn PDCharges
11/16/2014 03:5511/16/2014 16:53RIVASWILLIAMBLAKE9924449499244494 350 BROWNS BRIDGE RD, AUBURN GA 30011*DUI$779SBAuburn PDCharges
11/16/2014 03:5511/16/2014 16:53RIVASWILLIAMBLAKE9924449499244494 350 BROWNS BRIDGE RD, AUBURN GA 30011FAILURE TO MAINTAIN LANE$172SBAuburn PDCharges
11/16/2014 03:3711/16/2014 10:06COOKBENJAMINJAMES9951712499517124 113 OVERLOOK PARK LN, LAWRENCEVILLE GA 30043* DUI-MORE THAN 0.10%BLOOD ALCOHOL$2006SBGwinnett County PoliceCharges
11/16/2014 03:3711/16/2014 10:06COOKBENJAMINJAMES9951712499517124 113 OVERLOOK PARK LN, LAWRENCEVILLE GA 30043FOLLOWING TOO CLOSELY$96SBGwinnett County PoliceCharges
11/16/2014 03:2511/16/2014 03:31TZINTZUN-PAQUEENRIQUE9951260599517122 126 GARDENIA RD, TUCKER GA 30084$Gwinnett County PoliceCharges
11/16/2014 03:2311/16/2014 13:10SALAZAR-COTACARLOSALBERTO9951712199517121 5320 ROSWELL RD APT H2, ATLANTA GA 30342* OBSTRUCTION LAW ENFORCEMENT OFFICER$1300CBGwinnett County PoliceCharges
11/16/2014 03:0411/16/2014 09:04BEEZLEYPAULDOUGLAS9951711999517119 3537 KENSINGTON PARK CIRCLE, AVONDALE ESTATES GA 30002*LESS THAN AN OZ OF MARIJ.$1300SBGwinnett County PoliceCharges
11/16/2014 03:0411/16/2014 09:04BEEZLEYPAULDOUGLAS9951711999517119 3537 KENSINGTON PARK CIRCLE, AVONDALE ESTATES GA 30002* TAMPERING WITH EVIDENCE$1300SBGwinnett County PoliceCharges
11/16/2014 02:5111/16/2014 05:05JOHNSONKWANTHRON9951711899517118 2916 CLAIRMONT RD NE APT 2404, ATLANTA GA 30329*DISORDERLY CONDUCT$135CBGwinnett County PoliceCharges
11/16/2014 02:17JOHNSONJAHMALTYSANN9947030299470302 226 LAURELTON CIR, LAWRENCEVILLE GA 30044@ * AGGRAVATED ASSAULT$0NBGwinnett County PoliceCharges
11/16/2014 02:17JOHNSONJAHMALTYSANN9947030299470302 226 LAURELTON CIR, LAWRENCEVILLE GA 30044*LESS THAN AN OZ OF MARIJ.$1300SBGwinnett County PoliceCharges
11/16/2014 02:1211/19/2014 14:28CARDOZAJULIOCABRERA9951711799517117 6350 OAKLEY RD APT G, UNION CITY GA 30291* DUI-ALCOHOL$2006SBGwinnett County PoliceCharges
11/16/2014 02:1211/19/2014 14:28CARDOZAJULIOCABRERA9951711799517117 6350 OAKLEY RD APT G, UNION CITY GA 30291HOLD FOR IMMIGRATION$0NBGwinnett County PoliceCharges
11/16/2014 02:1011/16/2014 12:21PALMACHRISTAIN9943722499437224 452 CHARLESTON LN, LAWRENCEVILLE GA 30046*DISORDERLY CONDUCT$135CBGwinnett County PoliceCharges
11/16/2014 01:5311/16/2014 07:14DUROUSSEAUDARIANCASANDRA9951711699517116 1841 NORTHWICK PL, LITHONIA GA 30058M/V MUST HAVE 2 HEADLIGHTS$68CBGwinnett County PoliceCharges
11/16/2014 01:5311/16/2014 07:14DUROUSSEAUDARIANCASANDRA9951711699517116 1841 NORTHWICK PL, LITHONIA GA 30058FAILURE TO HAVE LICENSE ON PERSON$19CBGwinnett County PoliceCharges
11/16/2014 01:4611/16/2014 16:18JACKSONANTONIOMARQUIS9951711599517115 5242 CUMBERLAND WAY, STONE MOUNTAIN GA 30087*VGCSA POSS OF MARIJUANA W/INTENT TO DIS$5700SBGwinnett County PoliceCharges
11/16/2014 01:3111/16/2014 03:44MAJORKATORIAEVONTAE9951347299513472 3535 GRAND MANOR TRL, SNELLVILLE GA 30039POSS OF < 1 OZ OF MARIJ.$585SBGwinnett County PoliceCharges
11/16/2014 01:3111/16/2014 03:44MAJORKATORIAEVONTAE9951347299513472 3535 GRAND MANOR TRL, SNELLVILLE GA 30039TAIL LIGHTS$68SBGwinnett County PoliceCharges
11/16/2014 01:3111/16/2014 03:44MAJORKATORIAEVONTAE9951347299513472 3535 GRAND MANOR TRL, SNELLVILLE GA 30039BRAKE LIGHTS REQUIRED$68SBGwinnett County PoliceCharges
11/16/2014 01:2311/16/2014 06:13HENRYCHRISTIANDOMINIC9951711499517114 1047 CANTON PLACE APT 3437, KENNESAW GA 30144POSSESSION OF LESS 1 OZ. MARIJUANA$585SBGwinnett County PoliceCharges
11/16/2014 01:2111/16/2014 05:21MALONEYDONTESTEPHAN9951711399517113 3211 ETERNITY WAY, SNELLVILLE GA 30039POSSESSION OF LESS 1 OZ. MARIJUANA$585SBGwinnett County PoliceCharges
11/16/2014 01:08RAMOSJUAN9951711299517120 3382 CHELSEA PARK LANE, NORCROSS GA 30093*HIT & RUN-FAILURE TO STOP & RENDER AID$425SBGwinnett County PoliceCharges
11/16/2014 01:08RAMOSJUAN9951711299517120 3382 CHELSEA PARK LANE, NORCROSS GA 30093M/V WRONG SIDE OF ROAD$96SBGwinnett County PoliceCharges
11/16/2014 01:08RAMOSJUAN9951711299517120 3382 CHELSEA PARK LANE, NORCROSS GA 30093*NO DRIVERS LICENSE$705SBGwinnett County PoliceCharges
11/16/2014 01:08RAMOSJUAN9951711299517120 3382 CHELSEA PARK LANE, NORCROSS GA 30093HOLD FOR IMMIGRATION$0NBGwinnett County PoliceCharges
11/16/2014 01:08RAMOSJUAN9951711299517120 3382 CHELSEA PARK LANE, NORCROSS GA 30093* GIVING FALSE NAME OR INFORMATION$1300SBGwinnett County PoliceCharges
11/16/2014 01:08RAMOSJUAN9951711299517120 3382 CHELSEA PARK LANE, NORCROSS GA 30093DUTY TO REPORT ACC/W/INJ/PROP DAMAGE$299SBGwinnett County PoliceCharges
11/16/2014 01:0511/16/2014 03:39ZAGALAMARCOANTONIO9951711199517111 178 BLACKFOREST TRAIL, STOCKBRIDGE GA 30281M/V MUST HAVE 2 HEADLIGHTS$68CBGwinnett County PoliceCharges
11/16/2014 01:0511/16/2014 03:39ZAGALAMARCOANTONIO9951711199517111 178 BLACKFOREST TRAIL, STOCKBRIDGE GA 30281*NO DRIVERS LICENSE$705CBGwinnett County PoliceCharges
11/16/2014 00:4811/16/2014 03:29APIAFIJANISMCCUTCHEN9951711099517110 2508 WESLEY PLANTATION DR, DULUTH GA 30096*DUI$1580SBNorcross PoliceCharges
11/16/2014 00:4811/16/2014 03:29APIAFIJANISMCCUTCHEN9951711099517110 2508 WESLEY PLANTATION DR, DULUTH GA 30096TAIL LIGHT REQUIREMENTS$110SBNorcross PoliceCharges
11/16/2014 00:34ANTHONYSHERMANWAYNE9945143099451430 659 READING CT, LAWRENCEVILLE GA 30043FAILURE TO PAY/CHILD SUPPORT$35532CBLawrenceville PoliceCharges
11/16/2014 00:34ANTHONYSHERMANWAYNE9945143099451430 659 READING CT, LAWRENCEVILLE GA 30043Violation of Probation$0NBLawrenceville PoliceCharges
11/16/2014 00:3411/16/2014 07:42WARDPURNELLKENNEDY9951710999517109 7230 NEW DALE RD, REX GA 30273SPEEDING$250SBGwinnett County PoliceCharges
11/16/2014 00:3411/16/2014 07:42WARDPURNELLKENNEDY9951710999517109 7230 NEW DALE RD, REX GA 30273* DRIVING WHILE LIC SUSP/REVOKED$705SBGwinnett County PoliceCharges
11/16/2014 00:34ANTHONYSHERMANWAYNE9945143099451430 659 READING CT, LAWRENCEVILLE GA 30043* VIOLATION OF PROBATION$0NBLawrenceville PoliceCharges
11/16/2014 00:1911/16/2014 11:02HUSSEYKRISTAJULIANNA ROSE9921617499216174 2048 DOGWOOD RD, SNELLVILLE GA 30078IMPROPER/ERRATIC LANE CHANGE$68SBGwinnett County PoliceCharges
11/16/2014 00:1911/16/2014 11:02HUSSEYKRISTAJULIANNA ROSE9921617499216174 2048 DOGWOOD RD, SNELLVILLE GA 30078* DUI-MORE THAN 0.10%BLOOD ALCOHOL$2006SBGwinnett County PoliceCharges
11/15/2014 23:4911/20/2014 21:36ANDERSONRUDOLPHLEAHMAN9951710899517108 62 PROVIDENCE RUN CT, LAWRENCEVILLE GA 30046@ * THEFT BY RECEIVING$2950SBLawrenceville PoliceCharges
11/15/2014 23:4911/20/2014 21:36ANDERSONRUDOLPHLEAHMAN9951710899517108 62 PROVIDENCE RUN CT, LAWRENCEVILLE GA 30046* POSS OF A WEAPON DURING A CRIME$2950SBLawrenceville PoliceCharges
11/15/2014 23:4911/20/2014 21:36ANDERSONRUDOLPHLEAHMAN9951710899517108 62 PROVIDENCE RUN CT, LAWRENCEVILLE GA 30046*LESS THAN AN OZ OF MARIJ.$1300SBLawrenceville PoliceCharges
11/15/2014 23:3611/16/2014 09:02GRAVESJERMAINENMN9907014999070149 2572 CARNOT CT, DULUTH GA 30097FAILURE TO DIM HEADLIGHTS$68CBGwinnett County PoliceCharges
11/15/2014 23:1011/19/2014 14:26ARDON VALDEZJOSEANGEL9951710799517107 5277 DOWNS WAY, NORCROSS GA 30093M/V WRONG SIDE OF ROAD$96SBGwinnett County PoliceCharges
11/15/2014 23:1011/19/2014 14:26ARDON VALDEZJOSEANGEL9951710799517107 5277 DOWNS WAY, NORCROSS GA 30093IMPROPER LANE CHANGE$96SBGwinnett County PoliceCharges
11/15/2014 23:1011/19/2014 14:26ARDON VALDEZJOSEANGEL9951710799517107 5277 DOWNS WAY, NORCROSS GA 30093*NO DRIVERS LICENSE$705SBGwinnett County PoliceCharges
11/15/2014 23:1011/19/2014 14:26ARDON VALDEZJOSEANGEL9951710799517107 5277 DOWNS WAY, NORCROSS GA 30093* DUI-ALCOHOL$2006SBGwinnett County PoliceCharges
11/15/2014 23:1011/19/2014 14:26ARDON VALDEZJOSEANGEL9951710799517107 5277 DOWNS WAY, NORCROSS GA 30093HOLD FOR IMMIGRATION$0NBGwinnett County PoliceCharges
11/15/2014 23:0711/16/2014 11:36WILLIAMSANDY9951710699517106 559 GALLOWAY LANE, LAWRENCEVILLE GA 30045@ * BATTERY$1300SBGwinnett County PoliceCharges
11/15/2014 22:4011/16/2014 06:50ROOKSCASSANDRA9951710599517105 1517 TEAL DR, LAWRENCEVILLE GA 30043IMPROPER STOPPING$68SBGwinnett County PoliceCharges
11/15/2014 22:4011/16/2014 06:50ROOKSCASSANDRA9951710599517105 1517 TEAL DR, LAWRENCEVILLE GA 30043DUI-ALCOHOL$2006SBGwinnett County PoliceCharges
11/15/2014 22:1711/16/2014 12:49MASONRONALDMATHESON9951710499517104 701 DURHAM RUN CT, AUBURN GA 30011@ * SIMPLE BATTERY$1300SBGwinnett County PoliceCharges
11/15/2014 22:0611/16/2014 01:14MENDOZAULISESOSMAR9942975699429756 3993 SHADY CIRCLE DR NE, LILBURN GA 30047OBSCURING LICENSE PLATES W/PLASTIC$152CBGwinnett County PoliceCharges
11/15/2014 22:0611/16/2014 01:14MENDOZAULISESOSMAR9942975699429756 3993 SHADY CIRCLE DR NE, LILBURN GA 30047FAILURE TO APPEAR$361CBGwinnett County PoliceCharges
11/15/2014 21:49RICHARDSADRAINLAMAR9951710299517102 2089 IVEY CHASE DR, DACULA GA 30019*AGGRAVATED STALKING$0NBSuwanee PoliceCharges
11/15/2014 21:3211/17/2014 22:24BELINSKIVIATECHLAVAFANSIEH9951709399517093 385 ARNOLD RD, LAWRENCEVILLE GA 30044FOLLOWING TOO CLOSE$96ORGwinnett County PoliceCharges
11/15/2014 21:3211/17/2014 22:24BELINSKIVIATECHLAVAFANSIEH9951709399517093 385 ARNOLD RD, LAWRENCEVILLE GA 30044* DUI-ALCOHOL$2006ORGwinnett County PoliceCharges
11/15/2014 21:1111/16/2014 01:38NUNCIOSAMUELJESUS9929375199293751 632 TRACE LN, LAWRENCEVILLE GA 30046TAG LIGHT VISIBLE 50 FT.$68SBGwinnett County PoliceCharges
11/15/2014 21:1111/16/2014 01:38NUNCIOSAMUELJESUS9929375199293751 632 TRACE LN, LAWRENCEVILLE GA 30046* DRIVING WHILE LICENSE WITHDRAWN$705SBGwinnett County PoliceCharges
11/15/2014 21:0311/16/2014 01:31ALLENDANICAD9947984899479848 2940 WINDSONG PARK LN, DACULA GA 30019@ * BATTERY$1300SBGwinnett County PoliceCharges
11/15/2014 21:0111/16/2014 02:07COOPER-EASTERWOODMAGGIENICOLE9950877499508774 1990 OAK VILLAGE LANE, LAWRENCEVILLE GA 30043@ * THEFT BY SHOPLIFTING$2950SBLilburn PoliceCharges
11/15/2014 20:5511/17/2014 21:13THOMASTYKEVIA9951710199517101 4286 SHORSIDE CIR, SNELLVILLE GA 30039* DISORDERLY CONDUCT$1300SBGwinnett County PoliceCharges
11/15/2014 20:5511/17/2014 21:13THOMASTYKEVIA9951710199517101 4286 SHORSIDE CIR, SNELLVILLE GA 30039* OBSTRUCTION LAW ENFORCEMENT OFFICER$1300SBGwinnett County PoliceCharges
11/15/2014 20:5311/16/2014 19:35THOMASAYTRANIKIESHA9916012199160121 4286 SHORESIDE CIRCLE, SNELLVILLE GA 30039* OBSTRUCTION LAW ENFORCEMENT OFFICER$1300SBGwinnett County PoliceCharges
11/15/2014 20:5311/16/2014 19:35THOMASAYTRANIKIESHA9916012199160121 4286 SHORESIDE CIRCLE, SNELLVILLE GA 30039* DEPOSIT ACCOUNT FRAUD$1300SBGwinnett County PoliceCharges
11/15/2014 20:5311/16/2014 19:35THOMASAYTRANIKIESHA9916012199160121 4286 SHORESIDE CIRCLE, SNELLVILLE GA 30039FAILURE TO APPEAR$340FIGwinnett County PoliceCharges
11/15/2014 20:45CANADYJANEIL9951710099517100 906 HUNTER HILL RD, ROCKY MOUNT NC 27804* GIVING FALSE NAME OR INFORMATION$1300SBGwinnett County PoliceCharges
11/15/2014 20:45CANADYJANEIL9951710099517100 906 HUNTER HILL RD, ROCKY MOUNT NC 27804* CARRYING CONCEALED WEAPON$1300SBGwinnett County PoliceCharges
11/15/2014 20:45CANADYJANEIL9951710099517100 906 HUNTER HILL RD, ROCKY MOUNT NC 27804* POSS OF A WEAPON DURING A CRIME$0NBGwinnett County PoliceCharges
11/15/2014 20:45CANADYJANEIL9951710099517100 906 HUNTER HILL RD, ROCKY MOUNT NC 27804*VGCSA POSS OF MARIJUANA W/INTENT TO DIS$0NBGwinnett County PoliceCharges
11/15/2014 20:45CANADYJANEIL9951710099517100 906 HUNTER HILL RD, ROCKY MOUNT NC 27804@ * THEFT BY RECEIVING$0NBGwinnett County PoliceCharges
11/15/2014 20:45CANADYJANEIL9951710099517100 906 HUNTER HILL RD, ROCKY MOUNT NC 27804* VGCSA-SCHEDULE II$0NBGwinnett County PoliceCharges
11/15/2014 20:45CANADYJANEIL9951710099517100 906 HUNTER HILL RD, ROCKY MOUNT NC 27804*VGCSA POSS OF MARIJUANA W/INTENT TO DIS$0NBGwinnett County PoliceCharges
11/15/2014 20:4011/18/2014 17:32WALKERSEBASTIAN9928550799285507 522 SUMMIT LAKE DRIVE, STONE MOUNTAIN GA 30083Violation of Probation$0NBGwinnett County PoliceCharges
11/15/2014 20:3711/16/2014 15:16NIXDEREKKATRIEL9927944899279448 460 LAZY WILLOW LN, LAWRENCEVILLE GA 30044POSSESSION OF MARIJUANA <1 OZ.$654SBLawrenceville PoliceCharges
11/15/2014 20:3711/16/2014 15:16NIXDEREKKATRIEL9927944899279448 460 LAZY WILLOW LN, LAWRENCEVILLE GA 30044SPEEDING / 1ST OFFENSE / 19-23 OVER$250SBLawrenceville PoliceCharges
11/15/2014 20:3711/16/2014 15:16NIXDEREKKATRIEL9927944899279448 460 LAZY WILLOW LN, LAWRENCEVILLE GA 30044LITTERING HIGHWAY$213SBLawrenceville PoliceCharges
11/15/2014 20:3711/16/2014 15:16NIXDEREKKATRIEL9927944899279448 460 LAZY WILLOW LN, LAWRENCEVILLE GA 30044FAILURE TO YIELD EMER VEH$421SBLawrenceville PoliceCharges
11/15/2014 20:3711/16/2014 15:16NIXDEREKKATRIEL9927944899279448 460 LAZY WILLOW LN, LAWRENCEVILLE GA 30044OPEN CONTAINER VIOL(DRIVER ONLY)$333SBLawrenceville PoliceCharges
11/15/2014 20:3711/16/2014 15:16NIXDEREKKATRIEL9927944899279448 460 LAZY WILLOW LN, LAWRENCEVILLE GA 30044STOP,STAND,PROHIBITED PLACES$133SBLawrenceville PoliceCharges
11/15/2014 20:22FORDJORDANANTHONY9945168099451680 571 SIMONTON RIDGE TRL, LAWRENCEVILLE GA 30045HEADLIGHTS$1300SBGwinnett County PoliceCharges
11/15/2014 20:22FORDJORDANANTHONY9945168099451680 571 SIMONTON RIDGE TRL, LAWRENCEVILLE GA 30045* CARRYING CONCEALED WEAPON$1300SBGwinnett County PoliceCharges
11/15/2014 20:22FORDJORDANANTHONY9945168099451680 571 SIMONTON RIDGE TRL, LAWRENCEVILLE GA 30045*VGCSA POSS OF MARIJUANA W/INTENT TO DIS$0NBGwinnett County PoliceCharges
11/15/2014 20:22FORDJORDANANTHONY9945168099451680 571 SIMONTON RIDGE TRL, LAWRENCEVILLE GA 30045* POSS OF A WEAPON DURING A CRIME$0NBGwinnett County PoliceCharges
11/15/2014 20:22FORDJORDANANTHONY9945168099451680 571 SIMONTON RIDGE TRL, LAWRENCEVILLE GA 30045* VGCSA-SCHEDULE II$0NBGwinnett County PoliceCharges
11/15/2014 20:22FORDJORDANANTHONY9945168099451680 571 SIMONTON RIDGE TRL, LAWRENCEVILLE GA 30045@ * THEFT BY RECEIVING$0NBGwinnett County PoliceCharges
11/15/2014 20:22FORDJORDANANTHONY9945168099451680 571 SIMONTON RIDGE TRL, LAWRENCEVILLE GA 30045*VGCSA POSS OF MARIJUANA W/INTENT TO DIS$0NBGwinnett County PoliceCharges
11/15/2014 19:2111/16/2014 02:51REIDCORYORVILLE9951709599517095APT A 1035 EASTVIEW RD NE, CONYERS GA 30012@ * THEFT BY SHOPLIFTING$2400CBGwinnett County PoliceCharges
11/15/2014 18:5311/16/2014 00:39CASTILLO-BAUTISTAKARENJANNET9951709499517094 201 BAY CREEK CV, LOGANVILLE GA 30052HEADLIGHT REQUIREMENTS$117CBSnellville PoliceCharges
11/15/2014 18:5311/16/2014 00:39CASTILLO-BAUTISTAKARENJANNET9951709499517094 201 BAY CREEK CV, LOGANVILLE GA 30052*NO DRIVERS LICENSE$719CBSnellville PoliceCharges
11/15/2014 18:5311/16/2014 00:39CASTILLO-BAUTISTAKARENJANNET9951709499517094 201 BAY CREEK CV, LOGANVILLE GA 30052HOLD FOR IMMIGRATION$0NBSnellville PoliceCharges
11/15/2014 18:2411/15/2014 21:20RODRIQUEZOSCARALBERTO9951709299517092 3376 FAIRWAY OAKS DR, LAWRENCEVILLE GA 30044NEW RESIDENT - 30 DAYS TO OBTAIN LICENSE$803CBLawrenceville PoliceCharges
11/15/2014 17:2011/16/2014 14:31LOGGINSLAVONLEON9951709199517091 2138 BAYBERRY CT, DAWSONVILLE GA 30534*VGCSA POSS OF MARIJUANA W/INTENT TO DIS$5700SBGwinnett County Public Schools PoliceCharges
11/15/2014 17:1611/16/2014 03:08DOGGETTTERRENCEMONTREY9951709099517090 3469 JONATHAN CIR, AUGUSTA GA 30906POSSESSION OF MARIJUANA <1 OZ.$654SBGeorgia Gwinnett College PDCharges
11/15/2014 17:1611/16/2014 03:08DOGGETTTERRENCEMONTREY9951709099517090 3469 JONATHAN CIR, AUGUSTA GA 30906DISORDERLY CONDUCT$439SBGeorgia Gwinnett College PDCharges
11/15/2014 16:3111/16/2014 11:03BUSSEKIMBERLYLANE9951708999517089 17 TIMBERS WAY, SAVANNAH GA 31406* DEPOSIT ACCOUNT FRAUD$2950SBGwinnett County SheriffCharges
11/15/2014 16:3111/16/2014 11:03BUSSEKIMBERLYLANE9951708999517089 17 TIMBERS WAY, SAVANNAH GA 31406* DEPOSIT ACCOUNT FRAUD$2950SBGwinnett County SheriffCharges
11/15/2014 16:2511/26/2014 15:07HAZELJAMEELTERRY9938187499381874 297 FOREST PL, LAWRENCEVILLE GA 30046* AFFRAY$1300SBGwinnett County SheriffCharges
11/15/2014 16:2511/26/2014 15:07HAZELJAMEELTERRY9938187499381874 297 FOREST PL, LAWRENCEVILLE GA 30046* CRIMINAL DAMAGE TO PROPERTY-2ND DEGREE$0NBGwinnett County SheriffCharges
11/15/2014 16:2511/26/2014 15:07HAZELJAMEELTERRY9938187499381874 297 FOREST PL, LAWRENCEVILLE GA 30046* AFFRAY$650NBGwinnett County SheriffCharges
11/15/2014 16:2511/26/2014 15:07HAZELJAMEELTERRY9938187499381874 297 FOREST PL, LAWRENCEVILLE GA 30046* OBSTRUCTION LAW ENFORCEMENT OFFICER$1300SBGwinnett County SheriffCharges
11/15/2014 16:1111/15/2014 21:42WESTBROOKCHRISJOSEPH9951613999516139 2790 OAK MEADOW DR, SNELLVILLE GA 30078*DRIVING WHILE LIC.SUSP/REVOKED$803SBLawrenceville PoliceCharges
11/15/2014 16:0211/16/2014 01:34ALISAMIRAA9951708899517088 821 SUNFIELD DR, LILBURN GA 30047@ * THEFT BY SHOPLIFTING$1300SBGwinnett County PoliceCharges
11/15/2014 15:0911/15/2014 18:48WASHINGTONKEITAMONIQUE9951708799517087 2702 CARNOT CT, DULUTH GA 30097FAILURE TO APPEAR$180FINorcross PoliceCharges
11/15/2014 15:02SOTOJUAN9923820899414299 2783 ASHWORTH CIR, SNELLVILLE GA 30078* VIOLATION OF PROBATION$0NBPrisoner Transport ServicesCharges
11/15/2014 15:02SOTOJUAN9923820899414299 2783 ASHWORTH CIR, SNELLVILLE GA 30078HOLD FOR IMMIGRATION$0NBPrisoner Transport ServicesCharges
11/15/2014 14:0111/16/2014 11:13UAHUPIRAPIUAMANOVANDU9951708599517086 1559 STEWART RIDGE DR, BUFORD GA 30518* CRIMINAL DAMAGE TO PROPERTY-2ND DEGREE$2400SBGwinnett County PoliceCharges
11/15/2014 13:3711/26/2014 21:05BENNETTTIMOTHYDARRYL9927477699274776 3009 THOMPSON MILL RD, BUFORD GA 30519Violation of Probation$0NBGwinnett County SheriffCharges
11/15/2014 13:3711/26/2014 21:05BENNETTTIMOTHYDARRYL9927477699274776 3009 THOMPSON MILL RD, BUFORD GA 30519VIOLATION OF PROBATION$0NBGwinnett County SheriffCharges
11/15/2014 13:3711/26/2014 21:05BENNETTTIMOTHYDARRYL9927477699274776 3009 THOMPSON MILL RD, BUFORD GA 30519Violation of Probation$0CBGwinnett County SheriffCharges
11/15/2014 12:5911/15/2014 16:42MILLERCHRISTOPHERKENNETH9951708499517084 1935 ROCKSRAM DRIVE, BUFORD GA 30519@ * BATTERY$1300SBGwinnett County PoliceCharges
11/15/2014 12:4011/15/2014 15:38HALEMELANIEDENISE9951708399517083 4281 ASH TREE ST, SNELLVILLE GA 30039*SUSPENDED/REVOKED LIC$816SBSnellville PoliceCharges
11/15/2014 11:2411/20/2014 19:05SMALLMICHAELJAMES9949805999498059 734 JACKSONS MILLS WAY, LILBURN GA 30047@ * SIMPLE ASSAULT$1300SBGwinnett County PoliceCharges
11/15/2014 11:13CAMPANALEJACKLEONARD9946895599468955 712 JACKSON VIEW RD, SUWANEE GA 30024* VGCSA-SCHEDULE II$22200SBGwinnett County PoliceCharges
11/15/2014 11:0711/15/2014 16:09HOLMESTORREYSTEVEN9951708199517081 1979 KIMBERLY VILLAGE LANE APT I, MARIETTA GA 30067*DRIVING WHILE LICENSE SUSP/REVOKED$971.75SBDuluth PoliceCharges
11/15/2014 11:0311/19/2014 15:22LAMBWILLIAMOLIVER9925032999250329 29 NICHOLSON ST NE, WASHINGTON DC 20011Violation of Probation$0NBGwinnett County SheriffCharges
11/15/2014 11:0311/19/2014 15:22LAMBWILLIAMOLIVER9925032999250329 29 NICHOLSON ST NE, WASHINGTON DC 20011* VIOLATION OF PROBATION$0NBGwinnett County SheriffCharges
11/15/2014 11:0011/15/2014 16:42DIXONLAWRENCEEDWARD9941843399418433 3580 WESSEX CT, LAWRENCEVILLE GA 30044@ * THEFT BY CONVERSION$1300SBGwinnett County SheriffCharges
11/15/2014 10:5211/17/2014 21:48TOMLINSONPAULDESMOND9924662999246629 1055 LANCASHIRE CIRCLE APT A7, STONE MOUNTAIN GA 30083* VIOLATION OF EMPLOYMENT SECURITY LAW$11200SBGwinnett County SheriffCharges
11/15/2014 10:4911/18/2014 17:37MITCHELLLAQUANDESHONE9942446999424469 3598 VALLEY BROOK RD, SNELLVILLE GA 30039Violation of Probation$0NBGwinnett County SheriffCharges
11/15/2014 10:4311/20/2014 08:14REESELAWRENCEEARL9500269695002696 4342 WHEATON WAY, SNELLVILLE GA 30039HOLD FOR COURT$0NBGwinnett County SheriffCharges
11/15/2014 10:4311/20/2014 08:14REESELAWRENCEEARL9500269695002696 4342 WHEATON WAY, SNELLVILLE GA 30039FAILURE TO APPEAR$0NBGwinnett County SheriffCharges
11/15/2014 10:1011/15/2014 16:05BROTHERNSHARONDIANA9950523499505234 4370 LAWRENCEVILLE HWY NW UNIT 32, LILBURN GA 30047*DRIVING WHILE LIC.SUSP/REVOKED$803SBGeorgia Gwinnett College PDCharges
11/15/2014 10:1011/15/2014 16:05BROTHERNSHARONDIANA9950523499505234 4370 LAWRENCEVILLE HWY NW UNIT 32, LILBURN GA 30047ENTERING OR CROSSING ROADWAY$148SBGeorgia Gwinnett College PDCharges
11/15/2014 09:3711/15/2014 16:40GRAYPHILEMONONESIMUS9914136199141361 5607 EMERALD GLEN, STONE MOUNTAIN GA 30088SPEEDING$250SBGwinnett County PoliceCharges
11/15/2014 09:3711/15/2014 16:40GRAYPHILEMONONESIMUS9914136199141361 5607 EMERALD GLEN, STONE MOUNTAIN GA 30088* DRIVING WHILE LICENSE WITHDRAWN$705SBGwinnett County PoliceCharges
11/15/2014 08:39HEWITTCHRISTOPHERPATRICK9949315299493152 3629 TRADDSPRINGS WAY, SNELLVILLE GA 30039@ * ARSON 1ST DEGREE$0NBGwinnett County PoliceCharges
11/15/2014 07:3411/15/2014 15:01SMITHRHASAANAQUADIAH9951708099517080 2012 HAMORTON PL APT 14, CHARLOTTE NC 28205RECKLESS DRIVING$420SBGwinnett County PoliceCharges
11/15/2014 06:0711/15/2014 10:42ARELLANESALBERTOJOSE9901502299015024 497 EASTSIDE DR, DACULA GA 30019*NO DRIVERS LICENSE$705CBGwinnett County PoliceCharges
11/15/2014 05:3211/15/2014 11:35SOTUNBOLATIFATOLUTINUKE9951707999517079 4211 HILLINGTON DR NE, ATLANTA GA 30345* DUI-ALCOHOL$2006SBGwinnett County PoliceCharges
11/15/2014 05:3211/15/2014 11:35SOTUNBOLATIFATOLUTINUKE9951707999517079 4211 HILLINGTON DR NE, ATLANTA GA 30345FAILURE TO OBEY TRAFFIC DEVICE$56SBGwinnett County PoliceCharges
11/15/2014 05:1111/15/2014 16:24FULLERCLIFFORDLAMONT9939721399397227 4260 E MEADOW DR, DULUTH GA 30096* DUI-ALCOHOL$2006CBGwinnett County PoliceCharges
11/15/2014 05:1111/15/2014 16:24FULLERCLIFFORDLAMONT9939721399397227 4260 E MEADOW DR, DULUTH GA 30096DIS COND - URINATION IN PUBLIC$125CBGwinnett County PoliceCharges
11/15/2014 04:5411/21/2014 20:00BRACKETTTERRYRUSSELL9949259299492592 1154 ACADEMY LN, RUTHLEDGE GA 30603Failure to Appear$822.75CBSuwanee PoliceCharges
11/15/2014 04:4211/15/2014 17:02DAMIAN-JIMENEZELIZABETH9950361799503617 1701 WESLEY PLANTATION DR, DULUTH GA 30096SPEEDING 15-18 OVER$178.25CBDuluth PoliceCharges
11/15/2014 04:4211/15/2014 17:02DAMIAN-JIMENEZELIZABETH9950361799503617 1701 WESLEY PLANTATION DR, DULUTH GA 30096*LICENSE:DRIVING WHILE UNLIC. OR EXPIRED$731.25CBDuluth PoliceCharges
11/15/2014 04:3211/15/2014 11:46LEESEUNGYOUB9925491899254918 3298 CAMERON TRAIL, PEACHTREE CORNERS GA 30092* DUI-ALCOHOL$2006SBDuluth PoliceCharges
11/15/2014 04:1711/15/2014 05:54GASTONDEANNAGABRIELL9951707899517078 2485 WILD IRIS LANE, DACULA GA 30019FAILURE TO OBEY STOP SIGN$68CBGwinnett County PoliceCharges
11/15/2014 04:1711/15/2014 05:54GASTONDEANNAGABRIELL9951707899517078 2485 WILD IRIS LANE, DACULA GA 30019IMPROPER LEFT TURN$68CBGwinnett County PoliceCharges
11/15/2014 04:1711/15/2014 05:54GASTONDEANNAGABRIELL9951707899517078 2485 WILD IRIS LANE, DACULA GA 30019POSS OF ALCOHOL BY MINOR$190CBGwinnett County PoliceCharges
11/15/2014 04:1711/15/2014 05:54GASTONDEANNAGABRIELL9951707899517078 2485 WILD IRIS LANE, DACULA GA 30019POSSESSION OF LESS 1 OZ. MARIJUANA$585CBGwinnett County PoliceCharges
11/15/2014 04:1711/15/2014 05:54GASTONDEANNAGABRIELL9951707899517078 2485 WILD IRIS LANE, DACULA GA 30019CLASS D LIC PROVISION VIOL$147CBGwinnett County PoliceCharges
11/15/2014 04:1311/15/2014 16:37BETHAYJOSEPHCODY9951707799517077 759 ROLLINGWOOD DR, STONE MOUNTAIN GA 30087* DUI-UNDER THE AGE OF 21$2006SBGwinnett County PoliceCharges
11/15/2014 04:1311/15/2014 16:37BETHAYJOSEPHCODY9951707799517077 759 ROLLINGWOOD DR, STONE MOUNTAIN GA 30087* CRIMINAL TRESPASS$1300SBGwinnett County PoliceCharges
11/15/2014 04:1311/15/2014 16:37BETHAYJOSEPHCODY9951707799517077 759 ROLLINGWOOD DR, STONE MOUNTAIN GA 30087* CRIMINAL TRESPASS$1300SBGwinnett County PoliceCharges
11/15/2014 04:1311/15/2014 16:37BETHAYJOSEPHCODY9951707799517077 759 ROLLINGWOOD DR, STONE MOUNTAIN GA 30087* CRIMINAL TRESPASS$1300SBGwinnett County PoliceCharges
11/15/2014 04:0311/15/2014 14:33COLQUITTEVANCHARLES9940422499404224 3278 DRUMMOND DR, STONE MOUNTAIN GA 30087* DRIVING WHILE LIC SUSP/REVOKED$705SBGwinnett County PoliceCharges
11/15/2014 04:0311/15/2014 14:33COLQUITTEVANCHARLES9940422499404224 3278 DRUMMOND DR, STONE MOUNTAIN GA 30087POSS OF < 1 OZ OF MARIJ.$585SBGwinnett County PoliceCharges
11/15/2014 03:44BOYDJOSHUASTEPHEN9700118299443928 2311 KIMBERLY WAY, SNELLVILLE GA 30078* VGCSA-SCHEDULE I$0NBSnellville PoliceCharges
11/15/2014 02:1511/15/2014 05:39GEARINGAARONTHOMAS9951707699517076 6574 WELLINGTON CHASE CT, LITHONIA GA 30058POSS MARIJUANA < 1OZ$780SBLilburn PoliceCharges
11/15/2014 02:0011/20/2014 21:38WISEJARVISDENTON9950508599505085 1649 VAN EPPS ST SE, ATLANTA GA 30316*FAILURE TO APPEAR$1529CBDuluth PoliceCharges
11/15/2014 00:3811/15/2014 04:00HUANGYIKUN9950356499503564 2855 PINEHIGH CT, DULUTH GA 30096SUSP TAG$810CBNorcross PoliceCharges
11/15/2014 00:3811/15/2014 04:00HUANGYIKUN9950356499503564 2855 PINEHIGH CT, DULUTH GA 30096*DRIVING ON A SUSPENDED LICENSE$860CBNorcross PoliceCharges
11/15/2014 00:1811/18/2014 11:45CHAVES-GERERODONISIO9951707599517075 8444 ARBOUR RUN, LAWRENCEVILLE GA 30045*HIT AND RUN$420ORGwinnett County PoliceCharges
11/15/2014 00:1811/18/2014 11:45CHAVES-GERERODONISIO9951707599517075 8444 ARBOUR RUN, LAWRENCEVILLE GA 30045FAILURE TO YIELD$96ORGwinnett County PoliceCharges
11/15/2014 00:1811/18/2014 11:45CHAVES-GERERODONISIO9951707599517075 8444 ARBOUR RUN, LAWRENCEVILLE GA 30045HOLD FOR IMMIGRATION$0NBGwinnett County PoliceCharges
11/15/2014 00:1811/18/2014 11:45CHAVES-GERERODONISIO9951707599517075 8444 ARBOUR RUN, LAWRENCEVILLE GA 30045*NO DRIVERS LICENSE$705ORGwinnett County PoliceCharges
11/14/2014 23:5311/15/2014 03:54MARTINEZ-MARTINEZEMMACECILIA9951707499517074 1322 KINGS RIDGE DR, NORCROSS GA 30093*NO VALID LICENSE$860SBNorcross PoliceCharges
11/14/2014 23:5311/15/2014 03:54MARTINEZ-MARTINEZEMMACECILIA9951707499517074 1322 KINGS RIDGE DR, NORCROSS GA 30093OPERATING VEHICLE W/O DECAL ON LIC PLATE$210SBNorcross PoliceCharges
11/14/2014 22:4711/17/2014 17:30WILSONKEITHDAVID9949008099490080 2311 KIMBERLEY WAY, SNELLVILLE GA 30078FAILURE TO APPEAR$1200CBSnellville PoliceCharges
11/14/2014 22:4711/17/2014 17:30WILSONKEITHDAVID9949008099490080 2311 KIMBERLEY WAY, SNELLVILLE GA 30078HOLD FOR OTHER AGENCY$0NBSnellville PoliceCharges
11/14/2014 22:3211/15/2014 03:32HENDERSONJANAIKYANI9951707399517073 3108 HUNTER RIDGE LN, PEACHTREE CORNERS GA 30092Failure to Appear$760CBGwinnett County PoliceCharges
11/14/2014 22:0611/26/2014 01:02JOHNSONTILISHAL'JUANEA9951585199515851 187 MOURY AVE SW APT 1807, ATLANTA GA 30315@ * THEFT BY RECEIVING$1771.43SBGwinnett County PoliceCharges
11/14/2014 22:0611/26/2014 01:02JOHNSONTILISHAL'JUANEA9951585199515851 187 MOURY AVE SW APT 1807, ATLANTA GA 30315@ * THEFT BY RECEIVING$1771.43SBGwinnett County PoliceCharges
11/14/2014 22:0611/26/2014 01:02JOHNSONTILISHAL'JUANEA9951585199515851 187 MOURY AVE SW APT 1807, ATLANTA GA 30315@ * THEFT BY RECEIVING$1771.43SBGwinnett County PoliceCharges
11/14/2014 22:0611/26/2014 01:02JOHNSONTILISHAL'JUANEA9951585199515851 187 MOURY AVE SW APT 1807, ATLANTA GA 30315@ * THEFT BY RECEIVING$1771.43SBGwinnett County PoliceCharges
11/14/2014 22:0611/26/2014 01:02JOHNSONTILISHAL'JUANEA9951585199515851 187 MOURY AVE SW APT 1807, ATLANTA GA 30315@ * THEFT BY RECEIVING$1771.44SBGwinnett County PoliceCharges
11/14/2014 22:0611/26/2014 01:02JOHNSONTILISHAL'JUANEA9951585199515851 187 MOURY AVE SW APT 1807, ATLANTA GA 30315@ * THEFT BY RECEIVING$1771.43SBGwinnett County PoliceCharges
11/14/2014 22:0611/26/2014 01:02JOHNSONTILISHAL'JUANEA9951585199515851 187 MOURY AVE SW APT 1807, ATLANTA GA 30315@ * THEFT BY RECEIVING$1771.43SBGwinnett County PoliceCharges
11/14/2014 22:03OSAGIEROBINEREWELE9939180899391808 6425 MEADOW RUE DR, NORCROSS GA 30092@ * AGGRAVATED ASSAULT$0NBGwinnett County PoliceCharges
11/14/2014 22:0111/15/2014 02:33COSTAMICHAELANTHONY9951707299517072 1639 WILFORD DR, LAWRENCEVILLE GA 30043FAILURE TO APPEAR$252CBGwinnett County SheriffCharges
11/14/2014 21:5911/21/2014 15:17ROJAS-CHAVEZKARLIGENOVEVA9947742999477429 1591 OMIE WAY, LAWRENCEVILLE GA 30043Violation of Probation$0NBLawrenceville PoliceCharges
11/14/2014 21:4411/15/2014 10:46GRIFFETHSTACEYCHARLES9951707199517071 1372 OAK GROVE RD, ATHENS GA 30607HOLD FOR OTHER AGENCY$0NBBraselton PDCharges
11/14/2014 21:4111/26/2014 15:29SEVILLA-MUNGUIAELVINDE JESUS9951707099517070 1109 LIA HILLS DR, NORCROSS GA 30071@ * BATTERY$1300SBGwinnett County PoliceCharges
11/14/2014 21:4111/26/2014 15:29SEVILLA-MUNGUIAELVINDE JESUS9951707099517070 1109 LIA HILLS DR, NORCROSS GA 30071CRUELTY TO CHILDREN-3RD DEGREE$1300SBGwinnett County PoliceCharges
11/14/2014 21:4111/26/2014 15:29SEVILLA-MUNGUIAELVINDE JESUS9951707099517070 1109 LIA HILLS DR, NORCROSS GA 30071HOLD FOR IMMIGRATION$0NBGwinnett County PoliceCharges
11/14/2014 21:39GONZALEZ-HERNANDEZJULIO9930816199308166 1222 SPARROWS LANE, APT. 279, NORCROSS GA 30093* DUI-ALCOHOL$1300SBGwinnett County PoliceCharges
11/14/2014 21:39GONZALEZ-HERNANDEZJULIO9930816199308166 1222 SPARROWS LANE, APT. 279, NORCROSS GA 30093*NO DRIVERS LICENSE$705SBGwinnett County PoliceCharges
11/14/2014 21:39GONZALEZ-HERNANDEZJULIO9930816199308166 1222 SPARROWS LANE, APT. 279, NORCROSS GA 30093POSS OF OPEN ALCOHOL CONTAINER$299SBGwinnett County PoliceCharges
11/14/2014 21:39GONZALEZ-HERNANDEZJULIO9930816199308166 1222 SPARROWS LANE, APT. 279, NORCROSS GA 30093DRIVING WITHOUT HEADLIGHTS$68SBGwinnett County PoliceCharges
11/14/2014 21:39GONZALEZ-HERNANDEZJULIO9930816199308166 1222 SPARROWS LANE, APT. 279, NORCROSS GA 30093*POSS AND USE OF DRUG RELATED$1300SBGwinnett County PoliceCharges
11/14/2014 21:39GONZALEZ-HERNANDEZJULIO9930816199308166 1222 SPARROWS LANE, APT. 279, NORCROSS GA 30093HOLD FOR IMMIGRATION$0NBGwinnett County PoliceCharges
11/14/2014 21:39GONZALEZ-HERNANDEZJULIO9930816199308166 1222 SPARROWS LANE, APT. 279, NORCROSS GA 30093*VGCSA OF C/S$3500SBGwinnett County PoliceCharges
11/14/2014 21:3011/15/2014 11:48SANFORDBLAKEANTHONY9951706999517069 1865 HENDERSON WAY, LAWRENCEVILLE GA 30043EXPIRED OR NO LICENSE ON PERSON$393SBLawrenceville PoliceCharges
11/14/2014 21:3011/15/2014 11:48SANFORDBLAKEANTHONY9951706999517069 1865 HENDERSON WAY, LAWRENCEVILLE GA 30043DRIVING WRONG SIDE OF UNDIVIDED STREET$133SBLawrenceville PoliceCharges
11/14/2014 21:2611/15/2014 14:33SCIORTINORONALDEDWARD9947599499475994 6038 EAGLES REST TRAIL, SUGAR HILL GA 30518CONTEMPT OF COURT$2500FIGwinnett County SheriffCharges
11/14/2014 21:2111/15/2014 02:43LEONARDHOWARDLASHUN9951706899517068 6437 VALERIE BLF, LITHONIA GA 30058@ * BATTERY$2400SBGwinnett County SheriffCharges
11/14/2014 21:2111/15/2014 02:43LEONARDHOWARDLASHUN9951706899517068 6437 VALERIE BLF, LITHONIA GA 30058* CRIMINAL TRESPASS$2400SBGwinnett County SheriffCharges
11/14/2014 21:2111/15/2014 02:43LEONARDHOWARDLASHUN9951706899517068 6437 VALERIE BLF, LITHONIA GA 30058*STALKING$2400SBGwinnett County SheriffCharges
11/14/2014 21:0611/21/2014 16:08MUEHLHEASLERSHAUNDANEAL9913384099133840 2421 DOC HUGHES RD, BUFORD GA 30519* GIVING FALSE NAME OR INFORMATION$11200SBGwinnett County PoliceCharges
11/14/2014 21:0611/21/2014 16:08MUEHLHEASLERSHAUNDANEAL9913384099133840 2421 DOC HUGHES RD, BUFORD GA 30519* OBSTRUCTION LAW ENFORCEMENT OFFICER$11200SBGwinnett County PoliceCharges
11/14/2014 21:0611/21/2014 16:08MUEHLHEASLERSHAUNDANEAL9913384099133840 2421 DOC HUGHES RD, BUFORD GA 30519*FORGERY 4TH DEGREE$1300SBGwinnett County PoliceCharges
11/14/2014 20:5311/15/2014 13:36ROGERSDALTONSTEVEN9951706799517067 1896 ROUND RD, GRAYSON GA 30017*LESS THAN AN OZ OF MARIJ.$1300SBGwinnett County PoliceCharges
11/14/2014 20:5311/15/2014 13:36ROGERSDALTONSTEVEN9951706799517067 1896 ROUND RD, GRAYSON GA 30017*POSS AND USE OF DRUG RELATED$1300SBGwinnett County PoliceCharges
11/14/2014 20:4411/15/2014 03:49MCAFEELAURACHRISTINE9951706599517065 3612 TREYBYRNE CROSSING, DACULA GA 30019*DUI - ALCOHOL$2006SBGwinnett County PoliceCharges
11/14/2014 20:4411/15/2014 03:49MCAFEELAURACHRISTINE9951706599517065 3612 TREYBYRNE CROSSING, DACULA GA 30019* DUI-CHILD ENDANGERMENT$2006SBGwinnett County PoliceCharges
11/14/2014 20:3211/25/2014 21:47ALLENMELISSAANNE994671619946716112B 4457 TOWNSHIP DR, OAKWOOD GA 30568Violation of Probation$0NBGwinnett County SheriffCharges
11/14/2014 20:2711/23/2014 05:03TREJOALEJANDRO9950440799504407 387 KINGS HILL CT, LAWRENCEVILLE GA 30045POSS OF < 1 OZ OF MARIJ.$585ORGwinnett County SheriffCharges
11/14/2014 20:2711/23/2014 05:03TREJOALEJANDRO9950440799504407 387 KINGS HILL CT, LAWRENCEVILLE GA 30045FAILURE TO APPEAR$270CBGwinnett County SheriffCharges
11/14/2014 20:2711/23/2014 05:03TREJOALEJANDRO9950440799504407 387 KINGS HILL CT, LAWRENCEVILLE GA 30045FAILURE TO APPEAR$1004CBGwinnett County SheriffCharges
11/14/2014 20:2711/23/2014 05:03TREJOALEJANDRO9950440799504407 387 KINGS HILL CT, LAWRENCEVILLE GA 30045* DRIVING WHILE LIC SUSP/REVOKED$0NBGwinnett County SheriffCharges
11/14/2014 20:1811/02/2014 20:01NGUYENTHANHDUC9912266299122662 1876 GLENNS GREEN COURT, GRAYSON GA 30017@ * THEFT BY RECEIVING$0NBGwinnett County SheriffCharges
11/14/2014 20:1811/09/2014 20:06NGUYENTHANHDUC9912266299122662 1876 GLENNS GREEN COURT, GRAYSON GA 30017@ * THEFT BY RECEIVING$0NBGwinnett County SheriffCharges
11/14/2014 20:1811/23/2014 20:10NGUYENTHANHDUC9912266299122662 1876 GLENNS GREEN COURT, GRAYSON GA 30017@ * THEFT BY RECEIVING$0NBGwinnett County SheriffCharges
11/14/2014 20:1811/16/2014 20:04NGUYENTHANHDUC9912266299122662 1876 GLENNS GREEN COURT, GRAYSON GA 30017@ * THEFT BY RECEIVING$0NBGwinnett County SheriffCharges
11/14/2014 19:5111/15/2014 02:30ARMSTRONGALONZOJAMES9938230199382301 665 ASHLAND PARK WAY, LAWRENCEVILLE GA 30045Violation of Probation$651CBGwinnett County SheriffCharges
11/14/2014 19:2311/15/2014 01:29JAMESDERRICKCHRISTOPHER9951706499517064 5904 OAKBROOK LAKE CT, NORCROSS GA 30093EXPIRED TAG/OPER W/OUT PROPER TAG/DECAL$150CBNorcross PoliceCharges
11/14/2014 19:2311/15/2014 01:29JAMESDERRICKCHRISTOPHER9951706499517064 5904 OAKBROOK LAKE CT, NORCROSS GA 30093FAILURE TO APPEAR$115CBNorcross PoliceCharges
11/14/2014 18:5911/15/2014 20:21EMERYSHAWNDRALASHAE9943822299438222 7805 TREE HILLS PKWY, STONE MOUNTAIN GA 30088@ * THEFT BY SHOPLIFTING$5700SBGwinnett County PoliceCharges
11/14/2014 18:5811/14/2014 23:11LEVYGERESIATEUNTA9951706399517063 1618 PINDER POINT DR, LAWRENCEVILLE GA 30043* THEFT BY SHOPLIFTING$788CBLawrenceville PoliceCharges
11/14/2014 18:5511/17/2014 21:50HODGESRICHARD9937126499371264 5135 WEST MOUNTAIN ST APT B 10, STONE MOUNTAIN GA 30083VIOLATION OF PROBATION$0NBGwinnett County SheriffCharges
11/14/2014 18:54MCNEALFANTASIATEREON9951059899510598 6439 HAVEN RIDGE RD, RIVERDALE GA 30274@ * THEFT BY SHOPLIFTING$0NBGwinnett County SheriffCharges
11/14/2014 18:54MCNEALFANTASIATEREON9951059899510598 6439 HAVEN RIDGE RD, RIVERDALE GA 30274HOLD FOR OTHER AGENCY$0NBGwinnett County SheriffCharges
11/14/2014 18:5111/17/2014 18:44CASTREJONURBANOJUAREZ9950177099501770APT 1 2762 DREW VALLEY RD NE, ATLANTA GA 30319* DUI - DRUGS/ALCOHOL$0NBGwinnett County SheriffCharges
11/14/2014 18:4811/17/2014 18:47NELSONCOURTNEYALEXANDER9950371299503712APT 502 772 POINTE SOUTH PKWY, JONESBORO GA 30238VIOLATION OF PROBATION$0NBGwinnett County SheriffCharges
11/14/2014 18:4311/14/2014 23:04MCCORMICKGREGORYSTEPHEN9951706299517062 680 KIRKUS DR SE, CONYERS GA 30094SPEEDING$285SBGA State PatrolCharges
11/14/2014 18:4311/14/2014 23:04MCCORMICKGREGORYSTEPHEN9951706299517062 680 KIRKUS DR SE, CONYERS GA 30094* DRIVING WHILE LIC SUSP/REVOKED$705SBGA State PatrolCharges
11/14/2014 18:3311/16/2014 14:31WOHEELROLANDK9951706199517061 10104 MAGONLIA POINTE, DULUTH GA 30096*HIT & RUN-FAILURE TO STOP & RENDER AID$425ORGwinnett County PoliceCharges
11/14/2014 18:3311/16/2014 14:31WOHEELROLANDK9951706199517061 10104 MAGONLIA POINTE, DULUTH GA 30096* DUI-ALCOHOL$2006ORGwinnett County PoliceCharges
11/14/2014 18:3311/16/2014 14:31WOHEELROLANDK9951706199517061 10104 MAGONLIA POINTE, DULUTH GA 30096RECKLESS DRIVING$425ORGwinnett County PoliceCharges
11/14/2014 18:3311/16/2014 14:31WOHEELROLANDK9951706199517061 10104 MAGONLIA POINTE, DULUTH GA 30096STRIKING UNATTENDED VEHICLE$152ORGwinnett County PoliceCharges
11/14/2014 18:3311/16/2014 14:31WOHEELROLANDK9951706199517061 10104 MAGONLIA POINTE, DULUTH GA 30096STRIKING UNATTENDED VEHICLE$152ORGwinnett County PoliceCharges
11/14/2014 18:2511/14/2014 23:59POWELLWILLIAMTHOMAS9937586799375867 1838 DONNA CT, LAWRENCEVILLE GA 30043FAILURE TO MAINTAIN INSURANCE$299SBGwinnett County PoliceCharges
11/14/2014 18:2511/14/2014 23:59POWELLWILLIAMTHOMAS9937586799375867 1838 DONNA CT, LAWRENCEVILLE GA 30043POSSESSION OF LESS THAN OZ MARIJUANA$585SBGwinnett County PoliceCharges
11/14/2014 18:0611/15/2014 02:05PENNINGTONJAMESNAKIA9945369699453696 805 PLEASANT HILL RD APT 153, LILBURN GA 30047* DRIVING WHILE LIC SUSP/REVOKED$705SBGwinnett County SheriffCharges
11/14/2014 18:0611/15/2014 02:05PENNINGTONJAMESNAKIA9945369699453696 805 PLEASANT HILL RD APT 153, LILBURN GA 30047FAILURE TO APPEAR$305CBGwinnett County SheriffCharges
11/14/2014 18:0511/19/2014 05:10STEELEDAVIDALEX9949937099499370 6413 ABERCORN AVE, ATLANTA GA 30346* DUI - DRUGS/ALCOHOL$0NBGwinnett County SheriffCharges
11/14/2014 18:04EVERETTKAYLEEDAWN9943770099437700 2820 GRAVEL SPRINGS RD, BUFORD GA 30519OTHER OFFENSE$0NBGwinnett County SheriffCharges
11/14/2014 18:01GRAVESJASONBRIAN9913110699131106 5440 MOUNTAIN LAKE RD, GAINESVILLE GA 30506* VIOLATION OF PROBATION$0NBHall County SOCharges
11/14/2014 18:01GRAVESJASONBRIAN9913110699131106 5440 MOUNTAIN LAKE RD, GAINESVILLE GA 30506HOLD FOR OTHER AGENCY$0NBHall County SOCharges
11/14/2014 18:01GRAVESJASONBRIAN9913110699131106 5440 MOUNTAIN LAKE RD, GAINESVILLE GA 30506HOLD FOR OTHER AGENCY$0NBHall County SOCharges
11/14/2014 17:51MACKINSADRIANMARQUISE9949074099490740 2672 GREENVALLEY RD, SNELLVILLE GA 30078VIOLATION OF PROBATION$0NBSnellville PoliceCharges
11/14/2014 17:4111/14/2014 22:01CORONADO-MANDUJANOCARLOS9951706099517060 3692 WOODINGTON PL, LAWRENCEVILLE GA 30044SPEEDING$180CBGA State PatrolCharges
11/14/2014 17:4111/14/2014 22:01CORONADO-MANDUJANOCARLOS9951706099517060 3692 WOODINGTON PL, LAWRENCEVILLE GA 30044*NO DRIVERS LICENSE$705CBGA State PatrolCharges
11/14/2014 17:3911/15/2014 01:03ABD-MALAKMOHEB9951705999517059 962 CHANDLER RD, LAWRENCEVILLE GA 30045OPERATING VEH WITH SUSP/CANC/REV REGISTR$705CBGwinnett County SheriffCharges
11/14/2014 17:3911/15/2014 01:03ABD-MALAKMOHEB9951705999517059 962 CHANDLER RD, LAWRENCEVILLE GA 30045NO LICENSE PLATE$152CBGwinnett County SheriffCharges
11/14/2014 17:3911/15/2014 01:03ABD-MALAKMOHEB9951705999517059 962 CHANDLER RD, LAWRENCEVILLE GA 30045* USE OF LICENSE PLATE TO CONCEAL I.D.$705CBGwinnett County SheriffCharges
11/14/2014 17:2711/15/2014 01:13GRESHAMMATTHEWCOREY9922610399226103 230 PUGH ST, BUFORD GA 30518DISORDERLY CONDUCT$125CBGwinnett County PoliceCharges
11/14/2014 17:1911/25/2014 18:49JONESTOGARGENO9940434999404349 400 TARA OAKS CT, LAWRENCEVILLE GA 30043* FALSE IDENTIFICATION DOCUMENTS$1300CBSnellville PoliceCharges
11/14/2014 17:1911/25/2014 18:49JONESTOGARGENO9940434999404349 400 TARA OAKS CT, LAWRENCEVILLE GA 30043* DRIVING WHILE LIC SUSP/REVOKED$1300CBSnellville PoliceCharges
11/14/2014 17:18NAGBEALVINCURTIS9933314199333141 2190 HOLLYWOOD DR, LAWRENCEVILLE GA 30044* FALSE IDENTIFICATION DOCUMENTS$4325SBSnellville PoliceCharges
11/14/2014 17:18NAGBEALVINCURTIS9933314199333141 2190 HOLLYWOOD DR, LAWRENCEVILLE GA 30044* FORGERY-1ST DEGREE$4325SBSnellville PoliceCharges
11/14/2014 17:18NAGBEALVINCURTIS9933314199333141 2190 HOLLYWOOD DR, LAWRENCEVILLE GA 30044FAILURE TO APPEAR$288CBSnellville PoliceCharges
11/14/2014 17:1311/15/2014 14:01TURNERCHRISTOPHERKHORAN9950092999500929 233 SCARLET WAY, LAWRENCEVILLE GA 30046*NO DRIVERS LICENSE$0NBGwinnett County SheriffCharges
11/14/2014 17:1311/15/2014 14:01TURNERCHRISTOPHERKHORAN9950092999500929 233 SCARLET WAY, LAWRENCEVILLE GA 30046Violation of Probation$453FIGwinnett County SheriffCharges
11/14/2014 17:0411/15/2014 02:12HONGHANGSUSAN9951705599517055 2197 POLESDEAN LN, DULUTH GA 30097@ * THEFT BY SHOPLIFTING$2950CBGwinnett County PoliceCharges
11/14/2014 16:5611/14/2014 21:23JACKSONHAMILTONVINSON9951705499517054 4323 DEERBROOK WAY, LILBURN GA 30047* DISORDERLY CONDUCT$1300CBGwinnett County SheriffCharges
11/14/2014 16:40BLACKMARCANTHONY9106014299038230 784 BOSS HARDY RD, WINDER GA 30680@ * THEFT BY RECEIVING$0NBGwinnett County PoliceCharges
11/14/2014 16:40BLACKMARCANTHONY9106014299038230 784 BOSS HARDY RD, WINDER GA 30680@ * THEFT BY RECEIVING$0NBGwinnett County PoliceCharges
11/14/2014 16:40BLACKMARCANTHONY9106014299038230 784 BOSS HARDY RD, WINDER GA 30680*POSS OF VEH OR PART W/ID # REMOVED$0NBGwinnett County PoliceCharges
11/14/2014 16:0811/15/2014 01:26JOHNSONCLIFFORD9951081999510819 2245 SEASONS PKWY, NORCROSS GA 30093* DRIVING WHILE LIC SUSP/REVOKED$705SBGA Dept. of Motor Vehicle SafetyCharges
11/14/2014 16:0811/15/2014 01:26JOHNSONCLIFFORD9951081999510819 2245 SEASONS PKWY, NORCROSS GA 30093IMPROPER LANE USAGE$96SBGA Dept. of Motor Vehicle SafetyCharges
11/14/2014 16:0811/15/2014 01:26JOHNSONCLIFFORD9951081999510819 2245 SEASONS PKWY, NORCROSS GA 30093IMPROPER/ERRATIC LANE CHANGE$68SBGA Dept. of Motor Vehicle SafetyCharges
11/14/2014 15:5811/14/2014 19:50HAYESKIYASHAMILLE9948401899484018 505 SUMMIT NORTH DRIVE, ATLANTA GA 30324* DRIVING WHILE LIC SUSP/REVOKED$705SBGwinnett County PoliceCharges
11/14/2014 15:5811/14/2014 19:50HAYESKIYASHAMILLE9948401899484018 505 SUMMIT NORTH DRIVE, ATLANTA GA 30324SPEEDING$180SBGwinnett County PoliceCharges
11/14/2014 15:4711/24/2014 17:21HICKSBRIANESTEE9950547599505475 335 LEE BIRD ROAD, LOGANVILLE GA 30052Violation of Probation$0NBGwinnett County SheriffCharges
11/14/2014 15:1711/22/2014 01:53MORENOUERNIHUMBERTO9945280299452802 1185 WOODINGTON CIR, LAWRENCEVILLE GA 30044*OBSTRUCTION OF OFFICER$11200SBGwinnett County PoliceCharges
11/14/2014 15:1711/22/2014 01:53MORENOUERNIHUMBERTO9945280299452802 1185 WOODINGTON CIR, LAWRENCEVILLE GA 30044* OBSTRUCTION LAW ENFORCEMENT OFFICER$1300SBGwinnett County PoliceCharges
11/14/2014 15:1711/22/2014 01:53MORENOUERNIHUMBERTO9945280299452802 1185 WOODINGTON CIR, LAWRENCEVILLE GA 30044STRIKING UNATTENDED VEHICLE$152SBGwinnett County PoliceCharges
11/14/2014 15:1711/22/2014 01:53MORENOUERNIHUMBERTO9945280299452802 1185 WOODINGTON CIR, LAWRENCEVILLE GA 30044IMPROPER BACKING$96SBGwinnett County PoliceCharges
11/14/2014 15:1411/15/2014 18:56LUCUONGVINH9951705399517053 4239 WINTERGREEN CT, GAINESVILLE GA 30507*FLEEING OR ATTEMPTING TO ELUDE$603SBLawrenceville PoliceCharges
11/14/2014 15:1411/15/2014 18:56LUCUONGVINH9951705399517053 4239 WINTERGREEN CT, GAINESVILLE GA 30507* DUI ALCOHOL$1230SBLawrenceville PoliceCharges
11/14/2014 15:1411/15/2014 18:56LUCUONGVINH9951705399517053 4239 WINTERGREEN CT, GAINESVILLE GA 30507EXPIRED OR NO LICENSE ON PERSON$393SBLawrenceville PoliceCharges
11/14/2014 15:1411/15/2014 18:56LUCUONGVINH9951705399517053 4239 WINTERGREEN CT, GAINESVILLE GA 30507OPERATING VEHICLE WHILE TEXT MESSAGING$2400SBLawrenceville PoliceCharges
11/14/2014 15:1411/15/2014 18:56LUCUONGVINH9951705399517053 4239 WINTERGREEN CT, GAINESVILLE GA 30507RECKLESS DRIVING$710SBLawrenceville PoliceCharges
11/14/2014 15:1411/15/2014 18:56LUCUONGVINH9951705399517053 4239 WINTERGREEN CT, GAINESVILLE GA 30507* FLEEING OR ATTEMPTING TO ELUDE$2400SBLawrenceville PoliceCharges
11/14/2014 15:1411/15/2014 18:56LUCUONGVINH9951705399517053 4239 WINTERGREEN CT, GAINESVILLE GA 30507M/V WRONG SIDE OF ROAD$2400SBLawrenceville PoliceCharges
11/14/2014 15:1411/15/2014 18:56LUCUONGVINH9951705399517053 4239 WINTERGREEN CT, GAINESVILLE GA 30507FAILURE TO KEEP IN PROPER LANE$2400SBLawrenceville PoliceCharges
11/14/2014 15:1411/15/2014 18:56LUCUONGVINH9951705399517053 4239 WINTERGREEN CT, GAINESVILLE GA 30507RECKLESS DRIVING$2400SBLawrenceville PoliceCharges
11/14/2014 14:5711/21/2014 14:56HENRYANTHONYLAMAR9950629899506304 1054 PARK FOREST DR, LILBURN GA 30047Violation of Probation$0NBGwinnett County SheriffCharges
11/14/2014 14:3711/14/2014 22:17LAMARTAURIUSMONDEZ9939882499398824 4491 MORNING LANE, SNELLVILLE GA 30039@ * THEFT BY TAKING$2400SBDuluth PoliceCharges
11/14/2014 14:3711/14/2014 22:17LAMARTAURIUSMONDEZ9939882499398824 4491 MORNING LANE, SNELLVILLE GA 30039MATERIALS ON WINDSHIELD/LIGHT$2400SBDuluth PoliceCharges
11/14/2014 14:3511/17/2014 15:36ADKINSDOUGLASRAYMOUND9949631999496319 270 CHEROKEE TRL, HOSCHTON GA 30548* DUI - DRUGS/ALCOHOL$0NBGwinnett County SheriffCharges
11/14/2014 14:34SALINASKEVIN9944614599446145 177 ASHLAND PARK CT, LAWRENCEVILLE GA 30045FAILURE TO APPEAR$0NBGwinnett County SheriffCharges
11/14/2014 14:3211/21/2014 20:11BLOOMCIMBERLIEJAN9948883199488831 1909 WILSON WYND WAY, LAWRENCEVILLE GA 30043OTHER OFFENSE$0NBGwinnett County SheriffCharges
11/14/2014 14:2911/15/2014 18:40VIRGEN-LOPEZCHRISTIANADALBERTO9947424099502246 2410 LOFTON COURT, LAWRENCEVILLE GA 30044OTHER OFFENSE$0NBGwinnett County SheriffCharges
11/14/2014 14:2911/15/2014 18:40VIRGEN-LOPEZCHRISTIANADALBERTO9947424099502246 2410 LOFTON COURT, LAWRENCEVILLE GA 30044TAG LIGHT VISIBLE 50 FT.$1300SBGwinnett County SheriffCharges
11/14/2014 14:2911/15/2014 18:40VIRGEN-LOPEZCHRISTIANADALBERTO9947424099502246 2410 LOFTON COURT, LAWRENCEVILLE GA 30044FAILURE TO MAINTAIN INSURANCE$1300SBGwinnett County SheriffCharges
11/14/2014 14:2911/15/2014 18:40VIRGEN-LOPEZCHRISTIANADALBERTO9947424099502246 2410 LOFTON COURT, LAWRENCEVILLE GA 30044* DRIVING WHILE LICENSE WITHDRAWN$1300SBGwinnett County SheriffCharges
11/14/2014 14:2711/14/2014 22:15BAILEYDEANDREMARTEZ9951705299517052 3725 OAKWOOD MANOR, DECATUR GA 30032VGCSA < 1 OZ REPORTED$680SBNorcross PoliceCharges
11/14/2014 14:21SEAYTIMOTHYRAYNARD9936001399360013 1015 PAPER MILL RD, LAWRENCEVILLE GA 30046TOO FAST FOR CONDITIONS$116.5ORSnellville PoliceCharges
11/14/2014 14:21SEAYTIMOTHYRAYNARD9936001399360013 1015 PAPER MILL RD, LAWRENCEVILLE GA 30046Violation of Probation$1299CBSnellville PoliceCharges
11/14/2014 14:21SEAYTIMOTHYRAYNARD9936001399360013 1015 PAPER MILL RD, LAWRENCEVILLE GA 30046Violation of Probation$1299CBSnellville PoliceCharges
11/14/2014 14:1111/14/2014 22:37HUTCHINSTERRANCELOUIS9951705199517051 2035 FENCE RD, DACULA GA 30019*FORGERY 3RD DEGREE$5700SBGwinnett County PoliceCharges
11/14/2014 14:1111/14/2014 22:37HUTCHINSTERRANCELOUIS9951705199517051 2035 FENCE RD, DACULA GA 30019*FORGERY 3RD DEGREE$5700SBGwinnett County PoliceCharges
11/14/2014 14:1111/14/2014 22:37HUTCHINSTERRANCELOUIS9951705199517051 2035 FENCE RD, DACULA GA 30019* FALSE REPORT OF A CRIME$5700SBGwinnett County PoliceCharges
11/14/2014 14:0811/14/2014 23:00LEMOUPA-FOKOUMICHELARNEAU99517050995170503805 64TH AVE APT 1 , HYATTSVILLE MD 20784*DRIVING WHILE LICENSE SUSP/REVOKED$971.75SBDuluth PoliceCharges
11/14/2014 14:0811/14/2014 23:00LEMOUPA-FOKOUMICHELARNEAU99517050995170503805 64TH AVE APT 1 , HYATTSVILLE MD 20784SPEEDING 15-18 OVER$178.25SBDuluth PoliceCharges
11/14/2014 14:0011/16/2014 15:11WATKINSASHLEYLENDORA9951704999517049 235 MARLBOROUGH DOWNS RD, BOGART GA 30606DRIVING WITH SUSPENDED TAG$0NBGwinnett County SheriffCharges
11/14/2014 13:5611/14/2014 21:15LEONDARRIANBROOKE9951704899517048 3694 REGENCEY PARK DR, DULUTH GA 30096*DRIVING WHILE LICENSE SUSP/REVOKED$971.75SBDuluth PoliceCharges
11/14/2014 13:3611/15/2014 09:00JORDANERNESTTERELL9951704799517047 3750 SATELLITE BLVD APT 226, DULUTH GA 30096SPEEDING$0NBGwinnett County SheriffCharges
11/14/2014 13:3111/16/2014 12:56IRBYTONYTYRONE9950031399500313 2220 EXECUTIVE DR, DULUTH GA 30096* DRIVING WHILE LIC SUSP/REVOKED$0NBGwinnett County SheriffCharges
11/14/2014 13:1711/14/2014 21:09RIVERABRITTANYCELESTE9951704699517046 6067 BUFORD HWY APT 330, NORCROSS GA 30071FAILURE TO APPEAR$119CBNorcross PoliceCharges
11/14/2014 12:5911/18/2014 11:45ALVAREZ-SANCHEZJUANANTONIO9951704599517045 5144 SINGLETON RD APT B, NORCROSS GA 30093FOLLOWING TOO CLOSE$310SBNorcross PoliceCharges
11/14/2014 12:5911/18/2014 11:45ALVAREZ-SANCHEZJUANANTONIO9951704599517045 5144 SINGLETON RD APT B, NORCROSS GA 30093*NO VALID LICENSE$860SBNorcross PoliceCharges
11/14/2014 12:5911/18/2014 11:45ALVAREZ-SANCHEZJUANANTONIO9951704599517045 5144 SINGLETON RD APT B, NORCROSS GA 30093HOLD FOR IMMIGRATION$0NBNorcross PoliceCharges
11/14/2014 12:56CLOUSEJOHNDYLAN9946785699467856 2716 BAILEY WATERS RD, DAWSONVILLE GA 30534* VIOLATION OF PROBATION$0NBDOCCharges
11/14/2014 12:42DRAKEELIJAHRASHAAN9950587899505878 1386 BLUE SAIL AVE, GRAYSON GA 30017VIOLATION OF PROBATION$0NBSnellville PoliceCharges
11/14/2014 12:3211/16/2014 11:52NIXONSHAWNMAURICE9936134899492444 802 TULIP POPLAR WAY, LAWRENCEVILLE GA 30044FAILURE TO MAINTAIN INSURANCE$299ORGwinnett County PoliceCharges
11/14/2014 12:3211/16/2014 11:52NIXONSHAWNMAURICE9936134899492444 802 TULIP POPLAR WAY, LAWRENCEVILLE GA 30044* DRIVING WHILE LICENSE WITHDRAWN$705ORGwinnett County PoliceCharges
11/14/2014 12:2911/17/2014 13:58ROMEROBRYANEDWARDO9924749999247499 1031 HEATHERWOOD CT, NORCROSS GA 30093SPEEDING 15-18 OVER$178.25CBDuluth PoliceCharges
11/14/2014 12:2911/17/2014 13:58ROMEROBRYANEDWARDO9924749999247499 1031 HEATHERWOOD CT, NORCROSS GA 30093DRIVING WHILE UNLICENSED OR EXPIRED$732CBDuluth PoliceCharges
11/14/2014 12:2911/17/2014 13:58ROMEROBRYANEDWARDO9924749999247499 1031 HEATHERWOOD CT, NORCROSS GA 30093HOLD FOR IMMIGRATION$0NBDuluth PoliceCharges
11/14/2014 12:1711/14/2014 15:15MILLENDERTELACYJERMAINE9951704499517044 6504 RAINBOW AVE, PENSACOLA FL 32505* DRIVING WHILE LIC SUSP/REVOKED$0NBGwinnett County SheriffCharges
11/14/2014 12:1311/14/2014 17:05ALKOPTANOMARZIAD9948573899485738 1184 CIMARRON COURT, CLARKSTON GA 30021NO LICENSE PLATE$152SBGwinnett County PoliceCharges
11/14/2014 12:1311/14/2014 17:05ALKOPTANOMARZIAD9948573899485738 1184 CIMARRON COURT, CLARKSTON GA 30021* DRIVING WHILE LICENSE WITHDRAWN$705SBGwinnett County PoliceCharges
11/14/2014 11:55DEBOEMARILYNLAKEISHIA9950174199501741 7980 E FIELD DR, DOUGLASVILLE GA 30134* VIOLATION OF PROBATION$0NBGwinnett County SheriffCharges
11/14/2014 11:4111/14/2014 19:56SUPPEYHENRY9951704399517043 764 LOBDALE FALLS DR, LAWRENCEVILLE GA 30045*FORGERY 3RD DEGREE$5700SBGwinnett County PoliceCharges
11/14/2014 11:3211/14/2014 16:05JOHNSONDARRELL9951704299517042 3550 PLEASANT HILL RD APT 811, DULUTH GA 30096Failure to Appear$150CBDuluth PoliceCharges
11/14/2014 10:2811/16/2014 16:19GREENHARVEYBENJAMIN9951703799517037 2415 PARK HILL DR, PITTSBURGH PA 15221* GIVING FALSE NAME OR INFORMATION$2400SBGwinnett County PoliceCharges
11/14/2014 09:5211/16/2014 12:05BROOKSTIMOTHY9938505099385050 1951 HUNTCLIFF DR, LAWRENCEVILLE GA 30043HOLD FOR OTHER AGENCY$0NBGA State PatrolCharges
11/14/2014 09:5211/16/2014 12:05BROOKSTIMOTHY9938505099385050 1951 HUNTCLIFF DR, LAWRENCEVILLE GA 30043FAILURE TO OBEY SIGNS OR CONTROL DEVICES$68ORGA State PatrolCharges
11/14/2014 09:4311/14/2014 21:45ALVAREZ-LOPEZFREDY9931505599517041 2110 GOLDEN VALLEY DR, LAWRENCEVILLE GA 30043FAILURE TO APPEAR$1035CBLilburn PoliceCharges
11/14/2014 09:3411/14/2014 16:03HINKSONCAVORJOSEPH9951703699517036 2150 POTOMAC PL, LAWRENCEVILLE GA 30043SPEEDING$215SBGwinnett County PoliceCharges
11/14/2014 09:3411/14/2014 16:03HINKSONCAVORJOSEPH9951703699517036 2150 POTOMAC PL, LAWRENCEVILLE GA 30043POSS OF < 1 OZ OF MARIJ.$585SBGwinnett County PoliceCharges
11/14/2014 09:2811/14/2014 10:31PATRICKTAYLORANDREW9951703599517035APT A4 2075 PINE TREE DR, BUFORD GA 30518@ * THEFT BY SHOPLIFTING$0NBGwinnett County SheriffCharges
11/14/2014 09:2711/14/2014 10:24LABRECDENVERJAMIN9951703499517034 5321 BIRCHLAND CT, BUFORD GA 30518@ * THEFT BY SHOPLIFTING$0NBGwinnett County SheriffCharges
11/14/2014 09:16GONZALEZROCAELPEREZ9951703399517033 6192 SUSAN LN, DORAVILLE GA 30340@ * SIMPLE BATTERY$2400SBGwinnett County SheriffCharges
11/14/2014 09:16GONZALEZROCAELPEREZ9951703399517033 6192 SUSAN LN, DORAVILLE GA 30340HOLD FOR IMMIGRATION$0NBGwinnett County SheriffCharges
11/14/2014 08:5911/19/2014 15:58KOBRESTHOMASSCOTT9106177891061778 1272 HARMONY GROVE CHURCH RD, AUBURN GA 30011Failure to Appear$1395CBGwinnett County SheriffCharges
11/14/2014 08:5911/19/2014 15:58KOBRESTHOMASSCOTT9106177891061778 1272 HARMONY GROVE CHURCH RD, AUBURN GA 30011HOLD FOR OTHER AGENCY$0NBGwinnett County SheriffCharges
11/14/2014 08:2011/14/2014 11:16NARSINDHANIAMIN9951703299517032 5129 THURMAN CT, LILBURN GA 30058HOLD FOR OTHER AGENCY$0NBGwinnett County PoliceCharges
11/14/2014 07:37BRYANTSTACEYBERNARD9951703199517031 3163 DOVE CT, SNELLVILLE GA 30078*VGCSA OF C/S$5700SBSnellville PoliceCharges
11/14/2014 07:37BRYANTSTACEYBERNARD9951703199517031 3163 DOVE CT, SNELLVILLE GA 30078* POSS TOOL FOR COMMISION OF A CRIME$5700SBSnellville PoliceCharges
11/14/2014 07:37BRYANTSTACEYBERNARD9951703199517031 3163 DOVE CT, SNELLVILLE GA 30078DRINKING ALCHOL IN PUBLIC$208SBSnellville PoliceCharges
11/14/2014 07:37BRYANTSTACEYBERNARD9951703199517031 3163 DOVE CT, SNELLVILLE GA 30078LOITERING OR PROWLING$5700SBSnellville PoliceCharges
11/14/2014 07:3211/14/2014 12:45JARAMILLO-GONZALEZADRIAN9951703099517030 609 CLUB LAKES PKWY, LAWRENCEVILLE GA 30044FOLLOWING TOO CLOSE$96CBGwinnett County PoliceCharges
11/14/2014 07:3211/14/2014 12:45JARAMILLO-GONZALEZADRIAN9951703099517030 609 CLUB LAKES PKWY, LAWRENCEVILLE GA 30044*DRIVING W/O LICENSE-FAIL OBTAIN 30 DAYS$705CBGwinnett County PoliceCharges
11/14/2014 05:2311/14/2014 21:21ARMOURDEAUNTEJARROD9951702799517027APT C7 100 CASTOR DR, NORCROSS GA 30071HOLD FOR OTHER AGENCY$0NBGwinnett County PoliceCharges
11/14/2014 05:2311/14/2014 21:21ARMOURDEAUNTEJARROD9951702799517027APT C7 100 CASTOR DR, NORCROSS GA 30071* OBSTRUCTION LAW ENFORCEMENT OFFICER$2950SBGwinnett County PoliceCharges
11/14/2014 05:1111/16/2014 05:15AHMADRASHEDDAHISH9951702699517026 2118 SE 1ST TER, CAPE CORAL FL 33990SPEEDING$215ORGA State PatrolCharges
11/14/2014 05:1111/16/2014 05:15AHMADRASHEDDAHISH9951702699517026 2118 SE 1ST TER, CAPE CORAL FL 33990IMPROPER LANE CHANGE$68ORGA State PatrolCharges
11/14/2014 05:1111/16/2014 05:15AHMADRASHEDDAHISH9951702699517026 2118 SE 1ST TER, CAPE CORAL FL 33990* DUI-ALCOHOL$2006ORGA State PatrolCharges
11/14/2014 04:1811/14/2014 21:14COONBRITTANYLEANN9951208399512083 2383 KIRKSTONE CT, BUFORD GA 30519@ * BATTERY$1300SBGwinnett County PoliceCharges
11/14/2014 03:5111/16/2014 00:36RAMIREZJENNIFERLEE9951702599517025APT A 8828 BISON CLUB DR, INDIANAPOLIS IN 46227* DRIVING WHILE LIC SUSP/REVOKED$705ORGwinnett County PoliceCharges
11/14/2014 03:5111/16/2014 00:36RAMIREZJENNIFERLEE9951702599517025APT A 8828 BISON CLUB DR, INDIANAPOLIS IN 46227* DUI - DRUGS/ALCOHOL$2006ORGwinnett County PoliceCharges
11/14/2014 03:2911/14/2014 06:09WAGESRONALDFRANKLIN9951702499517024 1767 OLD CONYERS RD, STOCKBRIDGE GA 30281HOLD FOR OTHER AGENCY$0NBGwinnett County PoliceCharges
11/14/2014 03:2911/14/2014 06:09WAGESRONALDFRANKLIN9951702499517024 1767 OLD CONYERS RD, STOCKBRIDGE GA 30281HOLD FOR OTHER AGENCY$0NBGwinnett County PoliceCharges
11/14/2014 02:2311/17/2014 17:10OLIVERTHOMASCHRISTOPHER9947947799479477 3424 DUNBAR LN, SUWANEE GA 30024FAILURE TO APPEAR$1256CBGwinnett County PoliceCharges
11/14/2014 02:1211/14/2014 05:25WHITMORERICHARDDALE9951702299517022 1072 ADAH LN, LAWRENCEVILLE GA 30043* DUI-ALCOHOL$2006SBGwinnett County PoliceCharges
11/14/2014 02:0711/16/2014 22:00IYASUSIRAKSEHAYE9949139699491396 3615 GRAHAMS PORT DR, SNELLVILLE GA 30039DRIVING WITHOUT HEADLIGHTS$650SBGeorgia Gwinnett College PDCharges
11/14/2014 02:0711/16/2014 22:00IYASUSIRAKSEHAYE9949139699491396 3615 GRAHAMS PORT DR, SNELLVILLE GA 30039*MAUFACTUR/POSS/PURCH/DIST/SALE MARIJUAN$5700SBGeorgia Gwinnett College PDCharges
11/14/2014 01:5811/14/2014 03:36PRIESTERGUYPHARR9951702199517021 2000 MILFIELD CIR, SNELLVILLE GA 30078FAILURE TO APPEAR$315CBGwinnett County SheriffCharges
11/14/2014 01:3711/14/2014 12:05JOHNSONNANDAARAN9951702099517020 4514 OLD LAKE DR, DECATUR GA 30034HOLD FOR OTHER AGENCY$0NBGwinnett County PoliceCharges
11/14/2014 01:2111/14/2014 10:51KIMJIKYUNG9946629299466292 1412 14TH STREET, FORT LEE NJ 07024*DUI-ALCOHOL LESS SAFE$1623CBDuluth PoliceCharges
11/14/2014 01:2111/14/2014 10:51KIMJIKYUNG9946629299466292 1412 14TH STREET, FORT LEE NJ 07024FAILURE TO MAINTAIN LANE$129.25CBDuluth PoliceCharges
11/14/2014 01:1011/14/2014 16:39OPONG-WIREDUNYKEMAKOREN9951701999517019 454 NORTH PENNSILVANIA AVE, SCRANTON PA 18705* DRIVING WHILE LICENSE WITHDRAWN$705SBGwinnett County PoliceCharges
11/14/2014 01:0411/14/2014 14:12JACKSONSTEPHANIEELAINE9951701899517018 2305 TREE SUMMIT PKWY, DULUTH GA 30096NO PROOF OF INSURANCE-MOTORCYCLE$299SBGwinnett County PoliceCharges
11/14/2014 01:0411/14/2014 14:12JACKSONSTEPHANIEELAINE9951701899517018 2305 TREE SUMMIT PKWY, DULUTH GA 30096* DUI-ALCOHOL$2006SBGwinnett County PoliceCharges
11/14/2014 01:0411/14/2014 14:12JACKSONSTEPHANIEELAINE9951701899517018 2305 TREE SUMMIT PKWY, DULUTH GA 30096OPERATING VEH WITH SUSP/CANC/REV REGISTR$705SBGwinnett County PoliceCharges
11/14/2014 01:0411/14/2014 14:12JACKSONSTEPHANIEELAINE9951701899517018 2305 TREE SUMMIT PKWY, DULUTH GA 30096OPEN CONTAINER LAW$299SBGwinnett County PoliceCharges
11/14/2014 00:58CONDELLOALANPAUL9918922299189222 4392 CEDAR POINT DRIVE, SNELLVILLE GA 30039*LIGHT REDUCING MAT.AFFIXED TO WINDOW$117ORSnellville PoliceCharges
11/14/2014 00:58CONDELLOALANPAUL9918922299189222 4392 CEDAR POINT DRIVE, SNELLVILLE GA 30039* VIOLATION OF PROBATION$0NBSnellville PoliceCharges
11/14/2014 00:50GRIERRICKYJAVON9951701799517017 851 SIMS AVE, SAINT PAUL MN 55106@ * BATTERY$2950SBGwinnett County PoliceCharges
11/14/2014 00:50GRIERRICKYJAVON9951701799517017 851 SIMS AVE, SAINT PAUL MN 55106@ * BATTERY$2950SBGwinnett County PoliceCharges
11/14/2014 00:4711/14/2014 09:32MARTINEZ HERNANDEZNANCYYAMILLETH9951701699517016 1006 HUNTERS CLUB LN, NORCROSS GA 30093HOLD FOR OTHER AGENCY$0NBGwinnett County PoliceCharges
11/14/2014 00:2111/14/2014 11:01HERNANDEZPRIMITIVO9913439699134396 303 PINE VALLEY CIR, LAWRENCEVILLE GA 30046*NO DRIVERS LICENSE$705CBGwinnett County PoliceCharges
11/14/2014 00:1711/14/2014 14:22SILVERSJAMESTODD9951701599517015APT B 13 HUDSON CIR, BOWDON GA 30108HOLD FOR OTHER AGENCY$0NBGwinnett County PoliceCharges
11/14/2014 00:0911/14/2014 13:37AYALA RUEDAJUAN9933312399333123 4775 ARDEN DR, BUFORD GA 30518*NO DRIVERS LICENSE$705SBGwinnett County PoliceCharges
11/14/2014 00:0411/14/2014 12:35ALLENJESSEDWAYNE9951701499517014 5442 CUMMING HWY, SUGAR HILL GA 30518HOLD FOR OTHER AGENCY$0NBGwinnett County PoliceCharges
11/13/2014 23:5611/14/2014 17:40MCLAURINANTWAUNLERAY9936902699369026 5025 CAROLE PL, STONE MOUNTAIN GA 30087IMPROPER BACKING$96SBGwinnett County PoliceCharges
11/13/2014 23:5611/14/2014 17:40MCLAURINANTWAUNLERAY9936902699369026 5025 CAROLE PL, STONE MOUNTAIN GA 30087FOLLOWING TOO CLOSELY$96SBGwinnett County PoliceCharges
11/13/2014 23:5611/14/2014 17:40MCLAURINANTWAUNLERAY9936902699369026 5025 CAROLE PL, STONE MOUNTAIN GA 30087* DUI-DRUGS$2006SBGwinnett County PoliceCharges
11/13/2014 23:4011/14/2014 03:25GUEVARAJAIMEC9951701399517013 2940 DOGWOOD LN, CUMMING GA 30040EXPIRED LICENSE$68CBGwinnett County PoliceCharges
11/13/2014 23:2911/18/2014 14:20BONDIE RICHARDSHANNAHNICOLE9951251199512511 481 LEBANON CHURCH RD, JEFFERSON GA 30549FTA BENCH WARRANT$0NBLawrenceville PoliceCharges
11/13/2014 23:2911/18/2014 14:20BONDIE RICHARDSHANNAHNICOLE9951251199512511 481 LEBANON CHURCH RD, JEFFERSON GA 30549HOLD FOR OTHER AGENCY$0NBLawrenceville PoliceCharges
11/13/2014 23:2211/14/2014 21:39PURNELLJENNIFERMARIE9949876799498767 424 VILLAGE BLUFF DR, LAWRENCEVILLE GA 30046OPERATING VEH WITH SUSP/CANC/REV REGISTR$705CBGwinnett County PoliceCharges
11/13/2014 23:2211/14/2014 21:39PURNELLJENNIFERMARIE9949876799498767 424 VILLAGE BLUFF DR, LAWRENCEVILLE GA 30046* DRIVING WHILE LIC SUSP/REVOKED$705CBGwinnett County PoliceCharges
11/13/2014 23:00WILLIAMSBRIANKEWUAN9951701299517012 60 PAT MELL RD SE, MARIETTA GA 30060@ * ARMED ROBBERY$0NBGwinnett County PoliceCharges
11/13/2014 23:00WILLIAMSBRIANKEWUAN9951701299517012 60 PAT MELL RD SE, MARIETTA GA 30060@ * ARMED ROBBERY$0NBGwinnett County PoliceCharges
11/13/2014 23:00WILLIAMSBRIANKEWUAN9951701299517012 60 PAT MELL RD SE, MARIETTA GA 30060@ * ARMED ROBBERY$0NBGwinnett County PoliceCharges
11/13/2014 22:49DAVISJAMESBRIAN9931963299319632 3031 WILSON RD, DECATUR GA 30033@ * THEFT BY RECEIVING$11200SBLilburn PoliceCharges
11/13/2014 22:49DAVISJAMESBRIAN9931963299319632 3031 WILSON RD, DECATUR GA 30033* GIVING FALSE NAME OR INFORMATION$5700SBLilburn PoliceCharges
11/13/2014 22:49DAVISJAMESBRIAN9931963299319632 3031 WILSON RD, DECATUR GA 30033*VGCSA OF C/S$11200SBLilburn PoliceCharges
11/13/2014 22:4511/21/2014 19:30BROWNEARLHENDERSON9931319199313191 3365 GROVE MEADOWS CV, LAWRENCEVILLE GA 30044FAILURE TO APPEAR$685CBGwinnett County SheriffCharges
11/13/2014 22:39GREENHENRYGILLIAN9801246598012465 421 BEDFORD BAY LN, LAWRENCEVILLE GA 30046FOLLOWING TOO CLOSELY$2950SBLawrenceville PoliceCharges
11/13/2014 22:39GREENHENRYGILLIAN9801246598012465 421 BEDFORD BAY LN, LAWRENCEVILLE GA 30046* DRIVING WHILE LIC SUSP/REVOKED$2950SBLawrenceville PoliceCharges
11/13/2014 22:39GREENHENRYGILLIAN9801246598012465 421 BEDFORD BAY LN, LAWRENCEVILLE GA 30046IMPROPER LANE CHANGE$68SBLawrenceville PoliceCharges
11/13/2014 22:39GREENHENRYGILLIAN9801246598012465 421 BEDFORD BAY LN, LAWRENCEVILLE GA 30046*HIT AND RUN$2950SBLawrenceville PoliceCharges
11/13/2014 22:39GREENHENRYGILLIAN9801246598012465 421 BEDFORD BAY LN, LAWRENCEVILLE GA 30046Violation of Probation$0NBLawrenceville PoliceCharges
11/13/2014 22:39GREENHENRYGILLIAN9801246598012465 421 BEDFORD BAY LN, LAWRENCEVILLE GA 30046*HIT & RUN-FAILURE TO STOP & RENDER AID$0NBLawrenceville PoliceCharges
11/13/2014 22:39GREENHENRYGILLIAN9801246598012465 421 BEDFORD BAY LN, LAWRENCEVILLE GA 30046* VIOLATION OF PROBATION$0NBLawrenceville PoliceCharges
11/13/2014 22:39GREENHENRYGILLIAN9801246598012465 421 BEDFORD BAY LN, LAWRENCEVILLE GA 30046RECKLESS DRIVING$425SBLawrenceville PoliceCharges
11/13/2014 22:3711/15/2014 22:19HARPERZADEPIERCE9800218298002182 176 PARK PLACE DR, LAWRENCEVILLE GA 30046DISORDERLY CONDUCT$439ORLawrenceville PoliceCharges
11/13/2014 22:2811/20/2014 19:03KOEVENIGJUSTINMICHAEL9950082799500827 2808 LAKE FOREST TRL, LAWRENCEVILLE GA 30043*LESS THAN AN OZ OF MARIJ.$2400ORGwinnett County PoliceCharges
11/13/2014 22:24GEREZCLAYTONNEIL9951701199517011 3008 PRESTON LAKE DR, TUCKER GA 30084* POSS OF A WEAPON DURING A CRIME$5700SBGwinnett County PoliceCharges
11/13/2014 22:24GEREZCLAYTONNEIL9951701199517011 3008 PRESTON LAKE DR, TUCKER GA 30084*MAUFACTUR/POSS/PURCH/DIST/SALE MARIJUAN$5700SBGwinnett County PoliceCharges
11/13/2014 22:24GEREZCLAYTONNEIL9951701199517011 3008 PRESTON LAKE DR, TUCKER GA 30084*MAUFACTUR/POSS/PURCH/DIST/SALE MARIJUAN$5700SBGwinnett County PoliceCharges
11/13/2014 22:11ADAMSJAMAINERAYSHARD9951701099517010 9200 BRUMBELOW CROSSING WAY, ALPHARETTA GA 30022@ * ARMED ROBBERY$0NBGwinnett County PoliceCharges
11/13/2014 22:11ADAMSJAMAINERAYSHARD9951701099517010 9200 BRUMBELOW CROSSING WAY, ALPHARETTA GA 30022@ * ARMED ROBBERY$0NBGwinnett County PoliceCharges
11/13/2014 22:11ADAMSJAMAINERAYSHARD9951701099517010 9200 BRUMBELOW CROSSING WAY, ALPHARETTA GA 30022@ * ARMED ROBBERY$0NBGwinnett County PoliceCharges
11/13/2014 22:11PINCKNEYDAVIDJAROD9949066699490666 3008 PRESTON LAKE DR, TUCKER GA 30084*MAUFACTUR/POSS/PURCH/DIST/SALE MARIJUAN$11200SBGwinnett County PoliceCharges
11/13/2014 22:11PINCKNEYDAVIDJAROD9949066699490666 3008 PRESTON LAKE DR, TUCKER GA 30084*MAUFACTUR/POSS/PURCH/DIST/SALE MARIJUAN$11200SBGwinnett County PoliceCharges
11/13/2014 22:11PINCKNEYDAVIDJAROD9949066699490666 3008 PRESTON LAKE DR, TUCKER GA 30084* POSS OF A WEAPON DURING A CRIME$11200SBGwinnett County PoliceCharges
11/13/2014 22:0911/14/2014 09:26HARRISSHANNONKRISTIN9951700999517009 2730 DOMINION WALK LN, SNELLVILLE GA 30078* DEPOSIT ACCOUNT FRAUD$1300SBGwinnett County SheriffCharges
11/13/2014 22:0911/14/2014 09:26HARRISSHANNONKRISTIN9951700999517009 2730 DOMINION WALK LN, SNELLVILLE GA 30078* DEPOSIT ACCOUNT FRAUD$1300SBGwinnett County SheriffCharges
11/13/2014 21:4411/14/2014 16:59CONETHOMASMCFADDEN9951611099516110 10865 PINEHIGH DR, ALPHARETTA GA 30022FAILURE TO APPEAR$691CBGwinnett County SheriffCharges
11/13/2014 21:26MATHISMARKDWAYNE9106401091064010 1614 ALCOVY RD, LAWRENCEVILLE GA 30044* VIOLATION OF PROBATION$0NBGwinnett County SheriffCharges
11/13/2014 21:1711/14/2014 09:31JERONIMO PINEDAJUANJESUS9951700899517008 1505 WOODCLIFF DR, LILBURN GA 30047NO LICENSE PLATE$155CBLilburn PoliceCharges
11/13/2014 21:1711/14/2014 09:31JERONIMO PINEDAJUANJESUS9951700899517008 1505 WOODCLIFF DR, LILBURN GA 30047*NOT LICENSED TO DRIVE$715CBLilburn PoliceCharges
11/13/2014 21:0511/14/2014 04:19WONDERRASHEEDR9951700799517007 141 RT 46 W APT 28E, LODI NJ 07644@ * THEFT BY RECEIVING$5700SBGwinnett County SheriffCharges
11/13/2014 21:0511/14/2014 04:19WONDERRASHEEDR9951700799517007 141 RT 46 W APT 28E, LODI NJ 07644* DRIVING WHILE LIC SUSP/REVOKED$705SBGwinnett County SheriffCharges
11/13/2014 20:23VEGADESTINYLESETTE9951700699517006 10525 CLARA DR APT B1, ROSWELL GA 30075@ * ARMED ROBBERY$0NBGwinnett County PoliceCharges
11/13/2014 20:23VEGADESTINYLESETTE9951700699517006 10525 CLARA DR APT B1, ROSWELL GA 30075@ * ARMED ROBBERY$0NBGwinnett County PoliceCharges
11/13/2014 20:23VEGADESTINYLESETTE9951700699517006 10525 CLARA DR APT B1, ROSWELL GA 30075* PROSTITUTION$2400SBGwinnett County PoliceCharges
11/13/2014 20:23VEGADESTINYLESETTE9951700699517006 10525 CLARA DR APT B1, ROSWELL GA 30075@ * ARMED ROBBERY$0NBGwinnett County PoliceCharges
11/13/2014 20:14CLARKJAMESMICHAEL9400170894001708 66 GRAYSON NEW HOPE RD, GRAYSON GA 30017FAILURE TO MAINTAIN INSURANCE$299SBGwinnett County SheriffCharges
11/13/2014 20:14CLARKJAMESMICHAEL9400170894001708 66 GRAYSON NEW HOPE RD, GRAYSON GA 30017REMOVED PLATE W. INTENT TO CON$152SBGwinnett County SheriffCharges
11/13/2014 20:14CLARKJAMESMICHAEL9400170894001708 66 GRAYSON NEW HOPE RD, GRAYSON GA 30017EXPIRED OR NO LICENSE PLATE OR DECAL$152SBGwinnett County SheriffCharges
11/13/2014 20:14CLARKJAMESMICHAEL9400170894001708 66 GRAYSON NEW HOPE RD, GRAYSON GA 30017* IMPERSONATING AN OFFICER$11200SBGwinnett County SheriffCharges
11/13/2014 20:14CLARKJAMESMICHAEL9400170894001708 66 GRAYSON NEW HOPE RD, GRAYSON GA 30017*NO DRIVERS LICENSE$705SBGwinnett County SheriffCharges
11/13/2014 20:0711/14/2014 03:23YANCEYMARCUSANTONIO9902393399023933 4133 MAGNOLIA GLEN WALK, NORCROSS GA 30093@ * THEFT BY SHOPLIFTING$650SBGwinnett County PoliceCharges
11/13/2014 20:0111/14/2014 19:12PAYTONCLIFFORDANDRE9951037299510372 1371 BEEBLOSSOM TRL, LAWRENCEVILLE 30044@ * THEFT BY SHOPLIFTING$650CBGwinnett County PoliceCharges
11/13/2014 19:3711/15/2014 19:19ARMSTEADREGINALDE9951013899510138 3949 HOWELL PARK RD, DULUTH GA 30096FAILURE TO APPEAR$750CBGwinnett County SheriffCharges
11/13/2014 19:3711/15/2014 19:19ARMSTEADREGINALDE9951013899510138 3949 HOWELL PARK RD, DULUTH GA 30096FAILURE TO APPEAR$705CBGwinnett County SheriffCharges
11/13/2014 19:3711/15/2014 19:19ARMSTEADREGINALDE9951013899510138 3949 HOWELL PARK RD, DULUTH GA 30096* DRIVING WHILE LIC SUSP/REVOKED$705ORGwinnett County SheriffCharges
11/13/2014 19:3711/15/2014 19:19ARMSTEADREGINALDE9951013899510138 3949 HOWELL PARK RD, DULUTH GA 30096OPERATING VEH WITH SUSP/CANC/REV REGISTR$705ORGwinnett County SheriffCharges
11/13/2014 18:5511/14/2014 17:02CLEOTELISEVANROBERT9951700599517005 280 WALKING HORSE TRL, DAVIDSON NC 28026EXPIRED OR NO LICENSE PLATE OR DECAL$152SBGwinnett County SheriffCharges
11/13/2014 18:5511/14/2014 17:02CLEOTELISEVANROBERT9951700599517005 280 WALKING HORSE TRL, DAVIDSON NC 28026* DRIVING WHILE LIC SUSP/REVOKED$705SBGwinnett County SheriffCharges
11/13/2014 18:3111/14/2014 04:01PRIESTBRIDGETNICOLE9951700499517004 950 VICTORY DR SW, ATLANTA GA 30310@ * THEFT BY SHOPLIFTING$1300CBGwinnett County PoliceCharges
11/13/2014 18:1911/13/2014 23:28RIVERA-MEDELMARCOANTONIO9938231099382310 80 RAMBLEWOOD TRL, LAWRENCEVILLE GA 30043*NO DRIVERS LICENSE$705CBGwinnett County PoliceCharges
11/13/2014 18:1911/13/2014 23:28RIVERA-MEDELMARCOANTONIO9938231099382310 80 RAMBLEWOOD TRL, LAWRENCEVILLE GA 30043ALL LENSES MUST MEET SAE STNDS$68CBGwinnett County PoliceCharges
11/13/2014 18:1511/15/2014 21:36SHARPTONALISONLEAH9951589999515899 373 AGNES CT, LAWRENCEVILLE GA 30046*DISORDERLY CONDUCT$135ORGwinnett County PoliceCharges
11/13/2014 18:0611/17/2014 23:23HARDENKEVINDEMOND9948528599485285 3402 WATER VISTAS PKWY APT A, LAWRENCEVILLE GA 30044OTHER OFFENSE$0NBGwinnett County SheriffCharges
11/13/2014 17:0011/15/2014 01:31NKEREUWEMWILLIAMNUKAK9947935399479353 2865 OLDE TOWN PARK DR, NORCROSS GA 30071FAILURE TO APPEAR$80CBNorcross PoliceCharges
11/13/2014 17:0011/15/2014 01:31NKEREUWEMWILLIAMNUKAK9947935399479353 2865 OLDE TOWN PARK DR, NORCROSS GA 30071FAILURE TO APPEAR$388CBNorcross PoliceCharges
11/13/2014 17:0011/15/2014 01:31NKEREUWEMWILLIAMNUKAK9947935399479353 2865 OLDE TOWN PARK DR, NORCROSS GA 30071HOLD FOR OTHER AGENCY$0NBNorcross PoliceCharges
11/13/2014 16:5111/13/2014 23:10LANKSTERKORINICOLE9951700399517003 5859 TAMMY LITTLE DR, SECTION AL 35771*SHOPLIFTING LESS THAN 300.00$558.5SBSnellville PoliceCharges
11/13/2014 16:2711/14/2014 08:06CASHBRIANRONALD9104425891044258 271 JACKSON PARK DR, HOSCHTON GA 30548HOLD FOR OTHER AGENCY$0NBGA State PatrolCharges
11/13/2014 16:1911/13/2014 23:08KAMCHAMNANPANRAK9945486999517002 1501 DORCHESTER DR, LAWRENCEVILLE GA 30043FAIL TO SIGNAL W/TURNING/CHANGING LANES$123SBGA State PatrolCharges
11/13/2014 16:1911/13/2014 23:08KAMCHAMNANPANRAK9945486999517002 1501 DORCHESTER DR, LAWRENCEVILLE GA 30043*SUSPENDED LICENSE$1176.25SBGA State PatrolCharges
11/13/2014 16:0911/14/2014 17:02GOMEZ-CORDEROMIGUEL9947721899477218 204 TOLAN CT, LAWRENCEVILLE GA 30044@ * BATTERY$2400SBGwinnett County PoliceCharges
11/13/2014 16:0911/14/2014 17:02GOMEZ-CORDEROMIGUEL9947721899477218 204 TOLAN CT, LAWRENCEVILLE GA 30044* OBSTRUCTION LAW ENFORCEMENT OFFICER$2950SBGwinnett County PoliceCharges
11/13/2014 16:0911/14/2014 17:02GOMEZ-CORDEROMIGUEL9947721899477218 204 TOLAN CT, LAWRENCEVILLE GA 30044* OBSTRUCTION LAW ENFORCEMENT OFFICER$2950SBGwinnett County PoliceCharges
11/13/2014 15:4511/14/2014 00:58BETANCOURTMARIACOBARUBIA9951700199517001 3910 NOBLIN RIDGE DR, DULUTH GA 30097EXPIRED LIC$191CBSuwanee PoliceCharges
11/13/2014 15:4011/15/2014 15:29JILOCATHERINEW9951700099517000 1120 OAKWOOD MANOR, DECATUR GA 30032DISORDERLY CONDUCT$439ORLawrenceville PoliceCharges
11/13/2014 15:4011/15/2014 15:29JILOCATHERINEW9951700099517000 1120 OAKWOOD MANOR, DECATUR GA 30032FAILURE TO APPEAR$196CBLawrenceville PoliceCharges
11/13/2014 15:2911/14/2014 01:00TRINCHITELLAHONEYPIA9951699999516999437 1525 LAUREL CROSSING PKWY, BUFORD GA 30519EXPLOITATION OF DISABLED ADULT$5700SBGwinnett County PoliceCharges
11/13/2014 15:2911/14/2014 01:00TRINCHITELLAHONEYPIA9951699999516999437 1525 LAUREL CROSSING PKWY, BUFORD GA 30519@ * THEFT BY TAKING$22200SBGwinnett County PoliceCharges
11/13/2014 15:21POSTONELIZABETHDAVIS9923208899232088 1134 ADAMS AVE, AIKEN SC 29803* DUI - DRUGS/ALCOHOL$650SBGwinnett County PoliceCharges
11/13/2014 15:21POSTONELIZABETHDAVIS9923208899232088 1134 ADAMS AVE, AIKEN SC 29803IMPROPER/ERRATIC LANE CHANGE$650SBGwinnett County PoliceCharges
11/13/2014 15:21POSTONELIZABETHDAVIS9923208899232088 1134 ADAMS AVE, AIKEN SC 29803FAIL TO RPT STRIKING FIXED OBJECT$650SBGwinnett County PoliceCharges
11/13/2014 15:21POSTONELIZABETHDAVIS9923208899232088 1134 ADAMS AVE, AIKEN SC 29803FAIL TO RPT STRIKING FIXED OBJECT$650SBGwinnett County PoliceCharges
11/13/2014 15:0711/15/2014 22:53NOLANJUSTINJOSHUA9933410299334102 3997 RIVERSONG CT, SUWANEE GA 30024*VGCSA OF C/S$2400SBGwinnett County SheriffCharges
11/13/2014 15:0711/15/2014 22:53NOLANJUSTINJOSHUA9933410299334102 3997 RIVERSONG CT, SUWANEE GA 30024FOLLOWING TOO CLOSE$68SBGwinnett County SheriffCharges
11/13/2014 15:0711/15/2014 22:53NOLANJUSTINJOSHUA9933410299334102 3997 RIVERSONG CT, SUWANEE GA 30024*OBSTRUCTION OF OFFICER$2400SBGwinnett County SheriffCharges
11/13/2014 14:4711/14/2014 05:24BROWNDEANDREQUARTEZ9941601199416011 1470 BOGGS RD APT 506, DULUTH GA 30096FAILURE TO APPEAR$150FIGwinnett County SheriffCharges
11/13/2014 14:3911/13/2014 15:53WELLBORNSARAANN9951699899516998C 342 SHADBURN, BUFORD GA 30518@ * THEFT BY SHOPLIFTING$0NBGwinnett County SheriffCharges
11/13/2014 14:35BROOKSDESTINYDESHEA9943299799432997 623MEPHISTOR CIRCLE, LAWRENCEVILLE GA 30046@ * THEFT BY SHOPLIFTING$2950SBGwinnett County PoliceCharges
11/13/2014 14:3411/13/2014 20:25HUMPHREYNEILJON9400533594005335 2700 DACULA COVE CIR, DACULA GA 30019* INSURANCE FRAUD$5700SBGwinnett County SheriffCharges
11/13/2014 14:3411/13/2014 20:25HUMPHREYNEILJON9400533594005335 2700 DACULA COVE CIR, DACULA GA 30019* FORGERY-1ST DEGREE$5700SBGwinnett County SheriffCharges
11/13/2014 14:2611/14/2014 23:07TRONRUDMADELINEANN9941666899416668 2711 PRESTON LAKE DR, TUCKER GA 30084Failure to Appear$1010CBDuluth PoliceCharges
11/13/2014 14:2611/14/2014 23:07TRONRUDMADELINEANN9941666899416668 2711 PRESTON LAKE DR, TUCKER GA 30084* CONSPIRACY TO COMMIT A CRIME$11200SBDuluth PoliceCharges
11/13/2014 14:2411/13/2014 19:55HUDGINSJOSHUA MICHAELODELL9951256099512560 3967 ROSEBUD PARK DR, SNELLVILLE GA 30039*NO DRIVERS LICENSE$0NBGwinnett County SheriffCharges
11/13/2014 14:17FOWLERWILLIAMDEAN9946217999462179 3035 GWINNSTONE CIR, SNELLVILLE GA 30078* PAROLE VIOLATION$0NBDOCCharges
11/13/2014 14:1511/14/2014 01:31BELINANDREWLEE9945445399454453 2143 SPLIT TRL RD, BUFORD GA 30519FAILURE TO PAY/CHILD SUPPORT$1250FIGwinnett County PoliceCharges
11/13/2014 14:10BUGGTAKELALAVETTE9949503599495035 4031 WREXHAM DR, SNELLVILLE GA 30039FAILURE TO APPEAR$0NBGwinnett County SheriffCharges
11/13/2014 13:5811/13/2014 15:52HUGHESRYANKYLE9951699599516995 210 SMITHDUN LN, ATLANTA GA 30350@ * THEFT BY SHOPLIFTING$0NBGwinnett County SheriffCharges
11/13/2014 13:45SIMSSAMSON9940595199405951 2674 HICKORY VALLEY DRIVE, SNELLVILLE GA 30078*VGCSA POSS OF MARIJUANA W/INTENT TO DIS$0NBGwinnett County SheriffCharges
11/13/2014 13:45SIMSSAMSON9940595199405951 2674 HICKORY VALLEY DRIVE, SNELLVILLE GA 30078*VGCSA POSS OF MARIJUANA W/INTENT TO DIS$0NBGwinnett County SheriffCharges
11/13/2014 13:4411/18/2014 11:47VASQUEZABELINO9951699499516994 3214 VALLEY HUFF DRIVE APT 58, ATLANTA GA 30340*NO DRIVERS LICENSE$0NBGwinnett County SheriffCharges
11/13/2014 13:4411/18/2014 11:47VASQUEZABELINO9951699499516994 3214 VALLEY HUFF DRIVE APT 58, ATLANTA GA 30340HOLD FOR IMMIGRATION$0NBGwinnett County SheriffCharges
11/13/2014 13:2911/13/2014 21:53HARDYJOYMARISA9951699399516993 633 DEER LAKE TRL, STONE MOUNTAIN GA 30087* DRIVING WHILE LIC SUSP/REVOKED$705CBGwinnett County SheriffCharges
11/13/2014 13:2911/13/2014 21:53HARDYJOYMARISA9951699399516993 633 DEER LAKE TRL, STONE MOUNTAIN GA 30087FAILURE TO APPEAR$280CBGwinnett County SheriffCharges
11/13/2014 13:2411/26/2014 15:07BROOKSANDRELAVOR9947577799475777 814 BARKLAY WAY, COLUMBUS GA 31907Violation of Probation$0NBGwinnett County SheriffCharges
11/13/2014 13:2411/26/2014 15:07BROOKSANDRELAVOR9947577799475777 814 BARKLAY WAY, COLUMBUS GA 31907* VIOLATION OF PROBATION$0NBGwinnett County SheriffCharges
11/13/2014 13:1511/13/2014 13:37ABBOTTHAROLDMICHAEL9951699299516992 3311 LAKE HEIGHTS CT, DACULA GA 30019@ * THEFT BY SHOPLIFTING$0NBGwinnett County SheriffCharges
11/13/2014 13:1311/13/2014 23:04BAKERMARYELIZABETH9951699199516991 60 BENTRIDGE CT, LAWRENCEVILLE GA 30043* THEFT BY SHOPLIFTING$788SBLawrenceville PoliceCharges
11/13/2014 13:03COBBORESTESAVILLA9949688899496888 175 MIRANDY WAY, LAWRENCEVILLE GA 30044* VIOLATION OF PROBATION$0NBGwinnett County SheriffCharges
11/13/2014 13:0311/17/2014 18:09DOWNSGLORIADENISE9946435399464353 1805 SUMMERVIEW DR, STONE MOUNTAIN GA 30083Violation of Probation$0NBGwinnett County SheriffCharges
11/13/2014 12:49JONESLEONNMN9932769599327695 805 COUNTRYSIDE, SMYRNA GA 30081HOLD FOR COURT$0NBGwinnett County SheriffCharges
11/13/2014 12:49JONESLEONNMN9932769599327695 805 COUNTRYSIDE, SMYRNA GA 30081FAILURE TO APPEAR$0NBGwinnett County SheriffCharges
11/13/2014 12:39TIRADO-PANTOJARICARDO9949054199490542 996 INDIAN WAY, LILBURN GA 30047HOLD FOR COURT$0NBGwinnett County SheriffCharges
11/13/2014 12:39DAVISHUNTERMASON9944039699440396 5490 LAKEVIEW DR, AUSTELL GA 3106HOLD FOR COURT$0NBGwinnett County SheriffCharges
11/13/2014 12:39HAXTONADAMANDREW9948978899493867 1655 COLLEENS CASK TER, DACULA GA 30019HOLD FOR COURT$0NBGwinnett County SheriffCharges
11/13/2014 12:32DOLLARBOBBYGERALD9947551499475514 1353 BARRETT BLUFF CIR, LAWRENCEVILLE GA 30043HOLD FOR COURT$0NBGwinnett County SheriffCharges
11/13/2014 12:2911/14/2014 17:07KARROWJIMMYNUKU9922487099224870 2550 HARBINS MILL DR, DACULA GA 30019Violation of Probation$0NBGwinnett County SheriffCharges
11/13/2014 12:23HARPERDEAUJONLYTREL9944875599448755 4185 POST OAK GROVE, ATLANTA GA 30349* VIOLATION OF PROBATION$0NBGwinnett County SheriffCharges
11/13/2014 12:23HARPERDEAUJONLYTREL9944875599448755 4185 POST OAK GROVE, ATLANTA GA 30349HOLD FOR OTHER AGENCY$0NBGwinnett County SheriffCharges
11/13/2014 12:1811/14/2014 19:06KHANBILLYVANN9919614999196149 466 HILLCREST RD, LILBURN GA 30047HOLD FOR COURT$0NBGwinnett County SheriffCharges
11/13/2014 12:13BUGGSKAHLIFALEEM9941853099418530 1500 BELLMEADE DR, MARIETTA GA 30060HOLD FOR OTHER AGENCY$0NBGwinnett County SheriffCharges
11/13/2014 12:13BUGGSKAHLIFALEEM9941853099418530 1500 BELLMEADE DR, MARIETTA GA 30060HOLD FOR OTHER AGENCY$0NBGwinnett County SheriffCharges
11/13/2014 12:13BUGGSKAHLIFALEEM9941853099418530 1500 BELLMEADE DR, MARIETTA GA 30060* VIOLATION OF PROBATION$0NBGwinnett County SheriffCharges
11/13/2014 12:0311/25/2014 17:32VASQUEZ-RODRIGUEZFRANCISCO9940367699403676 2895 BAILEY DR, NORCROSS GA 300771HOLD FOR COURT$0NBGwinnett County SheriffCharges
11/13/2014 11:52GARCIA-GONZALEZHECTOR9912471799124717 3784 WESTCHASE VILLAGE LN, PEACHTREE CITY GA 30092EXPIRED OR NO LICENSE ON PERSON$0NBLawrenceville PoliceCharges
11/13/2014 11:3611/14/2014 17:01MONTOYA-QUIROZBULMARO9925235299252352 2004 ROCKBRIDGE ROAD I-95, NORCROSS GA 30093*DISORDERLY CONDUCT$135SBGwinnett County PoliceCharges
11/13/2014 11:08DOCKERYALVIN9932823799328237STE 101 478 NORTHDALE RD, LAWRENCEVILLE GA 30046* VIOLATION OF PROBATION$0NBDOCCharges
11/13/2014 11:08DOCKERYALVIN9932823799328237STE 101 478 NORTHDALE RD, LAWRENCEVILLE GA 30046* VIOLATION OF PROBATION$0NBDOCCharges
11/13/2014 11:0111/13/2014 14:43AGUILARJULIOCESAR SOSA9946661799466617 904 AUTUMN VILLAGE CT, DULUTH GA 30096* DRIVING WHILE LIC SUSP/REVOKED$0NBGwinnett County SheriffCharges
11/13/2014 11:00WOODSJAMESERIC9951304999513049 390 WOODPECKER PT, DANIELSVILLE GA 30633* UNAUTHORIZED USE OF CREDIT CARD$5700SBGwinnett County SheriffCharges
11/13/2014 11:00WOODSJAMESERIC9951304999513049 390 WOODPECKER PT, DANIELSVILLE GA 30633* UNAUTHORIZED USE OF CREDIT CARD$5700SBGwinnett County SheriffCharges
11/13/2014 11:00WOODSJAMESERIC9951304999513049 390 WOODPECKER PT, DANIELSVILLE GA 30633* UNAUTHORIZED USE OF CREDIT CARD$5700SBGwinnett County SheriffCharges
11/13/2014 11:00WOODSJAMESERIC9951304999513049 390 WOODPECKER PT, DANIELSVILLE GA 30633* UNAUTHORIZED USE OF CREDIT CARD$5700SBGwinnett County SheriffCharges
11/13/2014 11:00WOODSJAMESERIC9951304999513049 390 WOODPECKER PT, DANIELSVILLE GA 30633* UNAUTHORIZED USE OF CREDIT CARD$5700SBGwinnett County SheriffCharges
11/13/2014 11:00WOODSJAMESERIC9951304999513049 390 WOODPECKER PT, DANIELSVILLE GA 30633* UNAUTHORIZED USE OF CREDIT CARD$5700SBGwinnett County SheriffCharges
11/13/2014 11:00WOODSJAMESERIC9951304999513049 390 WOODPECKER PT, DANIELSVILLE GA 30633* UNAUTHORIZED USE OF CREDIT CARD$5700SBGwinnett County SheriffCharges
11/13/2014 11:00WOODSJAMESERIC9951304999513049 390 WOODPECKER PT, DANIELSVILLE GA 30633* UNAUTHORIZED USE OF CREDIT CARD$5700SBGwinnett County SheriffCharges
11/13/2014 11:00WOODSJAMESERIC9951304999513049 390 WOODPECKER PT, DANIELSVILLE GA 30633* Computer Theft$5700SBGwinnett County SheriffCharges
11/13/2014 11:00WOODSJAMESERIC9951304999513049 390 WOODPECKER PT, DANIELSVILLE GA 30633*MISLEADING TRANSMITTAL OF NAME$5700SBGwinnett County SheriffCharges
11/13/2014 11:00WOODSJAMESERIC9951304999513049 390 WOODPECKER PT, DANIELSVILLE GA 30633*MISLEADING TRANSMITTAL OF NAME$5700SBGwinnett County SheriffCharges
11/13/2014 11:00WOODSJAMESERIC9951304999513049 390 WOODPECKER PT, DANIELSVILLE GA 30633*MISLEADING TRANSMITTAL OF NAME$5700SBGwinnett County SheriffCharges
11/13/2014 11:00WOODSJAMESERIC9951304999513049 390 WOODPECKER PT, DANIELSVILLE GA 30633* Computer Theft$0NBGwinnett County SheriffCharges
11/13/2014 11:00WOODSJAMESERIC9951304999513049 390 WOODPECKER PT, DANIELSVILLE GA 30633* Computer Trespass$5700SBGwinnett County SheriffCharges
11/13/2014 11:00WOODSJAMESERIC9951304999513049 390 WOODPECKER PT, DANIELSVILLE GA 30633* Computer Trespass$5700SBGwinnett County SheriffCharges
11/13/2014 11:00WOODSJAMESERIC9951304999513049 390 WOODPECKER PT, DANIELSVILLE GA 30633* Computer Theft$5700SBGwinnett County SheriffCharges
11/13/2014 10:3311/14/2014 09:57JACOBO-GARCIAJUANCARLOS9951699099516990 1213 WINTER CHAPEL RD, NORCROSS GA 30093*NO VALID LICENSE$860CBNorcross PoliceCharges
11/13/2014 10:3311/14/2014 09:57JACOBO-GARCIAJUANCARLOS9951699099516990 1213 WINTER CHAPEL RD, NORCROSS GA 30093HOLD FOR IMMIGRATION$0NBNorcross PoliceCharges
11/13/2014 10:2511/25/2014 00:00BURTONWALTERSMART9950278599502785 3765 SADDLE RIDGE DR, SNELLVILLE GA 30039VIOLATION OF PROBATION$537CBSnellville PoliceCharges
11/13/2014 10:2511/25/2014 00:00BURTONWALTERSMART9950278599502785 3765 SADDLE RIDGE DR, SNELLVILLE GA 30039VIOLATION OF PROBATION$345FISnellville PoliceCharges
11/13/2014 10:2111/17/2014 22:41VENNIERICHARDVAUGHN9926445099264450 3759 OAKWOOD HILL DR APT B, OAKWOOD GA 30566HOLD FOR COURT$0NBGwinnett County SheriffCharges
11/13/2014 10:1311/14/2014 16:15MELTONCHAKANNOTOWAN9951698999516989 1661 CANNONBALL CT, LAWRENCEVILLE GA 30045HOLD FOR OTHER AGENCY$0NBLawrenceville PoliceCharges
11/13/2014 10:1311/14/2014 16:45HAYNESPERRYTERRILL9913374699133746 3878 NIELSEN CT, CLARKSTON GA 30021FAILURE TO APPEAR$805ORDOCCharges
11/13/2014 09:5811/13/2014 17:51SMITHDAVIDPHILLIP9918206699182066 5532 MAGNOLIA WAY, BUFORD GA 30518FAILURE TO MAINTAIN INSURANCE$299CBGwinnett County PoliceCharges
11/13/2014 09:5811/13/2014 17:51SMITHDAVIDPHILLIP9918206699182066 5532 MAGNOLIA WAY, BUFORD GA 30518* DRIVING WHILE LIC SUSP/REVOKED$705CBGwinnett County PoliceCharges
11/13/2014 09:5811/13/2014 17:51SMITHDAVIDPHILLIP9918206699182066 5532 MAGNOLIA WAY, BUFORD GA 30518FAILURE TO APPEAR$805CBGwinnett County PoliceCharges
11/13/2014 09:47GAINESFERNANDOTERRELL9901695899016958 902 OVERLOOK DR, DULUTH GA 30096FAILURE TO PAY/CHILD SUPPORT$5000CBGwinnett County PoliceCharges
11/13/2014 09:47GAINESFERNANDOTERRELL9901695899016958 902 OVERLOOK DR, DULUTH GA 30096FAILURE TO APPEAR$0NBGwinnett County PoliceCharges
11/13/2014 09:1911/13/2014 13:40LEECHASTITYYVONNE9951698899516988 781 SUGAR OAK LLN, LAWRENCEVILLE GA 30043* INSURANCE FRAUD$5700SBGwinnett County PoliceCharges
11/13/2014 08:5711/13/2014 10:29SEPULVEDAJOCELYNNMN9951698799516987 92 N ALEXANDER ST APT 1, BUFORD GA 30518* DRIVING WHILE LIC SUSP/REVOKED$0NBGwinnett County SheriffCharges
11/13/2014 08:24BRAYJOHNROBERT9951698699516986 1728 FLOWERY BRANCH RD, AUBURN GA 30011* VIOLATION OF PAROLE/WARRANT SERVED$0NBGA Pardons and ParolesCharges
11/13/2014 07:4511/25/2014 21:54STRICKLANDASHLEYNICHOLE9945472499454724 1225 SAMUEL DR, NORCROSS GA 30093HOLD FOR COURT$0NBGwinnett County SheriffCharges
11/13/2014 07:3211/13/2014 13:21GISTMICHAELANTHONY9951698599516985 4709 HARRISTON CROSSING RD, STONE MOUNTAIN GA 30083NO PROOF INS$575SBLilburn PoliceCharges
11/13/2014 07:3211/13/2014 13:21GISTMICHAELANTHONY9951698599516985 4709 HARRISTON CROSSING RD, STONE MOUNTAIN GA 30083DISORDERLY CONDUCT$420SBLilburn PoliceCharges
11/13/2014 07:3211/13/2014 13:21GISTMICHAELANTHONY9951698599516985 4709 HARRISTON CROSSING RD, STONE MOUNTAIN GA 30083*DRIVING WHILE LIC SUSP/REV$715SBLilburn PoliceCharges
11/13/2014 06:4711/13/2014 13:38COOPERSHAWNTANECOL9941727899417278 805 ARBOR CROSSING DR, LITHONIA GA 30058*SUSPENDED/REVOKED LIC$816SBSnellville PoliceCharges
11/13/2014 06:4711/13/2014 13:38COOPERSHAWNTANECOL9941727899417278 805 ARBOR CROSSING DR, LITHONIA GA 30058IMPROPER LANE CHANGE$117SBSnellville PoliceCharges
11/13/2014 06:0211/13/2014 13:24HOLTTRAVISCAINE9951698499516984 1719 FONTAINE DRIVE, JONESBORO GA 30236Failure to Appear$510CBNorcross PoliceCharges
11/13/2014 05:5611/20/2014 14:25GLOVERMICHAELLEWIS9300691293006912 3153 KINGS GLEN DR, DECATUR GA 30034Failure to Appear$510CBNorcross PoliceCharges
11/13/2014 05:4211/14/2014 19:07FRASERSCOTTALLEN9927134499271344 4779 BEAVER RD, LOGANVILLE GA 30052HOLD FOR COURT$0NBGwinnett County SheriffCharges
11/13/2014 04:0511/13/2014 11:05LOUISSAINTJASONNASIYA9934934499349514 2010 HUNTERS RIDGE DR, LAWRENCEVILLE GA 30044SPEEDING$180SBGwinnett County PoliceCharges
11/13/2014 04:0511/13/2014 11:05LOUISSAINTJASONNASIYA9934934499349514 2010 HUNTERS RIDGE DR, LAWRENCEVILLE GA 30044* DUI-MORE THAN 0.10%BLOOD ALCOHOL$2006SBGwinnett County PoliceCharges
11/13/2014 04:0511/13/2014 11:05LOUISSAINTJASONNASIYA9934934499349514 2010 HUNTERS RIDGE DR, LAWRENCEVILLE GA 30044DISPLAY OF VEH TAG SIM TO GA STATE ISSUE$40SBGwinnett County PoliceCharges
11/13/2014 04:0511/13/2014 11:05LOUISSAINTJASONNASIYA9934934499349514 2010 HUNTERS RIDGE DR, LAWRENCEVILLE GA 30044SPEEDOMETER NOT WORKING$40SBGwinnett County PoliceCharges
11/13/2014 03:47CARTERCAREYLADONTA9951698399516983 1427 WILLOW LAKE DR NE APT C, ATLANTA GA 30329@ * THEFT BY DECEPTION$22200SBGwinnett County PoliceCharges
11/13/2014 03:47CARTERCAREYLADONTA9951698399516983 1427 WILLOW LAKE DR NE APT C, ATLANTA GA 30329POSSESSION OF LESS 1 OZ. MARIJUANA$585ORGwinnett County PoliceCharges
11/13/2014 03:47CARTERCAREYLADONTA9951698399516983 1427 WILLOW LAKE DR NE APT C, ATLANTA GA 30329@ * THEFT BY DECEPTION$5700SBGwinnett County PoliceCharges
11/13/2014 03:47CARTERCAREYLADONTA9951698399516983 1427 WILLOW LAKE DR NE APT C, ATLANTA GA 30329@ * THEFT BY DECEPTION$0NBGwinnett County PoliceCharges
11/13/2014 03:4311/13/2014 13:26COOLEYAYODELEPAUL9951698299516982 1926 CHASE COMMON DR, NORCROSS GA 30071IMPROPER LANE CHANGE$68SBGwinnett County PoliceCharges
11/13/2014 03:4311/13/2014 13:26COOLEYAYODELEPAUL9951698299516982 1926 CHASE COMMON DR, NORCROSS GA 30071* DUI-ALCOHOL$2006SBGwinnett County PoliceCharges
11/13/2014 03:3211/13/2014 18:47SIMPSONMICHAELS9951698199516981 3375 PACES LANDING DR, LAWRENCEVILLE GA 30044* DUI-ALCOHOL$2006SBGwinnett County PoliceCharges
11/13/2014 03:3211/13/2014 18:47SIMPSONMICHAELS9951698199516981 3375 PACES LANDING DR, LAWRENCEVILLE GA 30044IMPROPER/ERRATIC LANE CHANGE$96SBGwinnett County PoliceCharges
11/13/2014 03:0811/13/2014 13:35JOHNSONCATHERINEDENISE9904684599046845 100 CASTR DR APT G10, NORCROSS GA 30071*NO DRIVERS LICENSE$705SBGwinnett County PoliceCharges
11/13/2014 02:2011/17/2014 17:13JONESDANIELDAVON9948479399484793 6207 DUNLEAF ARC WAY, NORCROSS GA 30093FAILURE TO APPEAR$0NBGwinnett County SheriffCharges
11/13/2014 02:1311/13/2014 11:01STANDIFERTREQUILLED9951697899516978 3565 MILITIA CT, SNELLVILLE GA 30039GENERAL PROVISION- DISORDERLY$439SBGeorgia Gwinnett College PDCharges
11/13/2014 01:5911/14/2014 21:46FAULKNERGREGORYPAUL9934612599346125 1022 LEVEL CREEK RD APT#507, SUGAR HILL GA 30518FAILURE TO APPEAR$705FIGwinnett County PoliceCharges
11/13/2014 01:57WRIGHTMARCELCLIFTON9951697799516977 3386 MOUNT ZION RD APT# 1623, STOCKBRIDGE GA 30281HOLD FOR OTHER AGENCY$0NBPrisoner Transport ServicesCharges
11/13/2014 01:57WRIGHTMARCELCLIFTON9951697799516977 3386 MOUNT ZION RD APT# 1623, STOCKBRIDGE GA 30281HOLD FOR OTHER AGENCY$0NBPrisoner Transport ServicesCharges
11/13/2014 01:57WRIGHTMARCELCLIFTON9951697799516977 3386 MOUNT ZION RD APT# 1623, STOCKBRIDGE GA 30281@ * THEFT BY TAKING$11200SBPrisoner Transport ServicesCharges
11/13/2014 01:3711/13/2014 13:59FARLEYJAMALEMMANUEL9951697699516976APT C 1427 WILLOW LAKE DR NE, ATLANTA GA 30329FAILURE TO APPEAR$315CBGwinnett County PoliceCharges
11/13/2014 01:3711/13/2014 13:59FARLEYJAMALEMMANUEL9951697699516976APT C 1427 WILLOW LAKE DR NE, ATLANTA GA 30329FAILURE TO APPEAR$196CBGwinnett County PoliceCharges
11/13/2014 01:3611/13/2014 16:05FELTONCHRISTOPHERPAUL9951697599516975 2381 TEMPLE JOHNSON RD, SNELLVILLE GA 30078* CONTRIB TO THE DELINQUENCY OF MINOR$1300SBGwinnett County PoliceCharges
11/13/2014 01:3611/13/2014 16:05FELTONCHRISTOPHERPAUL9951697599516975 2381 TEMPLE JOHNSON RD, SNELLVILLE GA 30078* DRIVING WHILE LICENSE WITHDRAWN$705SBGwinnett County PoliceCharges
11/13/2014 01:3611/13/2014 16:05FELTONCHRISTOPHERPAUL9951697599516975 2381 TEMPLE JOHNSON RD, SNELLVILLE GA 30078TO BE IN PARK AFTER HOURS$135SBGwinnett County PoliceCharges
11/13/2014 01:3611/13/2014 16:05FELTONCHRISTOPHERPAUL9951697599516975 2381 TEMPLE JOHNSON RD, SNELLVILLE GA 30078OPEN CONTAINER LAW$299SBGwinnett County PoliceCharges
11/13/2014 01:3611/13/2014 16:05FELTONCHRISTOPHERPAUL9951697599516975 2381 TEMPLE JOHNSON RD, SNELLVILLE GA 30078POSS OF ALCOHOL IN COUNTY PARK$140SBGwinnett County PoliceCharges
11/13/2014 01:2711/20/2014 14:23THOMASTROYNAMON9946801199468011 1795 PINE CREEK DRIVE, AUSTELL GA 30126Failure to Appear$1100CBNorcross PoliceCharges
11/13/2014 00:5411/13/2014 05:55SCOTTALBERTLESTERJACOB9600846796008467 996 WALNUT DR, LAWRENCEVILLE GA 30044* DUI-MORE THAN 0.10%BLOOD ALCOHOL$2006SBGwinnett County PoliceCharges
11/13/2014 00:5411/13/2014 05:55SCOTTALBERTLESTERJACOB9600846796008467 996 WALNUT DR, LAWRENCEVILLE GA 30044*IMPROPER PASSING EMERGECY/TOWING/HWY VE$180SBGwinnett County PoliceCharges
11/13/2014 00:5411/13/2014 05:55SCOTTALBERTLESTERJACOB9600846796008467 996 WALNUT DR, LAWRENCEVILLE GA 30044OPEN CONTAINER LAW$299SBGwinnett County PoliceCharges
11/13/2014 00:4311/13/2014 13:56WHITETIMOTHYARCHIE9908698999086989 2193 EXECUTIVE DR, DULUTH GA 30096* DUI-ALCOHOL$2006SBGwinnett County PoliceCharges
11/13/2014 00:4311/13/2014 13:56WHITETIMOTHYARCHIE9908698999086989 2193 EXECUTIVE DR, DULUTH GA 30096SPEEDING$250SBGwinnett County PoliceCharges
11/13/2014 00:4311/13/2014 13:56WHITETIMOTHYARCHIE9908698999086989 2193 EXECUTIVE DR, DULUTH GA 30096IMPROPER/ERRATIC LANE CHANGE$68SBGwinnett County PoliceCharges
11/13/2014 00:4311/13/2014 13:56WHITETIMOTHYARCHIE9908698999086989 2193 EXECUTIVE DR, DULUTH GA 30096POSSESSION OF LESS 1 OZ. MARIJUANA$585SBGwinnett County PoliceCharges
11/13/2014 00:2411/13/2014 10:49JOHNSONJALINJAMAL9951697199516971APT C 3820 BROCKETT TRL, CLARKSTON GA 30021@ * ENTERING AN AUTO$11200SBGwinnett County SheriffCharges
11/13/2014 00:0211/13/2014 11:52PETERSONJOHNMICHAEL9951697099516970 5891 WILBANKS DRIVE, PEACHTREE CORNERS GA 30092* DUI-ALCOHOL$2006CBGwinnett County PoliceCharges
11/13/2014 00:0211/13/2014 11:52PETERSONJOHNMICHAEL9951697099516970 5891 WILBANKS DRIVE, PEACHTREE CORNERS GA 30092IMPROPER LANE CHANGE$96CBGwinnett County PoliceCharges
11/12/2014 23:13KENNYKEVINLAMONT9936095899360958APT B 102 SPRINGS LN, NORCROSS GA 30092Failure to Appear$560CBNorcross PoliceCharges
11/12/2014 23:13KENNYKEVINLAMONT9936095899360958APT B 102 SPRINGS LN, NORCROSS GA 30092* VIOLATION OF PROBATION$0NBNorcross PoliceCharges
11/12/2014 23:13KENNYKEVINLAMONT9936095899360958APT B 102 SPRINGS LN, NORCROSS GA 30092FAILURE TO APPEAR$0NBNorcross PoliceCharges
11/12/2014 23:13KENNYKEVINLAMONT9936095899360958APT B 102 SPRINGS LN, NORCROSS GA 30092FAILURE TO APPEAR$0NBNorcross PoliceCharges
11/12/2014 23:0811/13/2014 04:32CROYSONIAFLORINE9948495199484951 5445 SYCAMORE RD, SUGAR HILL GA 30518*STALKING$1300SBGwinnett County PoliceCharges
11/12/2014 22:32HESTERBRENTONTERRANCE9942037799420377 1610 CHEROKEE RD, ATHENS GA 30605* VIOLATION OF PROBATION$0NBGwinnett County SheriffCharges
11/12/2014 22:32HESTERBRENTONTERRANCE9942037799420377 1610 CHEROKEE RD, ATHENS GA 30605HOLD FOR OTHER AGENCY$0NBGwinnett County SheriffCharges
11/12/2014 22:30PHILLIPSCHRISTOPHERTODD9940511499405114 29 OLD CHURCH RD, AUBURN GA 30011* VIOLATION OF PROBATION$0NBGwinnett County SheriffCharges
11/12/2014 21:41LUMLEYJIMMYLEE9701046597010465 861 OZORA RD, LAWRENCEVILLE GA 30045* VIOLATION OF PROBATION$0NBGwinnett County SheriffCharges
11/12/2014 21:41LUMLEYJIMMYLEE9701046597010465 861 OZORA RD, LAWRENCEVILLE GA 30045HOLD FOR OTHER AGENCY$0NBGwinnett County SheriffCharges
11/12/2014 21:3511/13/2014 03:10CHILDRESSJEFFREYBRIAN9907584999075849 1341 GULFPORT RUN, GRAYSON GA 30017@ * SIMPLE BATTERY$2950SBGwinnett County SheriffCharges
11/12/2014 21:3511/13/2014 03:10CHILDRESSJEFFREYBRIAN9907584999075849 1341 GULFPORT RUN, GRAYSON GA 30017@ * SIMPLE ASSAULT$1300SBGwinnett County SheriffCharges
11/12/2014 21:2611/14/2014 20:50SMITHTERRYBLACKBURN9945252099452520 4595 GRAYWOOD TRCE, PEACHTREE CORNERS GA 30092DISORDERLY CONDUCT-ENTER PROP W/O PERMIT$360ORNorcross PoliceCharges
11/12/2014 20:5711/14/2014 20:58WILLISANTHONY9951696999516969LOT 6 427 S SYCAMORE ST SW, ROME GA 30165* DRIVING WHILE LIC SUSP/REVOKED$705ORGA State PatrolCharges
11/12/2014 20:5711/14/2014 20:58WILLISANTHONY9951696999516969LOT 6 427 S SYCAMORE ST SW, ROME GA 30165TOO FAST FOR CONDITIONS/PRIMA FACIE SPEE$152ORGA State PatrolCharges
11/12/2014 20:5711/14/2014 20:58WILLISANTHONY9951696999516969LOT 6 427 S SYCAMORE ST SW, ROME GA 30165FAILURE TO HAVE LICENSE ON PERSON$19ORGA State PatrolCharges
11/12/2014 20:4911/13/2014 03:05HILLMICHAELJONATHAN9951696899516968 510 CREEKWOOD XING, ROSWELL GA 30076* ENDANGERING SECURITY INTEREST$1300SBGwinnett County SheriffCharges
11/12/2014 20:44PEREZ-MAYAJOSEANGEL99516967995169671226 2951 SATELLITE BLVD NW, DULUTH GA 30096* TRAFFICKING COCAINE, MARIJUANA, ETC.$0NBGwinnett County PoliceCharges
11/12/2014 20:44PEREZ-MAYAJOSEANGEL99516967995169671226 2951 SATELLITE BLVD NW, DULUTH GA 30096HOLD FOR IMMIGRATION$0NBGwinnett County PoliceCharges
11/12/2014 20:40ERIZA-GOMEZBERLIN99516966995169661209 1001 CHAMPIONS GREEN PKWY, ALPHARETTA GA 30022* TRAFFICKING COCAINE, MARIJUANA, ETC.$0NBGwinnett County PoliceCharges
11/12/2014 20:40ERIZA-GOMEZBERLIN99516966995169661209 1001 CHAMPIONS GREEN PKWY, ALPHARETTA GA 30022HOLD FOR IMMIGRATION$0NBGwinnett County PoliceCharges
11/12/2014 20:3911/22/2014 16:53STANLEYDESMONJAVAUN9950142699501426 2405 BRETDALE RD, DULUTH GA 30096* POSS TOOL FOR COMMISION OF A CRIME$975SBGwinnett County PoliceCharges
11/12/2014 20:3911/22/2014 16:53STANLEYDESMONJAVAUN9950142699501426 2405 BRETDALE RD, DULUTH GA 30096@ * THEFT BY SHOPLIFTING$975SBGwinnett County PoliceCharges
11/12/2014 20:02COLDEAFLORIN9947701599477015 3061 OAKCLIFF RD APT#89, ATLANTA GA 30340*AGGRAVATED STALKING$0NBGwinnett County SheriffCharges
11/12/2014 19:46ORTIZJULIOHERNANDEZ9928504199285041 1545 SPENDER DR, NORCROSS GA 30093* VIOLATION OF PROBATION$0NBProbationCharges
11/12/2014 19:3911/20/2014 18:38AGUIRRE-NAVARROGREGORIO9939842599398425 4209 WHITE RD, SNELLVILLE GA 30039FAILURE TO APPEAR$1112.5CBSnellville PoliceCharges
11/12/2014 19:37BRUMFIELDRONALDRAYMOND9947171199471711 4049 VALLEY BROOK RD, SNELLVILLE GA 30039* CREDIT CARD FRAUD$0NBLawrenceville PoliceCharges
11/12/2014 19:37BRUMFIELDRONALDRAYMOND9947171199471711 4049 VALLEY BROOK RD, SNELLVILLE GA 30039@ * BATTERY$0NBLawrenceville PoliceCharges
11/12/2014 19:37BRUMFIELDRONALDRAYMOND9947171199471711 4049 VALLEY BROOK RD, SNELLVILLE GA 30039@ * BATTERY$0NBLawrenceville PoliceCharges
11/12/2014 19:37BRUMFIELDRONALDRAYMOND9947171199471711 4049 VALLEY BROOK RD, SNELLVILLE GA 30039@ * THEFT OF LOST/MISLAID PROPERTY$2400SBLawrenceville PoliceCharges
11/12/2014 19:37BRUMFIELDRONALDRAYMOND9947171199471711 4049 VALLEY BROOK RD, SNELLVILLE GA 30039* GIVING FALSE NAME OR INFORMATION$1300SBLawrenceville PoliceCharges
11/12/2014 19:37BRUMFIELDRONALDRAYMOND9947171199471711 4049 VALLEY BROOK RD, SNELLVILLE GA 30039@ * ENTERING AN AUTO$0NBLawrenceville PoliceCharges
11/12/2014 19:37BRUMFIELDRONALDRAYMOND9947171199471711 4049 VALLEY BROOK RD, SNELLVILLE GA 30039* OBSTRUCTION LAW ENFORCEMENT OFFICER$2400SBLawrenceville PoliceCharges
11/12/2014 19:37BRUMFIELDRONALDRAYMOND9947171199471711 4049 VALLEY BROOK RD, SNELLVILLE GA 30039* VIOLATION OF PROBATION$0NBLawrenceville PoliceCharges
11/12/2014 19:37BRUMFIELDRONALDRAYMOND9947171199471711 4049 VALLEY BROOK RD, SNELLVILLE GA 30039* FALSE STATEMENTS$0NBLawrenceville PoliceCharges
11/12/2014 19:3111/13/2014 01:53FALCONJUAN CARLOS9951696599516965 144 JESTER LN, LAWRENCEVILLE GA 30043FAILURE TO OBEY STOP SIGN$68CBGwinnett County SheriffCharges
11/12/2014 19:3111/13/2014 01:53FALCONJUAN CARLOS9951696599516965 144 JESTER LN, LAWRENCEVILLE GA 30043*NO DRIVERS LICENSE$705CBGwinnett County SheriffCharges
11/12/2014 19:2911/13/2014 09:55GONZALEZDANYJOEL9948364599483645 1405 HILLARY COVE TERRACE, LAWRENCEVILLE GA 30043@ * THEFT BY SHOPLIFTING$2400SBGwinnett County PoliceCharges
11/12/2014 19:2611/24/2014 13:21RODRIGUEZJOSEBENIGNO9700406897004068 5620 EXECUTIVE WAY, NORCROSS GA 30071Failure to Appear$0NBNorcross PoliceCharges
11/12/2014 19:2611/24/2014 13:21RODRIGUEZJOSEBENIGNO9700406897004068 5620 EXECUTIVE WAY, NORCROSS GA 30071HOLD FOR IMMIGRATION$0NBNorcross PoliceCharges
11/12/2014 19:2011/20/2014 14:23MCCLURELANEYDEWAN9951696499516964 335 MAPLE WOOD, CALHOUN GA 30701Violation of Probation$0NBNorcross PoliceCharges
11/12/2014 19:1011/13/2014 00:58TARKOWSKICASSANDERALEIGH9951696399516963 2444 HARBINS RD, DACULA GA 30019*VGCSA OF C/S$2950SBGwinnett County SheriffCharges
11/12/2014 19:1011/13/2014 00:58TARKOWSKICASSANDERALEIGH9951696399516963 2444 HARBINS RD, DACULA GA 30019*LESS THAN AN OZ OF MARIJ.$1300SBGwinnett County SheriffCharges
11/12/2014 19:0211/13/2014 01:52TARKOWSKIANTHONYJOSEPH9951696199516961 2444 HARBINS RD, DACULA GA 30019*VGCSA INTENT DISTRIBUTE C/S$5700SBGwinnett County SheriffCharges
11/12/2014 19:0211/13/2014 00:44HAMILTONALEXMICHAEL9951696299516962 6427 SOMOA WAY, FLOWERY BRANCH GA 30592*DRIVING WHILE LICENSE SUSP/REVOKED$971.75SBDuluth PoliceCharges
11/12/2014 19:0211/13/2014 00:44HAMILTONALEXMICHAEL9951696299516962 6427 SOMOA WAY, FLOWERY BRANCH GA 30592DRIVERS TO GIVE OTHER DRIVERS HALF ROAD$104SBDuluth PoliceCharges
11/12/2014 18:5411/12/2014 21:20KEYDARRIUSMONTE9935801299358012 2116 LEAFMORE CT, GRAYSON GA 30017@ * BATTERY$2950CBGwinnett County SheriffCharges
11/12/2014 18:5011/13/2014 00:34WORKMANALICIAMARY9800489398004893 4699 ARDEN DR, BUFORD GA 30518@ * SIMPLE BATTERY$1300SBGwinnett County PoliceCharges
11/12/2014 18:4011/13/2014 15:57LINDSEYELIZABETH9951696099516960 2014 MANOR OAK LN, BUFORD GA 30519*DISORDERLY CONDUCT$405CBLilburn PoliceCharges
11/12/2014 18:31BRUMFEILDDEVINMAURICE9951149399511493 3746 OAKWOOD MNR, DECATUR GA 30032* CREDIT CARD FRAUD$5700SBLawrenceville PoliceCharges
11/12/2014 18:31BRUMFEILDDEVINMAURICE9951149399511493 3746 OAKWOOD MNR, DECATUR GA 30032@ * BATTERY$1300SBLawrenceville PoliceCharges
11/12/2014 18:31BRUMFEILDDEVINMAURICE9951149399511493 3746 OAKWOOD MNR, DECATUR GA 30032@ * BATTERY$1300SBLawrenceville PoliceCharges
11/12/2014 18:25LEEMICHAELJOSEPH9932224499322244 4699 ARDEN DR, BUFORD GA 30518@ * SIMPLE BATTERY$0NBGwinnett County PoliceCharges
11/12/2014 18:1011/13/2014 03:07JORDANMICHAELEUGENE9951695999516959 131 CREEKSIDE LN, CAIRO GA 39828OPERATING VEH WITH SUSP/CANC/REV REGISTR$705SBGwinnett County PoliceCharges
11/12/2014 18:1011/13/2014 03:07JORDANMICHAELEUGENE9951695999516959 131 CREEKSIDE LN, CAIRO GA 39828EXPIRED TAG$152SBGwinnett County PoliceCharges
11/12/2014 18:1011/13/2014 03:07JORDANMICHAELEUGENE9951695999516959 131 CREEKSIDE LN, CAIRO GA 39828* DRIVING WHILE LIC SUSP/REVOKED$705SBGwinnett County PoliceCharges
11/12/2014 18:02JONESALANVONSHAY9951695899516958 2211 NORTH SPRUS, WICHITA KS 67214HOLD FOR OTHER AGENCY$0NBSnellville PoliceCharges
11/12/2014 18:02JONESALANVONSHAY9951695899516958 2211 NORTH SPRUS, WICHITA KS 67214* FORGERY-1ST DEGREE$2400SBSnellville PoliceCharges
11/12/2014 18:02JONESALANVONSHAY9951695899516958 2211 NORTH SPRUS, WICHITA KS 67214*OBSTRUCTION OF OFFICER$2400SBSnellville PoliceCharges
11/12/2014 18:02JONESALANVONSHAY9951695899516958 2211 NORTH SPRUS, WICHITA KS 67214*FORGERY 4TH DEGREE$0NBSnellville PoliceCharges
11/12/2014 17:58GUERREROGERARDO9937166699371666APT B 2603 DORIAN DR, SNELLVILLE GA 30078* CRIMINAL DAMAGE TO PROPERTY-2ND DEGREE$2500SBSnellville PoliceCharges
11/12/2014 17:58GUERREROGERARDO9937166699371666APT B 2603 DORIAN DR, SNELLVILLE GA 30078*BURGLARY 2ND DEGREE$5000SBSnellville PoliceCharges
11/12/2014 17:5611/15/2014 14:01GONZALESJOSEMIGAL9927557899275578APT 2A 3368 FAIRWAY OAKS DR, LAWRENCEVILLE GA 30044*SUSPENDED/REVOKED LIC$0NBSnellville PoliceCharges
11/12/2014 17:4711/14/2014 18:16SCOTTKALAONEISHA9948413399484133APT 1306 1470 BOGGS RD, DULUTH GA 30096Violation of Probation$0NBGwinnett County PoliceCharges
11/12/2014 17:16WEBLERMATTHEWJAY9701038597010385 858 SAYBROOK CIR NW, LILBURN GA 30047OPEN CONTAINER VIOLATION$402.25ORDuluth PoliceCharges
11/12/2014 17:16WEBLERMATTHEWJAY9701038597010385 858 SAYBROOK CIR NW, LILBURN GA 30047@ * BURGLARY$0NBDuluth PoliceCharges
11/12/2014 17:16WEBLERMATTHEWJAY9701038597010385 858 SAYBROOK CIR NW, LILBURN GA 30047* VIOLATION OF PROBATION$0NBDuluth PoliceCharges
11/12/2014 17:0711/20/2014 13:03FOSTEREBONYDENELL9942418999424189 1958 GLADEVIEW PKWY, STONE MOUNTAIN GA 30083RUNNING RED LIGHT$68SBGwinnett County PoliceCharges
11/12/2014 17:0711/20/2014 13:03FOSTEREBONYDENELL9942418999424189 1958 GLADEVIEW PKWY, STONE MOUNTAIN GA 30083M/V WRONG SIDE OF ROAD$68SBGwinnett County PoliceCharges
11/12/2014 17:0711/20/2014 13:03FOSTEREBONYDENELL9942418999424189 1958 GLADEVIEW PKWY, STONE MOUNTAIN GA 30083* OBSTRUCTION LAW ENFORCEMENT OFFICER$1300SBGwinnett County PoliceCharges
11/12/2014 17:0711/20/2014 13:03FOSTEREBONYDENELL9942418999424189 1958 GLADEVIEW PKWY, STONE MOUNTAIN GA 30083* GIVING FALSE NAME OR INFORMATION$1300SBGwinnett County PoliceCharges
11/12/2014 17:0711/20/2014 13:03FOSTEREBONYDENELL9942418999424189 1958 GLADEVIEW PKWY, STONE MOUNTAIN GA 30083HOLD FOR OTHER AGENCY$0NBGwinnett County PoliceCharges
11/12/2014 16:4611/14/2014 16:07MUHURHADISHT9951695099516950 3520 INDIAN CREEK WAY, CLARKSTON GA 30021FAILURE TO YIELD FOR EMERGENCY$68ORGA State PatrolCharges
11/12/2014 16:4611/14/2014 16:07MUHURHADISHT9951695099516950 3520 INDIAN CREEK WAY, CLARKSTON GA 30021IMPROPER/ERRATIC LANE CHANGE$68ORGA State PatrolCharges
11/12/2014 16:4611/14/2014 16:07MUHURHADISHT9951695099516950 3520 INDIAN CREEK WAY, CLARKSTON GA 30021IMPEDING THE FLOW OF TRAFFIC$68ORGA State PatrolCharges
11/12/2014 16:3311/13/2014 13:48BOSSDARREISHAKRISTINE9951694999516949 1419 ELM RIDGE DR, STONE MOUNTAIN GA 30083POSSESSION OF MARIJUANA <1 OZ.$654SBLawrenceville PoliceCharges
11/12/2014 16:3311/13/2014 13:48BOSSDARREISHAKRISTINE9951694999516949 1419 ELM RIDGE DR, STONE MOUNTAIN GA 30083LOITERING FOR DRUGS$367SBLawrenceville PoliceCharges
11/12/2014 16:3211/13/2014 13:44SLAUGHTERQUINTAVIANICOLE9951694899516948 5778 WELLBORN CREEK DR, LITHONIA GA 30058POSSESSION OF MARIJUANA <1 OZ.$654SBLawrenceville PoliceCharges
11/12/2014 16:3211/13/2014 13:44SLAUGHTERQUINTAVIANICOLE9951694899516948 5778 WELLBORN CREEK DR, LITHONIA GA 30058LOITERING FOR DRUGS$367SBLawrenceville PoliceCharges
11/12/2014 16:2911/13/2014 01:05SHORTPOLLYANN9951694799516947 6169 WILLOW RUN RD, NORCROSS GA 30092* DUI-ALCOHOL$2006SBGwinnett County PoliceCharges
11/12/2014 16:2311/13/2014 13:18THAMMASITHIKOUNANOURAK9951694699516946 1006 LONGLEAF DR, FOREST PARK GA 30297*THEFT X SHOPLIFTING$420CBLilburn PoliceCharges
11/12/2014 15:5811/14/2014 17:17WANJOHIANDREWMURIUKI9949869099498690 6634 CLUB VIEW CT, FLOWERY BRANCH GA 30542FAILURE TO APPEAR$0ORGwinnett County SheriffCharges
11/12/2014 15:4811/24/2014 20:48WALKERDYLANSCOTT9944295999442959 2097 CRESCENT DR, SNELLVILLE GA 30078FAILURE TO HAVE LICENSE ON PERSON$19SBGA State PatrolCharges
11/12/2014 15:4811/24/2014 20:48WALKERDYLANSCOTT9944295999442959 2097 CRESCENT DR, SNELLVILLE GA 30078IMPROPER LANE USAGE$68SBGA State PatrolCharges
11/12/2014 15:4811/24/2014 20:48WALKERDYLANSCOTT9944295999442959 2097 CRESCENT DR, SNELLVILLE GA 30078Violation of Probation$0NBGA State PatrolCharges
11/12/2014 15:4611/13/2014 03:02CISNEROSJONATHAN9946470599464705 1094 HOLLY CIR, FOREST PARK GA 30297HOLD FOR OTHER AGENCY$0NBDuluth PoliceCharges
11/12/2014 15:4111/20/2014 12:33KHIEVPIERREBRUCE9937067699370676 1959 AMERICAN WAY, LAWRENCEVILLE GA 30043@ * ROBBERY$0NBGwinnett County SheriffCharges
11/12/2014 15:34KHIEVKERRY9923670699236706 2890 DOGWOOD HOLLOW LN, LAWRENCEVILLE GA 30043FAILURE TO PAY/CHILD SUPPORT$9722.91CBGwinnett County SheriffCharges
11/12/2014 15:26OSPINAGREGORY9942136399421363 1158 SPARKLING COVE DR, BUFORD GA 30518@ * AGG CHILD MOLESTATION$0NBGwinnett County SheriffCharges
11/12/2014 15:26OSPINAGREGORY9942136399421363 1158 SPARKLING COVE DR, BUFORD GA 30518@ * STATUTORY RAPE$5700SBGwinnett County SheriffCharges
11/12/2014 15:21MCINTOSHCALVINDOUGLAS9936135699361356APT 43F 4701 FLAT SHOALS RD, UNION CITY GA 30291*CRUELTY CHILDREN 2ND.$0NBGwinnett County PoliceCharges
11/12/2014 15:21MCINTOSHCALVINDOUGLAS9936135699361356APT 43F 4701 FLAT SHOALS RD, UNION CITY GA 30291@ * CRUELTY TO CHILDREN$0NBGwinnett County PoliceCharges
11/12/2014 15:21MCINTOSHCALVINDOUGLAS9936135699361356APT 43F 4701 FLAT SHOALS RD, UNION CITY GA 30291@ * MURDER$0NBGwinnett County PoliceCharges
11/12/2014 15:21MCINTOSHCALVINDOUGLAS9936135699361356APT 43F 4701 FLAT SHOALS RD, UNION CITY GA 30291@ * CRUELTY TO CHILDREN$0NBGwinnett County PoliceCharges
11/12/2014 15:21MCINTOSHCALVINDOUGLAS9936135699361356APT 43F 4701 FLAT SHOALS RD, UNION CITY GA 30291@ * INCEST$0NBGwinnett County PoliceCharges
11/12/2014 15:21MCINTOSHCALVINDOUGLAS9936135699361356APT 43F 4701 FLAT SHOALS RD, UNION CITY GA 30291@ * CRUELTY TO CHILDREN$0NBGwinnett County PoliceCharges
11/12/2014 15:21MCINTOSHCALVINDOUGLAS9936135699361356APT 43F 4701 FLAT SHOALS RD, UNION CITY GA 30291@ * CRUELTY TO CHILDREN$0NBGwinnett County PoliceCharges
11/12/2014 15:21MCINTOSHCALVINDOUGLAS9936135699361356APT 43F 4701 FLAT SHOALS RD, UNION CITY GA 30291@ * MURDER$0NBGwinnett County PoliceCharges
11/12/2014 15:21MCINTOSHCALVINDOUGLAS9936135699361356APT 43F 4701 FLAT SHOALS RD, UNION CITY GA 30291@ * SODOMY/AGGRAVATED SODOMY$0NBGwinnett County PoliceCharges
11/12/2014 15:21MCINTOSHCALVINDOUGLAS9936135699361356APT 43F 4701 FLAT SHOALS RD, UNION CITY GA 30291CRUELTY TO PERSON 65 OR OLDER$0NBGwinnett County PoliceCharges
11/12/2014 15:21MCINTOSHCALVINDOUGLAS9936135699361356APT 43F 4701 FLAT SHOALS RD, UNION CITY GA 30291@ * RAPE$0NBGwinnett County PoliceCharges
11/12/2014 15:1111/14/2014 16:26WHITEBRITTANYNICOLE9951694199516941APT 137 171 CORY DR, LENOIR TN 37771UNSAFE TIRES$123ORSuwanee PoliceCharges
11/12/2014 15:1111/14/2014 16:26WHITEBRITTANYNICOLE9951694199516941APT 137 171 CORY DR, LENOIR TN 37771OPEN CONTAINER$286ORSuwanee PoliceCharges
11/12/2014 15:1111/14/2014 16:26WHITEBRITTANYNICOLE9951694199516941APT 137 171 CORY DR, LENOIR TN 37771WINDSHIELD / WINDOW WIPER REQUIREMENTS$123ORSuwanee PoliceCharges
11/12/2014 15:1111/14/2014 16:26WHITEBRITTANYNICOLE9951694199516941APT 137 171 CORY DR, LENOIR TN 37771*SUSPENDED LICENSE$1176.25ORSuwanee PoliceCharges
11/12/2014 15:1111/14/2014 16:26WHITEBRITTANYNICOLE9951694199516941APT 137 171 CORY DR, LENOIR TN 37771SAFETY BELT VIOLATION ADULTS$15ORSuwanee PoliceCharges
11/12/2014 15:0611/12/2014 22:03DUBOISJOSHUA9951694099516940 224 BRADFORD CREEK TRL, DULUTH GA 30096*VGCSA LESS THAN 1 OZ.$1150.25SBDuluth PoliceCharges
11/12/2014 14:4811/12/2014 19:54CLARKJONATHONANTHONY9951693899516938 1352 CHANDLER COVE WAY, GRAYSON GA 30017*SHOPLIFTING LESS THAN 300.00$558.5SBSnellville PoliceCharges
11/12/2014 14:3611/13/2014 01:56RICHLARRY9951693799516937APT 208 2745 HAPEVILLE RD SW, ATLANTA GA 30354*FORGERY 4TH DEGREE$1850SBLawrenceville PoliceCharges
11/12/2014 14:3311/12/2014 19:53DAVENPORTJAMESCHRISTOPHER9915152799151527 1355 THUNDER GULCH PASS, SUWANEE GA 30024*DRIVING WHILE LICENSE SUSP/REVOKED$971.75CBDuluth PoliceCharges
11/12/2014 14:26MAYBERRYGARYJULIAN9950691999506919 2291 3RD AVE APT 317, NEW YORK NY 10036* DRIVING WHILE LIC SUSP/REVOKED$0NBGwinnett County SheriffCharges
11/12/2014 14:26MAYBERRYGARYJULIAN9950691999506919 2291 3RD AVE APT 317, NEW YORK NY 10036FAILURE TO APPEAR$3100CBGwinnett County SheriffCharges
11/12/2014 14:26MAYBERRYGARYJULIAN9950691999506919 2291 3RD AVE APT 317, NEW YORK NY 10036FAILURE TO APPEAR$1055CBGwinnett County SheriffCharges
11/12/2014 14:26MAYBERRYGARYJULIAN9950691999506919 2291 3RD AVE APT 317, NEW YORK NY 10036HOLD FOR OTHER AGENCY$0NBGwinnett County SheriffCharges
11/12/2014 14:26MAYBERRYGARYJULIAN9950691999506919 2291 3RD AVE APT 317, NEW YORK NY 10036* DRIVING WHILE LIC SUSP/REVOKED$0NBGwinnett County SheriffCharges
11/12/2014 14:26MAYBERRYGARYJULIAN9950691999506919 2291 3RD AVE APT 317, NEW YORK NY 10036* DRIVING WHILE LIC SUSP/REVOKED$0NBGwinnett County SheriffCharges
11/12/2014 14:26MAYBERRYGARYJULIAN9950691999506919 2291 3RD AVE APT 317, NEW YORK NY 10036FAILURE TO APPEAR$805CBGwinnett County SheriffCharges
11/12/2014 14:1911/18/2014 21:00PEREZJAVIERFERNANDO9942217099422170 5891 WESTERN HILLS, NORCROSS GA 30071* FLEEING OR ATTEMPTING TO ELUDE$0NBGwinnett County SheriffCharges
11/12/2014 14:13TOWNSENDANDRETYRONE9913804699138046 3100 SWEETWATER ROAD, APT. 509, LAWRENCEVILLE GA 30044* DUI - DRUGS/ALCOHOL$0NBGwinnett County SheriffCharges
11/12/2014 14:13TOPPINESTHERMICHELLE9949393799493937 2265 PLASTER RD APT 10, ATLANTA GA 30345@ * AGGRAVATED ASSAULT$0NBGwinnett County SheriffCharges
11/12/2014 14:0011/12/2014 20:19MATUTEFREDERICK9937684899376848 1133 BRITIAN DR, LAWRENCEVILLE GA 30044*LICENSE:DRIVING WHILE UNLIC. OR EXPIRED$731.25SBDuluth PoliceCharges
11/12/2014 13:52JUDSONCARLSAMPSON III9942486499424864 2055 KILLIAN HILL RD, SNELLVILLE GA 30093@ * BATTERY$1300SBGwinnett County SheriffCharges
11/12/2014 13:52JUDSONCARLSAMPSON III9942486499424864 2055 KILLIAN HILL RD, SNELLVILLE GA 30093Violation of Probation$0NBGwinnett County SheriffCharges
11/12/2014 13:4511/12/2014 21:46POOLEMARIODEONTA9951693699516936 11105 SAINT JAMES DR, CONYERS GA 30014SAFETY BELTS VIOLATION (ADULTS)$15CBLawrenceville PoliceCharges
11/12/2014 13:4511/12/2014 21:46POOLEMARIODEONTA9951693699516936 11105 SAINT JAMES DR, CONYERS GA 30014*DRIVING WHILE LIC.SUSP/REVOKED$803CBLawrenceville PoliceCharges
11/12/2014 13:3411/12/2014 15:12WITUKAMASONCRUISE9951693599516935 2989 WEST ROCK QUARRY RD, BUFORD GA 30519@ * PUBLIC INDECENCY$5700SBDOCCharges
11/12/2014 13:3411/12/2014 15:12WITUKAMASONCRUISE9951693599516935 2989 WEST ROCK QUARRY RD, BUFORD GA 30519* Riot in a Penal Institution$5700SBDOCCharges
11/12/2014 13:29FREELOVETOMMIJO9942075599420755 554 JACKSON PARK LN, SUWANEE GA 30024* VIOLATION OF PROBATION$0NBProbationCharges
11/12/2014 13:1511/13/2014 03:24CURRYMICHELEDENISE9947803799478037 1029 MITFORD LN, DACULA GA 30019Failure to Appear$1316.5CBDuluth PoliceCharges
11/12/2014 13:1411/12/2014 15:43REEDSIBELTRIPLETT9951693499516934 3744 W CHASE VILLAGE LN APT F, NORCROSS GA 30092* DRIVING WHILE LICENSE WITHDRAWN$0NBGwinnett County SheriffCharges
11/12/2014 13:0811/26/2014 21:21WILLIAMSRICHARDANTHONY9600476196004761 1806 N.W. 107 ST, MIAMI FL 33167Violation of Probation$0NBGwinnett County SheriffCharges
11/12/2014 13:0811/26/2014 21:21WILLIAMSRICHARDANTHONY9600476196004761 1806 N.W. 107 ST, MIAMI FL 33167HOLD FOR OTHER AGENCY$0NBGwinnett County SheriffCharges
11/12/2014 13:0811/26/2014 21:21WILLIAMSRICHARDANTHONY9600476196004761 1806 N.W. 107 ST, MIAMI FL 33167* VIOLATION OF PROBATION$0NBGwinnett County SheriffCharges
11/12/2014 13:0411/17/2014 16:07PRESSLEYHERACENEAL9945941099459410APT 2325 4705 W VILLAGE WAY SE, SMYRNA GA 30080Violation of Probation$0NBGwinnett County SheriffCharges
11/12/2014 12:59ALLENCHRISTOPHERASHLY9938894399388943 2761 ROCKDALE DR, DECATUR GA 30034* VIOLATION OF PROBATION$0NBGwinnett County SheriffCharges
11/12/2014 12:59ALLENCHRISTOPHERASHLY9938894399388943 2761 ROCKDALE DR, DECATUR GA 30034HOLD FOR OTHER AGENCY$0NBGwinnett County SheriffCharges
11/12/2014 12:54BREWERANSONMERCER9933424899334248 147 26TH ST APT 3009, ATLANTA GA 30309* VIOLATION OF PROBATION$0NBGwinnett County SheriffCharges
11/12/2014 12:54BREWERANSONMERCER9933424899334248 147 26TH ST APT 3009, ATLANTA GA 30309HOLD FOR OTHER AGENCY$0NBGwinnett County SheriffCharges
11/12/2014 12:54BREWERANSONMERCER9933424899334248 147 26TH ST APT 3009, ATLANTA GA 30309HOLD FOR OTHER AGENCY$0NBGwinnett County SheriffCharges
11/12/2014 12:54BREWERANSONMERCER9933424899334248 147 26TH ST APT 3009, ATLANTA GA 30309HOLD FOR OTHER AGENCY$0NBGwinnett County SheriffCharges
11/12/2014 12:51GREENGERALDSEAN9916086499160864 374 HARDIN HOME WAY, LAWRENCEVILLE GA 30043* VIOLATION OF PROBATION$0NBGwinnett County SheriffCharges
11/12/2014 12:51GREENGERALDSEAN9916086499160864 374 HARDIN HOME WAY, LAWRENCEVILLE GA 30043@ * FALSE IMPRISONMENT$0NBGwinnett County SheriffCharges
11/12/2014 12:51GREENGERALDSEAN9916086499160864 374 HARDIN HOME WAY, LAWRENCEVILLE GA 30043@ * RECKLESS CONDUCT$0NBGwinnett County SheriffCharges
11/12/2014 12:51GREENGERALDSEAN9916086499160864 374 HARDIN HOME WAY, LAWRENCEVILLE GA 30043@ * SIMPLE ASSAULT$0NBGwinnett County SheriffCharges
11/12/2014 12:4211/22/2014 00:25THOMPSONANTOINETTESHONTAE9951074699510746 931 OLD NORCROSS TUCKER RD, TUCKER GA 30084*OBSTRUCTION OF OFFICER$2400SBLawrenceville PoliceCharges
11/12/2014 12:4211/22/2014 00:25THOMPSONANTOINETTESHONTAE9951074699510746 931 OLD NORCROSS TUCKER RD, TUCKER GA 30084* CREDIT CARD FRAUD$0NBLawrenceville PoliceCharges
11/12/2014 12:3211/20/2014 13:36CAESARALLEN9951693399516933 1829 CAMPELLTON RD APT F2, ATLANTA GA 30311@ * THEFT BY RECEIVING$2400SBGwinnett County PoliceCharges
11/12/2014 12:1911/12/2014 21:50BOEJUSTINCHRISTIAN9951693299516932 740 GEORGIAN HILLS DR, LAWRENCEVILLE GA 30045* CREDIT CARD FRAUD$5700SBLawrenceville PoliceCharges
11/12/2014 12:1911/12/2014 21:50BOEJUSTINCHRISTIAN9951693299516932 740 GEORGIAN HILLS DR, LAWRENCEVILLE GA 30045@ * BATTERY$2400SBLawrenceville PoliceCharges
11/12/2014 12:1711/12/2014 21:13BELLDANIELLECATRICE9951693199516931 3806 TREE SUMMIT PKWY, DULUTH GA 30096HOLD FOR OTHER AGENCY$0NBDuluth PoliceCharges
11/12/2014 12:1111/21/2014 14:56BROOKSEUGENEGENO9951218199512181 2920 DOWRY DR, LAWRENCEVILLE GA 30044Violation of Probation$0NBGwinnett County SheriffCharges
11/12/2014 11:5311/12/2014 21:48MANSONRASHEEDAHMED9936684999366849 4005 KNOTTS PASS RD, SNELLVILLE GA 30039-8770SPEEDING$169SBLilburn PoliceCharges
11/12/2014 11:5311/12/2014 21:48MANSONRASHEEDAHMED9936684999366849 4005 KNOTTS PASS RD, SNELLVILLE GA 30039-8770*DRIVING WHILE LIC SUSP/REV$715SBLilburn PoliceCharges
11/12/2014 11:5311/12/2014 21:48MANSONRASHEEDAHMED9936684999366849 4005 KNOTTS PASS RD, SNELLVILLE GA 30039-8770DISORDERLY CONDUCT$420SBLilburn PoliceCharges
11/12/2014 11:3711/12/2014 20:41HOLLANDBRANDIARIANNA9951693099516930 3205 PARK LAKE LANE, NORCROSS GA 30092@ * SIMPLE ASSAULT$2400SBGwinnett County PoliceCharges
11/12/2014 11:1511/20/2014 19:07NECOLAMAGDYABDELMASIH9938494199384941 2372 HALCYON WAY, LAWRENCEVILLE GA 30044Violation of Probation$0NBNorcross PoliceCharges
11/12/2014 11:1511/20/2014 19:07NECOLAMAGDYABDELMASIH9938494199384941 2372 HALCYON WAY, LAWRENCEVILLE GA 30044Violation of Probation$365FINorcross PoliceCharges
11/12/2014 11:0411/12/2014 13:39CLARKWAYNELAMONT9951692999516929 5256 BUFORD HWY, NORCROSS GA 30071HOLD FOR OTHER AGENCY$0NBDuluth PoliceCharges
11/12/2014 10:36WILLISREGINALD9938038899380388 7107 MAGNOLIA POINTE BLVD, DULUTH GA 30096* VIOLATION OF PROBATION$0NBDOCCharges
11/12/2014 10:3011/12/2014 17:02FITZGERALDCHASITYCHNAE9947356399473563 1667 DUREN FIELDS WAY, LITHONIA GA 30058IMPROPER/ERRATIC LANE CHANGE$68SBGA State PatrolCharges
11/12/2014 10:3011/12/2014 17:02FITZGERALDCHASITYCHNAE9947356399473563 1667 DUREN FIELDS WAY, LITHONIA GA 30058* DRIVING WHILE LIC SUSP/REVOKED$705SBGA State PatrolCharges
11/12/2014 10:0711/14/2014 12:36CLARKROGERHOWARD JR.89167858916785 2156 HIGHWAY 106 N, DANIELSVILLE GA 30633HOLD FOR OTHER AGENCY$0NBSuwanee PoliceCharges
11/12/2014 10:0711/14/2014 12:36CLARKROGERHOWARD JR.89167858916785 2156 HIGHWAY 106 N, DANIELSVILLE GA 30633*SUSPENDED LICENSE$1176.25ORSuwanee PoliceCharges
11/12/2014 10:0711/14/2014 12:36CLARKROGERHOWARD JR.89167858916785 2156 HIGHWAY 106 N, DANIELSVILLE GA 30633USING TAG TO CONCEAL VEHICLE ID$150ORSuwanee PoliceCharges
11/12/2014 10:0711/14/2014 12:36CLARKROGERHOWARD JR.89167858916785 2156 HIGHWAY 106 N, DANIELSVILLE GA 30633NO PROOF INSURANCE$648ORSuwanee PoliceCharges
11/12/2014 10:0711/14/2014 12:36CLARKROGERHOWARD JR.89167858916785 2156 HIGHWAY 106 N, DANIELSVILLE GA 30633KNOWINGLY DRIVING MV W/SUSP/REV REG$727ORSuwanee PoliceCharges
11/12/2014 09:5411/12/2014 14:44MORRISSARAJANE9951692899516928 3107 MONTHEATH PASS, DULUTH GA 30096FAILURE TO APPEAR$168CBGwinnett County PoliceCharges
11/12/2014 09:3211/18/2014 11:46SANTIAGO-RUIZALFREDO9938614599386145 945 ASHLAND PARK WAY, LAWRENCEVILLE GA 30045Violation of Probation$0NBGA State PatrolCharges
11/12/2014 09:3211/18/2014 11:46SANTIAGO-RUIZALFREDO9938614599386145 945 ASHLAND PARK WAY, LAWRENCEVILLE GA 30045HOLD FOR IMMIGRATION$0NBGA State PatrolCharges
11/12/2014 09:2711/13/2014 18:49JIMENEZJOSEDANIEL9951692799516927 1913 POPLAR RIDGE, LAWRENCEVILLE GA 30044* VGCSA WITHIN 1000 FEET OF SCHOOLS$5700SBGwinnett County Public Schools PoliceCharges
11/12/2014 09:1911/14/2014 00:38MCINTOSHNAJLAAA9951692699516926 7065 JIMMY CARTER BLVD, PEACHTREE CORNERS GA 30092*CRUELTY CHILDREN 2ND.$0NBGwinnett County PoliceCharges
11/12/2014 09:1911/14/2014 00:38MCINTOSHNAJLAAA9951692699516926 7065 JIMMY CARTER BLVD, PEACHTREE CORNERS GA 30092@ * CRUELTY TO CHILDREN$0NBGwinnett County PoliceCharges
11/12/2014 09:1911/14/2014 00:38MCINTOSHNAJLAAA9951692699516926 7065 JIMMY CARTER BLVD, PEACHTREE CORNERS GA 30092@ * CRUELTY TO CHILDREN$0NBGwinnett County PoliceCharges
11/12/2014 09:1911/14/2014 00:38MCINTOSHNAJLAAA9951692699516926 7065 JIMMY CARTER BLVD, PEACHTREE CORNERS GA 30092@ * CRUELTY TO CHILDREN$0NBGwinnett County PoliceCharges
11/12/2014 09:1911/14/2014 00:38MCINTOSHNAJLAAA9951692699516926 7065 JIMMY CARTER BLVD, PEACHTREE CORNERS GA 30092@ * MURDER$0NBGwinnett County PoliceCharges
11/12/2014 09:1911/14/2014 00:38MCINTOSHNAJLAAA9951692699516926 7065 JIMMY CARTER BLVD, PEACHTREE CORNERS GA 30092CRUELTY TO PERSON 65 OR OLDER$0NBGwinnett County PoliceCharges
11/12/2014 09:1911/14/2014 00:38MCINTOSHNAJLAAA9951692699516926 7065 JIMMY CARTER BLVD, PEACHTREE CORNERS GA 30092@ * MURDER$0NBGwinnett County PoliceCharges
11/12/2014 09:1911/14/2014 00:38MCINTOSHNAJLAAA9951692699516926 7065 JIMMY CARTER BLVD, PEACHTREE CORNERS GA 30092@ * CRUELTY TO CHILDREN$0NBGwinnett County PoliceCharges
11/12/2014 09:1611/12/2014 10:45WILLIAMSTRACEYLYNN9951692599516925 2255 SATELLITE BLVD, DULUTH GA 30096* DRIVING WHILE LICENSE WITHDRAWN$0NBGwinnett County SheriffCharges
11/12/2014 09:1311/13/2014 17:44TAPIARAFAELIVAN9950123199501231 492 DOGWOOD DR NW, LILBURN GA 30047Violation of Probation$0NBGwinnett County SheriffCharges
11/12/2014 08:5511/18/2014 15:11OLIVERRANDALLWAYNE9200769992007699 2830 OLDE HARVARD LNDG, CUMMING GA 30041Violation of Probation$1722CBLawrenceville PoliceCharges
11/12/2014 08:4911/12/2014 12:52CLARKJIMMYLEE9951692399516923 42 SUGAR MAPLE LN, CHAPIN SC 29036ENTERING OR CROSSING ROADWAY$148CBLawrenceville PoliceCharges
11/12/2014 08:4911/12/2014 12:52CLARKJIMMYLEE9951692399516923 42 SUGAR MAPLE LN, CHAPIN SC 29036EXPIRED OR NO LICENSE ON PERSON$393CBLawrenceville PoliceCharges
11/12/2014 08:3011/17/2014 13:59CAMPUZANO HEREDIAJUANPABLO9951692299516922 3814 BUFORD HWY APT D1, ATLANTA GA 30329FAILURE TO OBEY TRAFFIC CONTROL$123ORSuwanee PoliceCharges
11/12/2014 08:3011/17/2014 13:59CAMPUZANO HEREDIAJUANPABLO9951692299516922 3814 BUFORD HWY APT D1, ATLANTA GA 30329*DRIVING WHILE LICENSE SUSPENDED$1207ORSuwanee PoliceCharges
11/12/2014 08:3011/17/2014 13:59CAMPUZANO HEREDIAJUANPABLO9951692299516922 3814 BUFORD HWY APT D1, ATLANTA GA 30329HOLD FOR IMMIGRATION$0NBSuwanee PoliceCharges
11/12/2014 08:1411/19/2014 14:21JAMERSONBRENTANTHONY9931198899311988 4807 SPRUCE ST, GAINESVILLE GA 30060Violation of Probation$971CBLawrenceville PoliceCharges
11/12/2014 08:1411/19/2014 14:21JAMERSONBRENTANTHONY9931198899311988 4807 SPRUCE ST, GAINESVILLE GA 30060HOLD FOR OTHER AGENCY$0NBLawrenceville PoliceCharges
11/12/2014 07:4311/14/2014 07:05BRANDANTHONYCALVIN9951692199516921 317 NW 6CT, DEERFIELD BEACH FL 33441IMPROPER/ERRATIC LANE CHANGE$68ORGA State PatrolCharges
11/12/2014 07:4311/14/2014 07:05BRANDANTHONYCALVIN9951692199516921 317 NW 6CT, DEERFIELD BEACH FL 33441* FLEEING OR ATTEMPTING TO ELUDE$705ORGA State PatrolCharges
11/12/2014 07:4311/14/2014 07:05BRANDANTHONYCALVIN9951692199516921 317 NW 6CT, DEERFIELD BEACH FL 33441VIOLATING RESTRICTION OF DRIVER LICENSE$68ORGA State PatrolCharges
11/12/2014 05:5211/14/2014 15:39ANDREWSRONALDRUSHAWN9944031099440310 516 SOSEBEE FARM RD UNIT 1113, GRAYSON GA 30017* DUI-ALCOHOL$2006ORGwinnett County PoliceCharges
11/12/2014 05:5211/14/2014 15:39ANDREWSRONALDRUSHAWN9944031099440310 516 SOSEBEE FARM RD UNIT 1113, GRAYSON GA 30017*DRIVING W/O LICENSE-FAIL OBTAIN 30 DAYS$705ORGwinnett County PoliceCharges
11/12/2014 05:5211/14/2014 15:39ANDREWSRONALDRUSHAWN9944031099440310 516 SOSEBEE FARM RD UNIT 1113, GRAYSON GA 30017FAILURE TO OBEY TRAFFIC DEVICE$56ORGwinnett County PoliceCharges
11/12/2014 05:5211/14/2014 15:39ANDREWSRONALDRUSHAWN9944031099440310 516 SOSEBEE FARM RD UNIT 1113, GRAYSON GA 30017IMPROPER LANE CHANGE$68SBGwinnett County PoliceCharges
11/12/2014 05:5211/14/2014 15:39ANDREWSRONALDRUSHAWN9944031099440310 516 SOSEBEE FARM RD UNIT 1113, GRAYSON GA 30017SPEEDING$40SBGwinnett County PoliceCharges
11/12/2014 05:5211/14/2014 15:39ANDREWSRONALDRUSHAWN9944031099440310 516 SOSEBEE FARM RD UNIT 1113, GRAYSON GA 30017* DUI-MORE THAN 0.10 % BLOOD/ALCOHOL$2006SBGwinnett County PoliceCharges
11/12/2014 05:5211/14/2014 15:39ANDREWSRONALDRUSHAWN9944031099440310 516 SOSEBEE FARM RD UNIT 1113, GRAYSON GA 30017FAILURE TO OBEY TRAFFIC DEVICE$56ORGwinnett County PoliceCharges
11/12/2014 05:4311/14/2014 05:27GREENSTEVENCHRISTOPHER9905280199052817 2329 BEAVER FALLS DR, NORCROSS GA 30071URBAN CAMPING$345ORNorcross PoliceCharges
11/12/2014 05:0111/20/2014 22:42ANGUINCHRISTINAKELLESHA9944547899445478 2209 SUMMERTOWN DR, NORCROSS GA 30071* POSS OF FIREARM BY CONVICTED FELON$5700SBSuwanee PoliceCharges
11/12/2014 04:5711/12/2014 17:13LEESANGIK9934346899343468 317 MYRTLE TRACE LN, SUWANEE GA 30024*DRIVING WHILE LICENSE SUSPENDED$1207CBSuwanee PoliceCharges
11/12/2014 04:5711/12/2014 17:13LEESANGIK9934346899343468 317 MYRTLE TRACE LN, SUWANEE GA 30024LIGHTS ON 1/2 HR SUNRISE/SUNSET$123CBSuwanee PoliceCharges
11/12/2014 04:5711/12/2014 17:13LEESANGIK9934346899343468 317 MYRTLE TRACE LN, SUWANEE GA 30024POSSESSION OF MARIJUANA LESS THAN 1 OUNC$1220CBSuwanee PoliceCharges
11/12/2014 04:2911/19/2014 18:38SMITHJIMMYLEE9951691999516919 255 HONEYSUCKLE CIRCLE, APT. 1002, LAWRENCEVILLE GA 30046FAILURE TO APPEAR$860.5CBGwinnett County PoliceCharges
11/12/2014 04:1111/12/2014 18:44RICHARDSONERICKA9951691899516918 3238 WINDSCAPE VILLAGE LN APT I, NORCROSS GA 30093* DUI-ALCOHOL$2006SBGwinnett County PoliceCharges
11/12/2014 04:1111/12/2014 18:44RICHARDSONERICKA9951691899516918 3238 WINDSCAPE VILLAGE LN APT I, NORCROSS GA 30093IMPROPER LANE CHANGE$68SBGwinnett County PoliceCharges
11/12/2014 03:4311/14/2014 01:28COLEYDAMARISCORNELL9920537999207013 1336 AMBER TRL, DULUTH GA 30096* DUI-ALCOHOL$2006ORGwinnett County PoliceCharges
11/12/2014 03:4311/14/2014 01:28COLEYDAMARISCORNELL9920537999207013 1336 AMBER TRL, DULUTH GA 30096* DRIVING WHILE LIC SUSP/REVOKED$705ORGwinnett County PoliceCharges
11/12/2014 03:4311/14/2014 01:28COLEYDAMARISCORNELL9920537999207013 1336 AMBER TRL, DULUTH GA 30096DRIVING AN UNSAFE VEHICLE$96ORGwinnett County PoliceCharges
11/12/2014 03:4311/14/2014 01:28COLEYDAMARISCORNELL9920537999207013 1336 AMBER TRL, DULUTH GA 30096OPEN CONTAINER LAW$299ORGwinnett County PoliceCharges
11/12/2014 03:3611/12/2014 12:39TIEKUJOSEPH9951691799516917 2136 SHOAL CREEK RD, APT. A, BUFORD GA 30518* DUI-ALCOHOL$2006SBGwinnett County PoliceCharges
11/12/2014 03:3611/12/2014 12:39TIEKUJOSEPH9951691799516917 2136 SHOAL CREEK RD, APT. A, BUFORD GA 30518IMPROPER/ERRATIC LANE CHANGE$68SBGwinnett County PoliceCharges
11/12/2014 03:3611/12/2014 12:39TIEKUJOSEPH9951691799516917 2136 SHOAL CREEK RD, APT. A, BUFORD GA 30518OPERATING VEHICLE WHILE TEXT MESSAGING$155SBGwinnett County PoliceCharges
11/12/2014 03:2211/14/2014 08:33STEPHENSDAMIENLEE9951691699516916 1603 PHILLIPSBURG RD, WINDER GA 30680*DRIVING WHILE LIC. SUSP/REVOKED$707ORAuburn PDCharges
11/12/2014 03:2211/14/2014 08:33STEPHENSDAMIENLEE9951691699516916 1603 PHILLIPSBURG RD, WINDER GA 30680SPEEDING$224ORAuburn PDCharges
11/12/2014 03:2211/14/2014 08:33STEPHENSDAMIENLEE9951691699516916 1603 PHILLIPSBURG RD, WINDER GA 30680HOLD FOR OTHER AGENCY$0NBAuburn PDCharges
11/12/2014 03:0811/12/2014 09:04PAEKDAVIDMINYOUNG9951691599516915 2799 HIDDEN FALLS DR, BUFORD GA 30519*LESS THAN AN OZ OF MARIJ.$1300CBGwinnett County PoliceCharges
11/12/2014 02:53MCDUFFRICHARDSCOTT9950668299506682 1163 IVORY CIR, DOUGLASVILLE GA 30134FAILURE TO APPEAR$4850CBDuluth PoliceCharges
11/12/2014 02:2211/12/2014 09:01AKINYEMIBENJAMINOLUBODE9951691499516914 2050 GLEN PARKE CT, LAWRENCEVILLE GA 30044IMPROPER RIGHT TURN$56SBGwinnett County PoliceCharges
11/12/2014 02:2211/12/2014 09:01AKINYEMIBENJAMINOLUBODE9951691499516914 2050 GLEN PARKE CT, LAWRENCEVILLE GA 30044IMPROPER LANE CHANGE$68SBGwinnett County PoliceCharges
11/12/2014 02:2211/12/2014 09:01AKINYEMIBENJAMINOLUBODE9951691499516914 2050 GLEN PARKE CT, LAWRENCEVILLE GA 30044SPEEDING$180SBGwinnett County PoliceCharges
11/12/2014 02:2211/12/2014 09:01AKINYEMIBENJAMINOLUBODE9951691499516914 2050 GLEN PARKE CT, LAWRENCEVILLE GA 30044* DUI-ALCOHOL$2006SBGwinnett County PoliceCharges
11/12/2014 02:2011/12/2014 13:53PHAMTHANGTRONG9951691399516913 2140 STONE OAK DR, LAWRENCEVILLE GA 30043* DUI-ALCOHOL$2006CBGwinnett County PoliceCharges
11/12/2014 02:2011/12/2014 13:53PHAMTHANGTRONG9951691399516913 2140 STONE OAK DR, LAWRENCEVILLE GA 30043IMPROPER LANE CHANGE$68CBGwinnett County PoliceCharges
11/12/2014 02:2011/12/2014 13:53PHAMTHANGTRONG9951691399516913 2140 STONE OAK DR, LAWRENCEVILLE GA 30043SPEEDING$180CBGwinnett County PoliceCharges
11/12/2014 01:5011/12/2014 16:37HINDSEVERTONANTHONY9951691299516912 4756 BEAU POINT CT, SNELLVILLE GA 30039@ * SIMPLE BATTERY$5700SBGwinnett County PoliceCharges
11/12/2014 01:3111/12/2014 09:42NJIENIJAYOLANDA9951691199516911APT O5 100 CASTOR DR, NORCROSS GA 30071* DUI-MORE THAN 0.10%BLOOD ALCOHOL$2006SBGwinnett County PoliceCharges
11/12/2014 01:3111/12/2014 09:42NJIENIJAYOLANDA9951691199516911APT O5 100 CASTOR DR, NORCROSS GA 30071SPEEDING$215SBGwinnett County PoliceCharges
11/12/2014 01:1811/12/2014 15:16SILVADANIELALEXIS9951691099516910 5001 COMANCHE CT NW, LILBURN GA 30047*DRIVING WHILE LIC SUSP/REV$715SBLilburn PoliceCharges
11/12/2014 01:1811/12/2014 15:16SILVADANIELALEXIS9951691099516910 5001 COMANCHE CT NW, LILBURN GA 30047NO LICENSE PLATE$155SBLilburn PoliceCharges
11/11/2014 23:55PAGECHRISTOPHERBRAD9951690999516909 219 HARRISON TRAIL, ALTO GA 30510HOLD FOR OTHER AGENCY$0NBNorcross PoliceCharges
11/11/2014 23:55PAGECHRISTOPHERBRAD9951690999516909 219 HARRISON TRAIL, ALTO GA 30510*VGCSA OF C/S$0NBNorcross PoliceCharges
11/11/2014 23:55PAGECHRISTOPHERBRAD9951690999516909 219 HARRISON TRAIL, ALTO GA 30510*VGCSA OF C/S$0NBNorcross PoliceCharges
11/11/2014 23:1511/12/2014 18:51VAUGHNPRISCILLAANN9951690899516908 1271 BROOK KNOLL PL, LAWRENCEVILLE GA 30043* CRIMINAL TRESPASS$1300CBLawrenceville PoliceCharges
11/11/2014 23:0611/13/2014 23:07JENKINSSHARENAL9951690799516907 652 BUFORD DR, ROOM# 341, LAWRENCEVILLE GA 30046DISORDERLY CONDUCT$439ORLawrenceville PoliceCharges
11/11/2014 21:0811/11/2014 22:35GIBBS HARRINGTONKHALILAHTATIANA9951690699516906 978 BRAMBLE WAY, GRAYSON GA 30017*NO DRIVERS LICENSE$0NBGwinnett County SheriffCharges
11/11/2014 20:5111/12/2014 11:19JONESWILLIAMRALPH9937771799377717 110 WAYSIDE DR, LAWRENCEVILLE GA 30046@ * BATTERY$2950SBGwinnett County PoliceCharges
11/11/2014 20:0211/17/2014 19:22WATERSMARKANTOINE9951690599516905 791 GERTRUD EPL NW, ATLANTA GA 30318* OBTAINING DANGEROUS DRUGS BY FRAUD$2400SBSnellville PoliceCharges
11/11/2014 19:2611/12/2014 03:15WOODSWILLIAMJAMES9951690499516904 324 PACES COMMONS DR, DULUTH GA 30096@ * SIMPLE BATTERY$1300SBDuluth PoliceCharges
11/11/2014 18:5511/24/2014 11:24COLLINSCAITLYNVICTORIA9943588399435883 2827 OAK MEADOW LN, SNELLVILLE GA 30078Violation of Probation$0NBGwinnett County SheriffCharges
11/11/2014 18:5211/12/2014 01:41GONZALESOMARDANIEL9949728199497281 2611 PEREGRINE RD, SUWANEE GA 30024POSSESSION OF LESS THAN OZ MARIJUANA$585SBGwinnett County PoliceCharges
11/11/2014 18:5111/12/2014 16:38GARCIADAMIANNMN9951690399516903 997 WILSHIRE CT, LILBURN GA 30047* DRIVING WHILE LICENSE WITHDRAWN$705SBGwinnett County PoliceCharges
11/11/2014 18:2211/11/2014 22:54PENGJIUN-YEH9936104799361047 4620 ALLISON DR, SUGAR HILL GA 30518FOLLOWING TOO CLOSE$123CBSuwanee PoliceCharges
11/11/2014 18:2211/11/2014 22:54PENGJIUN-YEH9936104799361047 4620 ALLISON DR, SUGAR HILL GA 30518*DUI$1419.5CBSuwanee PoliceCharges
11/11/2014 18:0911/11/2014 23:21BARRYOUMOU9951690299516902 1603 ATKNSON PARK CIRCLE, LAWRENCEVILLE GA 30043@ * CRUELTY TO CHILDREN$2950CBGwinnett County PoliceCharges
11/11/2014 16:2511/12/2014 22:52MARSHALLSTACEYDENISE9951689799516897 3250 SWEETWATER RD APT 1805, LAWRENCEVILLE GA 30044VIOLATION OF PROBATION$0NBDuluth PoliceCharges
11/11/2014 16:2511/12/2014 22:52MARSHALLSTACEYDENISE9951689799516897 3250 SWEETWATER RD APT 1805, LAWRENCEVILLE GA 30044WINDSHIELD STARBURST > 3 INCHES$94.25CBDuluth PoliceCharges
11/11/2014 16:2511/12/2014 22:52MARSHALLSTACEYDENISE9951689799516897 3250 SWEETWATER RD APT 1805, LAWRENCEVILLE GA 30044FAILURE TO APPEAR$100CBDuluth PoliceCharges
11/11/2014 16:2511/12/2014 22:52MARSHALLSTACEYDENISE9951689799516897 3250 SWEETWATER RD APT 1805, LAWRENCEVILLE GA 30044FAILURE TO APPEAR$96CBDuluth PoliceCharges
11/11/2014 16:1511/11/2014 23:13BONDSCLIFFORDRAY9951689699516896 4162 DURHAM CIR, STONE MOUNTAIN GA 30083* DUI-MORE THAN 0.10%BLOOD ALCOHOL$2006SBGA State PatrolCharges
11/11/2014 16:1511/11/2014 23:13BONDSCLIFFORDRAY9951689699516896 4162 DURHAM CIR, STONE MOUNTAIN GA 30083SPEEDING$215SBGA State PatrolCharges
11/11/2014 16:07BUTLEREUGENE9943665899436658 6000 KAHITI TRCE, UNION CITY GA 30291* VIOLATION OF PROBATION$0NBGwinnett County SheriffCharges
11/11/2014 16:0411/17/2014 12:06MATHEWS-ANDERSONHAKESAANTIONETTE9951689599516895 2351 BOONE PL, SNELLVILLE GA 30078@ * BATTERY$1300SBGwinnett County PoliceCharges
11/11/2014 16:0411/17/2014 12:06MATHEWS-ANDERSONHAKESAANTIONETTE9951689599516895 2351 BOONE PL, SNELLVILLE GA 30078CRUELTY TO CHILDREN-3RD DEGREE$1300SBGwinnett County PoliceCharges
11/11/2014 16:0111/19/2014 13:39GARRETTRAPHAELEDWARD9951689499516894 3034 PATEL DR, WINTER PARK FL 32792@ * CHILD ABANDONMENT$16700CBGwinnett County SheriffCharges
11/11/2014 15:5311/18/2014 17:28HILLJOHNCORDELRUS9943413899434138APT F304 3360 MOUNTAIN DR, DECATUR GA 30032Violation of Probation$0NBGwinnett County SheriffCharges
11/11/2014 15:5111/21/2014 15:16MOORESHANAJAYNE9950706999507069 606 TREETRAIL PKWY, NORCROSS GA 30093Violation of Probation$0NBGwinnett County SheriffCharges
11/11/2014 15:3311/11/2014 18:07BRAVO-DIAZTEODORA9941599799415997 91 BENSON ST, LAWRENCEVILLE GA 30046NEW RESIDENT - 30 DAYS TO OBTAIN LICENSE$0NBLawrenceville PoliceCharges
11/11/2014 15:3011/14/2014 18:17WHITLEYTANDRARENEE9951689399516893 386 STONE HILL DR, STONE MOUNTAIN GA 30087@ * THEFT BY SHOPLIFTING$1300SBGwinnett County PoliceCharges
11/11/2014 15:20HARRISVICTORLAQUAN9949797899497978 7110 WOODIRON DRIVE, DULUTH GA 30097@ * AGGRAVATED ASSAULT$0NBGwinnett County PoliceCharges
11/11/2014 15:20HARRISVICTORLAQUAN9949797899497978 7110 WOODIRON DRIVE, DULUTH GA 30097*LESS THAN AN OZ OF MARIJ.$1300SBGwinnett County PoliceCharges
11/11/2014 15:20HARRISVICTORLAQUAN9949797899497978 7110 WOODIRON DRIVE, DULUTH GA 30097* VIOLATION OF PROBATION$0NBGwinnett County PoliceCharges
11/11/2014 15:20HARRISVICTORLAQUAN9949797899497978 7110 WOODIRON DRIVE, DULUTH GA 30097* VIOLATION OF PROBATION$0NBGwinnett County PoliceCharges
11/11/2014 15:20HARRISVICTORLAQUAN9949797899497978 7110 WOODIRON DRIVE, DULUTH GA 30097@ * THEFT BY RECEIVING$1300SBGwinnett County PoliceCharges
11/11/2014 15:1211/12/2014 16:47ALSTONDERRICKMICAH9951054999510549 4246 OLD NORCROSS RD, DULUTH GA 30096Violation of Probation$0NBGwinnett County SheriffCharges
11/11/2014 15:0711/21/2014 05:15CAMPBELLCORINAKATHLEEN9938471599384715 3862 FALCON PKWY, FLOWERY BRANCH GA 30542Violation of Probation$0NBGwinnett County SheriffCharges
11/11/2014 15:0711/21/2014 05:15CAMPBELLCORINAKATHLEEN9938471599384715 3862 FALCON PKWY, FLOWERY BRANCH GA 30542* VIOLATION OF PROBATION$0NBGwinnett County SheriffCharges
11/11/2014 15:0511/12/2014 11:34VILLALOBOS-LOPEZGLENDAANTONIA9951689299516892 3556 OLD CHAMBLEE TUCKER RD, DORAVILLE GA 30340*NO DRIVERS LICENSE$0NBGwinnett County SheriffCharges
11/11/2014 15:0511/12/2014 11:34VILLALOBOS-LOPEZGLENDAANTONIA9951689299516892 3556 OLD CHAMBLEE TUCKER RD, DORAVILLE GA 30340HOLD FOR IMMIGRATION$0NBGwinnett County SheriffCharges
11/11/2014 14:5711/11/2014 20:05RUSHWILLIAMLEDYARD9951689199516891 7459 SHADY GLEN DR, FLOWERY BRANCH GA 30542* DUI-ALCOHOL$2006SBGwinnett County PoliceCharges
11/11/2014 14:27LANDERSMIKEEDWARD9949542499495449 1401 BISMARCK ST, GREEN BAY WI 54301* VIOLATION OF PROBATION$0NBGwinnett County SheriffCharges
11/11/2014 14:1411/11/2014 18:04THRASHERAIMEERENEE9951688999516889APT 103 3204 WANSTEAD PARK DR, SUWANEE GA 30024RECKLESS DRIVING$425CBGwinnett County PoliceCharges
11/11/2014 13:5811/12/2014 01:57DRANIKOSKICANDICENICOLE9951688899516888 5398 ASHLEY DR SW, LILBURN GA 30047*DISORDERLY CONDUCT$135CBGwinnett County PoliceCharges
11/11/2014 13:5511/14/2014 11:35PEACEAIMEETHERESE9933330299333302 6038 MEADOWBROOK DR, NORCROSS GA 30093@ * THEFT BY SHOPLIFTING$1300SBGwinnett County PoliceCharges
11/11/2014 13:2411/14/2014 12:12ALAMCINDYNICOLE9951688799516887 460 AUTRY ST, NORCROSS GA 30071HOLD FOR OTHER AGENCY$0NBDuluth PoliceCharges
11/11/2014 13:0011/12/2014 01:40LAURIEDYLANCHRISTOPHER9950523099505230 2539 PHARR AVE, DACULA GA 30019*DRIVING W/O LICENSE-FAIL OBTAIN 30 DAYS$705SBGwinnett County PoliceCharges
11/11/2014 13:0011/12/2014 01:40LAURIEDYLANCHRISTOPHER9950523099505230 2539 PHARR AVE, DACULA GA 30019SPEEDING$180SBGwinnett County PoliceCharges
11/11/2014 12:5911/12/2014 01:44BIRAUCORNELLOAN9951688699516886 835 RUSWOOD RD, WINDER GA 30680FAILURE TO OBEY SIGNS OR CONTROL DEVICES$68SBGwinnett County PoliceCharges
11/11/2014 12:5911/12/2014 01:44BIRAUCORNELLOAN9951688699516886 835 RUSWOOD RD, WINDER GA 30680* DRIVING WHILE LIC SUSP/REVOKED$705SBGwinnett County PoliceCharges
11/11/2014 12:5911/12/2014 01:44BIRAUCORNELLOAN9951688699516886 835 RUSWOOD RD, WINDER GA 30680FAILURE TO APPEAR$657.5CBGwinnett County PoliceCharges
11/11/2014 12:4211/11/2014 22:27HEARDLOUIS9950962099509620 6010 NEISLER RD, CUMMING GA 30028@ * BATTERY$1300SBGwinnett County PoliceCharges
11/11/2014 12:3011/14/2014 19:23STEVECHANEL9951688599516885 2317 RIDGE BROOK TRAIL, DULUTH GA 30096* GIVING FALSE NAME OR INFORMATION$1300SBNorcross PoliceCharges
11/11/2014 12:3011/14/2014 19:23STEVECHANEL9951688599516885 2317 RIDGE BROOK TRAIL, DULUTH GA 30096* VGCSA-SCHEDULE IV$1300SBNorcross PoliceCharges
11/11/2014 12:3011/14/2014 19:23STEVECHANEL9951688599516885 2317 RIDGE BROOK TRAIL, DULUTH GA 30096* VGCSA-SCHEDULE II$5700SBNorcross PoliceCharges
11/11/2014 12:3011/14/2014 19:23STEVECHANEL9951688599516885 2317 RIDGE BROOK TRAIL, DULUTH GA 30096FAILURE TO APPEAR$4000SBNorcross PoliceCharges
11/11/2014 12:3011/14/2014 19:23STEVECHANEL9951688599516885 2317 RIDGE BROOK TRAIL, DULUTH GA 30096@ * THEFT BY SHOPLIFTING$1300SBNorcross PoliceCharges
11/11/2014 11:5311/11/2014 13:18CHICHEFRANCISCO9944650299446502 586-A JOHNS WAY NW, LILBURN GA 30047*NO DRIVERS LICENSE$705NBGwinnett County SheriffCharges
11/11/2014 11:1011/26/2014 05:23LOCKHARTSHANEANTONIO9948020899480208 2110 KINGS GATE CIR APT C, SNELLVILLE GA 30078Violation of Probation$0NBLawrenceville PoliceCharges
11/11/2014 11:0411/16/2014 05:22VARNEREDWINLELAND89354698935469 345 STONE MOUNATIN ST #E-4, LAWRENCEVILLE GA 30046Violation of Probation$0NBLawrenceville PoliceCharges
11/11/2014 10:5911/11/2014 16:46CASAS-LANDEOJACKELINELIZABETH9924221499465872 335 CREEK MANOR WAY, SUWANEE GA 30024HOLD FOR OTHER AGENCY$0NBGA State PatrolCharges
11/11/2014 10:5911/11/2014 16:46CASAS-LANDEOJACKELINELIZABETH9924221499465872 335 CREEK MANOR WAY, SUWANEE GA 30024VEH SEAT BELT REQUIRED-FRONT SEAT$15CBGA State PatrolCharges
11/11/2014 10:5911/11/2014 16:46CASAS-LANDEOJACKELINELIZABETH9924221499465872 335 CREEK MANOR WAY, SUWANEE GA 30024FAILURE TO HAVE LICENSE ON PERSON$19CBGA State PatrolCharges
11/11/2014 10:4111/11/2014 15:04SOLISGINADELOSANGELES9951688399516883 4350 JIMMY CARTER BLVD, NORCROSS GA 30093DEALER TAG REQUIRED$152CBGwinnett County PoliceCharges
11/11/2014 10:4111/11/2014 15:04SOLISGINADELOSANGELES9951688399516883 4350 JIMMY CARTER BLVD, NORCROSS GA 30093*DRIVING W/O LICENSE-FAIL OBTAIN 30 DAYS$705CBGwinnett County PoliceCharges
11/11/2014 10:2511/11/2014 14:28HILLPALMERBOISE9951688299516882 2675 HAYNES CLUB LANE, GRAYSON GA 30017HOLD FOR OTHER AGENCY$0NBGeorgia Gwinnett College PDCharges
11/11/2014 10:1111/11/2014 14:23HANDLEYRITCHIEL9951688199516881 3937 CEDAR CIRCLE, TUCKER GA 30084FAILURE TO APPEAR$685CBGwinnett County SheriffCharges
11/11/2014 10:0711/13/2014 19:02PHOMSOUVANHSHAUN9907753899077538 205 SHUNN WAY SW, LILBURN GA 30047HOLD FOR COURT$0NBGwinnett County SheriffCharges
11/11/2014 09:05MITCHELLRAEQWONTARELL9951688099516880 4088 PALM DR, SNELLVILLE GA 30039* VGCSA WITHIN 1000 FEET OF SCHOOLS$2950SBGwinnett County Public Schools PoliceCharges
11/11/2014 07:22TEAHSAMUELBUKU9928741399287413 1002 ALYSUM AVE, LAWRENCEVILLE GA 30045* AFFRAY$1300SBGwinnett County PoliceCharges
11/11/2014 07:22TEAHSAMUELBUKU9928741399287413 1002 ALYSUM AVE, LAWRENCEVILLE GA 30045* CRIMINAL TRESPASS$1300SBGwinnett County PoliceCharges
11/11/2014 07:22TEAHSAMUELBUKU9928741399287413 1002 ALYSUM AVE, LAWRENCEVILLE GA 30045HOLD FOR IMMIGRATION$0NBGwinnett County PoliceCharges
11/11/2014 07:22TEAHSAMUELBUKU9928741399287413 1002 ALYSUM AVE, LAWRENCEVILLE GA 30045* VIOLATION OF PROBATION$0NBGwinnett County PoliceCharges
11/11/2014 07:22TEAHSAMUELBUKU9928741399287413 1002 ALYSUM AVE, LAWRENCEVILLE GA 30045Violation of Probation$0NBGwinnett County PoliceCharges
11/11/2014 07:2111/12/2014 16:01HOOKERDOUGLASPATRICK9951687999516879 335 GLENNHURST LANE, ATLANTA GA 30331*DRIVING ON SUSP. LIC$971.75SBDuluth PoliceCharges
11/11/2014 07:2111/12/2014 16:01HOOKERDOUGLASPATRICK9951687999516879 335 GLENNHURST LANE, ATLANTA GA 30331HOLD FOR OTHER AGENCY$0NBDuluth PoliceCharges
11/11/2014 05:1111/11/2014 20:03KENNETHMORRYYUSEF9926855499367732 2517 LILLIES TRACE, DACULA GA 30019* AFFRAY$1300SBGwinnett County PoliceCharges
11/11/2014 05:1111/11/2014 20:03KENNETHMORRYYUSEF9926855499367732 2517 LILLIES TRACE, DACULA GA 30019* CRIMINAL TRESPASS$1300SBGwinnett County PoliceCharges
11/11/2014 04:23PRICEHAROLDC9951687799516877 19034 CRESTWICK ST, SAUCIER MS 39574@ * THEFT BY CONVERSION$11200SBPrisoner Transport ServicesCharges
11/11/2014 03:55TAUBEBRADLEYMICHAEL9949902999499029 1172 FOUNTAIN HEAD COURT, LAWRENCEVILLE GA 30043FAILURE TO APPEAR$0NBPrisoner Transport ServicesCharges
11/11/2014 03:5111/11/2014 15:34STREATANTHONYLORENZO9951687699516876 3570 CRUSE RD, LAWRENCEVILLE GA 30044*NO DRIVERS LICENSE$705CBGwinnett County PoliceCharges
11/11/2014 03:3811/11/2014 07:01DAVISBRANDONLEWIS9951687599516875 5155 SHADOW PATH LANE, LILBURN GA 30047*LESS THAN AN OZ OF MARIJ.$0ORGeorgia Gwinnett College PDCharges
11/11/2014 03:3811/11/2014 12:44STEPHENSANDREWPHILLIP9949583599495835 1715 WINDING CREEK CIRCLE, SNELLVILLE GA 30078*POSS WEAPON SCHOOL PROPERTY$2400ORGeorgia Gwinnett College PDCharges
11/11/2014 03:1711/11/2014 14:25JACKSONSAMARIOAKEEM9946419999464199 5256 MCCARTER STATION, STONE MOUNTAIN GA 30083Failure to Appear$365CBNorcross PoliceCharges
11/11/2014 03:0511/13/2014 19:54JERVIS-NOELJEREMY9948574699485746 1072 PRESERVE PARK DR, LOGANVILLE GA 30052FAILURE TO PAY/CHILD SUPPORT$5000CBGwinnett County PoliceCharges
11/11/2014 02:5611/15/2014 07:51MITCHELLCORINTHIANSDEMARCUSE9936018199360181 493 STONE MOUNTAIN ST APT V1, STONE MOUNTAIN GA 30046HOLD FOR OTHER AGENCY$0NBGwinnett County PoliceCharges
11/11/2014 02:5611/15/2014 07:51MITCHELLCORINTHIANSDEMARCUSE9936018199360181 493 STONE MOUNTAIN ST APT V1, STONE MOUNTAIN GA 30046PED UNDER INFLUENCE ON R/WAY$152SBGwinnett County PoliceCharges
11/11/2014 02:5611/15/2014 07:51MITCHELLCORINTHIANSDEMARCUSE9936018199360181 493 STONE MOUNTAIN ST APT V1, STONE MOUNTAIN GA 30046* GIVING FALSE NAME OR INFORMATION$1300SBGwinnett County PoliceCharges
11/11/2014 02:5211/13/2014 02:15AVERY IIIJAMESDOUGLAS9951671899516718 1907 ARBOR DR, DULUTH GA 30096* DUI ALCOHOL$1230ORLawrenceville PoliceCharges
11/11/2014 02:5211/13/2014 02:15AVERY IIIJAMESDOUGLAS9951671899516718 1907 ARBOR DR, DULUTH GA 30096POSS OF DRUG RELATED OBJECTS$390ORLawrenceville PoliceCharges
11/11/2014 02:37BRAYCARIANE9906384299063842 1289 EVANS RD, HOSCHTON GA 30548Violation of Probation$0NBGwinnett County PoliceCharges
11/11/2014 02:37BRAYCARIANE9906384299063842 1289 EVANS RD, HOSCHTON GA 30548HOLD FOR OTHER AGENCY$0NBGwinnett County PoliceCharges
11/11/2014 02:37BRAYCARIANE9906384299063842 1289 EVANS RD, HOSCHTON GA 30548* VIOLATION OF PROBATION$0NBGwinnett County PoliceCharges
11/11/2014 02:3111/11/2014 16:07LITTLERYANJACKSON9700675097006750 1227 LOCH HAVEN DR SE, CONYERS GA 30013IMPROPER/ERRATIC LANE CHANGE$68SBGwinnett County PoliceCharges
11/11/2014 02:3111/11/2014 16:07LITTLERYANJACKSON9700675097006750 1227 LOCH HAVEN DR SE, CONYERS GA 30013* DUI-ALCOHOL$2006SBGwinnett County PoliceCharges
11/11/2014 02:2411/11/2014 14:17GRACEDAMIANRAMON RENE9951687499516874 5965 FALLING VIEW LN, CUMMING GA 30040* DUI-ALCOHOL$2006SBGwinnett County PoliceCharges
11/11/2014 02:2411/11/2014 14:17GRACEDAMIANRAMON RENE9951687499516874 5965 FALLING VIEW LN, CUMMING GA 30040SPEEDING$250SBGwinnett County PoliceCharges
11/11/2014 02:2411/11/2014 14:17GRACEDAMIANRAMON RENE9951687499516874 5965 FALLING VIEW LN, CUMMING GA 30040OPEN CONTAINER LAW$299SBGwinnett County PoliceCharges
11/11/2014 02:2411/11/2014 14:17GRACEDAMIANRAMON RENE9951687499516874 5965 FALLING VIEW LN, CUMMING GA 30040IMPROPER/ERRATIC LANE CHANGE$68SBGwinnett County PoliceCharges
11/11/2014 02:2111/11/2014 10:34WAITECHRISTOPHERTIMOTHY9951687399516873 1068 OLD CUMMING RD, BUFORD GA 30518* DUI-ALCOHOL$2006SBGwinnett County PoliceCharges
11/11/2014 02:2111/11/2014 10:34WAITECHRISTOPHERTIMOTHY9951687399516873 1068 OLD CUMMING RD, BUFORD GA 30518IMPROPER LANE CHANGE$68SBGwinnett County PoliceCharges
11/11/2014 02:2111/11/2014 10:34WAITECHRISTOPHERTIMOTHY9951687399516873 1068 OLD CUMMING RD, BUFORD GA 30518EXPIRED OR NO LICENSE PLATE OR DECAL$152SBGwinnett County PoliceCharges
11/11/2014 01:4411/21/2014 14:26BIGSBYDAVINEOCHRISTOPHER9949176399491764 185 RUE FONTAINE, LITHONIA GA 30038Violation of Probation$0NBNorcross PoliceCharges
11/11/2014 01:4411/21/2014 14:26BIGSBYDAVINEOCHRISTOPHER9949176399491764 185 RUE FONTAINE, LITHONIA GA 30038HOLD FOR OTHER AGENCY$0NBNorcross PoliceCharges
11/11/2014 01:4411/21/2014 14:26BIGSBYDAVINEOCHRISTOPHER9949176399491764 185 RUE FONTAINE, LITHONIA GA 30038HOLD FOR OTHER AGENCY$0NBNorcross PoliceCharges
11/11/2014 00:4111/11/2014 07:53HOLTONERICM9951687299516872 1370 PENHURST DR, LAWRENCEVILLE GA 30044EXPIRED TAG$152SBGwinnett County PoliceCharges
11/11/2014 00:4111/11/2014 07:53HOLTONERICM9951687299516872 1370 PENHURST DR, LAWRENCEVILLE GA 30044* DRIVING WHILE LIC SUSP/REVOKED$705SBGwinnett County PoliceCharges
11/11/2014 00:4111/11/2014 07:53HOLTONERICM9951687299516872 1370 PENHURST DR, LAWRENCEVILLE GA 30044FAILURE TO APPEAR$196CBGwinnett County PoliceCharges
11/11/2014 00:32BUTLERDONALDEARL9951687099516870 3452 PITTARD RD, DULUTH GA 30096* PAROLE VIOLATION$0NBGA Pardons and ParolesCharges
11/10/2014 23:3911/16/2014 15:08HARDENKENNETHBERNARD9800959698009596 4413 MAGNOLIA CLUB DR, SUGAR HILL GA 30548@ * THEFT BY SHOPLIFTING$1300SBGwinnett County PoliceCharges
11/10/2014 23:2411/11/2014 11:29DURVINLINDADARLENE9929030399516878 55 TRUDY CT, LAWRENCEVILLE GA 30044@ * SIMPLE BATTERY$1300SBGwinnett County SheriffCharges
11/10/2014 23:1611/13/2014 18:50THOMASLADARIEN9951686199516861 2007 ALCOVY TRACE WAY, LAWRENCEVILLE GA 30045* THEFT BY SHOPLIFTING$788ORLawrenceville PoliceCharges
11/10/2014 23:1611/13/2014 18:50THOMASLADARIEN9951686199516861 2007 ALCOVY TRACE WAY, LAWRENCEVILLE GA 30045FAILURE TO APPEAR$180CBLawrenceville PoliceCharges
11/10/2014 23:1411/11/2014 03:31MARTINEZ-CHAVEZELSA9951686099516860 611 PARK COLONY DR, NORCROSS GA 30093*NOT LICENSED TO DRIVE$715CBLilburn PoliceCharges
11/10/2014 23:1411/11/2014 03:31MARTINEZ-CHAVEZELSA9951686099516860 611 PARK COLONY DR, NORCROSS GA 30093SPEEDING$169CBLilburn PoliceCharges
11/10/2014 23:0311/13/2014 10:44POWERANTONIOWILLIAM9944321499443214 793 GABLE CT, WINDER GA 30680*DISORDERLY CONDUCT$181ORAuburn PDCharges
11/10/2014 22:5311/12/2014 16:52SCARBROUGHAUSTINLEE9951685999516859 4900 BILL CHEEK RD, AUBURN GA 30011*BURGLARY 1ST DEGREE$11200SBGwinnett County SheriffCharges
11/10/2014 22:4811/11/2014 11:39COOPERJACQUESLESHAWN9943512699435126 305 SARAH DR, ATHENS GA 30606FAILURE TO APPEAR$215CBGwinnett County SheriffCharges
11/10/2014 22:41CHILDREESTEVENCHRISTOPHER9917764699177646 6126 DOGWOOD CIRCLE, BUFORD GA 30518* PAROLE VIOLATION$0NBGA Pardons and ParolesCharges
11/10/2014 22:36PHELPSDARNELLLAMONTE9942789199427891 661 ASHTON LN, LAWRENCEVILLE GA 30044@ * BATTERY$7900SBGwinnett County SheriffCharges
11/10/2014 22:3011/11/2014 03:07BRIDGEKIMBERLYMARIE9951685899516858 635 CLAIRIDGE LN, LAWRENCEVILLE GA 30046* OBSTRUCTION LAW ENFORCEMENT OFFICER$1300CBLawrenceville PoliceCharges
11/10/2014 22:2311/14/2014 13:32EVANSBUFORDMCKARL9500104995001049 5303 BRASELTON HWY, AUBURN GA 30011Violation of Probation$0NBGwinnett County SheriffCharges
11/10/2014 22:1911/12/2014 11:31FRADYEDDYGENE9107074791070747 635 CLAIRIDGE LANE, LAWRENCEVILLE GA 30045HOLD FOR OTHER AGENCY$0NBLawrenceville PoliceCharges
11/10/2014 22:1911/12/2014 11:31FRADYEDDYGENE9107074791070747 635 CLAIRIDGE LANE, LAWRENCEVILLE GA 30045*FAIL TO STOP@ACCIDENT W/INJURY, DAMAGE$803SBLawrenceville PoliceCharges
11/10/2014 22:1911/12/2014 11:31FRADYEDDYGENE9107074791070747 635 CLAIRIDGE LANE, LAWRENCEVILLE GA 30045FAIL TO YIELD WHEN ENTERING INTERSECTION$148SBLawrenceville PoliceCharges
11/10/2014 22:1911/12/2014 11:31FRADYEDDYGENE9107074791070747 635 CLAIRIDGE LANE, LAWRENCEVILLE GA 30045NEW RESIDENT - 30 DAYS TO OBTAIN LICENSE$803SBLawrenceville PoliceCharges
11/10/2014 22:14TULLISKEVINDEWAYNE9700813499446227 552 MOUNT MORIAH RD, AUBURN GA 30011* DRIVING WHILE LIC SUSP/REVOKED$705SBGwinnett County PoliceCharges
11/10/2014 22:14TULLISKEVINDEWAYNE9700813499446227 552 MOUNT MORIAH RD, AUBURN GA 30011M/V MUST HAVE 2 HEADLIGHTS$68SBGwinnett County PoliceCharges
11/10/2014 22:14TULLISKEVINDEWAYNE9700813499446227 552 MOUNT MORIAH RD, AUBURN GA 30011WINDSHIELD NOT IN GOOD CONDITION$68SBGwinnett County PoliceCharges
11/10/2014 22:14TULLISKEVINDEWAYNE9700813499446227 552 MOUNT MORIAH RD, AUBURN GA 30011FAILURE TO APPEAR$0NBGwinnett County PoliceCharges
11/10/2014 22:14TULLISKEVINDEWAYNE9700813499446227 552 MOUNT MORIAH RD, AUBURN GA 30011OPERATING VEH WITH SUSP/CANC/REV REGISTR$705SBGwinnett County PoliceCharges
11/10/2014 22:04GOVANMATTHEWMALACHI9942911999429119 2554 SPRINGDALE ROAD, APT. B, SNELLVILLE GA 30078Violation of Probation$0NBGwinnett County PoliceCharges
11/10/2014 22:04GOVANMATTHEWMALACHI9942911999429119 2554 SPRINGDALE ROAD, APT. B, SNELLVILLE GA 30078* VIOLATION OF PROBATION$0NBGwinnett County PoliceCharges
11/10/2014 21:5511/11/2014 02:43MORALESJOSEHUMBERTO9941511299415112 1173 PIRKLE RD, NORCROSS GA 30093*NO DRIVERS LICENSE$705CBGwinnett County PoliceCharges
11/10/2014 21:5011/11/2014 02:41TOMECARLOSALBERTO9930175899301758 471 VARSITY WAY, LAWRENCEVILLE GA 30044* DRIVING WHILE LIC SUSP/REVOKED$705SBGwinnett County PoliceCharges
11/10/2014 21:4711/11/2014 07:35GAUTHIERDAVIDIAN9951685799516857 2955 BELLS FERRY RD, KENNESAW GA 30066RECKLESS DRIVING$425SBGwinnett County PoliceCharges
11/10/2014 21:4711/11/2014 07:35GAUTHIERDAVIDIAN9951685799516857 2955 BELLS FERRY RD, KENNESAW GA 30066*HIT AND RUN$420SBGwinnett County PoliceCharges
11/10/2014 21:4711/11/2014 07:35GAUTHIERDAVIDIAN9951685799516857 2955 BELLS FERRY RD, KENNESAW GA 30066POSSESSION OF LESS 1 OZ. MARIJUANA$585SBGwinnett County PoliceCharges
11/10/2014 21:4211/11/2014 07:38SCOTTCHRISTOPHERCARLOS9951685699516856 8109 TURNBERRY PLACE, LITHONIA GA 30038@ * THEFT BY SHOPLIFTING$1300SBGwinnett County PoliceCharges
11/10/2014 21:3311/13/2014 10:53ZUNIGAELMERSANTIAGO9951685599516855 870 APPIAN WAY, LAWRENCEVILLE GA 30046IMPROPER BACKING$68CBGwinnett County PoliceCharges
11/10/2014 21:3311/13/2014 10:53ZUNIGAELMERSANTIAGO9951685599516855 870 APPIAN WAY, LAWRENCEVILLE GA 30046NO LICENSE PLATE$152CBGwinnett County PoliceCharges
11/10/2014 21:3311/13/2014 10:53ZUNIGAELMERSANTIAGO9951685599516855 870 APPIAN WAY, LAWRENCEVILLE GA 30046*NO DRIVERS LICENSE$705CBGwinnett County PoliceCharges
11/10/2014 21:3311/13/2014 10:53ZUNIGAELMERSANTIAGO9951685599516855 870 APPIAN WAY, LAWRENCEVILLE GA 30046HOLD FOR IMMIGRATION$0NBGwinnett County PoliceCharges
11/10/2014 21:3111/11/2014 03:09RAMIREZ-JIMENEZLORENABEATRIZ9944362399443623 1504 CONCEPTS DR., NORCROSS GA 30092@ * BATTERY$1300CBGwinnett County PoliceCharges
11/10/2014 21:21RAMIREZ-CONEJOJOSEALEJANDRO9951685499516854 1102 CONEPTS 21 DR, NORCROSS GA 30092@ * BATTERY$1300SBGwinnett County PoliceCharges
11/10/2014 21:21RAMIREZ-CONEJOJOSEALEJANDRO9951685499516854 1102 CONEPTS 21 DR, NORCROSS GA 30092HOLD FOR IMMIGRATION$0NBGwinnett County PoliceCharges
11/10/2014 21:1011/11/2014 02:18DUNSTONLAKAILAALEXANDRA9951685399516853APT 6231 287 E CROGAN ST, LAWRENCEVILLE GA 30046@ * THEFT BY RECEIVING$5700SBLawrenceville PoliceCharges
11/10/2014 20:2111/12/2014 20:17KONIGJEREMYALLEN9924619999246199APT 216 652 BUFORD DR, LAWRENCEVILLE GA 30046* THEFT BY SHOPLIFTING$788ORLawrenceville PoliceCharges
11/10/2014 20:1311/12/2014 15:21PEREZ-MARTINEZTOMAS9951685299516852 4920 WINTERS CHAPEL RD, DORAVILLE GA 30360EXPIRED OR NO LICENSE ON PERSON$393CBGeorgia Gwinnett College PDCharges
11/10/2014 20:1311/12/2014 15:21PEREZ-MARTINEZTOMAS9951685299516852 4920 WINTERS CHAPEL RD, DORAVILLE GA 30360FAILURE TO STOP FOR STOP SIGN$105CBGeorgia Gwinnett College PDCharges
11/10/2014 20:1311/12/2014 15:21PEREZ-MARTINEZTOMAS9951685299516852 4920 WINTERS CHAPEL RD, DORAVILLE GA 30360HOLD FOR IMMIGRATION$0NBGeorgia Gwinnett College PDCharges
11/10/2014 19:21THOMASMELISSACHRISTINE9942698099426980 159 BROWN RIDGE DR, AUBURN GA 30011* PAROLE VIOLATION$0NBLawrenceville PoliceCharges
11/10/2014 19:21THOMASMELISSACHRISTINE9942698099426980 159 BROWN RIDGE DR, AUBURN GA 30011FAIL TO YIELD WHEN ENTERING INTERSECTION$148ORLawrenceville PoliceCharges
11/10/2014 19:21THOMASMELISSACHRISTINE9942698099426980 159 BROWN RIDGE DR, AUBURN GA 30011EXPIRED OR NO LICENSE ON PERSON$393ORLawrenceville PoliceCharges
11/10/2014 19:21THOMASMELISSACHRISTINE9942698099426980 159 BROWN RIDGE DR, AUBURN GA 30011*FAIL TO STOP@ACCIDENT W/INJURY, DAMAGE$803ORLawrenceville PoliceCharges
11/10/2014 19:0411/13/2014 06:03YANCEYKARRONANTONIO9951685199516851 104 SHANNON CHASE DR, FAIRBURN GA 30213SPEEDING 21-25 OVER$214.5SBSnellville PoliceCharges
11/10/2014 19:0411/13/2014 06:03YANCEYKARRONANTONIO9951685199516851 104 SHANNON CHASE DR, FAIRBURN GA 30213*GIVING FALSE NAME$356SBSnellville PoliceCharges
11/10/2014 19:0411/13/2014 06:03YANCEYKARRONANTONIO9951685199516851 104 SHANNON CHASE DR, FAIRBURN GA 30213*SUSPENDED/REVOKED LIC$816SBSnellville PoliceCharges
11/10/2014 19:0411/13/2014 06:03YANCEYKARRONANTONIO9951685199516851 104 SHANNON CHASE DR, FAIRBURN GA 30213HOLD FOR OTHER AGENCY$0NBSnellville PoliceCharges
11/10/2014 19:0011/12/2014 17:44JOSEPHMORLY9951630299516302 3378 GALLOPING BEND WAY, AUBURN GA 30011FOLLOWING TOO CLOSELY$117ORSnellville PoliceCharges
11/10/2014 19:0011/12/2014 17:44JOSEPHMORLY9951630299516302 3378 GALLOPING BEND WAY, AUBURN GA 30011SUSP REGISTRATION$719ORSnellville PoliceCharges
11/10/2014 19:0011/12/2014 17:44JOSEPHMORLY9951630299516302 3378 GALLOPING BEND WAY, AUBURN GA 30011Possession of Marijuana less 1oz$784ORSnellville PoliceCharges
11/10/2014 19:0011/12/2014 17:44JOSEPHMORLY9951630299516302 3378 GALLOPING BEND WAY, AUBURN GA 30011DRIVING WITHOUT LICENSE ON PERSON$33ORSnellville PoliceCharges
11/10/2014 18:41WRIGHTCLEUSTERREL9932933999329339 3540 SOUTHGATE WAY SE APT B, CONYERS GA 30013OPERATING VEH WITH SUSP/CANC/REV REGISTR$650SBGwinnett County PoliceCharges
11/10/2014 18:41WRIGHTCLEUSTERREL9932933999329339 3540 SOUTHGATE WAY SE APT B, CONYERS GA 30013* DRIVING WHILE LIC SUSP/REVOKED$1300SBGwinnett County PoliceCharges
11/10/2014 18:41WRIGHTCLEUSTERREL9932933999329339 3540 SOUTHGATE WAY SE APT B, CONYERS GA 30013* OBSTRUCTION LAW ENFORCEMENT OFFICER$2400SBGwinnett County PoliceCharges
11/10/2014 18:41WRIGHTCLEUSTERREL9932933999329339 3540 SOUTHGATE WAY SE APT B, CONYERS GA 30013HOLD FOR OTHER AGENCY$0NBGwinnett County PoliceCharges
11/10/2014 18:41WRIGHTCLEUSTERREL9932933999329339 3540 SOUTHGATE WAY SE APT B, CONYERS GA 30013*VGCSA OF C/S$0NBGwinnett County PoliceCharges
11/10/2014 18:41WRIGHTCLEUSTERREL9932933999329339 3540 SOUTHGATE WAY SE APT B, CONYERS GA 30013*VGCSA OF C/S$0NBGwinnett County PoliceCharges
11/10/2014 18:41WRIGHTCLEUSTERREL9932933999329339 3540 SOUTHGATE WAY SE APT B, CONYERS GA 30013* PAROLE VIOLATION$0NBGwinnett County PoliceCharges
11/10/2014 18:3211/19/2014 18:41FULLERSEDRICKBERNARD9951296499512964 831 SAINT MARLOWE DR, LAWRENCEVILLE GA 30044* DISORDERLY CONDUCT$0NBGwinnett County SheriffCharges
11/10/2014 18:02JONESCARRIEVIRGINIA9949133599491335 2424 BROOK FOREST DR, LAWRENCEVILLE GA 30043@ * THEFT BY SHOPLIFTING$650SBSuwanee PoliceCharges
11/10/2014 18:02JONESCARRIEVIRGINIA9949133599491335 2424 BROOK FOREST DR, LAWRENCEVILLE GA 30043* CRIMINAL TRESPASS$650SBSuwanee PoliceCharges
11/10/2014 17:4611/11/2014 00:13WHITEHEADTERRELLJAVON9951684499516844APT 2122 1564 HERRINGTON RD, LAWRENCEVILLE GA 30043POSSESSION OF LESS THAT 1 OZ$585SBGwinnett County PoliceCharges
11/10/2014 17:3811/19/2014 15:17HAMPTONANTERIODAVARR9951684399516843 2407 CALIBRE CREEK PKWY, ROSWELL GA 30076* CRIMINAL TRESPASS$2950SBGwinnett County PoliceCharges
11/10/2014 17:3811/19/2014 15:17HAMPTONANTERIODAVARR9951684399516843 2407 CALIBRE CREEK PKWY, ROSWELL GA 30076@ * BATTERY$5700SBGwinnett County PoliceCharges
11/10/2014 17:2711/11/2014 09:42STRICKLANDZACHARYRYAN9950412999504129 221 LAKEVIEW WAY, CARROLLTON GA 30117HOLD FOR OTHER AGENCY$0NBGwinnett County PoliceCharges
11/10/2014 17:2711/11/2014 09:42STRICKLANDZACHARYRYAN9950412999504129 221 LAKEVIEW WAY, CARROLLTON GA 30117DEALER TAG REQUIRED$140SBGwinnett County PoliceCharges
11/10/2014 17:2711/11/2014 09:42STRICKLANDZACHARYRYAN9950412999504129 221 LAKEVIEW WAY, CARROLLTON GA 30117* DRIVING WHILE LIC SUSP/REVOKED$705SBGwinnett County PoliceCharges
11/10/2014 17:20KEMPDAVIDEARL II9926836499268445 576 CESAREA PL NW, LILBURN GA 30047* VIOLATION OF PROBATION$0NBGwinnett County PoliceCharges
11/10/2014 17:20KEMPDAVIDEARL II9926836499268445 576 CESAREA PL NW, LILBURN GA 30047FAILURE TO APPEAR$1020CBGwinnett County PoliceCharges
11/10/2014 17:20KEMPDAVIDEARL II9926836499268445 576 CESAREA PL NW, LILBURN GA 30047* GIVING FALSE NAME OR INFORMATION$2400SBGwinnett County PoliceCharges
11/10/2014 17:20KEMPDAVIDEARL II9926836499268445 576 CESAREA PL NW, LILBURN GA 30047M/V WRONG SIDE OF ROAD$1300SBGwinnett County PoliceCharges
11/10/2014 17:20KEMPDAVIDEARL II9926836499268445 576 CESAREA PL NW, LILBURN GA 30047*LESS THAN AN OZ OF MARIJ.$2400SBGwinnett County PoliceCharges
11/10/2014 17:20KEMPDAVIDEARL II9926836499268445 576 CESAREA PL NW, LILBURN GA 30047*HIT AND RUN$2950SBGwinnett County PoliceCharges
11/10/2014 17:20KEMPDAVIDEARL II9926836499268445 576 CESAREA PL NW, LILBURN GA 30047DUTY TO REPORT ACC/W/INJ/PROP DAMAGE$299SBGwinnett County PoliceCharges
11/10/2014 17:20KEMPDAVIDEARL II9926836499268445 576 CESAREA PL NW, LILBURN GA 30047IMPROPER LANE CHANGE$650SBGwinnett County PoliceCharges
11/10/2014 17:1511/25/2014 09:56JACKSONSHAYLAJOHNSON9951684299516842 3902 WALDROP LANE, DECATUR GA 30034HOLD FOR OTHER AGENCY$0NBGwinnett County PoliceCharges
11/10/2014 17:1511/25/2014 09:56JACKSONSHAYLAJOHNSON9951684299516842 3902 WALDROP LANE, DECATUR GA 30034IMPROPER/ERRATIC LANE CHANGE$68SBGwinnett County PoliceCharges
11/10/2014 17:1511/25/2014 09:56JACKSONSHAYLAJOHNSON9951684299516842 3902 WALDROP LANE, DECATUR GA 30034* DRIVING WHILE LIC SUSP/REVOKED$705SBGwinnett County PoliceCharges
11/10/2014 17:1511/25/2014 09:56JACKSONSHAYLAJOHNSON9951684299516842 3902 WALDROP LANE, DECATUR GA 30034*FUGITIVE FROM JUSTICE$0NBGwinnett County PoliceCharges
11/10/2014 17:01CAMPBELLLESLIEPARKER9944884899448848 105 SHADECREST DR, MAULDIN SC 29662@ * THEFT BY TAKING$0NBGwinnett County SheriffCharges
11/10/2014 17:0111/11/2014 10:14BLOOMCIMBERLIEJAN9948883199488831 1909 WILSON WYND WAY, LAWRENCEVILLE GA 30043OTHER OFFENSE$0NBGwinnett County SheriffCharges
11/10/2014 16:3911/17/2014 19:43OSIERDENNISMICHAEL9946697599466975 74 HOWARD CIR, WINDER GA 30680Violation of Probation$0NBGwinnett County SheriffCharges
11/10/2014 16:2311/24/2014 20:38GOSSJOHNDWIGHT9915845099158450 3710 KENRIDGE PKWY, DECATUR GA 30032Violation of Probation$0NBGwinnett County SheriffCharges
11/10/2014 16:2311/24/2014 20:38GOSSJOHNDWIGHT9915845099158450 3710 KENRIDGE PKWY, DECATUR GA 30032HOLD FOR OTHER AGENCY$0NBGwinnett County SheriffCharges
11/10/2014 16:1211/24/2014 20:21LONDONOJONATHAN9915578699155893 729 OAK VIEW CT, LILBURN GA 30047HOLD FOR OTHER AGENCY$0NBGwinnett County SheriffCharges
11/10/2014 16:1211/24/2014 20:21LONDONOJONATHAN9915578699155893 729 OAK VIEW CT, LILBURN GA 30047*HIT AND RUN$1300SBGwinnett County SheriffCharges
11/10/2014 16:1211/24/2014 20:21LONDONOJONATHAN9915578699155893 729 OAK VIEW CT, LILBURN GA 30047DUTY TO REPORT ACC/W/INJ/PROP DAMAGE$299SBGwinnett County SheriffCharges
11/10/2014 16:1211/24/2014 20:21LONDONOJONATHAN9915578699155893 729 OAK VIEW CT, LILBURN GA 30047* HABITUAL VIOLATOR$1300SBGwinnett County SheriffCharges
11/10/2014 16:1211/24/2014 20:21LONDONOJONATHAN9915578699155893 729 OAK VIEW CT, LILBURN GA 30047* USE OF LICENSE PLATE TO CONCEAL I.D.$5700SBGwinnett County SheriffCharges
11/10/2014 16:1211/24/2014 20:21LONDONOJONATHAN9915578699155893 729 OAK VIEW CT, LILBURN GA 30047* DRIVING WHILE LIC SUSP/REVOKED$5700SBGwinnett County SheriffCharges
11/10/2014 16:1211/24/2014 20:21LONDONOJONATHAN9915578699155893 729 OAK VIEW CT, LILBURN GA 30047* GIVING FALSE NAME OR INFORMATION$5700SBGwinnett County SheriffCharges
11/10/2014 16:1211/24/2014 20:21LONDONOJONATHAN9915578699155893 729 OAK VIEW CT, LILBURN GA 30047* FINANCIAL IDENTITY FRAUD$5700SBGwinnett County SheriffCharges
11/10/2014 16:1211/24/2014 20:21LONDONOJONATHAN9915578699155893 729 OAK VIEW CT, LILBURN GA 30047* DRIVING WHILE LIC SUSP/REVOKED$705SBGwinnett County SheriffCharges
11/10/2014 16:1211/24/2014 20:21LONDONOJONATHAN9915578699155893 729 OAK VIEW CT, LILBURN GA 30047RUNNING RED LIGHT$96SBGwinnett County SheriffCharges
11/10/2014 15:2211/12/2014 17:07DICKINSONKEVIND'ANDRE9951683599516835 1104 MOCCASIN TRL, LOGANVILLE GA 30052SAFETY BELT VIOLATION ADULTS$15ORSnellville PoliceCharges
11/10/2014 15:2211/12/2014 17:07DICKINSONKEVIND'ANDRE9951683599516835 1104 MOCCASIN TRL, LOGANVILLE GA 30052NO BRAKE LIGHTS OR WORKING TURN SIGNALS$117ORSnellville PoliceCharges
11/10/2014 15:2211/12/2014 17:07DICKINSONKEVIND'ANDRE9951683599516835 1104 MOCCASIN TRL, LOGANVILLE GA 30052DRUG-RELATED ACTIVITIES$288.5ORSnellville PoliceCharges
11/10/2014 15:2211/12/2014 17:07DICKINSONKEVIND'ANDRE9951683599516835 1104 MOCCASIN TRL, LOGANVILLE GA 30052FAILURE TO APPEAR$215CBSnellville PoliceCharges
11/10/2014 15:2211/12/2014 17:07DICKINSONKEVIND'ANDRE9951683599516835 1104 MOCCASIN TRL, LOGANVILLE GA 30052Possession of Marijuana less 1oz$784ORSnellville PoliceCharges
11/10/2014 15:0911/11/2014 09:46LAKPORDANIELW9951683499516834 1411 VINTAGE POINTE DR, LAWRENCEVILLE GA 30044THEFT BY SHOPLIFTING$420CBLilburn PoliceCharges
11/10/2014 14:5811/11/2014 00:05JACKSONJAMES9400438694004386 418 CHARLESTON LN, LAWRENCEVILLE GA 30046*LESS THAN AN OZ OF MARIJ.$1300SBLawrenceville PoliceCharges
11/10/2014 14:4511/14/2014 21:02KIMYESUNG9946817799468177 1181 ELISA GINA TER, LAWRENCEVILLE GA 30043*MAUFACTUR/POSS/PURCH/DIST/SALE MARIJUAN$5700SBGwinnett County PoliceCharges
11/10/2014 14:4511/14/2014 21:02KIMYESUNG9946817799468177 1181 ELISA GINA TER, LAWRENCEVILLE GA 30043* VGCSA WITHIN 1000 FEET OF SCHOOLS$5700SBGwinnett County PoliceCharges
11/10/2014 14:4511/14/2014 21:02KIMYESUNG9946817799468177 1181 ELISA GINA TER, LAWRENCEVILLE GA 30043Violation of Probation$543.5CBGwinnett County PoliceCharges
11/10/2014 14:2411/11/2014 20:45WILSONSAMUELBLAIR9951683199516831 5735 WILLOW WAY, BUFORD GA 30518HOLD FOR OTHER AGENCY$0NBGA State PatrolCharges
11/10/2014 14:2411/11/2014 20:45WILSONSAMUELBLAIR9951683199516831 5735 WILLOW WAY, BUFORD GA 30518EXPIRED TAG$152SBGA State PatrolCharges
11/10/2014 14:0411/19/2014 18:38REEDRONALD9946735699467356 503 CRICKET RIDGE CT, LAWRENCEVILLE GA 30044FAILURE TO APPEAR$1052CBSnellville PoliceCharges
11/10/2014 13:4911/10/2014 21:54DEBARDLABONDEANDREDWAYNE9929141399291413 1706 CLUB DR, NORCROSS GA 30093HOLD FOR OTHER AGENCY$0NBGwinnett County SheriffCharges
11/10/2014 13:4911/10/2014 21:54DEBARDLABONDEANDREDWAYNE9929141399291413 1706 CLUB DR, NORCROSS GA 30093HOLD FOR OTHER AGENCY$0NBGwinnett County SheriffCharges
11/10/2014 13:4211/15/2014 05:25PRICEDAZMONDJAMAR9950276799502767APT 1 4010 HAWTHORNE CIR SE, SMYRNA GA 30080Violation of Probation$0NBGwinnett County SheriffCharges
11/10/2014 13:4211/15/2014 05:25PRICEDAZMONDJAMAR9950276799502767APT 1 4010 HAWTHORNE CIR SE, SMYRNA GA 30080* VIOLATION OF PROBATION$0NBGwinnett County SheriffCharges
11/10/2014 13:3411/10/2014 21:32ST. GERMAINJUSTINCLAY9951682799516827 4585 SUGARLOAF PKWY, LAWRENCEVILLE GA 30044HOLD FOR COURT$0NBGwinnett County SheriffCharges
11/10/2014 13:2711/20/2014 19:03COLEJEREMYMARKEESE9938191399381913 2451 SUWANEE POINTE DR, LAWRENCEVILLE GA 30043Violation of Probation$0NBGwinnett County SheriffCharges
11/10/2014 13:1611/14/2014 13:52PEREZ-FONSECAJOSEMANUEL9800388599516825 4570 GOLD CREEK TRL, SUGAR HILL GA 30518BRAKE LIGHTS REQUIRED$68SBGwinnett County PoliceCharges
11/10/2014 13:1611/14/2014 13:52PEREZ-FONSECAJOSEMANUEL9800388599516825 4570 GOLD CREEK TRL, SUGAR HILL GA 30518*NO DRIVERS LICENSE$705SBGwinnett County PoliceCharges
11/10/2014 13:1611/14/2014 13:52PEREZ-FONSECAJOSEMANUEL9800388599516825 4570 GOLD CREEK TRL, SUGAR HILL GA 30518HOLD FOR IMMIGRATION$0NBGwinnett County PoliceCharges
11/10/2014 12:5811/12/2014 12:42STRATMANLEON9951682399516823 661 CARRIAGE LN, LAWRENCEVILLE GA 30046SEATBELT VIOLATION >18$15ORSuwanee PoliceCharges
11/10/2014 12:5811/12/2014 12:42STRATMANLEON9951682399516823 661 CARRIAGE LN, LAWRENCEVILLE GA 30046*DRIVING WHILE UNLICENSED LICENSE$758.75ORSuwanee PoliceCharges
11/10/2014 12:5211/11/2014 09:46MOSSTIMOTHYCHRISTOPHER9951682299516822 5875 SUMMERGLEN LN, ATLANTA GA 30349FAILURE TO APPEAR$685CBGwinnett County SheriffCharges
11/10/2014 12:50COATESRICOERIC9947832899478328 1507 WILLOW TRAIL PKWY, NORCROSS GA 30093HOLD FOR COURT$0NBGwinnett County SheriffCharges
11/10/2014 12:43COUNTEERASLEERAJAE9946600599466005 6517 KING GEORGE WAY, MORROW GA 30260Violation of Probation$0NBGwinnett County SheriffCharges
11/10/2014 12:43COUNTEERASLEERAJAE9946600599466005 6517 KING GEORGE WAY, MORROW GA 30260HOLD FOR COURT$0NBGwinnett County SheriffCharges
11/10/2014 12:3311/19/2014 17:03BROWNAARONLEE9950531799505317 3390 OLD FAIRBURN ROAD APT D6, EAST POINT GA 30331VIOLATION OF PROBATION$551CBSnellville PoliceCharges
11/10/2014 12:2111/10/2014 21:26TERANROBERTO9951682099516820 3612 ARNSDALE DR, NORCROSS GA 30092FAILURE TO APPEAR$115CBNorcross PoliceCharges
11/10/2014 11:47RODRIGUESSHERONTRACIA9947414099474140 4956 LILY STEM DR, AUBURN GA 30011@ * BATTERY$0NBGwinnett County SheriffCharges
11/10/2014 11:47RODRIGUESSHERONTRACIA9947414099474140 4956 LILY STEM DR, AUBURN GA 30011* VIOLATION OF PROBATION$0NBGwinnett County SheriffCharges
11/10/2014 11:4211/11/2014 14:14HARMONDERREKJAMES9951681999516819 46 WILSON GARAGE ROAD, COMMERCE GA 30529@ * BURGLARY$11200SBGwinnett County SheriffCharges
11/10/2014 11:3211/10/2014 20:35ST JEANGARYEMMANUEL9951681899516818APT D202 2255 SATELLITE BLVD, DULUTH GA 30097* DRIVING WHILE LIC SUSP/REVOKED$705SBGwinnett County PoliceCharges
11/10/2014 11:3211/10/2014 20:35ST JEANGARYEMMANUEL9951681899516818APT D202 2255 SATELLITE BLVD, DULUTH GA 30097FAILURE TO MAINTAIN INSURANCE$299SBGwinnett County PoliceCharges
11/10/2014 11:2711/10/2014 14:46VILLANUEVA-MAEDASAMUEL9943680099436800 453 MEPHISTO CIR, LAWRENCEVILLE GA 30046NEW RESIDENT - 30 DAYS TO OBTAIN LICENSE$0NBLawrenceville PoliceCharges
11/10/2014 10:57RUSSELLKAMERONLENIER9946993799469937 4129 TALBOT WAY, NORCROSS GA 30092* CREDIT CARD FRAUD$4050SBGwinnett County SheriffCharges
11/10/2014 10:57RUSSELLKAMERONLENIER9946993799469937 4129 TALBOT WAY, NORCROSS GA 30092* FORGERY-1ST DEGREE$4050SBGwinnett County SheriffCharges
11/10/2014 10:5511/11/2014 03:24COMRIEERICANTHONY9937025899370258 2620 HAYNES CLUB CIR, LOGANVILLE GA 30052@ * BATTERY$5700SBGwinnett County PoliceCharges
11/10/2014 10:5511/11/2014 03:24COMRIEERICANTHONY9937025899370258 2620 HAYNES CLUB CIR, LOGANVILLE GA 30052* INTERFER. WITH CALL FOR EMER. ASSIST.$5700SBGwinnett County PoliceCharges
11/10/2014 10:4311/10/2014 17:57RUCKERKISHADELAINE9951681799516817 1954 BARNETT WEST COURT, BUFORD GA 30518* FALSE REPORT OF A CRIME$1300SBGwinnett County PoliceCharges
11/10/2014 10:3811/10/2014 18:54JOHNSONDEZZMON9951454899514548 4429 PERSIAN COURT, SNELLVILLE GA 30039SPEEDING 19 - 23 OVER$218SBSuwanee PoliceCharges
11/10/2014 10:3811/10/2014 18:54JOHNSONDEZZMON9951454899514548 4429 PERSIAN COURT, SNELLVILLE GA 30039*SUSPENDED LICENSE$1176.25SBSuwanee PoliceCharges
11/10/2014 10:3811/10/2014 18:54JOHNSONDEZZMON9951454899514548 4429 PERSIAN COURT, SNELLVILLE GA 30039NO PROOF INSURANCE$648SBSuwanee PoliceCharges
11/10/2014 10:3811/10/2014 18:54JOHNSONDEZZMON9951454899514548 4429 PERSIAN COURT, SNELLVILLE GA 30039NEW NAME/ADDRESS CHANGE-60 DAYS$82SBSuwanee PoliceCharges
11/10/2014 10:3411/10/2014 17:10PALACIOS-CRUZENRIQUE9949790999497909 1 LANDS END RD, BUFORD GA 30518*DRIVING WHILE UNLICENSED LICENSE$758.75CBSuwanee PoliceCharges
11/10/2014 10:3411/10/2014 17:10PALACIOS-CRUZENRIQUE9949790999497909 1 LANDS END RD, BUFORD GA 30518FAILURE TO OBEY TRAFFIC CONTROL$123CBSuwanee PoliceCharges
11/10/2014 10:2811/10/2014 13:14PEREZ-VALLEJOJOSEMANUEL9909956499099564 7024 FELTON LANE, MABLETON GA 30126$Gwinnett County PoliceCharges
11/10/2014 10:1611/10/2014 16:54STEPPHENSJAKEVIOUSTAVALAS9951681699516816 1954 BARNETT WEST CT, BUFORD GA 30518* INTERFER. WITH CALL FOR EMER. ASSIST.$1300SBGwinnett County PoliceCharges
11/10/2014 10:1611/10/2014 16:54STEPPHENSJAKEVIOUSTAVALAS9951681699516816 1954 BARNETT WEST CT, BUFORD GA 30518* CRIMINAL TRESPASS$1300SBGwinnett County PoliceCharges
11/10/2014 10:0611/10/2014 14:46JONESALEXANDERROLAND9950330399503303 3702 TREE SUMMIT PKWY, DULUTH GA 30096* DRIVING WHILE LIC SUSP/REVOKED$0NBGwinnett County SheriffCharges
11/10/2014 08:4611/12/2014 15:13MITCHELLMARCIAHOWELL9919961599199615 2849 ADELLA CT, SNELLVILLE GA 30078* DUI-DRUGS$0NBGwinnett County SheriffCharges
11/10/2014 07:56COOPERGARYHENRY9934128299450362 2512 HERNDON RD, LAWRENCEVILLE GA 30043*VGCSA INTENT DISTRIBUTE C/S$0NBGwinnett County PoliceCharges
11/10/2014 07:56COOPERGARYHENRY9934128299450362 2512 HERNDON RD, LAWRENCEVILLE GA 30043HOLD FOR OTHER AGENCY$0NBGwinnett County PoliceCharges
11/10/2014 07:56COOPERGARYHENRY9934128299450362 2512 HERNDON RD, LAWRENCEVILLE GA 30043* PAROLE VIOLATION$0NBGwinnett County PoliceCharges
11/10/2014 06:5211/25/2014 05:23MCCLENDONMARSHALLJAMILE9950849399508493 425 MAGNOLIA ST, MONROE GA 30655Violation of Probation$0NBGwinnett County SheriffCharges
11/10/2014 06:5211/25/2014 05:23MCCLENDONMARSHALLJAMILE9950849399508493 425 MAGNOLIA ST, MONROE GA 30655* VIOLATION OF PROBATION$0NBGwinnett County SheriffCharges
11/10/2014 05:19JEFFERSONMATTHEWDUANE9951681399516813 21 MOCKINGBIRD DR, CARTERSVILLE GA 30120*VGCSA OF C/S$0NBNorcross PoliceCharges
11/10/2014 05:19JEFFERSONMATTHEWDUANE9951681399516813 21 MOCKINGBIRD DR, CARTERSVILLE GA 30120* DUI-DRUGS$1300SBNorcross PoliceCharges
11/10/2014 05:19JEFFERSONMATTHEWDUANE9951681399516813 21 MOCKINGBIRD DR, CARTERSVILLE GA 30120IMPROPER STOP W/IN AN INTERSECTION$1300SBNorcross PoliceCharges
11/10/2014 04:5611/13/2014 10:52GALICIAALBERTORAUL9951681299516812 545 HOLLY RIDGE DR NW APT B, LILBURN GA 30047* DUI-MORE THAN 0.10%BLOOD ALCOHOL$2006ORGwinnett County PoliceCharges
11/10/2014 04:5611/13/2014 10:52GALICIAALBERTORAUL9951681299516812 545 HOLLY RIDGE DR NW APT B, LILBURN GA 30047IMPROPER LANE CHANGE$68ORGwinnett County PoliceCharges
11/10/2014 04:5611/13/2014 10:52GALICIAALBERTORAUL9951681299516812 545 HOLLY RIDGE DR NW APT B, LILBURN GA 30047HOLD FOR IMMIGRATION$0NBGwinnett County PoliceCharges
11/10/2014 04:5611/13/2014 10:52GALICIAALBERTORAUL9951681299516812 545 HOLLY RIDGE DR NW APT B, LILBURN GA 30047*DRIVING W/O LICENSE-FAIL OBTAIN 30 DAYS$705ORGwinnett County PoliceCharges
11/10/2014 04:4711/13/2014 10:52REYESGUILLERMO9500593199004771 2007 BIG HICKORY TRL, DULUTH GA 30096* DUI - DRUGS/ALCOHOL$2006ORGwinnett County PoliceCharges
11/10/2014 04:4711/13/2014 10:52REYESGUILLERMO9500593199004771 2007 BIG HICKORY TRL, DULUTH GA 30096OPEN CONTAINER LAW$299ORGwinnett County PoliceCharges
11/10/2014 04:4711/13/2014 10:52REYESGUILLERMO9500593199004771 2007 BIG HICKORY TRL, DULUTH GA 30096FAILURE TO YIELD FOR EMERGENCY$68ORGwinnett County PoliceCharges
11/10/2014 04:4711/13/2014 10:52REYESGUILLERMO9500593199004771 2007 BIG HICKORY TRL, DULUTH GA 30096EXPIRED LICENSE$68ORGwinnett County PoliceCharges
11/10/2014 04:4711/13/2014 10:52REYESGUILLERMO9500593199004771 2007 BIG HICKORY TRL, DULUTH GA 30096FAILURE TO OBEY TRAFFIC DEVICE$56ORGwinnett County PoliceCharges
11/10/2014 04:4711/13/2014 10:52REYESGUILLERMO9500593199004771 2007 BIG HICKORY TRL, DULUTH GA 30096HOLD FOR IMMIGRATION$0NBGwinnett County PoliceCharges
11/10/2014 04:4711/13/2014 10:52REYESGUILLERMO9500593199004771 2007 BIG HICKORY TRL, DULUTH GA 30096IMPROPER/ERRATIC LANE CHANGE$68ORGwinnett County PoliceCharges
11/10/2014 04:4302/26/2011 10:05REYESGUILLERMO9500593199004771 2120 SARAH CT., NORCROSS GA 30093$Gwinnett County PoliceCharges
11/10/2014 04:4311/10/2014 04:32REYESGUILLERMO9500593199004771 2120 SARAH CT., NORCROSS GA 30093$Gwinnett County PoliceCharges
11/10/2014 04:4311/10/2014 04:35REYESGUILLERMO9500593199004771 2120 SARAH CT., NORCROSS GA 30093$Gwinnett County PoliceCharges
11/10/2014 04:4311/10/2014 04:46REYESGUILLERMO9500593199004771 2120 SARAH CT., NORCROSS GA 30093$Gwinnett County PoliceCharges
11/10/2014 04:4311/10/2014 04:39REYESGUILLERMO9500593199004771 2120 SARAH CT., NORCROSS GA 30093$Gwinnett County PoliceCharges
11/10/2014 04:3802/26/2011 10:05REYESGUILLERMO9500593199004771 2120 SARAH CT., NORCROSS GA 30093$Gwinnett County PoliceCharges
11/10/2014 04:3811/10/2014 04:32REYESGUILLERMO9500593199004771 2120 SARAH CT., NORCROSS GA 30093$Gwinnett County PoliceCharges
11/10/2014 04:3811/10/2014 04:35REYESGUILLERMO9500593199004771 2120 SARAH CT., NORCROSS GA 30093$Gwinnett County PoliceCharges
11/10/2014 04:3811/10/2014 04:39REYESGUILLERMO9500593199004771 2120 SARAH CT., NORCROSS GA 30093$Gwinnett County PoliceCharges
11/10/2014 04:3811/10/2014 04:46REYESGUILLERMO9500593199004771 2120 SARAH CT., NORCROSS GA 30093$Gwinnett County PoliceCharges
11/10/2014 04:3402/26/2011 10:05REYESGUILLERMO9500593199004771 2120 SARAH CT., NORCROSS GA 30093$Gwinnett County PoliceCharges
11/10/2014 04:3411/10/2014 04:32REYESGUILLERMO9500593199004771 2120 SARAH CT., NORCROSS GA 30093$Gwinnett County PoliceCharges
11/10/2014 04:3411/10/2014 04:39REYESGUILLERMO9500593199004771 2120 SARAH CT., NORCROSS GA 30093$Gwinnett County PoliceCharges
11/10/2014 04:3411/10/2014 04:35REYESGUILLERMO9500593199004771 2120 SARAH CT., NORCROSS GA 30093$Gwinnett County PoliceCharges
11/10/2014 04:3411/10/2014 04:46REYESGUILLERMO9500593199004771 2120 SARAH CT., NORCROSS GA 30093$Gwinnett County PoliceCharges
11/10/2014 04:2911/12/2014 05:44SALINASRAQUELASAE9951681199516811 23402 BLACKJACK BEND, SAN ANTONIO TX 78264*DRIVING WHILE UNLICENSED LICENSE$758.75ORSuwanee PoliceCharges
11/10/2014 04:2911/12/2014 05:44SALINASRAQUELASAE9951681199516811 23402 BLACKJACK BEND, SAN ANTONIO TX 78264IMPROPER U-TURN$123ORSuwanee PoliceCharges
11/10/2014 04:2911/12/2014 05:44SALINASRAQUELASAE9951681199516811 23402 BLACKJACK BEND, SAN ANTONIO TX 78264SAFE OPERATION W/PHONE$123ORSuwanee PoliceCharges
11/10/2014 04:2711/10/2014 04:24AYERSJUSTINLYNN9947207899472078 2120 EAGLE NEST BLF, LAWRENCEVILLE GA 30044M/V WRONG SIDE OF ROAD$68SBGwinnett County PoliceCharges
11/10/2014 04:2711/10/2014 04:24AYERSJUSTINLYNN9947207899472078 2120 EAGLE NEST BLF, LAWRENCEVILLE GA 30044IMPROPER U-TURN ON CURVE$68SBGwinnett County PoliceCharges
11/10/2014 04:2711/10/2014 04:24AYERSJUSTINLYNN9947207899472078 2120 EAGLE NEST BLF, LAWRENCEVILLE GA 30044IMPROPER LANE CHANGE$68SBGwinnett County PoliceCharges
11/10/2014 04:2711/10/2014 04:24AYERSJUSTINLYNN9947207899472078 2120 EAGLE NEST BLF, LAWRENCEVILLE GA 30044FAILURE TO MAINTAIN INSURANCE$299SBGwinnett County PoliceCharges
11/10/2014 04:2711/10/2014 04:24AYERSJUSTINLYNN9947207899472078 2120 EAGLE NEST BLF, LAWRENCEVILLE GA 30044* DUI - DRUGS/ALCOHOL$2006SBGwinnett County PoliceCharges
11/10/2014 04:2711/10/2014 04:24AYERSJUSTINLYNN9947207899472078 2120 EAGLE NEST BLF, LAWRENCEVILLE GA 30044EXPIRED REG.$152SBGwinnett County PoliceCharges
11/10/2014 04:2711/20/2014 22:12AYERSJUSTINLYNN9947207899472078 2120 EAGLE NEST BLF, LAWRENCEVILLE GA 30044M/V WRONG SIDE OF ROAD$68SBGwinnett County PoliceCharges
11/10/2014 04:2711/20/2014 22:12AYERSJUSTINLYNN9947207899472078 2120 EAGLE NEST BLF, LAWRENCEVILLE GA 30044* DUI - DRUGS/ALCOHOL$2006SBGwinnett County PoliceCharges
11/10/2014 04:2711/20/2014 22:12AYERSJUSTINLYNN9947207899472078 2120 EAGLE NEST BLF, LAWRENCEVILLE GA 30044FAILURE TO MAINTAIN INSURANCE$299SBGwinnett County PoliceCharges
11/10/2014 04:2711/20/2014 22:12AYERSJUSTINLYNN9947207899472078 2120 EAGLE NEST BLF, LAWRENCEVILLE GA 30044* OBSTRUCTION LAW ENFORCEMENT OFFICER$1300SBGwinnett County PoliceCharges
11/10/2014 04:2711/20/2014 22:12AYERSJUSTINLYNN9947207899472078 2120 EAGLE NEST BLF, LAWRENCEVILLE GA 30044EXPIRED REG.$152SBGwinnett County PoliceCharges
11/10/2014 04:2711/20/2014 22:12AYERSJUSTINLYNN9947207899472078 2120 EAGLE NEST BLF, LAWRENCEVILLE GA 30044IMPROPER LANE CHANGE$68SBGwinnett County PoliceCharges
11/10/2014 04:2711/20/2014 22:12AYERSJUSTINLYNN9947207899472078 2120 EAGLE NEST BLF, LAWRENCEVILLE GA 30044IMPROPER U-TURN ON CURVE$68SBGwinnett County PoliceCharges
11/10/2014 04:2711/10/2014 04:24AYERSJUSTINLYNN9947207899472078 2120 EAGLE NEST BLF, LAWRENCEVILLE GA 30044* OBSTRUCTION LAW ENFORCEMENT OFFICER$1300SBGwinnett County PoliceCharges
11/10/2014 04:2002/26/2011 10:05REYESGUILLERMO9500593199004771 2120 SARAH CT., NORCROSS GA 30093$Gwinnett County PoliceCharges
11/10/2014 04:2011/10/2014 04:32REYESGUILLERMO9500593199004771 2120 SARAH CT., NORCROSS GA 30093$Gwinnett County PoliceCharges
11/10/2014 04:2011/10/2014 04:35REYESGUILLERMO9500593199004771 2120 SARAH CT., NORCROSS GA 30093$Gwinnett County PoliceCharges
11/10/2014 04:2011/10/2014 04:46REYESGUILLERMO9500593199004771 2120 SARAH CT., NORCROSS GA 30093$Gwinnett County PoliceCharges
11/10/2014 04:2011/10/2014 04:39REYESGUILLERMO9500593199004771 2120 SARAH CT., NORCROSS GA 30093$Gwinnett County PoliceCharges
11/10/2014 02:2811/10/2014 04:24AYERSJUSTINLYNN9947207899472078 2120 EAGLE NEST BLF, LAWRENCEVILLE GA 30044M/V WRONG SIDE OF ROAD$68SBGwinnett County PoliceCharges
11/10/2014 02:2811/10/2014 04:24AYERSJUSTINLYNN9947207899472078 2120 EAGLE NEST BLF, LAWRENCEVILLE GA 30044IMPROPER U-TURN ON CURVE$68SBGwinnett County PoliceCharges
11/10/2014 02:2811/10/2014 04:24AYERSJUSTINLYNN9947207899472078 2120 EAGLE NEST BLF, LAWRENCEVILLE GA 30044IMPROPER LANE CHANGE$68SBGwinnett County PoliceCharges
11/10/2014 02:2811/10/2014 04:24AYERSJUSTINLYNN9947207899472078 2120 EAGLE NEST BLF, LAWRENCEVILLE GA 30044* DUI - DRUGS/ALCOHOL$2006SBGwinnett County PoliceCharges
11/10/2014 02:2811/10/2014 04:24AYERSJUSTINLYNN9947207899472078 2120 EAGLE NEST BLF, LAWRENCEVILLE GA 30044* OBSTRUCTION LAW ENFORCEMENT OFFICER$1300SBGwinnett County PoliceCharges
11/10/2014 02:2811/20/2014 22:12AYERSJUSTINLYNN9947207899472078 2120 EAGLE NEST BLF, LAWRENCEVILLE GA 30044IMPROPER U-TURN ON CURVE$68SBGwinnett County PoliceCharges
11/10/2014 02:2811/20/2014 22:12AYERSJUSTINLYNN9947207899472078 2120 EAGLE NEST BLF, LAWRENCEVILLE GA 30044IMPROPER LANE CHANGE$68SBGwinnett County PoliceCharges
11/10/2014 02:2811/20/2014 22:12AYERSJUSTINLYNN9947207899472078 2120 EAGLE NEST BLF, LAWRENCEVILLE GA 30044EXPIRED REG.$152SBGwinnett County PoliceCharges
11/10/2014 02:2811/20/2014 22:12AYERSJUSTINLYNN9947207899472078 2120 EAGLE NEST BLF, LAWRENCEVILLE GA 30044* OBSTRUCTION LAW ENFORCEMENT OFFICER$1300SBGwinnett County PoliceCharges
11/10/2014 02:2811/20/2014 22:12AYERSJUSTINLYNN9947207899472078 2120 EAGLE NEST BLF, LAWRENCEVILLE GA 30044FAILURE TO MAINTAIN INSURANCE$299SBGwinnett County PoliceCharges
11/10/2014 02:2811/20/2014 22:12AYERSJUSTINLYNN9947207899472078 2120 EAGLE NEST BLF, LAWRENCEVILLE GA 30044* DUI - DRUGS/ALCOHOL$2006SBGwinnett County PoliceCharges
11/10/2014 02:2811/20/2014 22:12AYERSJUSTINLYNN9947207899472078 2120 EAGLE NEST BLF, LAWRENCEVILLE GA 30044M/V WRONG SIDE OF ROAD$68SBGwinnett County PoliceCharges
11/10/2014 02:2811/10/2014 04:24AYERSJUSTINLYNN9947207899472078 2120 EAGLE NEST BLF, LAWRENCEVILLE GA 30044EXPIRED REG.$152SBGwinnett County PoliceCharges
11/10/2014 02:2811/10/2014 04:24AYERSJUSTINLYNN9947207899472078 2120 EAGLE NEST BLF, LAWRENCEVILLE GA 30044FAILURE TO MAINTAIN INSURANCE$299SBGwinnett County PoliceCharges
11/10/2014 01:4311/17/2014 12:40GONZALEZ OCHOAABNER9951553899515538 6192 SUSAN LN, ATLANTA GA 30340* OBSTRUCTION LAW ENFORCEMENT OFFICER$1300SBGwinnett County PoliceCharges
11/10/2014 01:4311/17/2014 12:40GONZALEZ OCHOAABNER9951553899515538 6192 SUSAN LN, ATLANTA GA 30340HOLD FOR IMMIGRATION$0NBGwinnett County PoliceCharges
11/10/2014 01:3111/12/2014 13:34FUENTESJUANFRANCISCO9951681099516810 1385 CORNERSTONE PLACE, TUCKER GA 30084* DUI-ALCOHOL$2006CBGwinnett County PoliceCharges
11/10/2014 01:3111/12/2014 13:34FUENTESJUANFRANCISCO9951681099516810 1385 CORNERSTONE PLACE, TUCKER GA 30084SPEEDING$215CBGwinnett County PoliceCharges
11/10/2014 01:3111/12/2014 13:34FUENTESJUANFRANCISCO9951681099516810 1385 CORNERSTONE PLACE, TUCKER GA 30084HOLD FOR IMMIGRATION$0NBGwinnett County PoliceCharges
11/10/2014 01:2811/13/2014 10:51CASTELAN-TOLENTINOSIXTO9926755099267550 1286 SOUTHERN WOOD DR APT 3366L, TUCKER GA 30084* DUI-ALCOHOL$2006ORGwinnett County PoliceCharges
11/10/2014 01:2811/13/2014 10:51CASTELAN-TOLENTINOSIXTO9926755099267550 1286 SOUTHERN WOOD DR APT 3366L, TUCKER GA 30084IMPROPER/ERRATIC LANE CHANGE$68ORGwinnett County PoliceCharges
11/10/2014 01:2811/13/2014 10:51CASTELAN-TOLENTINOSIXTO9926755099267550 1286 SOUTHERN WOOD DR APT 3366L, TUCKER GA 30084* DRIVING WHILE LIC SUSP/REVOKED$705ORGwinnett County PoliceCharges
11/10/2014 01:2811/13/2014 10:51CASTELAN-TOLENTINOSIXTO9926755099267550 1286 SOUTHERN WOOD DR APT 3366L, TUCKER GA 30084HOLD FOR IMMIGRATION$0NBGwinnett County PoliceCharges
11/10/2014 01:2311/10/2014 06:37MIDANGOS-DURANJOSESALOMON9951680999516814 3954 STURGEON CIR, BUFORD GA 30518*NO DRIVERS LICENSE$705CBGwinnett County PoliceCharges
11/10/2014 01:1711/21/2014 16:07LONGJONATHANDAVID9951680899516808 2047 ENGLEWOOD WAY, SNELLVILLE GA 30078@ * BATTERY$3500SBSnellville PoliceCharges
11/10/2014 01:1711/21/2014 16:07LONGJONATHANDAVID9951680899516808 2047 ENGLEWOOD WAY, SNELLVILLE GA 30078@ * AGGRAVATED ASSAULT$0SBSnellville PoliceCharges
11/10/2014 01:1711/21/2014 16:07LONGJONATHANDAVID9951680899516808 2047 ENGLEWOOD WAY, SNELLVILLE GA 30078@ * AGGRAVATED ASSAULT$3500SBSnellville PoliceCharges
11/10/2014 00:5211/10/2014 06:41GVOZDANDREWSAMUEL9951680799516807 5823 MATHIAS WAY, BUFORD GA 30518IMPROPER/ERRATIC LANE CHANGE$68CBGwinnett County PoliceCharges
11/10/2014 00:5211/10/2014 06:41GVOZDANDREWSAMUEL9951680799516807 5823 MATHIAS WAY, BUFORD GA 30518NO BRAKE LIGHTS$56CBGwinnett County PoliceCharges
11/10/2014 00:5211/10/2014 06:41GVOZDANDREWSAMUEL9951680799516807 5823 MATHIAS WAY, BUFORD GA 30518OPEN CONTAINER LAW$299CBGwinnett County PoliceCharges
11/10/2014 00:5211/10/2014 06:41GVOZDANDREWSAMUEL9951680799516807 5823 MATHIAS WAY, BUFORD GA 30518* DUI-ALCOHOL$2006CBGwinnett County PoliceCharges
11/10/2014 00:4411/12/2014 10:40MUSKINWILLIEBEKEDIUS9951680699516806 3789 LAWRENCEVILLE HWY, LAWRENCEVILLE GA 30044HOLD FOR OTHER AGENCY$0NBLilburn PoliceCharges
11/10/2014 00:4211/10/2014 05:18HERONLANCEBRENDAN9940717999407179 39 WHITE ROSE CT, LOGANVILLE GA 30052POSS OF < 1 OZ OF MARIJ.$585CBGwinnett County PoliceCharges
11/10/2014 00:2711/10/2014 11:13BEDOLLAALEXISMARGARITA9951680599516805 723 ALVIS LN, NORCROSS GA 30093@ * THEFT BY SHOPLIFTING$1300SBGwinnett County PoliceCharges
11/10/2014 00:2511/10/2014 05:34PADRONLORENA9951680499516804 723 ALVIS LN, NORCROSS GA 30093@ * THEFT BY SHOPLIFTING$1300SBGwinnett County PoliceCharges
11/10/2014 00:1011/10/2014 12:13REDDYCHARLESROBINSON9913456199134561 303 BARBADOS LANE, SUWANEE GA 30024*DUI$1419.5CBSuwanee PoliceCharges
11/10/2014 00:0111/10/2014 12:45SCHIEBOUTJOELGREGORY9951680399516803 2088 HAWTHORNE DR, PELLA IA 50219* DUI-ALCOHOL$2006SBGwinnett County PoliceCharges
11/09/2014 23:3811/11/2014 00:19TALLENTMICHAELPATTON9500060995000609 6261 SADDLEHORSE DR, FLOWERY BRANCH GA 30542*DUI$1419.5SBAuburn PDCharges
11/09/2014 23:3811/11/2014 00:19TALLENTMICHAELPATTON9500060995000609 6261 SADDLEHORSE DR, FLOWERY BRANCH GA 30542KNOWINGLY DRIVING MV W/SUSP/REV REG$727SBAuburn PDCharges
11/09/2014 23:3811/11/2014 00:19TALLENTMICHAELPATTON9500060995000609 6261 SADDLEHORSE DR, FLOWERY BRANCH GA 30542DRIVING IN VIOL. OF COND. OF LIMITED PER$191SBAuburn PDCharges
11/09/2014 23:3811/11/2014 00:19TALLENTMICHAELPATTON9500060995000609 6261 SADDLEHORSE DR, FLOWERY BRANCH GA 30542SPEEDING 24 -33 OVER$355SBAuburn PDCharges
11/09/2014 23:3311/11/2014 23:11COOPERJERRYANTHONY9942627399426273 657 TROTTERS TRAIL, LAWRENCEVILLE GA 30045LOITERING$367ORLawrenceville PoliceCharges
11/09/2014 23:3311/11/2014 23:11COOPERJERRYANTHONY9942627399426273 657 TROTTERS TRAIL, LAWRENCEVILLE GA 30045PUBLIC DRUNKENNESS$213ORLawrenceville PoliceCharges
11/09/2014 23:3111/10/2014 15:06HUNTERSHAYNAMISHELL9950388099503880 2161 LAKEWAY DR, DACULA GA 30019SHOPLIFTING LESS THAN $300.00$285CBAuburn PDCharges
11/09/2014 23:1511/25/2014 23:55CARRIONHENRYLEON9938351599383515APT 610 4350 JIMMY CARTER BLVD, NORCROSS GA 30093* GIVING FALSE NAME OR INFORMATION$2400SBGwinnett County SheriffCharges
11/09/2014 23:1511/25/2014 23:55CARRIONHENRYLEON9938351599383515APT 610 4350 JIMMY CARTER BLVD, NORCROSS GA 30093* PAROLE VIOLATION$0NBGwinnett County SheriffCharges
11/09/2014 23:0411/10/2014 06:15DURHAMADDISONBROOKS9951680299516802 713 SLATER MILL CT, MARIETTA GA 30068* DUI-ALCOHOL$2006SBGwinnett County PoliceCharges
11/09/2014 23:0411/10/2014 06:15DURHAMADDISONBROOKS9951680299516802 713 SLATER MILL CT, MARIETTA GA 30068IMPROPER/ERRATIC LANE CHANGE$68SBGwinnett County PoliceCharges
11/09/2014 22:4811/10/2014 20:38APLINERICGRAY9951680199516801 797 CURRY STATION RD, MUNFORD AL 36268* DUI-ALCOHOL$2006SBGwinnett County PoliceCharges
11/09/2014 22:4811/10/2014 20:38APLINERICGRAY9951680199516801 797 CURRY STATION RD, MUNFORD AL 36268IMPROPER LANE CHANGE$68SBGwinnett County PoliceCharges
11/09/2014 22:4811/10/2014 20:38APLINERICGRAY9951680199516801 797 CURRY STATION RD, MUNFORD AL 36268SPEEDING$180SBGwinnett County PoliceCharges
11/09/2014 22:4811/10/2014 20:38APLINERICGRAY9951680199516801 797 CURRY STATION RD, MUNFORD AL 36268OPEN CONTAINER LAW$299SBGwinnett County PoliceCharges
11/09/2014 22:2411/10/2014 04:13ORELLANAARIELLOBELLE9951680099516800 3133 JODECO DR, JONESBORO GA 30326@ * BATTERY$2950SBGwinnett County PoliceCharges
11/09/2014 22:1811/10/2014 03:43SAILORAMY9951679999516799 970 PEACHTREE INDUSTRIAL BLVD SUITE 100, SUWANEE GA 30024HEADLIGHT REQUIREMENT$123SBSuwanee PoliceCharges
11/09/2014 22:1811/10/2014 03:43SAILORAMY9951679999516799 970 PEACHTREE INDUSTRIAL BLVD SUITE 100, SUWANEE GA 30024SPEED CONST 10 - 14 OVER$201SBSuwanee PoliceCharges
11/09/2014 22:1811/10/2014 03:43SAILORAMY9951679999516799 970 PEACHTREE INDUSTRIAL BLVD SUITE 100, SUWANEE GA 30024*SUSPENDED LICENSE$1176.25SBSuwanee PoliceCharges
11/09/2014 22:1811/10/2014 03:43SAILORAMY9951679999516799 970 PEACHTREE INDUSTRIAL BLVD SUITE 100, SUWANEE GA 30024NO DECAL/PREVIOUS PURCHASED NOT ATTACHED$51SBSuwanee PoliceCharges
11/09/2014 22:0311/13/2014 17:32HODGEJONATHANLEON9941977099419770 4402 HIDDEN BLUFF WAY, SNELLVILLE GA 30039Violation of Probation$0NBGwinnett County SheriffCharges
11/09/2014 22:0311/13/2014 17:32HODGEJONATHANLEON9941977099419770 4402 HIDDEN BLUFF WAY, SNELLVILLE GA 30039* VIOLATION OF PROBATION$0NBGwinnett County SheriffCharges
11/09/2014 21:4511/10/2014 01:15SIMSJAMES9951679899516798 3250 MERCER UNIVERSITY DR APT 203, ATLANTA GA 30341Failure to Appear$350CBNorcross PoliceCharges
11/09/2014 21:2411/10/2014 00:13OCAINMORALEVONETTA9951679799516797 727 DEAN RD, SUWANEE GA 30024Failure to Appear$265CBGwinnett County SheriffCharges
11/09/2014 21:08MOWATTJOSEPHCORY9951679699516796 321 CREEKSIDE DR NW, KENNESAW GA 30144HOLD FOR OTHER AGENCY$0NBGwinnett County SheriffCharges
11/09/2014 21:08MOWATTJOSEPHCORY9951679699516796 321 CREEKSIDE DR NW, KENNESAW GA 30144* CREDIT CARD FRAUD$2400SBGwinnett County SheriffCharges
11/09/2014 21:08MOWATTJOSEPHCORY9951679699516796 321 CREEKSIDE DR NW, KENNESAW GA 30144* CREDIT CARD FRAUD$2400SBGwinnett County SheriffCharges
11/09/2014 21:0511/26/2014 21:05RODRIGUEZ-AYALANELSONJAVIER9935784499440458 978 LEGACY PARK DR APT 2228, LAWRENCEVILLE GA 30043Violation of Probation$0NBGwinnett County PoliceCharges
11/09/2014 21:0511/26/2014 21:05RODRIGUEZ-AYALANELSONJAVIER9935784499440458 978 LEGACY PARK DR APT 2228, LAWRENCEVILLE GA 30043FAILURE TO APPEAR$0NBGwinnett County PoliceCharges
11/09/2014 21:0511/26/2014 21:05RODRIGUEZ-AYALANELSONJAVIER9935784499440458 978 LEGACY PARK DR APT 2228, LAWRENCEVILLE GA 30043Violation of Probation$0NBGwinnett County PoliceCharges
11/09/2014 21:0511/26/2014 21:05RODRIGUEZ-AYALANELSONJAVIER9935784499440458 978 LEGACY PARK DR APT 2228, LAWRENCEVILLE GA 30043HOLD FOR IMMIGRATION$0NBGwinnett County PoliceCharges
11/09/2014 21:0511/26/2014 21:05RODRIGUEZ-AYALANELSONJAVIER9935784499440458 978 LEGACY PARK DR APT 2228, LAWRENCEVILLE GA 30043Violation of Probation$204FIGwinnett County PoliceCharges
11/09/2014 21:0511/26/2014 21:05RODRIGUEZ-AYALANELSONJAVIER9935784499440458 978 LEGACY PARK DR APT 2228, LAWRENCEVILLE GA 30043* VIOLATION OF PROBATION$0NBGwinnett County PoliceCharges
11/09/2014 21:0511/26/2014 21:05RODRIGUEZ-AYALANELSONJAVIER9935784499440458 978 LEGACY PARK DR APT 2228, LAWRENCEVILLE GA 30043FAILURE TO APPEAR$0NBGwinnett County PoliceCharges
11/09/2014 20:56GALVANJUANMOSQUEDA9947900199479001 4234 WOODWIND COURT, DORAVILLE GA 30360*VGCSA OF C/S$5700SBGwinnett County PoliceCharges
11/09/2014 20:56GALVANJUANMOSQUEDA9947900199479001 4234 WOODWIND COURT, DORAVILLE GA 30360*LESS THAN AN OZ OF MARIJ.$2400SBGwinnett County PoliceCharges
11/09/2014 20:56GALVANJUANMOSQUEDA9947900199479001 4234 WOODWIND COURT, DORAVILLE GA 30360* VIOLATION OF PROBATION$0NBGwinnett County PoliceCharges
11/09/2014 20:56GALVANJUANMOSQUEDA9947900199479001 4234 WOODWIND COURT, DORAVILLE GA 30360* GIVING FALSE NAME OR INFORMATION$1300SBGwinnett County PoliceCharges
11/09/2014 20:56GALVANJUANMOSQUEDA9947900199479001 4234 WOODWIND COURT, DORAVILLE GA 30360* VIOLATION OF PROBATION$0NBGwinnett County PoliceCharges
11/09/2014 20:56GALVANJUANMOSQUEDA9947900199479001 4234 WOODWIND COURT, DORAVILLE GA 30360Violation of Probation$0NBGwinnett County PoliceCharges
11/09/2014 20:4011/11/2014 21:29STEWARTBOBBYLEE9910279699102797 575 DAVIS RD, LAWRENCEVILLE GA 30045@ * SIMPLE ASSAULT$1300SBLawrenceville PoliceCharges
11/09/2014 20:2911/10/2014 16:52DAVISDOUGLASPAUL9951679599516795 908 CREEKMORE LN, LOGANVILLE GA 30052* DRIVING WHILE LIC SUSP/REVOKED$705SBGwinnett County PoliceCharges
11/09/2014 20:2911/10/2014 16:52DAVISDOUGLASPAUL9951679599516795 908 CREEKMORE LN, LOGANVILLE GA 30052FAILURE TO MAINTAIN INSURANCE$299SBGwinnett County PoliceCharges
11/09/2014 20:2211/09/2014 22:50YUNHEY9951679499516794 108 PARKFIELD LANE, ELGIN SC 29045FAILURE TO APPEAR$88CBGwinnett County SheriffCharges
11/09/2014 19:2111/10/2014 13:16SIMMONSSHARRESAALEXIS9949974699499746 921 BUCKLEY PL, NORCROSS GA 30093Violation of Probation$0NBGwinnett County PoliceCharges
11/09/2014 18:25TAYLORDEMETRIUSEDWARD9904224299042242 1071 LEVEL CREEK RD, BUFORD GA 30519@ * BATTERY$0NBGwinnett County PoliceCharges
11/09/2014 18:25TAYLORDEMETRIUSEDWARD9904224299042242 1071 LEVEL CREEK RD, BUFORD GA 30519* VIOLATION OF PROBATION$0NBGwinnett County PoliceCharges
11/09/2014 18:19PARKERTHEOANDREW9929373099293730 507 POND LILLIES ROAD, LAWRENCEVILLE GA 30045FTA BENCH WARRANT$788CBLawrenceville PoliceCharges
11/09/2014 18:19PARKERTHEOANDREW9929373099293730 507 POND LILLIES ROAD, LAWRENCEVILLE GA 30045FAILURE TO APPEAR$432CBLawrenceville PoliceCharges
11/09/2014 18:19PARKERTHEOANDREW9929373099293730 507 POND LILLIES ROAD, LAWRENCEVILLE GA 30045FAILURE TO APPEAR$196CBLawrenceville PoliceCharges
11/09/2014 18:19PARKERTHEOANDREW9929373099293730 507 POND LILLIES ROAD, LAWRENCEVILLE GA 30045FAILURE TO APPEAR$367CBLawrenceville PoliceCharges
11/09/2014 18:13MILLERJOHNNYMURRY9923961899239618 1747 S ALVARADO TER SW, LAWRENCEVILLE GA 30311* CRIMINAL TRESPASS$1300SBGwinnett County PoliceCharges
11/09/2014 18:0811/18/2014 19:20FOXKADARRIOUSMARION9951679399516793 419 HURRICANE SHOALS RD APT D3, LAWRENCEVILLE GA 30046@ * BATTERY$2950SBLawrenceville PoliceCharges
11/09/2014 18:0811/18/2014 19:20FOXKADARRIOUSMARION9951679399516793 419 HURRICANE SHOALS RD APT D3, LAWRENCEVILLE GA 30046* INTERFER. WITH CALL FOR EMER. ASSIST.$1300SBLawrenceville PoliceCharges
11/09/2014 18:0811/18/2014 19:20FOXKADARRIOUSMARION9951679399516793 419 HURRICANE SHOALS RD APT D3, LAWRENCEVILLE GA 30046*LESS THAN AN OZ OF MARIJ.$1300SBLawrenceville PoliceCharges
11/09/2014 18:0511/13/2014 14:39HENNEMATTHEWCHARLES9950816599508165 610 CONCEPTS 21 DR, NORCROSS GA 30092@ * BATTERY$1300SBGwinnett County PoliceCharges
11/09/2014 18:0511/13/2014 14:39HENNEMATTHEWCHARLES9950816599508165 610 CONCEPTS 21 DR, NORCROSS GA 30092* CRIMINAL TRESPASS$1300SBGwinnett County PoliceCharges
11/09/2014 17:5011/10/2014 01:59CARLYLECHYRAN9951679299516792 2304 TREEHOUSE PKWY, NORCROSS GA 30093@ * SIMPLE BATTERY$2400SBGwinnett County SheriffCharges
11/09/2014 17:49DAVISSPENCERLEWIS9937187999371879 3067 LEELAND RD, DECATUR GA 30032* VIOLATION OF PROBATION$0NBGwinnett County SheriffCharges
11/09/2014 17:44GATESDAMONEVONZEAL9940723799407237 3321 HART WAY, SNELLVILLE GA 30039* VIOLATION OF PROBATION$0NBGwinnett County SheriffCharges
11/09/2014 17:40FINLEYREGINALDLAMAR9937160799371607 1435 BOGGS RD APT 516, DULUTH GA 30096* VIOLATION OF PROBATION$0NBGwinnett County SheriffCharges
11/09/2014 17:40FINLEYREGINALDLAMAR9937160799371607 1435 BOGGS RD APT 516, DULUTH GA 30096@ * BATTERY$3500SBGwinnett County SheriffCharges
11/09/2014 17:3111/11/2014 16:24WOOLASTONFAITHKRYSTAL9946488599464885 493 STONE MOUNTAIN ST APT V2, LAWRENCEVILLE GA 30446FAILURE TO APPEAR$0NBGwinnett County SheriffCharges
11/09/2014 17:3111/11/2014 16:24WOOLASTONFAITHKRYSTAL9946488599464885 493 STONE MOUNTAIN ST APT V2, LAWRENCEVILLE GA 30446Violation of Probation$0NBGwinnett County SheriffCharges
11/09/2014 17:0411/09/2014 20:59HARDEMANJOSHUALAFABIAN9951679199516791 2219 CLANTON TER, DECATUR GA 30034FTA BENCH WARRANT$215CBLawrenceville PoliceCharges
11/09/2014 16:5511/09/2014 21:00HELMSPARKERVANCE9951679099516790 2276 OAKAWANA DR NE, ATLANTA GA 30345FTA BENCH WARRANT$639CBLawrenceville PoliceCharges
11/09/2014 16:3211/11/2014 15:36COLESDAMARRRICHER9903419399101740 380 FREEPORT DRIVE, LAWRENCEVILLE GA 30046AGGRESSIVE SOLICITATION PROHIBITED$140ORGwinnett County PoliceCharges
11/09/2014 16:0711/11/2014 18:15WALLACENICHOLASANTHONY9951259299512592 287 E CROGAN ST APT 1133, LAWRENCEVILLE GA 30046FTA BENCH WARRANT$891CBLawrenceville PoliceCharges
11/09/2014 15:5211/11/2014 16:02JONESBRETTALAN9924376699243766 765 MARTHAS DR, LAWRENCEVILLE GA 30045* THEFT BY SHOPLIFTING$788ORLawrenceville PoliceCharges
11/09/2014 15:4711/19/2014 17:04BRADSHAWJULIANTHOMAS9945686299456862 184 PARKS MILL RD APT 23, AUBURN GA 30011Failure to Appear$1154CBAuburn PDCharges
11/09/2014 15:2811/10/2014 04:11BYNUMKEISHADESHAN9929537499295376 136 NORTH CHESTNUT STREET, LANCASTER PA 19022FAILURE TO APPEAR$750CBDuluth PoliceCharges
11/09/2014 15:2811/10/2014 04:11BYNUMKEISHADESHAN9929537499295376 136 NORTH CHESTNUT STREET, LANCASTER PA 19022FAILURE TO APPEAR$330CBDuluth PoliceCharges
11/09/2014 15:0811/09/2014 22:55OLOFINTUYIADEBOWALEOLUMIDE9951678999516789 1401 SILVER LAKE DR, NORCROSS GA 30093Failure to Appear$1170CBNorcross PoliceCharges
11/09/2014 15:0611/09/2014 22:13GONZALEZ-MARTINEZDANIEL9949122299491222 254 LAKE DRIVE, DORAVILLE GA 30340@ * BATTERY$1300CBGwinnett County PoliceCharges
11/09/2014 14:3811/12/2014 15:27NOELMODELINE9951678899516788 1235 ALLGOOD RD, STONE MOUNTAIN GA 30083HOLD FOR OTHER AGENCY$0NBGwinnett County PoliceCharges
11/09/2014 14:3811/12/2014 15:27NOELMODELINE9951678899516788 1235 ALLGOOD RD, STONE MOUNTAIN GA 30083FOLLOWING TOO CLOSELY$96ORGwinnett County PoliceCharges
11/09/2014 14:3811/12/2014 15:27NOELMODELINE9951678899516788 1235 ALLGOOD RD, STONE MOUNTAIN GA 30083FAILURE TO MAINTAIN INSURANCE$299ORGwinnett County PoliceCharges
11/09/2014 14:3811/12/2014 15:27NOELMODELINE9951678899516788 1235 ALLGOOD RD, STONE MOUNTAIN GA 30083* DRIVING WHILE LIC SUSP/REVOKED$705ORGwinnett County PoliceCharges
11/09/2014 13:1111/11/2014 00:16JACKSONBRETTANTHONY9951678599516785 1101 PRIMROSE VIEW CIR, LAWRENCEVILLE GA 30044@ * THEFT BY SHOPLIFTING$1300SBLilburn PoliceCharges
11/09/2014 12:4611/09/2014 15:32PERKINSALLENROMERO9908207699082076 222 CARTER RD, AUBURN GA 30011*DRIVING WHILE LIC. SUSP/REVOKED$707CBAuburn PDCharges
11/09/2014 12:4611/09/2014 15:32PERKINSALLENROMERO9908207699082076 222 CARTER RD, AUBURN GA 30011FAILURE TO STOP$168CBAuburn PDCharges
11/09/2014 12:3411/09/2014 16:37SERNA-RODRIGUEZMARGARET9951678499516784 408 CHARLESTON LN, LAWRENCEVILLE GA 30046NEW RESIDENT - 30 DAYS TO OBTAIN LICENSE$803SBLawrenceville PoliceCharges
11/09/2014 12:3411/09/2014 16:37SERNA-RODRIGUEZMARGARET9951678499516784 408 CHARLESTON LN, LAWRENCEVILLE GA 30046FAILURE TO STOP FOR STOP SIGN$117SBLawrenceville PoliceCharges
11/09/2014 12:14THOMASJAMESWILLIE9945178299451782 504 STRICKLAND AVE, BLACKSHEAR GA 31516FAILURE TO APPEAR$0NBGwinnett County SheriffCharges
11/09/2014 12:14THOMASJAMESWILLIE9945178299451782 504 STRICKLAND AVE, BLACKSHEAR GA 31516HOLD FOR OTHER AGENCY$0NBGwinnett County SheriffCharges
11/09/2014 11:4811/09/2014 15:49BELINVIRNALRENAY9936925899369258 1798 LEGRAND CIR, LAWRENCEVILLE GA 30043@ * BATTERY$1300SBGwinnett County PoliceCharges
11/09/2014 11:3711/09/2014 18:04GARZALUISKRUKEMBERG-HERNANDEZ9901369299013692 927 NORTHWOODS LAKE CT, DULUTH GA 30096@ * BATTERY$1300CBDuluth PoliceCharges
11/09/2014 11:2311/10/2014 00:48CHICAS-POSADAGUSTAVOADOLFO9944265799442657 1099 DIXIE BELLE CT, LAWRENCEVILLE GA 30045SPEEDING$215SBGwinnett County PoliceCharges
11/09/2014 11:2311/10/2014 00:48CHICAS-POSADAGUSTAVOADOLFO9944265799442657 1099 DIXIE BELLE CT, LAWRENCEVILLE GA 30045* DRIVING WHILE LIC SUSP/REVOKED$705SBGwinnett County PoliceCharges
11/09/2014 11:2311/10/2014 00:48CHICAS-POSADAGUSTAVOADOLFO9944265799442657 1099 DIXIE BELLE CT, LAWRENCEVILLE GA 30045HOLD FOR OTHER AGENCY$0NBGwinnett County PoliceCharges
11/09/2014 10:3611/10/2014 12:57ARELLANOS-PADILLARICARDO9907157399071573 750 WINDEMERE OAK WAY NW, LILBURN GA 30047*NO DRIVERS LICENSE$705CBGwinnett County PoliceCharges
11/09/2014 10:3611/10/2014 12:57ARELLANOS-PADILLARICARDO9907157399071573 750 WINDEMERE OAK WAY NW, LILBURN GA 30047AT LEAST ONE BRAKE LIGHT$68CBGwinnett County PoliceCharges
11/09/2014 10:3611/10/2014 12:57ARELLANOS-PADILLARICARDO9907157399071573 750 WINDEMERE OAK WAY NW, LILBURN GA 30047HOLD FOR IMMIGRATION$0NBGwinnett County PoliceCharges
11/09/2014 10:2011/09/2014 16:22MANDAVIADEEPAKC9951678299516782 7920 WENTWORTH DR, DULUTH GA 30097SPEEDING$223CBSuwanee PoliceCharges
11/09/2014 10:2011/09/2014 16:22MANDAVIADEEPAKC9951678299516782 7920 WENTWORTH DR, DULUTH GA 30097HOLD FOR OTHER AGENCY$0NBSuwanee PoliceCharges
11/09/2014 08:1211/09/2014 12:04CLEBERTRUSSELL9922311599223115 1372 BENJAMIN CT, LAWRENCEVILLE GA 30043SPEEDING$215CBGwinnett County PoliceCharges
11/09/2014 08:1211/09/2014 12:04CLEBERTRUSSELL9922311599223115 1372 BENJAMIN CT, LAWRENCEVILLE GA 30043FAILURE TO APPEAR$196CBGwinnett County PoliceCharges
11/09/2014 06:4211/09/2014 12:09STACKSTHANGKIM9951677899516778 2C ROCKLAND TRL, SHARPSBURG GA 30277AFTER HOUR SALE OF ALC$410CBGwinnett County PoliceCharges
11/09/2014 06:4211/09/2014 12:09STACKSTHANGKIM9951677899516778 2C ROCKLAND TRL, SHARPSBURG GA 30277SALE BEER/WINE - ESTABLISHED KITCHEN$410CBGwinnett County PoliceCharges
11/09/2014 06:2811/09/2014 13:18TAMARAJUANCARLOS9951677799516777 2522 WILD ROSE CIR, LAWRENCEVILLE GA 30044@ * BATTERY$1300SBGwinnett County PoliceCharges
11/09/2014 06:2511/09/2014 10:53TAMARANANCYJUDITH9951677699516776 2522 WILD ROSE CIR, LAWRENCEVILLE GA 30044@ * BATTERY$1300SBGwinnett County PoliceCharges
11/09/2014 06:1811/11/2014 05:51OSEI-CHEREMATENGPAPA-NYASEKOFI9951677599516775 2538 GARRETT CIR, DORAVILLE GA 30360IMPROPER NAME AND ADDRESS$40ORGwinnett County PoliceCharges
11/09/2014 06:1811/11/2014 05:51OSEI-CHEREMATENGPAPA-NYASEKOFI9951677599516775 2538 GARRETT CIR, DORAVILLE GA 30360FOLLOWING TOO CLOSE$96ORGwinnett County PoliceCharges
11/09/2014 06:1811/11/2014 05:51OSEI-CHEREMATENGPAPA-NYASEKOFI9951677599516775 2538 GARRETT CIR, DORAVILLE GA 30360* DUI-ALCOHOL$2006ORGwinnett County PoliceCharges
11/09/2014 06:1211/22/2014 16:51RUMPHHAROLDDEMETRIUS9938067599380675 794 COLE RD SW, LILBURN GA 30047FAILURE TO APPEAR$0NBGwinnett County PoliceCharges
11/09/2014 06:1211/22/2014 16:51RUMPHHAROLDDEMETRIUS9938067599380675 794 COLE RD SW, LILBURN GA 30047@ * BATTERY$5700SBGwinnett County PoliceCharges
11/09/2014 06:0111/09/2014 13:18QUINONEZJOSHUA9951677399516773 371 RADNER RUN, LAWRENCEVILL